<?xml version="1.0" encoding="UTF-8" standalone="no" ?>
<gpx xmlns="http://www.topografix.com/GPX/1/1" xmlns:xsi="http://www.w3.org/2001/XMLSchema-instance" xsi:schemaLocation="http://www.topografix.com/GPX/1/1 http://www.topografix.com/GPX/1/1/gpx.xsd" version="1.1" creator="VisuGPX - https://www.visugpx.com">
  <metadata>
    <name>Balade hivernale</name>
    <desc><![CDATA[Balade effectuée du 9 décembre 2022 au 7 janvier 2023.]]></desc>
  </metadata>
  <trk>
    <name><![CDATA[La Rochelle - St-Agnant]]></name>
    <extensions>
      <line xmlns="http://www.topografix.com/GPX/gpx_style/0/2">
        <color>ff0000</color>
        <width>4</width>
      </line>
    </extensions>
    <trkseg>
      <trkpt lat="46.16615" lon="-1.17898">
        <ele>63.543603</ele>
        <time>2022-12-21T09:55:16.324Z</time>
      </trkpt>
      <trkpt lat="46.1661" lon="-1.17879">
        <ele>63.543603</ele>
        <time>2022-12-21T09:56:16.309Z</time>
      </trkpt>
      <trkpt lat="46.16601" lon="-1.17881">
        <ele>63.543603</ele>
        <time>2022-12-21T09:56:27.327Z</time>
      </trkpt>
      <trkpt lat="46.16592" lon="-1.17888">
        <ele>63.543603</ele>
        <time>2022-12-21T09:56:39.306Z</time>
      </trkpt>
      <trkpt lat="46.16587" lon="-1.17901">
        <ele>63.543603</ele>
        <time>2022-12-21T09:57:00.313Z</time>
      </trkpt>
      <trkpt lat="46.16586" lon="-1.17914">
        <ele>63.543603</ele>
        <time>2022-12-21T09:57:05.307Z</time>
      </trkpt>
      <trkpt lat="46.16577" lon="-1.17911">
        <ele>63.543603</ele>
        <time>2022-12-21T09:57:10.315Z</time>
      </trkpt>
      <trkpt lat="46.16575" lon="-1.17895">
        <ele>63.543603</ele>
        <time>2022-12-21T09:57:15.328Z</time>
      </trkpt>
      <trkpt lat="46.16574" lon="-1.1788">
        <ele>63.543603</ele>
        <time>2022-12-21T09:57:19.338Z</time>
      </trkpt>
      <trkpt lat="46.16571" lon="-1.17863">
        <ele>63.553585</ele>
        <time>2022-12-21T09:57:23.330Z</time>
      </trkpt>
      <trkpt lat="46.16567" lon="-1.17851">
        <ele>63.568224</ele>
        <time>2022-12-21T09:57:27.315Z</time>
      </trkpt>
      <trkpt lat="46.16565" lon="-1.17837">
        <ele>63.584725</ele>
        <time>2022-12-21T09:57:31.312Z</time>
      </trkpt>
      <trkpt lat="46.16562" lon="-1.17825">
        <ele>63.599406</ele>
        <time>2022-12-21T09:57:34.320Z</time>
      </trkpt>
      <trkpt lat="46.16558" lon="-1.17808">
        <ele>63.618326</ele>
        <time>2022-12-21T09:57:38.308Z</time>
      </trkpt>
      <trkpt lat="46.16556" lon="-1.17792">
        <ele>63.636718</ele>
        <time>2022-12-21T09:57:42.321Z</time>
      </trkpt>
      <trkpt lat="46.16554" lon="-1.17775">
        <ele>63.655881</ele>
        <time>2022-12-21T09:57:46.317Z</time>
      </trkpt>
      <trkpt lat="46.16553" lon="-1.17761">
        <ele>63.672001</ele>
        <time>2022-12-21T09:57:49.325Z</time>
      </trkpt>
      <trkpt lat="46.16551" lon="-1.17744">
        <ele>63.690806</ele>
        <time>2022-12-21T09:57:53.312Z</time>
      </trkpt>
      <trkpt lat="46.16549" lon="-1.17731">
        <ele>63.705812</ele>
        <time>2022-12-21T09:57:56.311Z</time>
      </trkpt>
      <trkpt lat="46.16547" lon="-1.17716">
        <ele>63.723497</ele>
        <time>2022-12-21T09:57:59.334Z</time>
      </trkpt>
      <trkpt lat="46.16546" lon="-1.17703">
        <ele>63.738227</ele>
        <time>2022-12-21T09:58:02.313Z</time>
      </trkpt>
      <trkpt lat="46.16544" lon="-1.17688">
        <ele>63.754611</ele>
        <time>2022-12-21T09:58:05.335Z</time>
      </trkpt>
      <trkpt lat="46.16541" lon="-1.17675">
        <ele>63.769608</ele>
        <time>2022-12-21T09:58:08.318Z</time>
      </trkpt>
      <trkpt lat="46.1654" lon="-1.17662">
        <ele>63.784178</ele>
        <time>2022-12-21T09:58:11.341Z</time>
      </trkpt>
      <trkpt lat="46.16538" lon="-1.17648">
        <ele>63.800079</ele>
        <time>2022-12-21T09:58:14.324Z</time>
      </trkpt>
      <trkpt lat="46.16535" lon="-1.17635">
        <ele>63.815463</ele>
        <time>2022-12-21T09:58:17.334Z</time>
      </trkpt>
      <trkpt lat="46.16528" lon="-1.17624">
        <ele>63.832734</ele>
        <time>2022-12-21T09:58:21.324Z</time>
      </trkpt>
      <trkpt lat="46.16519" lon="-1.17624">
        <ele>63.877157</ele>
        <time>2022-12-21T09:58:24.312Z</time>
      </trkpt>
      <trkpt lat="46.16509" lon="-1.17626">
        <ele>63.925384</ele>
        <time>2022-12-21T09:58:27.321Z</time>
      </trkpt>
      <trkpt lat="46.16499" lon="-1.17628">
        <ele>63.978492</ele>
        <time>2022-12-21T09:58:30.315Z</time>
      </trkpt>
      <trkpt lat="46.16488" lon="-1.17629">
        <ele>64.031567</ele>
        <time>2022-12-21T09:58:33.323Z</time>
      </trkpt>
      <trkpt lat="46.16478" lon="-1.17632">
        <ele>64.083702</ele>
        <time>2022-12-21T09:58:36.309Z</time>
      </trkpt>
      <trkpt lat="46.16466" lon="-1.17634">
        <ele>64.14334</ele>
        <time>2022-12-21T09:58:40.321Z</time>
      </trkpt>
      <trkpt lat="46.16456" lon="-1.17637">
        <ele>64.194308</ele>
        <time>2022-12-21T09:58:43.336Z</time>
      </trkpt>
      <trkpt lat="46.16447" lon="-1.17639">
        <ele>64.244098</ele>
        <time>2022-12-21T09:58:46.339Z</time>
      </trkpt>
      <trkpt lat="46.16438" lon="-1.17643">
        <ele>64.290669</ele>
        <time>2022-12-21T09:58:49.319Z</time>
      </trkpt>
      <trkpt lat="46.16427" lon="-1.17646">
        <ele>64.34287</ele>
        <time>2022-12-21T09:58:53.314Z</time>
      </trkpt>
      <trkpt lat="46.1642" lon="-1.17636">
        <ele>64.394969</ele>
        <time>2022-12-21T09:58:58.341Z</time>
      </trkpt>
      <trkpt lat="46.16418" lon="-1.17622">
        <ele>64.442895</ele>
        <time>2022-12-21T09:59:02.308Z</time>
      </trkpt>
      <trkpt lat="46.16416" lon="-1.17609">
        <ele>64.488752</ele>
        <time>2022-12-21T09:59:07.316Z</time>
      </trkpt>
      <trkpt lat="46.16414" lon="-1.17595">
        <ele>64.539512</ele>
        <time>2022-12-21T09:59:11.311Z</time>
      </trkpt>
      <trkpt lat="46.16413" lon="-1.17578">
        <ele>64.600687</ele>
        <time>2022-12-21T09:59:15.314Z</time>
      </trkpt>
      <trkpt lat="46.16412" lon="-1.17563">
        <ele>64.651184</ele>
        <time>2022-12-21T09:59:18.329Z</time>
      </trkpt>
      <trkpt lat="46.1641" lon="-1.17548">
        <ele>64.704598</ele>
        <time>2022-12-21T09:59:21.319Z</time>
      </trkpt>
      <trkpt lat="46.16408" lon="-1.17533">
        <ele>64.656287</ele>
        <time>2022-12-21T09:59:24.312Z</time>
      </trkpt>
      <trkpt lat="46.16406" lon="-1.1752">
        <ele>64.438345</ele>
        <time>2022-12-21T09:59:27.305Z</time>
      </trkpt>
      <trkpt lat="46.16405" lon="-1.17503">
        <ele>64.166324</ele>
        <time>2022-12-21T09:59:31.311Z</time>
      </trkpt>
      <trkpt lat="46.16404" lon="-1.1749">
        <ele>63.951026</ele>
        <time>2022-12-21T09:59:34.317Z</time>
      </trkpt>
      <trkpt lat="46.16403" lon="-1.17475">
        <ele>63.711925</ele>
        <time>2022-12-21T09:59:37.316Z</time>
      </trkpt>
      <trkpt lat="46.16402" lon="-1.17461">
        <ele>63.470936</ele>
        <time>2022-12-21T09:59:40.323Z</time>
      </trkpt>
      <trkpt lat="46.164" lon="-1.17446">
        <ele>63.230191</ele>
        <time>2022-12-21T09:59:43.334Z</time>
      </trkpt>
      <trkpt lat="46.164" lon="-1.17432">
        <ele>63.009896</ele>
        <time>2022-12-21T09:59:46.338Z</time>
      </trkpt>
      <trkpt lat="46.16398" lon="-1.17419">
        <ele>62.789724</ele>
        <time>2022-12-21T09:59:49.317Z</time>
      </trkpt>
      <trkpt lat="46.16397" lon="-1.17404">
        <ele>62.552898</ele>
        <time>2022-12-21T09:59:52.330Z</time>
      </trkpt>
      <trkpt lat="46.16395" lon="-1.17388">
        <ele>62.283078</ele>
        <time>2022-12-21T09:59:55.328Z</time>
      </trkpt>
      <trkpt lat="46.16393" lon="-1.17374">
        <ele>62.049447</ele>
        <time>2022-12-21T09:59:58.314Z</time>
      </trkpt>
      <trkpt lat="46.16392" lon="-1.17356">
        <ele>61.77071</ele>
        <time>2022-12-21T10:00:02.321Z</time>
      </trkpt>
      <trkpt lat="46.16391" lon="-1.17341">
        <ele>61.515558</ele>
        <time>2022-12-21T10:00:05.314Z</time>
      </trkpt>
      <trkpt lat="46.16389" lon="-1.17324">
        <ele>61.235799</ele>
        <time>2022-12-21T10:00:08.319Z</time>
      </trkpt>
      <trkpt lat="46.16387" lon="-1.17307">
        <ele>60.957649</ele>
        <time>2022-12-21T10:00:11.319Z</time>
      </trkpt>
      <trkpt lat="46.16386" lon="-1.17289">
        <ele>60.670906</ele>
        <time>2022-12-21T10:00:14.317Z</time>
      </trkpt>
      <trkpt lat="46.16384" lon="-1.17271">
        <ele>60.290708</ele>
        <time>2022-12-21T10:00:17.313Z</time>
      </trkpt>
      <trkpt lat="46.16382" lon="-1.17254">
        <ele>59.859523</ele>
        <time>2022-12-21T10:00:20.313Z</time>
      </trkpt>
      <trkpt lat="46.1638" lon="-1.17238">
        <ele>59.442766</ele>
        <time>2022-12-21T10:00:23.329Z</time>
      </trkpt>
      <trkpt lat="46.1638" lon="-1.1722">
        <ele>59.004739</ele>
        <time>2022-12-21T10:00:26.340Z</time>
      </trkpt>
      <trkpt lat="46.16377" lon="-1.17202">
        <ele>58.553338</ele>
        <time>2022-12-21T10:00:29.313Z</time>
      </trkpt>
      <trkpt lat="46.16375" lon="-1.17184">
        <ele>58.085995</ele>
        <time>2022-12-21T10:00:32.316Z</time>
      </trkpt>
      <trkpt lat="46.16373" lon="-1.17165">
        <ele>57.61014</ele>
        <time>2022-12-21T10:00:35.330Z</time>
      </trkpt>
      <trkpt lat="46.16371" lon="-1.17146">
        <ele>57.11644</ele>
        <time>2022-12-21T10:00:38.317Z</time>
      </trkpt>
      <trkpt lat="46.16369" lon="-1.17129">
        <ele>56.684283</ele>
        <time>2022-12-21T10:00:41.317Z</time>
      </trkpt>
      <trkpt lat="46.16368" lon="-1.17115">
        <ele>56.332587</ele>
        <time>2022-12-21T10:00:44.338Z</time>
      </trkpt>
      <trkpt lat="46.16367" lon="-1.17099">
        <ele>55.951666</ele>
        <time>2022-12-21T10:00:47.317Z</time>
      </trkpt>
      <trkpt lat="46.16366" lon="-1.17083">
        <ele>55.531729</ele>
        <time>2022-12-21T10:00:50.316Z</time>
      </trkpt>
      <trkpt lat="46.16364" lon="-1.17065">
        <ele>55.07865</ele>
        <time>2022-12-21T10:00:53.314Z</time>
      </trkpt>
      <trkpt lat="46.16362" lon="-1.17052">
        <ele>54.749089</ele>
        <time>2022-12-21T10:00:55.317Z</time>
      </trkpt>
      <trkpt lat="46.1636" lon="-1.17038">
        <ele>54.388199</ele>
        <time>2022-12-21T10:00:57.329Z</time>
      </trkpt>
      <trkpt lat="46.16359" lon="-1.17024">
        <ele>54.05096</ele>
        <time>2022-12-21T10:00:59.341Z</time>
      </trkpt>
      <trkpt lat="46.16357" lon="-1.17009">
        <ele>53.986425</ele>
        <time>2022-12-21T10:01:01.338Z</time>
      </trkpt>
      <trkpt lat="46.16356" lon="-1.16994">
        <ele>53.919494</ele>
        <time>2022-12-21T10:01:03.309Z</time>
      </trkpt>
      <trkpt lat="46.16354" lon="-1.16978">
        <ele>53.853148</ele>
        <time>2022-12-21T10:01:05.329Z</time>
      </trkpt>
      <trkpt lat="46.16353" lon="-1.16965">
        <ele>53.796184</ele>
        <time>2022-12-21T10:01:07.317Z</time>
      </trkpt>
      <trkpt lat="46.16351" lon="-1.16949">
        <ele>53.722886</ele>
        <time>2022-12-21T10:01:10.307Z</time>
      </trkpt>
      <trkpt lat="46.1635" lon="-1.16934">
        <ele>53.659823</ele>
        <time>2022-12-21T10:01:13.312Z</time>
      </trkpt>
      <trkpt lat="46.16348" lon="-1.1692">
        <ele>53.597001</ele>
        <time>2022-12-21T10:01:16.304Z</time>
      </trkpt>
      <trkpt lat="46.16347" lon="-1.16904">
        <ele>53.526892</ele>
        <time>2022-12-21T10:01:19.318Z</time>
      </trkpt>
      <trkpt lat="46.16345" lon="-1.16887">
        <ele>53.452308</ele>
        <time>2022-12-21T10:01:22.323Z</time>
      </trkpt>
      <trkpt lat="46.16343" lon="-1.1687">
        <ele>53.377816</ele>
        <time>2022-12-21T10:01:25.310Z</time>
      </trkpt>
      <trkpt lat="46.16341" lon="-1.16853">
        <ele>53.302552</ele>
        <time>2022-12-21T10:01:28.307Z</time>
      </trkpt>
      <trkpt lat="46.1634" lon="-1.16836">
        <ele>53.229089</ele>
        <time>2022-12-21T10:01:31.321Z</time>
      </trkpt>
      <trkpt lat="46.16338" lon="-1.16819">
        <ele>53.155456</ele>
        <time>2022-12-21T10:01:34.331Z</time>
      </trkpt>
      <trkpt lat="46.16337" lon="-1.16803">
        <ele>53.083629</ele>
        <time>2022-12-21T10:01:37.314Z</time>
      </trkpt>
      <trkpt lat="46.16335" lon="-1.16789">
        <ele>53.021022</ele>
        <time>2022-12-21T10:01:40.323Z</time>
      </trkpt>
      <trkpt lat="46.16333" lon="-1.16773">
        <ele>52.951002</ele>
        <time>2022-12-21T10:01:44.320Z</time>
      </trkpt>
      <trkpt lat="46.16332" lon="-1.16755">
        <ele>52.833367</ele>
        <time>2022-12-21T10:01:48.309Z</time>
      </trkpt>
      <trkpt lat="46.16331" lon="-1.1674">
        <ele>52.71995</ele>
        <time>2022-12-21T10:01:51.315Z</time>
      </trkpt>
      <trkpt lat="46.1633" lon="-1.16725">
        <ele>52.604041</ele>
        <time>2022-12-21T10:01:54.322Z</time>
      </trkpt>
      <trkpt lat="46.16328" lon="-1.1671">
        <ele>52.487427</ele>
        <time>2022-12-21T10:01:57.323Z</time>
      </trkpt>
      <trkpt lat="46.16327" lon="-1.16695">
        <ele>52.367951</ele>
        <time>2022-12-21T10:02:00.314Z</time>
      </trkpt>
      <trkpt lat="46.16325" lon="-1.16679">
        <ele>52.247109</ele>
        <time>2022-12-21T10:02:03.325Z</time>
      </trkpt>
      <trkpt lat="46.16323" lon="-1.16664">
        <ele>52.133494</ele>
        <time>2022-12-21T10:02:07.315Z</time>
      </trkpt>
      <trkpt lat="46.16322" lon="-1.1665">
        <ele>52.019897</ele>
        <time>2022-12-21T10:02:12.324Z</time>
      </trkpt>
      <trkpt lat="46.1632" lon="-1.16633">
        <ele>51.892961</ele>
        <time>2022-12-21T10:02:16.316Z</time>
      </trkpt>
      <trkpt lat="46.16319" lon="-1.16616">
        <ele>51.762716</ele>
        <time>2022-12-21T10:02:20.310Z</time>
      </trkpt>
      <trkpt lat="46.16317" lon="-1.16602">
        <ele>51.652888</ele>
        <time>2022-12-21T10:02:24.317Z</time>
      </trkpt>
      <trkpt lat="46.16316" lon="-1.16587">
        <ele>51.53568</ele>
        <time>2022-12-21T10:02:28.310Z</time>
      </trkpt>
      <trkpt lat="46.16314" lon="-1.16574">
        <ele>51.436165</ele>
        <time>2022-12-21T10:02:31.315Z</time>
      </trkpt>
      <trkpt lat="46.16312" lon="-1.16561">
        <ele>51.331214</ele>
        <time>2022-12-21T10:02:34.332Z</time>
      </trkpt>
      <trkpt lat="46.16311" lon="-1.16544">
        <ele>51.206535</ele>
        <time>2022-12-21T10:02:38.339Z</time>
      </trkpt>
      <trkpt lat="46.16309" lon="-1.16531">
        <ele>51.099897</ele>
        <time>2022-12-21T10:02:42.340Z</time>
      </trkpt>
      <trkpt lat="46.16301" lon="-1.16521">
        <ele>50.989595</ele>
        <time>2022-12-21T10:02:47.311Z</time>
      </trkpt>
      <trkpt lat="46.16292" lon="-1.16523">
        <ele>50.85443</ele>
        <time>2022-12-21T10:02:50.328Z</time>
      </trkpt>
      <trkpt lat="46.16281" lon="-1.16526">
        <ele>50.677874</ele>
        <time>2022-12-21T10:02:53.339Z</time>
      </trkpt>
      <trkpt lat="46.16269" lon="-1.16529">
        <ele>50.480918</ele>
        <time>2022-12-21T10:02:56.309Z</time>
      </trkpt>
      <trkpt lat="46.16257" lon="-1.1653">
        <ele>50.282443</ele>
        <time>2022-12-21T10:02:59.314Z</time>
      </trkpt>
      <trkpt lat="46.16244" lon="-1.16532">
        <ele>50.077317</ele>
        <time>2022-12-21T10:03:02.324Z</time>
      </trkpt>
      <trkpt lat="46.16232" lon="-1.16534">
        <ele>49.87149</ele>
        <time>2022-12-21T10:03:05.329Z</time>
      </trkpt>
      <trkpt lat="46.16219" lon="-1.16536">
        <ele>49.668743</ele>
        <time>2022-12-21T10:03:08.333Z</time>
      </trkpt>
      <trkpt lat="46.16206" lon="-1.16538">
        <ele>49.455538</ele>
        <time>2022-12-21T10:03:11.311Z</time>
      </trkpt>
      <trkpt lat="46.16193" lon="-1.1654">
        <ele>49.24327</ele>
        <time>2022-12-21T10:03:14.316Z</time>
      </trkpt>
      <trkpt lat="46.16181" lon="-1.16542">
        <ele>49.035965</ele>
        <time>2022-12-21T10:03:17.311Z</time>
      </trkpt>
      <trkpt lat="46.16168" lon="-1.16544">
        <ele>48.823824</ele>
        <time>2022-12-21T10:03:20.309Z</time>
      </trkpt>
      <trkpt lat="46.16155" lon="-1.16546">
        <ele>48.623091</ele>
        <time>2022-12-21T10:03:23.319Z</time>
      </trkpt>
      <trkpt lat="46.16143" lon="-1.16548">
        <ele>48.424092</ele>
        <time>2022-12-21T10:03:26.307Z</time>
      </trkpt>
      <trkpt lat="46.16131" lon="-1.1655">
        <ele>48.231988</ele>
        <time>2022-12-21T10:03:29.309Z</time>
      </trkpt>
      <trkpt lat="46.1612" lon="-1.16552">
        <ele>48.040644</ele>
        <time>2022-12-21T10:03:32.315Z</time>
      </trkpt>
      <trkpt lat="46.16107" lon="-1.16554">
        <ele>47.998079</ele>
        <time>2022-12-21T10:03:35.328Z</time>
      </trkpt>
      <trkpt lat="46.16096" lon="-1.16556">
        <ele>47.965789</ele>
        <time>2022-12-21T10:03:38.308Z</time>
      </trkpt>
      <trkpt lat="46.16083" lon="-1.16559">
        <ele>47.931823</ele>
        <time>2022-12-21T10:03:41.316Z</time>
      </trkpt>
      <trkpt lat="46.16072" lon="-1.16561">
        <ele>47.900648</ele>
        <time>2022-12-21T10:03:44.323Z</time>
      </trkpt>
      <trkpt lat="46.16061" lon="-1.16562">
        <ele>47.870993</ele>
        <time>2022-12-21T10:03:47.315Z</time>
      </trkpt>
      <trkpt lat="46.1605" lon="-1.16564">
        <ele>47.841709</ele>
        <time>2022-12-21T10:03:50.334Z</time>
      </trkpt>
      <trkpt lat="46.16039" lon="-1.16565">
        <ele>47.811725</ele>
        <time>2022-12-21T10:03:53.317Z</time>
      </trkpt>
      <trkpt lat="46.16028" lon="-1.16568">
        <ele>47.783163</ele>
        <time>2022-12-21T10:03:56.324Z</time>
      </trkpt>
      <trkpt lat="46.16019" lon="-1.16568">
        <ele>47.757871</ele>
        <time>2022-12-21T10:03:59.320Z</time>
      </trkpt>
      <trkpt lat="46.16008" lon="-1.16569">
        <ele>47.728456</ele>
        <time>2022-12-21T10:04:03.317Z</time>
      </trkpt>
      <trkpt lat="46.15999" lon="-1.16572">
        <ele>47.702827</ele>
        <time>2022-12-21T10:04:07.318Z</time>
      </trkpt>
      <trkpt lat="46.15989" lon="-1.16576">
        <ele>47.676574</ele>
        <time>2022-12-21T10:04:12.320Z</time>
      </trkpt>
      <trkpt lat="46.1598" lon="-1.16577">
        <ele>47.651786</ele>
        <time>2022-12-21T10:04:17.321Z</time>
      </trkpt>
      <trkpt lat="46.15971" lon="-1.16572">
        <ele>47.62497</ele>
        <time>2022-12-21T10:04:25.311Z</time>
      </trkpt>
      <trkpt lat="46.15965" lon="-1.1656">
        <ele>47.598285</ele>
        <time>2022-12-21T10:04:29.311Z</time>
      </trkpt>
      <trkpt lat="46.15963" lon="-1.16546">
        <ele>47.571054</ele>
        <time>2022-12-21T10:04:32.306Z</time>
      </trkpt>
      <trkpt lat="46.15961" lon="-1.16531">
        <ele>47.553695</ele>
        <time>2022-12-21T10:04:35.317Z</time>
      </trkpt>
      <trkpt lat="46.15958" lon="-1.16515">
        <ele>47.638759</ele>
        <time>2022-12-21T10:04:38.326Z</time>
      </trkpt>
      <trkpt lat="46.15955" lon="-1.165">
        <ele>47.724983</ele>
        <time>2022-12-21T10:04:41.328Z</time>
      </trkpt>
      <trkpt lat="46.15953" lon="-1.16484">
        <ele>47.810736</ele>
        <time>2022-12-21T10:04:44.313Z</time>
      </trkpt>
      <trkpt lat="46.15951" lon="-1.16469">
        <ele>47.894007</ele>
        <time>2022-12-21T10:04:47.337Z</time>
      </trkpt>
      <trkpt lat="46.15948" lon="-1.16453">
        <ele>47.978863</ele>
        <time>2022-12-21T10:04:50.321Z</time>
      </trkpt>
      <trkpt lat="46.15946" lon="-1.16438">
        <ele>48.062834</ele>
        <time>2022-12-21T10:04:53.331Z</time>
      </trkpt>
      <trkpt lat="46.15944" lon="-1.16425">
        <ele>48.133834</ele>
        <time>2022-12-21T10:04:56.326Z</time>
      </trkpt>
      <trkpt lat="46.15941" lon="-1.16409">
        <ele>48.218322</ele>
        <time>2022-12-21T10:05:00.321Z</time>
      </trkpt>
      <trkpt lat="46.15939" lon="-1.16396">
        <ele>48.292949</ele>
        <time>2022-12-21T10:05:03.328Z</time>
      </trkpt>
      <trkpt lat="46.15937" lon="-1.1638">
        <ele>48.379167</ele>
        <time>2022-12-21T10:05:06.318Z</time>
      </trkpt>
      <trkpt lat="46.15934" lon="-1.16363">
        <ele>48.470233</ele>
        <time>2022-12-21T10:05:09.341Z</time>
      </trkpt>
      <trkpt lat="46.15932" lon="-1.16348">
        <ele>48.550987</ele>
        <time>2022-12-21T10:05:12.327Z</time>
      </trkpt>
      <trkpt lat="46.1593" lon="-1.16334">
        <ele>48.628382</ele>
        <time>2022-12-21T10:05:15.320Z</time>
      </trkpt>
      <trkpt lat="46.15928" lon="-1.16319">
        <ele>48.711373</ele>
        <time>2022-12-21T10:05:18.348Z</time>
      </trkpt>
      <trkpt lat="46.15925" lon="-1.16304">
        <ele>48.794126</ele>
        <time>2022-12-21T10:05:21.312Z</time>
      </trkpt>
      <trkpt lat="46.15924" lon="-1.16289">
        <ele>48.871462</ele>
        <time>2022-12-21T10:05:24.318Z</time>
      </trkpt>
      <trkpt lat="46.15922" lon="-1.16276">
        <ele>48.96851</ele>
        <time>2022-12-21T10:05:27.320Z</time>
      </trkpt>
      <trkpt lat="46.15921" lon="-1.16262">
        <ele>49.190319</ele>
        <time>2022-12-21T10:05:30.324Z</time>
      </trkpt>
      <trkpt lat="46.15918" lon="-1.16248">
        <ele>49.418394</ele>
        <time>2022-12-21T10:05:33.320Z</time>
      </trkpt>
      <trkpt lat="46.15915" lon="-1.16234">
        <ele>49.657548</ele>
        <time>2022-12-21T10:05:36.314Z</time>
      </trkpt>
      <trkpt lat="46.15913" lon="-1.1622">
        <ele>49.885086</ele>
        <time>2022-12-21T10:05:39.331Z</time>
      </trkpt>
      <trkpt lat="46.1591" lon="-1.16207">
        <ele>50.096683</ele>
        <time>2022-12-21T10:05:42.338Z</time>
      </trkpt>
      <trkpt lat="46.15908" lon="-1.16193">
        <ele>50.333463</ele>
        <time>2022-12-21T10:05:45.327Z</time>
      </trkpt>
      <trkpt lat="46.15905" lon="-1.16179">
        <ele>50.555979</ele>
        <time>2022-12-21T10:05:48.315Z</time>
      </trkpt>
      <trkpt lat="46.15903" lon="-1.16166">
        <ele>50.773243</ele>
        <time>2022-12-21T10:05:51.321Z</time>
      </trkpt>
      <trkpt lat="46.15901" lon="-1.16151">
        <ele>51.0147</ele>
        <time>2022-12-21T10:05:54.343Z</time>
      </trkpt>
      <trkpt lat="46.15898" lon="-1.16134">
        <ele>51.285384</ele>
        <time>2022-12-21T10:05:57.319Z</time>
      </trkpt>
      <trkpt lat="46.15895" lon="-1.16118">
        <ele>51.541762</ele>
        <time>2022-12-21T10:06:00.336Z</time>
      </trkpt>
      <trkpt lat="46.15893" lon="-1.16104">
        <ele>51.778047</ele>
        <time>2022-12-21T10:06:03.322Z</time>
      </trkpt>
      <trkpt lat="46.1589" lon="-1.16088">
        <ele>52.026643</ele>
        <time>2022-12-21T10:06:06.313Z</time>
      </trkpt>
      <trkpt lat="46.15888" lon="-1.16073">
        <ele>52.281503</ele>
        <time>2022-12-21T10:06:09.315Z</time>
      </trkpt>
      <trkpt lat="46.15887" lon="-1.16058">
        <ele>52.520993</ele>
        <time>2022-12-21T10:06:12.338Z</time>
      </trkpt>
      <trkpt lat="46.15885" lon="-1.16043">
        <ele>52.752954</ele>
        <time>2022-12-21T10:06:15.315Z</time>
      </trkpt>
      <trkpt lat="46.15882" lon="-1.1603">
        <ele>52.964584</ele>
        <time>2022-12-21T10:06:18.330Z</time>
      </trkpt>
      <trkpt lat="46.15881" lon="-1.16015">
        <ele>53.169426</ele>
        <time>2022-12-21T10:06:22.321Z</time>
      </trkpt>
      <trkpt lat="46.15878" lon="-1.16003">
        <ele>53.330876</ele>
        <time>2022-12-21T10:06:25.332Z</time>
      </trkpt>
      <trkpt lat="46.15876" lon="-1.15989">
        <ele>53.504294</ele>
        <time>2022-12-21T10:06:28.338Z</time>
      </trkpt>
      <trkpt lat="46.15874" lon="-1.15974">
        <ele>53.682646</ele>
        <time>2022-12-21T10:06:31.321Z</time>
      </trkpt>
      <trkpt lat="46.15872" lon="-1.1596">
        <ele>53.868658</ele>
        <time>2022-12-21T10:06:34.337Z</time>
      </trkpt>
      <trkpt lat="46.15869" lon="-1.15944">
        <ele>54.058119</ele>
        <time>2022-12-21T10:06:37.319Z</time>
      </trkpt>
      <trkpt lat="46.15867" lon="-1.15928">
        <ele>54.255947</ele>
        <time>2022-12-21T10:06:40.323Z</time>
      </trkpt>
      <trkpt lat="46.15865" lon="-1.15913">
        <ele>54.453775</ele>
        <time>2022-12-21T10:06:43.322Z</time>
      </trkpt>
      <trkpt lat="46.15863" lon="-1.15897">
        <ele>54.643604</ele>
        <time>2022-12-21T10:06:46.312Z</time>
      </trkpt>
      <trkpt lat="46.1586" lon="-1.15883">
        <ele>54.829157</ele>
        <time>2022-12-21T10:06:49.317Z</time>
      </trkpt>
      <trkpt lat="46.15857" lon="-1.15868">
        <ele>55.009542</ele>
        <time>2022-12-21T10:06:52.340Z</time>
      </trkpt>
      <trkpt lat="46.15855" lon="-1.15854">
        <ele>55.183123</ele>
        <time>2022-12-21T10:06:55.309Z</time>
      </trkpt>
      <trkpt lat="46.15853" lon="-1.1584">
        <ele>55.364617</ele>
        <time>2022-12-21T10:06:58.310Z</time>
      </trkpt>
      <trkpt lat="46.15851" lon="-1.15825">
        <ele>55.546202</ele>
        <time>2022-12-21T10:07:01.340Z</time>
      </trkpt>
      <trkpt lat="46.15848" lon="-1.15811">
        <ele>55.722339</ele>
        <time>2022-12-21T10:07:04.327Z</time>
      </trkpt>
      <trkpt lat="46.15846" lon="-1.15797">
        <ele>55.902002</ele>
        <time>2022-12-21T10:07:07.314Z</time>
      </trkpt>
      <trkpt lat="46.15843" lon="-1.15783">
        <ele>56.078623</ele>
        <time>2022-12-21T10:07:10.328Z</time>
      </trkpt>
      <trkpt lat="46.1584" lon="-1.1577">
        <ele>56.194319</ele>
        <time>2022-12-21T10:07:13.312Z</time>
      </trkpt>
      <trkpt lat="46.15837" lon="-1.15753">
        <ele>56.152485</ele>
        <time>2022-12-21T10:07:17.327Z</time>
      </trkpt>
      <trkpt lat="46.15834" lon="-1.15739">
        <ele>56.115946</ele>
        <time>2022-12-21T10:07:21.318Z</time>
      </trkpt>
      <trkpt lat="46.15831" lon="-1.15724">
        <ele>56.076737</ele>
        <time>2022-12-21T10:07:26.317Z</time>
      </trkpt>
      <trkpt lat="46.15828" lon="-1.15709">
        <ele>56.039807</ele>
        <time>2022-12-21T10:07:30.316Z</time>
      </trkpt>
      <trkpt lat="46.15826" lon="-1.15693">
        <ele>55.998695</ele>
        <time>2022-12-21T10:07:34.309Z</time>
      </trkpt>
      <trkpt lat="46.15824" lon="-1.15676">
        <ele>55.956452</ele>
        <time>2022-12-21T10:07:38.321Z</time>
      </trkpt>
      <trkpt lat="46.15821" lon="-1.1566">
        <ele>55.914681</ele>
        <time>2022-12-21T10:07:42.321Z</time>
      </trkpt>
      <trkpt lat="46.15817" lon="-1.15647">
        <ele>55.88268</ele>
        <time>2022-12-21T10:07:45.316Z</time>
      </trkpt>
      <trkpt lat="46.15813" lon="-1.15633">
        <ele>55.844473</ele>
        <time>2022-12-21T10:07:48.312Z</time>
      </trkpt>
      <trkpt lat="46.1581" lon="-1.15619">
        <ele>55.806397</ele>
        <time>2022-12-21T10:07:51.315Z</time>
      </trkpt>
      <trkpt lat="46.15806" lon="-1.15605">
        <ele>55.769103</ele>
        <time>2022-12-21T10:07:54.311Z</time>
      </trkpt>
      <trkpt lat="46.15802" lon="-1.15591">
        <ele>55.733536</ele>
        <time>2022-12-21T10:07:57.310Z</time>
      </trkpt>
      <trkpt lat="46.15798" lon="-1.15579">
        <ele>55.699921</ele>
        <time>2022-12-21T10:08:00.313Z</time>
      </trkpt>
      <trkpt lat="46.15794" lon="-1.15567">
        <ele>55.667335</ele>
        <time>2022-12-21T10:08:03.311Z</time>
      </trkpt>
      <trkpt lat="46.1579" lon="-1.15551">
        <ele>55.626029</ele>
        <time>2022-12-21T10:08:07.313Z</time>
      </trkpt>
      <trkpt lat="46.15786" lon="-1.15535">
        <ele>55.584371</ele>
        <time>2022-12-21T10:08:11.311Z</time>
      </trkpt>
      <trkpt lat="46.15784" lon="-1.15522">
        <ele>55.548559</ele>
        <time>2022-12-21T10:08:14.330Z</time>
      </trkpt>
      <trkpt lat="46.15783" lon="-1.15509">
        <ele>55.508471</ele>
        <time>2022-12-21T10:08:17.317Z</time>
      </trkpt>
      <trkpt lat="46.15781" lon="-1.15493">
        <ele>55.457004</ele>
        <time>2022-12-21T10:08:21.339Z</time>
      </trkpt>
      <trkpt lat="46.15781" lon="-1.15478">
        <ele>55.413174</ele>
        <time>2022-12-21T10:08:24.342Z</time>
      </trkpt>
      <trkpt lat="46.15782" lon="-1.15463">
        <ele>55.367065</ele>
        <time>2022-12-21T10:08:27.316Z</time>
      </trkpt>
      <trkpt lat="46.15784" lon="-1.15449">
        <ele>55.322525</ele>
        <time>2022-12-21T10:08:30.320Z</time>
      </trkpt>
      <trkpt lat="46.15788" lon="-1.15435">
        <ele>55.27662</ele>
        <time>2022-12-21T10:08:33.322Z</time>
      </trkpt>
      <trkpt lat="46.15792" lon="-1.15421">
        <ele>55.231105</ele>
        <time>2022-12-21T10:08:36.340Z</time>
      </trkpt>
      <trkpt lat="46.15796" lon="-1.15407">
        <ele>55.182504</ele>
        <time>2022-12-21T10:08:39.309Z</time>
      </trkpt>
      <trkpt lat="46.15801" lon="-1.15394">
        <ele>55.135375</ele>
        <time>2022-12-21T10:08:42.322Z</time>
      </trkpt>
      <trkpt lat="46.15806" lon="-1.15381">
        <ele>55.090833</ele>
        <time>2022-12-21T10:08:45.312Z</time>
      </trkpt>
      <trkpt lat="46.15809" lon="-1.15367">
        <ele>55.047473</ele>
        <time>2022-12-21T10:08:48.323Z</time>
      </trkpt>
      <trkpt lat="46.1581" lon="-1.15352">
        <ele>55.00005</ele>
        <time>2022-12-21T10:08:51.310Z</time>
      </trkpt>
      <trkpt lat="46.1581" lon="-1.15336">
        <ele>54.951623</ele>
        <time>2022-12-21T10:08:54.322Z</time>
      </trkpt>
      <trkpt lat="46.15811" lon="-1.1532">
        <ele>54.902536</ele>
        <time>2022-12-21T10:08:57.331Z</time>
      </trkpt>
      <trkpt lat="46.15812" lon="-1.15305">
        <ele>54.855844</ele>
        <time>2022-12-21T10:09:00.313Z</time>
      </trkpt>
      <trkpt lat="46.15813" lon="-1.15289">
        <ele>54.808652</ele>
        <time>2022-12-21T10:09:03.339Z</time>
      </trkpt>
      <trkpt lat="46.15814" lon="-1.15274">
        <ele>54.788365</ele>
        <time>2022-12-21T10:09:06.322Z</time>
      </trkpt>
      <trkpt lat="46.15816" lon="-1.1526">
        <ele>54.905798</ele>
        <time>2022-12-21T10:09:09.316Z</time>
      </trkpt>
      <trkpt lat="46.15816" lon="-1.15245">
        <ele>55.027383</ele>
        <time>2022-12-21T10:09:12.340Z</time>
      </trkpt>
      <trkpt lat="46.15816" lon="-1.15229">
        <ele>55.158874</ele>
        <time>2022-12-21T10:09:15.307Z</time>
      </trkpt>
      <trkpt lat="46.15817" lon="-1.15213">
        <ele>55.294678</ele>
        <time>2022-12-21T10:09:18.340Z</time>
      </trkpt>
      <trkpt lat="46.15817" lon="-1.15197">
        <ele>55.428591</ele>
        <time>2022-12-21T10:09:21.340Z</time>
      </trkpt>
      <trkpt lat="46.15817" lon="-1.15182">
        <ele>55.551141</ele>
        <time>2022-12-21T10:09:24.322Z</time>
      </trkpt>
      <trkpt lat="46.15816" lon="-1.15168">
        <ele>55.667127</ele>
        <time>2022-12-21T10:09:27.325Z</time>
      </trkpt>
      <trkpt lat="46.15816" lon="-1.15153">
        <ele>55.787896</ele>
        <time>2022-12-21T10:09:30.316Z</time>
      </trkpt>
      <trkpt lat="46.15816" lon="-1.15138">
        <ele>55.911175</ele>
        <time>2022-12-21T10:09:33.342Z</time>
      </trkpt>
      <trkpt lat="46.15816" lon="-1.15123">
        <ele>56.036889</ele>
        <time>2022-12-21T10:09:36.329Z</time>
      </trkpt>
      <trkpt lat="46.15816" lon="-1.15107">
        <ele>56.168418</ele>
        <time>2022-12-21T10:09:39.331Z</time>
      </trkpt>
      <trkpt lat="46.15815" lon="-1.15091">
        <ele>56.295891</ele>
        <time>2022-12-21T10:09:42.337Z</time>
      </trkpt>
      <trkpt lat="46.15811" lon="-1.15076">
        <ele>56.431428</ele>
        <time>2022-12-21T10:09:46.327Z</time>
      </trkpt>
      <trkpt lat="46.15803" lon="-1.15064">
        <ele>56.569667</ele>
        <time>2022-12-21T10:09:50.340Z</time>
      </trkpt>
      <trkpt lat="46.15794" lon="-1.15057">
        <ele>56.691898</ele>
        <time>2022-12-21T10:09:53.311Z</time>
      </trkpt>
      <trkpt lat="46.15784" lon="-1.15051">
        <ele>56.823049</ele>
        <time>2022-12-21T10:09:56.325Z</time>
      </trkpt>
      <trkpt lat="46.15773" lon="-1.15045">
        <ele>56.852786</ele>
        <time>2022-12-21T10:09:59.334Z</time>
      </trkpt>
      <trkpt lat="46.15763" lon="-1.15038">
        <ele>56.736845</ele>
        <time>2022-12-21T10:10:02.321Z</time>
      </trkpt>
      <trkpt lat="46.15753" lon="-1.15032">
        <ele>56.624982</ele>
        <time>2022-12-21T10:10:05.336Z</time>
      </trkpt>
      <trkpt lat="46.15742" lon="-1.15025">
        <ele>56.502492</ele>
        <time>2022-12-21T10:10:08.311Z</time>
      </trkpt>
      <trkpt lat="46.15732" lon="-1.15019">
        <ele>56.386266</ele>
        <time>2022-12-21T10:10:11.313Z</time>
      </trkpt>
      <trkpt lat="46.15722" lon="-1.15012">
        <ele>56.277873</ele>
        <time>2022-12-21T10:10:14.326Z</time>
      </trkpt>
      <trkpt lat="46.15713" lon="-1.15007">
        <ele>56.17531</ele>
        <time>2022-12-21T10:10:17.323Z</time>
      </trkpt>
      <trkpt lat="46.15705" lon="-1.15001">
        <ele>56.080581</ele>
        <time>2022-12-21T10:10:20.321Z</time>
      </trkpt>
      <trkpt lat="46.15696" lon="-1.14995">
        <ele>55.983035</ele>
        <time>2022-12-21T10:10:23.306Z</time>
      </trkpt>
      <trkpt lat="46.15688" lon="-1.14989">
        <ele>55.884244</ele>
        <time>2022-12-21T10:10:26.312Z</time>
      </trkpt>
      <trkpt lat="46.15679" lon="-1.14982">
        <ele>55.781712</ele>
        <time>2022-12-21T10:10:29.311Z</time>
      </trkpt>
      <trkpt lat="46.1567" lon="-1.14976">
        <ele>55.674558</ele>
        <time>2022-12-21T10:10:32.320Z</time>
      </trkpt>
      <trkpt lat="46.1566" lon="-1.14971">
        <ele>55.567787</ele>
        <time>2022-12-21T10:10:35.313Z</time>
      </trkpt>
      <trkpt lat="46.15649" lon="-1.14967">
        <ele>55.456689</ele>
        <time>2022-12-21T10:10:38.327Z</time>
      </trkpt>
      <trkpt lat="46.15639" lon="-1.14962">
        <ele>55.340406</ele>
        <time>2022-12-21T10:10:41.320Z</time>
      </trkpt>
      <trkpt lat="46.15629" lon="-1.14958">
        <ele>55.232119</ele>
        <time>2022-12-21T10:10:44.331Z</time>
      </trkpt>
      <trkpt lat="46.15617" lon="-1.14955">
        <ele>55.10929</ele>
        <time>2022-12-21T10:10:48.309Z</time>
      </trkpt>
      <trkpt lat="46.15607" lon="-1.14954">
        <ele>55.035626</ele>
        <time>2022-12-21T10:10:51.315Z</time>
      </trkpt>
      <trkpt lat="46.15596" lon="-1.14953">
        <ele>55.011584</ele>
        <time>2022-12-21T10:10:54.336Z</time>
      </trkpt>
      <trkpt lat="46.15584" lon="-1.14953">
        <ele>54.986064</ele>
        <time>2022-12-21T10:10:58.333Z</time>
      </trkpt>
      <trkpt lat="46.15574" lon="-1.14952">
        <ele>54.964824</ele>
        <time>2022-12-21T10:11:01.322Z</time>
      </trkpt>
      <trkpt lat="46.15564" lon="-1.14952">
        <ele>54.942074</ele>
        <time>2022-12-21T10:11:04.326Z</time>
      </trkpt>
      <trkpt lat="46.15553" lon="-1.14951">
        <ele>54.919525</ele>
        <time>2022-12-21T10:11:07.308Z</time>
      </trkpt>
      <trkpt lat="46.15543" lon="-1.1495">
        <ele>54.897411</ele>
        <time>2022-12-21T10:11:10.312Z</time>
      </trkpt>
      <trkpt lat="46.15533" lon="-1.14949">
        <ele>54.876789</ele>
        <time>2022-12-21T10:11:13.326Z</time>
      </trkpt>
      <trkpt lat="46.15524" lon="-1.14944">
        <ele>54.85464</ele>
        <time>2022-12-21T10:11:16.309Z</time>
      </trkpt>
      <trkpt lat="46.15515" lon="-1.14938">
        <ele>54.833317</ele>
        <time>2022-12-21T10:11:19.319Z</time>
      </trkpt>
      <trkpt lat="46.15506" lon="-1.14934">
        <ele>54.812986</ele>
        <time>2022-12-21T10:11:23.310Z</time>
      </trkpt>
      <trkpt lat="46.15498" lon="-1.14928">
        <ele>54.793532</ele>
        <time>2022-12-21T10:11:28.321Z</time>
      </trkpt>
      <trkpt lat="46.15488" lon="-1.14924">
        <ele>54.771674</ele>
        <time>2022-12-21T10:11:32.310Z</time>
      </trkpt>
      <trkpt lat="46.15478" lon="-1.14927">
        <ele>54.750357</ele>
        <time>2022-12-21T10:11:35.323Z</time>
      </trkpt>
      <trkpt lat="46.15469" lon="-1.1493">
        <ele>54.729803</ele>
        <time>2022-12-21T10:11:38.317Z</time>
      </trkpt>
      <trkpt lat="46.15459" lon="-1.14929">
        <ele>54.708571</ele>
        <time>2022-12-21T10:11:41.317Z</time>
      </trkpt>
      <trkpt lat="46.15449" lon="-1.1493">
        <ele>54.687529</ele>
        <time>2022-12-21T10:11:44.312Z</time>
      </trkpt>
      <trkpt lat="46.15437" lon="-1.14929">
        <ele>54.663052</ele>
        <time>2022-12-21T10:11:48.314Z</time>
      </trkpt>
      <trkpt lat="46.15426" lon="-1.14929">
        <ele>54.649878</ele>
        <time>2022-12-21T10:11:52.339Z</time>
      </trkpt>
      <trkpt lat="46.15416" lon="-1.14928">
        <ele>54.642208</ele>
        <time>2022-12-21T10:11:55.342Z</time>
      </trkpt>
      <trkpt lat="46.15406" lon="-1.14928">
        <ele>54.63399</ele>
        <time>2022-12-21T10:11:58.336Z</time>
      </trkpt>
      <trkpt lat="46.15396" lon="-1.14924">
        <ele>54.626273</ele>
        <time>2022-12-21T10:12:01.315Z</time>
      </trkpt>
      <trkpt lat="46.15387" lon="-1.14916">
        <ele>54.617894</ele>
        <time>2022-12-21T10:12:05.320Z</time>
      </trkpt>
      <trkpt lat="46.15378" lon="-1.14909">
        <ele>54.609498</ele>
        <time>2022-12-21T10:12:10.316Z</time>
      </trkpt>
      <trkpt lat="46.15368" lon="-1.14904">
        <ele>54.601642</ele>
        <time>2022-12-21T10:12:14.322Z</time>
      </trkpt>
      <trkpt lat="46.15359" lon="-1.14901">
        <ele>54.594391</ele>
        <time>2022-12-21T10:12:17.316Z</time>
      </trkpt>
      <trkpt lat="46.1535" lon="-1.14898">
        <ele>54.586937</ele>
        <time>2022-12-21T10:12:20.312Z</time>
      </trkpt>
      <trkpt lat="46.15341" lon="-1.14895">
        <ele>54.579186</ele>
        <time>2022-12-21T10:12:23.314Z</time>
      </trkpt>
      <trkpt lat="46.15331" lon="-1.14892">
        <ele>54.571732</ele>
        <time>2022-12-21T10:12:26.336Z</time>
      </trkpt>
      <trkpt lat="46.15322" lon="-1.14889">
        <ele>54.564277</ele>
        <time>2022-12-21T10:12:29.311Z</time>
      </trkpt>
      <trkpt lat="46.15313" lon="-1.14886">
        <ele>54.556968</ele>
        <time>2022-12-21T10:12:32.308Z</time>
      </trkpt>
      <trkpt lat="46.15302" lon="-1.14882">
        <ele>54.548094</ele>
        <time>2022-12-21T10:12:36.310Z</time>
      </trkpt>
      <trkpt lat="46.15292" lon="-1.14879">
        <ele>54.539655</ele>
        <time>2022-12-21T10:12:41.318Z</time>
      </trkpt>
      <trkpt lat="46.15282" lon="-1.14875">
        <ele>54.531329</ele>
        <time>2022-12-21T10:12:45.319Z</time>
      </trkpt>
      <trkpt lat="46.15273" lon="-1.14871">
        <ele>54.523926</ele>
        <time>2022-12-21T10:12:48.328Z</time>
      </trkpt>
      <trkpt lat="46.15261" lon="-1.14868">
        <ele>54.510023</ele>
        <time>2022-12-21T10:12:52.320Z</time>
      </trkpt>
      <trkpt lat="46.15252" lon="-1.14865">
        <ele>54.41933</ele>
        <time>2022-12-21T10:12:55.311Z</time>
      </trkpt>
      <trkpt lat="46.1524" lon="-1.1486">
        <ele>54.303697</ele>
        <time>2022-12-21T10:12:59.322Z</time>
      </trkpt>
      <trkpt lat="46.15231" lon="-1.14854">
        <ele>54.201663</ele>
        <time>2022-12-21T10:13:03.313Z</time>
      </trkpt>
      <trkpt lat="46.15221" lon="-1.14848">
        <ele>54.102211</ele>
        <time>2022-12-21T10:13:07.341Z</time>
      </trkpt>
      <trkpt lat="46.15213" lon="-1.14838">
        <ele>53.994254</ele>
        <time>2022-12-21T10:13:12.317Z</time>
      </trkpt>
      <trkpt lat="46.15205" lon="-1.14831">
        <ele>53.901487</ele>
        <time>2022-12-21T10:13:16.318Z</time>
      </trkpt>
      <trkpt lat="46.15197" lon="-1.14823">
        <ele>53.806057</ele>
        <time>2022-12-21T10:13:20.329Z</time>
      </trkpt>
      <trkpt lat="46.15188" lon="-1.14816">
        <ele>53.70963</ele>
        <time>2022-12-21T10:13:24.317Z</time>
      </trkpt>
      <trkpt lat="46.1518" lon="-1.14805">
        <ele>53.600548</ele>
        <time>2022-12-21T10:13:28.322Z</time>
      </trkpt>
      <trkpt lat="46.15172" lon="-1.14793">
        <ele>53.485536</ele>
        <time>2022-12-21T10:13:32.311Z</time>
      </trkpt>
      <trkpt lat="46.15164" lon="-1.1478">
        <ele>53.371384</ele>
        <time>2022-12-21T10:13:36.313Z</time>
      </trkpt>
      <trkpt lat="46.15158" lon="-1.14771">
        <ele>53.283245</ele>
        <time>2022-12-21T10:13:39.308Z</time>
      </trkpt>
      <trkpt lat="46.1515" lon="-1.14761">
        <ele>53.18588</ele>
        <time>2022-12-21T10:13:42.307Z</time>
      </trkpt>
      <trkpt lat="46.15142" lon="-1.1475">
        <ele>53.073206</ele>
        <time>2022-12-21T10:13:46.311Z</time>
      </trkpt>
      <trkpt lat="46.15134" lon="-1.14739">
        <ele>52.965051</ele>
        <time>2022-12-21T10:13:50.335Z</time>
      </trkpt>
      <trkpt lat="46.15125" lon="-1.14727">
        <ele>52.847707</ele>
        <time>2022-12-21T10:13:54.317Z</time>
      </trkpt>
      <trkpt lat="46.15118" lon="-1.14717">
        <ele>52.756399</ele>
        <time>2022-12-21T10:13:57.319Z</time>
      </trkpt>
      <trkpt lat="46.1511" lon="-1.14707">
        <ele>52.732885</ele>
        <time>2022-12-21T10:14:00.306Z</time>
      </trkpt>
      <trkpt lat="46.15103" lon="-1.14696">
        <ele>52.708512</ele>
        <time>2022-12-21T10:14:03.320Z</time>
      </trkpt>
      <trkpt lat="46.15094" lon="-1.14684">
        <ele>52.68221</ele>
        <time>2022-12-21T10:14:06.340Z</time>
      </trkpt>
      <trkpt lat="46.15086" lon="-1.14672">
        <ele>52.656163</ele>
        <time>2022-12-21T10:14:09.317Z</time>
      </trkpt>
      <trkpt lat="46.15079" lon="-1.1466">
        <ele>52.631484</ele>
        <time>2022-12-21T10:14:12.339Z</time>
      </trkpt>
      <trkpt lat="46.15071" lon="-1.1465">
        <ele>52.607926</ele>
        <time>2022-12-21T10:14:15.341Z</time>
      </trkpt>
      <trkpt lat="46.15064" lon="-1.1464">
        <ele>52.585328</ele>
        <time>2022-12-21T10:14:18.325Z</time>
      </trkpt>
      <trkpt lat="46.15056" lon="-1.14631">
        <ele>52.563289</ele>
        <time>2022-12-21T10:14:21.323Z</time>
      </trkpt>
      <trkpt lat="46.15046" lon="-1.14623">
        <ele>52.537782</ele>
        <time>2022-12-21T10:14:24.340Z</time>
      </trkpt>
      <trkpt lat="46.15038" lon="-1.14612">
        <ele>52.512121</ele>
        <time>2022-12-21T10:14:27.317Z</time>
      </trkpt>
      <trkpt lat="46.1503" lon="-1.146">
        <ele>52.485931</ele>
        <time>2022-12-21T10:14:30.340Z</time>
      </trkpt>
      <trkpt lat="46.15021" lon="-1.14584">
        <ele>52.455442</ele>
        <time>2022-12-21T10:14:33.311Z</time>
      </trkpt>
      <trkpt lat="46.15015" lon="-1.14574">
        <ele>52.433466</ele>
        <time>2022-12-21T10:14:35.308Z</time>
      </trkpt>
      <trkpt lat="46.15008" lon="-1.14563">
        <ele>52.41169</ele>
        <time>2022-12-21T10:14:37.329Z</time>
      </trkpt>
      <trkpt lat="46.15001" lon="-1.14554">
        <ele>52.390776</ele>
        <time>2022-12-21T10:14:39.326Z</time>
      </trkpt>
      <trkpt lat="46.14995" lon="-1.14545">
        <ele>52.370216</ele>
        <time>2022-12-21T10:14:41.330Z</time>
      </trkpt>
      <trkpt lat="46.14988" lon="-1.14536">
        <ele>52.31943</ele>
        <time>2022-12-21T10:14:43.331Z</time>
      </trkpt>
      <trkpt lat="46.14981" lon="-1.14526">
        <ele>52.189389</ele>
        <time>2022-12-21T10:14:45.315Z</time>
      </trkpt>
      <trkpt lat="46.14974" lon="-1.14516">
        <ele>52.056044</ele>
        <time>2022-12-21T10:14:47.330Z</time>
      </trkpt>
      <trkpt lat="46.14967" lon="-1.14508">
        <ele>51.933248</ele>
        <time>2022-12-21T10:14:49.331Z</time>
      </trkpt>
      <trkpt lat="46.14958" lon="-1.14496">
        <ele>51.760426</ele>
        <time>2022-12-21T10:14:52.335Z</time>
      </trkpt>
      <trkpt lat="46.14948" lon="-1.14483">
        <ele>51.577457</ele>
        <time>2022-12-21T10:14:55.320Z</time>
      </trkpt>
      <trkpt lat="46.1494" lon="-1.14476">
        <ele>51.454645</ele>
        <time>2022-12-21T10:14:57.310Z</time>
      </trkpt>
      <trkpt lat="46.14933" lon="-1.14467">
        <ele>51.324022</ele>
        <time>2022-12-21T10:14:59.337Z</time>
      </trkpt>
      <trkpt lat="46.14921" lon="-1.14456">
        <ele>51.135457</ele>
        <time>2022-12-21T10:15:02.335Z</time>
      </trkpt>
      <trkpt lat="46.14913" lon="-1.14449">
        <ele>51.006376</ele>
        <time>2022-12-21T10:15:04.326Z</time>
      </trkpt>
      <trkpt lat="46.14906" lon="-1.14441">
        <ele>50.877443</ele>
        <time>2022-12-21T10:15:06.311Z</time>
      </trkpt>
      <trkpt lat="46.14896" lon="-1.14432">
        <ele>50.71375</ele>
        <time>2022-12-21T10:15:09.319Z</time>
      </trkpt>
      <trkpt lat="46.14887" lon="-1.14424">
        <ele>50.571336</ele>
        <time>2022-12-21T10:15:12.319Z</time>
      </trkpt>
      <trkpt lat="46.14878" lon="-1.14418">
        <ele>50.440826</ele>
        <time>2022-12-21T10:15:15.314Z</time>
      </trkpt>
      <trkpt lat="46.14871" lon="-1.14411">
        <ele>50.314036</ele>
        <time>2022-12-21T10:15:18.343Z</time>
      </trkpt>
      <trkpt lat="46.14862" lon="-1.14399">
        <ele>50.149042</ele>
        <time>2022-12-21T10:15:22.338Z</time>
      </trkpt>
      <trkpt lat="46.14855" lon="-1.14388">
        <ele>50.008343</ele>
        <time>2022-12-21T10:15:25.321Z</time>
      </trkpt>
      <trkpt lat="46.14848" lon="-1.14376">
        <ele>49.893842</ele>
        <time>2022-12-21T10:15:28.340Z</time>
      </trkpt>
      <trkpt lat="46.14839" lon="-1.14366">
        <ele>49.921038</ele>
        <time>2022-12-21T10:15:31.337Z</time>
      </trkpt>
      <trkpt lat="46.1483" lon="-1.14357">
        <ele>49.949722</ele>
        <time>2022-12-21T10:15:34.310Z</time>
      </trkpt>
      <trkpt lat="46.14819" lon="-1.1435">
        <ele>49.978638</ele>
        <time>2022-12-21T10:15:37.344Z</time>
      </trkpt>
      <trkpt lat="46.14808" lon="-1.14345">
        <ele>50.00901</ele>
        <time>2022-12-21T10:15:40.317Z</time>
      </trkpt>
      <trkpt lat="46.14796" lon="-1.1434">
        <ele>50.039327</ele>
        <time>2022-12-21T10:15:43.338Z</time>
      </trkpt>
      <trkpt lat="46.14783" lon="-1.14337">
        <ele>50.070793</ele>
        <time>2022-12-21T10:15:46.315Z</time>
      </trkpt>
      <trkpt lat="46.14771" lon="-1.14335">
        <ele>50.102259</ele>
        <time>2022-12-21T10:15:49.313Z</time>
      </trkpt>
      <trkpt lat="46.14758" lon="-1.14333">
        <ele>50.133213</ele>
        <time>2022-12-21T10:15:52.337Z</time>
      </trkpt>
      <trkpt lat="46.14749" lon="-1.14331">
        <ele>50.155674</ele>
        <time>2022-12-21T10:15:54.339Z</time>
      </trkpt>
      <trkpt lat="46.14741" lon="-1.14329">
        <ele>50.178165</ele>
        <time>2022-12-21T10:15:56.333Z</time>
      </trkpt>
      <trkpt lat="46.14732" lon="-1.14327">
        <ele>50.200571</ele>
        <time>2022-12-21T10:15:58.313Z</time>
      </trkpt>
      <trkpt lat="46.14722" lon="-1.14326">
        <ele>50.224761</ele>
        <time>2022-12-21T10:16:00.340Z</time>
      </trkpt>
      <trkpt lat="46.14708" lon="-1.14324">
        <ele>50.258486</ele>
        <time>2022-12-21T10:16:03.309Z</time>
      </trkpt>
      <trkpt lat="46.14695" lon="-1.14322">
        <ele>50.291066</ele>
        <time>2022-12-21T10:16:06.339Z</time>
      </trkpt>
      <trkpt lat="46.14683" lon="-1.1432">
        <ele>50.322579</ele>
        <time>2022-12-21T10:16:09.316Z</time>
      </trkpt>
      <trkpt lat="46.14671" lon="-1.14318">
        <ele>50.309498</ele>
        <time>2022-12-21T10:16:12.312Z</time>
      </trkpt>
      <trkpt lat="46.14659" lon="-1.14317">
        <ele>50.258746</ele>
        <time>2022-12-21T10:16:15.313Z</time>
      </trkpt>
      <trkpt lat="46.14648" lon="-1.14315">
        <ele>50.207265</ele>
        <time>2022-12-21T10:16:18.315Z</time>
      </trkpt>
      <trkpt lat="46.14637" lon="-1.14311">
        <ele>50.159027</ele>
        <time>2022-12-21T10:16:21.320Z</time>
      </trkpt>
      <trkpt lat="46.14627" lon="-1.14305">
        <ele>50.111524</ele>
        <time>2022-12-21T10:16:24.325Z</time>
      </trkpt>
      <trkpt lat="46.14616" lon="-1.143">
        <ele>50.064551</ele>
        <time>2022-12-21T10:16:27.319Z</time>
      </trkpt>
      <trkpt lat="46.14607" lon="-1.14295">
        <ele>50.020998</ele>
        <time>2022-12-21T10:16:30.312Z</time>
      </trkpt>
      <trkpt lat="46.14597" lon="-1.14289">
        <ele>49.975152</ele>
        <time>2022-12-21T10:16:33.319Z</time>
      </trkpt>
      <trkpt lat="46.14586" lon="-1.14283">
        <ele>49.923248</ele>
        <time>2022-12-21T10:16:36.328Z</time>
      </trkpt>
      <trkpt lat="46.14576" lon="-1.14277">
        <ele>49.875963</ele>
        <time>2022-12-21T10:16:39.320Z</time>
      </trkpt>
      <trkpt lat="46.14564" lon="-1.14273">
        <ele>49.82525</ele>
        <time>2022-12-21T10:16:42.340Z</time>
      </trkpt>
      <trkpt lat="46.14553" lon="-1.14267">
        <ele>49.774495</ele>
        <time>2022-12-21T10:16:45.316Z</time>
      </trkpt>
      <trkpt lat="46.14543" lon="-1.14262">
        <ele>49.724565</ele>
        <time>2022-12-21T10:16:48.325Z</time>
      </trkpt>
      <trkpt lat="46.14532" lon="-1.14256">
        <ele>49.674432</ele>
        <time>2022-12-21T10:16:51.323Z</time>
      </trkpt>
      <trkpt lat="46.14521" lon="-1.1425">
        <ele>49.623791</ele>
        <time>2022-12-21T10:16:54.322Z</time>
      </trkpt>
      <trkpt lat="46.1451" lon="-1.14246">
        <ele>49.57407</ele>
        <time>2022-12-21T10:16:57.304Z</time>
      </trkpt>
      <trkpt lat="46.14499" lon="-1.1424">
        <ele>49.552802</ele>
        <time>2022-12-21T10:17:00.322Z</time>
      </trkpt>
      <trkpt lat="46.14489" lon="-1.14234">
        <ele>49.546192</ele>
        <time>2022-12-21T10:17:03.320Z</time>
      </trkpt>
      <trkpt lat="46.14479" lon="-1.14229">
        <ele>49.539949</ele>
        <time>2022-12-21T10:17:06.312Z</time>
      </trkpt>
      <trkpt lat="46.1447" lon="-1.14223">
        <ele>49.53376</ele>
        <time>2022-12-21T10:17:09.317Z</time>
      </trkpt>
      <trkpt lat="46.14461" lon="-1.14219">
        <ele>49.527774</ele>
        <time>2022-12-21T10:17:12.325Z</time>
      </trkpt>
      <trkpt lat="46.14451" lon="-1.14214">
        <ele>49.521668</ele>
        <time>2022-12-21T10:17:15.324Z</time>
      </trkpt>
      <trkpt lat="46.14442" lon="-1.14209">
        <ele>49.515495</ele>
        <time>2022-12-21T10:17:18.344Z</time>
      </trkpt>
      <trkpt lat="46.14432" lon="-1.14203">
        <ele>49.509218</ele>
        <time>2022-12-21T10:17:21.340Z</time>
      </trkpt>
      <trkpt lat="46.14422" lon="-1.14198">
        <ele>49.502932</ele>
        <time>2022-12-21T10:17:24.324Z</time>
      </trkpt>
      <trkpt lat="46.14413" lon="-1.14194">
        <ele>49.496934</ele>
        <time>2022-12-21T10:17:27.313Z</time>
      </trkpt>
      <trkpt lat="46.14403" lon="-1.14189">
        <ele>49.490847</ele>
        <time>2022-12-21T10:17:30.315Z</time>
      </trkpt>
      <trkpt lat="46.14394" lon="-1.14184">
        <ele>49.484883</ele>
        <time>2022-12-21T10:17:33.329Z</time>
      </trkpt>
      <trkpt lat="46.14385" lon="-1.14179">
        <ele>49.479024</ele>
        <time>2022-12-21T10:17:36.339Z</time>
      </trkpt>
      <trkpt lat="46.14376" lon="-1.14174">
        <ele>49.473208</ele>
        <time>2022-12-21T10:17:39.319Z</time>
      </trkpt>
      <trkpt lat="46.14367" lon="-1.14169">
        <ele>49.467363</ele>
        <time>2022-12-21T10:17:42.323Z</time>
      </trkpt>
      <trkpt lat="46.14357" lon="-1.14165">
        <ele>49.461033</ele>
        <time>2022-12-21T10:17:45.324Z</time>
      </trkpt>
      <trkpt lat="46.14348" lon="-1.14159">
        <ele>49.454817</ele>
        <time>2022-12-21T10:17:48.313Z</time>
      </trkpt>
      <trkpt lat="46.14337" lon="-1.14155">
        <ele>49.448385</ele>
        <time>2022-12-21T10:17:51.325Z</time>
      </trkpt>
      <trkpt lat="46.14327" lon="-1.1415">
        <ele>49.268749</ele>
        <time>2022-12-21T10:17:54.318Z</time>
      </trkpt>
      <trkpt lat="46.14317" lon="-1.14145">
        <ele>49.083857</ele>
        <time>2022-12-21T10:17:57.318Z</time>
      </trkpt>
      <trkpt lat="46.14307" lon="-1.1414">
        <ele>48.891233</ele>
        <time>2022-12-21T10:18:00.340Z</time>
      </trkpt>
      <trkpt lat="46.14296" lon="-1.14134">
        <ele>48.696147</ele>
        <time>2022-12-21T10:18:03.325Z</time>
      </trkpt>
      <trkpt lat="46.14286" lon="-1.14128">
        <ele>48.505698</ele>
        <time>2022-12-21T10:18:06.317Z</time>
      </trkpt>
      <trkpt lat="46.14276" lon="-1.14123">
        <ele>48.323698</ele>
        <time>2022-12-21T10:18:09.326Z</time>
      </trkpt>
      <trkpt lat="46.14266" lon="-1.14118">
        <ele>48.140281</ele>
        <time>2022-12-21T10:18:12.319Z</time>
      </trkpt>
      <trkpt lat="46.14256" lon="-1.14113">
        <ele>47.961464</ele>
        <time>2022-12-21T10:18:15.319Z</time>
      </trkpt>
      <trkpt lat="46.14247" lon="-1.14109">
        <ele>47.784667</ele>
        <time>2022-12-21T10:18:18.325Z</time>
      </trkpt>
      <trkpt lat="46.14237" lon="-1.14104">
        <ele>47.614464</ele>
        <time>2022-12-21T10:18:21.335Z</time>
      </trkpt>
      <trkpt lat="46.14229" lon="-1.14098">
        <ele>47.454569</ele>
        <time>2022-12-21T10:18:24.340Z</time>
      </trkpt>
      <trkpt lat="46.14222" lon="-1.14089">
        <ele>47.287975</ele>
        <time>2022-12-21T10:18:27.339Z</time>
      </trkpt>
      <trkpt lat="46.14216" lon="-1.14077">
        <ele>47.10792</ele>
        <time>2022-12-21T10:18:30.339Z</time>
      </trkpt>
      <trkpt lat="46.14211" lon="-1.14063">
        <ele>46.926275</ele>
        <time>2022-12-21T10:18:33.319Z</time>
      </trkpt>
      <trkpt lat="46.14207" lon="-1.14051">
        <ele>46.754911</ele>
        <time>2022-12-21T10:18:36.312Z</time>
      </trkpt>
      <trkpt lat="46.14203" lon="-1.14037">
        <ele>46.580632</ele>
        <time>2022-12-21T10:18:39.345Z</time>
      </trkpt>
      <trkpt lat="46.14198" lon="-1.14025">
        <ele>46.407527</ele>
        <time>2022-12-21T10:18:42.312Z</time>
      </trkpt>
      <trkpt lat="46.14191" lon="-1.14015">
        <ele>46.358086</ele>
        <time>2022-12-21T10:18:45.328Z</time>
      </trkpt>
      <trkpt lat="46.14185" lon="-1.14004">
        <ele>46.418343</ele>
        <time>2022-12-21T10:18:48.318Z</time>
      </trkpt>
      <trkpt lat="46.14182" lon="-1.1399">
        <ele>46.485115</ele>
        <time>2022-12-21T10:18:51.317Z</time>
      </trkpt>
      <trkpt lat="46.14178" lon="-1.13975">
        <ele>46.558209</ele>
        <time>2022-12-21T10:18:54.340Z</time>
      </trkpt>
      <trkpt lat="46.14173" lon="-1.13961">
        <ele>46.623092</ele>
        <time>2022-12-21T10:18:57.308Z</time>
      </trkpt>
      <trkpt lat="46.14168" lon="-1.13946">
        <ele>46.700439</ele>
        <time>2022-12-21T10:19:01.309Z</time>
      </trkpt>
      <trkpt lat="46.14163" lon="-1.13932">
        <ele>46.76545</ele>
        <time>2022-12-21T10:19:04.315Z</time>
      </trkpt>
      <trkpt lat="46.14158" lon="-1.13918">
        <ele>46.835082</ele>
        <time>2022-12-21T10:19:07.312Z</time>
      </trkpt>
      <trkpt lat="46.14153" lon="-1.13905">
        <ele>46.903081</ele>
        <time>2022-12-21T10:19:10.312Z</time>
      </trkpt>
      <trkpt lat="46.14149" lon="-1.13892">
        <ele>46.963981</ele>
        <time>2022-12-21T10:19:13.316Z</time>
      </trkpt>
      <trkpt lat="46.14145" lon="-1.13879">
        <ele>47.02621</ele>
        <time>2022-12-21T10:19:16.311Z</time>
      </trkpt>
      <trkpt lat="46.1414" lon="-1.13866">
        <ele>47.095286</ele>
        <time>2022-12-21T10:19:19.331Z</time>
      </trkpt>
      <trkpt lat="46.14135" lon="-1.13852">
        <ele>47.165017</ele>
        <time>2022-12-21T10:19:22.317Z</time>
      </trkpt>
      <trkpt lat="46.1413" lon="-1.13839">
        <ele>47.228497</ele>
        <time>2022-12-21T10:19:25.321Z</time>
      </trkpt>
      <trkpt lat="46.14125" lon="-1.13825">
        <ele>47.294332</ele>
        <time>2022-12-21T10:19:28.322Z</time>
      </trkpt>
      <trkpt lat="46.1412" lon="-1.13811">
        <ele>47.36504</ele>
        <time>2022-12-21T10:19:31.318Z</time>
      </trkpt>
      <trkpt lat="46.14115" lon="-1.13797">
        <ele>47.436236</ele>
        <time>2022-12-21T10:19:34.337Z</time>
      </trkpt>
      <trkpt lat="46.1411" lon="-1.13783">
        <ele>47.531969</ele>
        <time>2022-12-21T10:19:37.331Z</time>
      </trkpt>
      <trkpt lat="46.14106" lon="-1.13768">
        <ele>47.652328</ele>
        <time>2022-12-21T10:19:40.326Z</time>
      </trkpt>
      <trkpt lat="46.14101" lon="-1.13753">
        <ele>47.775425</ele>
        <time>2022-12-21T10:19:43.321Z</time>
      </trkpt>
      <trkpt lat="46.14096" lon="-1.13738">
        <ele>47.899663</ele>
        <time>2022-12-21T10:19:46.330Z</time>
      </trkpt>
      <trkpt lat="46.14091" lon="-1.13723">
        <ele>48.024791</ele>
        <time>2022-12-21T10:19:49.341Z</time>
      </trkpt>
      <trkpt lat="46.14086" lon="-1.13709">
        <ele>48.147816</ele>
        <time>2022-12-21T10:19:52.329Z</time>
      </trkpt>
      <trkpt lat="46.14081" lon="-1.13694">
        <ele>48.271379</ele>
        <time>2022-12-21T10:19:55.325Z</time>
      </trkpt>
      <trkpt lat="46.14076" lon="-1.13679">
        <ele>48.389693</ele>
        <time>2022-12-21T10:19:58.320Z</time>
      </trkpt>
      <trkpt lat="46.14071" lon="-1.13666">
        <ele>48.506728</ele>
        <time>2022-12-21T10:20:01.320Z</time>
      </trkpt>
      <trkpt lat="46.14067" lon="-1.13652">
        <ele>48.622122</ele>
        <time>2022-12-21T10:20:04.342Z</time>
      </trkpt>
      <trkpt lat="46.14062" lon="-1.13639">
        <ele>48.726503</ele>
        <time>2022-12-21T10:20:07.341Z</time>
      </trkpt>
      <trkpt lat="46.14058" lon="-1.13627">
        <ele>48.83105</ele>
        <time>2022-12-21T10:20:10.339Z</time>
      </trkpt>
      <trkpt lat="46.14053" lon="-1.13614">
        <ele>48.941931</ele>
        <time>2022-12-21T10:20:13.321Z</time>
      </trkpt>
      <trkpt lat="46.14048" lon="-1.136">
        <ele>49.058298</ele>
        <time>2022-12-21T10:20:16.326Z</time>
      </trkpt>
      <trkpt lat="46.14043" lon="-1.13586">
        <ele>49.175519</ele>
        <time>2022-12-21T10:20:19.317Z</time>
      </trkpt>
      <trkpt lat="46.14039" lon="-1.13573">
        <ele>49.2843</ele>
        <time>2022-12-21T10:20:22.312Z</time>
      </trkpt>
      <trkpt lat="46.14035" lon="-1.13559">
        <ele>49.400797</ele>
        <time>2022-12-21T10:20:26.331Z</time>
      </trkpt>
      <trkpt lat="46.14031" lon="-1.13544">
        <ele>49.39318</ele>
        <time>2022-12-21T10:20:30.322Z</time>
      </trkpt>
      <trkpt lat="46.14029" lon="-1.1353">
        <ele>49.367794</ele>
        <time>2022-12-21T10:20:33.340Z</time>
      </trkpt>
      <trkpt lat="46.14027" lon="-1.13515">
        <ele>49.339843</ele>
        <time>2022-12-21T10:20:36.312Z</time>
      </trkpt>
      <trkpt lat="46.14025" lon="-1.135">
        <ele>49.310843</ele>
        <time>2022-12-21T10:20:39.322Z</time>
      </trkpt>
      <trkpt lat="46.14024" lon="-1.13483">
        <ele>49.280176</ele>
        <time>2022-12-21T10:20:42.308Z</time>
      </trkpt>
      <trkpt lat="46.14022" lon="-1.13466">
        <ele>49.248346</ele>
        <time>2022-12-21T10:20:45.340Z</time>
      </trkpt>
      <trkpt lat="46.14021" lon="-1.1345">
        <ele>49.21817</ele>
        <time>2022-12-21T10:20:48.317Z</time>
      </trkpt>
      <trkpt lat="46.14019" lon="-1.13434">
        <ele>49.189908</ele>
        <time>2022-12-21T10:20:51.325Z</time>
      </trkpt>
      <trkpt lat="46.14017" lon="-1.13419">
        <ele>49.160871</ele>
        <time>2022-12-21T10:20:54.313Z</time>
      </trkpt>
      <trkpt lat="46.14015" lon="-1.13401">
        <ele>49.128778</ele>
        <time>2022-12-21T10:20:57.319Z</time>
      </trkpt>
      <trkpt lat="46.14014" lon="-1.13383">
        <ele>49.095453</ele>
        <time>2022-12-21T10:21:00.339Z</time>
      </trkpt>
      <trkpt lat="46.14011" lon="-1.13365">
        <ele>49.061732</ele>
        <time>2022-12-21T10:21:03.333Z</time>
      </trkpt>
      <trkpt lat="46.1401" lon="-1.13346">
        <ele>49.02704</ele>
        <time>2022-12-21T10:21:06.319Z</time>
      </trkpt>
      <trkpt lat="46.14008" lon="-1.13328">
        <ele>48.992637</ele>
        <time>2022-12-21T10:21:09.339Z</time>
      </trkpt>
      <trkpt lat="46.14006" lon="-1.13311">
        <ele>48.961098</ele>
        <time>2022-12-21T10:21:12.318Z</time>
      </trkpt>
      <trkpt lat="46.14005" lon="-1.13295">
        <ele>49.022157</ele>
        <time>2022-12-21T10:21:15.317Z</time>
      </trkpt>
      <trkpt lat="46.14003" lon="-1.13281">
        <ele>49.219382</ele>
        <time>2022-12-21T10:21:18.316Z</time>
      </trkpt>
      <trkpt lat="46.14002" lon="-1.13265">
        <ele>49.428276</ele>
        <time>2022-12-21T10:21:21.319Z</time>
      </trkpt>
      <trkpt lat="46.14" lon="-1.13249">
        <ele>49.645423</ele>
        <time>2022-12-21T10:21:24.318Z</time>
      </trkpt>
      <trkpt lat="46.13998" lon="-1.13233">
        <ele>49.8602</ele>
        <time>2022-12-21T10:21:27.310Z</time>
      </trkpt>
      <trkpt lat="46.13996" lon="-1.13219">
        <ele>50.062212</ele>
        <time>2022-12-21T10:21:30.319Z</time>
      </trkpt>
      <trkpt lat="46.13993" lon="-1.13205">
        <ele>50.251328</ele>
        <time>2022-12-21T10:21:33.312Z</time>
      </trkpt>
      <trkpt lat="46.13987" lon="-1.13191">
        <ele>50.4802</ele>
        <time>2022-12-21T10:21:37.307Z</time>
      </trkpt>
      <trkpt lat="46.13977" lon="-1.1318">
        <ele>50.711806</ele>
        <time>2022-12-21T10:21:41.315Z</time>
      </trkpt>
      <trkpt lat="46.13968" lon="-1.13173">
        <ele>50.912803</ele>
        <time>2022-12-21T10:21:44.314Z</time>
      </trkpt>
      <trkpt lat="46.13958" lon="-1.1317">
        <ele>51.109776</ele>
        <time>2022-12-21T10:21:47.309Z</time>
      </trkpt>
      <trkpt lat="46.13947" lon="-1.13169">
        <ele>51.330878</ele>
        <time>2022-12-21T10:21:51.319Z</time>
      </trkpt>
      <trkpt lat="46.13938" lon="-1.1317">
        <ele>51.513349</ele>
        <time>2022-12-21T10:21:54.326Z</time>
      </trkpt>
      <trkpt lat="46.13928" lon="-1.1317">
        <ele>51.693763</ele>
        <time>2022-12-21T10:21:57.318Z</time>
      </trkpt>
      <trkpt lat="46.13919" lon="-1.13169">
        <ele>51.877416</ele>
        <time>2022-12-21T10:22:00.322Z</time>
      </trkpt>
      <trkpt lat="46.13909" lon="-1.13165">
        <ele>52.072986</ele>
        <time>2022-12-21T10:22:03.326Z</time>
      </trkpt>
      <trkpt lat="46.139" lon="-1.13159">
        <ele>52.269259</ele>
        <time>2022-12-21T10:22:06.330Z</time>
      </trkpt>
      <trkpt lat="46.13891" lon="-1.1315">
        <ele>52.457079</ele>
        <time>2022-12-21T10:22:10.345Z</time>
      </trkpt>
      <trkpt lat="46.13884" lon="-1.13138">
        <ele>52.56795</ele>
        <time>2022-12-21T10:22:14.336Z</time>
      </trkpt>
      <trkpt lat="46.1388" lon="-1.13126">
        <ele>52.661556</ele>
        <time>2022-12-21T10:22:17.340Z</time>
      </trkpt>
      <trkpt lat="46.13876" lon="-1.13114">
        <ele>52.759781</ele>
        <time>2022-12-21T10:22:20.315Z</time>
      </trkpt>
      <trkpt lat="46.13872" lon="-1.13101">
        <ele>52.85627</ele>
        <time>2022-12-21T10:22:23.307Z</time>
      </trkpt>
      <trkpt lat="46.13868" lon="-1.13088">
        <ele>52.961649</ele>
        <time>2022-12-21T10:22:27.334Z</time>
      </trkpt>
      <trkpt lat="46.13862" lon="-1.13073">
        <ele>53.085716</ele>
        <time>2022-12-21T10:22:32.335Z</time>
      </trkpt>
      <trkpt lat="46.13857" lon="-1.13061">
        <ele>53.186556</ele>
        <time>2022-12-21T10:22:35.321Z</time>
      </trkpt>
      <trkpt lat="46.13851" lon="-1.13046">
        <ele>53.306721</ele>
        <time>2022-12-21T10:22:39.336Z</time>
      </trkpt>
      <trkpt lat="46.13846" lon="-1.13031">
        <ele>53.428987</ele>
        <time>2022-12-21T10:22:43.320Z</time>
      </trkpt>
      <trkpt lat="46.13841" lon="-1.13019">
        <ele>53.527621</ele>
        <time>2022-12-21T10:22:46.329Z</time>
      </trkpt>
      <trkpt lat="46.13837" lon="-1.13007">
        <ele>53.625991</ele>
        <time>2022-12-21T10:22:49.320Z</time>
      </trkpt>
      <trkpt lat="46.13832" lon="-1.12995">
        <ele>53.721847</ele>
        <time>2022-12-21T10:22:52.329Z</time>
      </trkpt>
      <trkpt lat="46.13828" lon="-1.12981">
        <ele>53.838254</ele>
        <time>2022-12-21T10:22:56.337Z</time>
      </trkpt>
      <trkpt lat="46.13823" lon="-1.12967">
        <ele>53.948057</ele>
        <time>2022-12-21T10:23:00.318Z</time>
      </trkpt>
      <trkpt lat="46.13817" lon="-1.12953">
        <ele>54.066133</ele>
        <time>2022-12-21T10:23:04.319Z</time>
      </trkpt>
      <trkpt lat="46.13811" lon="-1.12938">
        <ele>54.185949</ele>
        <time>2022-12-21T10:23:08.313Z</time>
      </trkpt>
      <trkpt lat="46.13807" lon="-1.12925">
        <ele>54.295462</ele>
        <time>2022-12-21T10:23:12.324Z</time>
      </trkpt>
      <trkpt lat="46.13802" lon="-1.12911">
        <ele>54.555232</ele>
        <time>2022-12-21T10:23:17.319Z</time>
      </trkpt>
      <trkpt lat="46.13798" lon="-1.12899">
        <ele>54.772767</ele>
        <time>2022-12-21T10:23:21.319Z</time>
      </trkpt>
      <trkpt lat="46.13794" lon="-1.12886">
        <ele>55.005943</ele>
        <time>2022-12-21T10:23:25.314Z</time>
      </trkpt>
      <trkpt lat="46.1379" lon="-1.12873">
        <ele>55.240621</ele>
        <time>2022-12-21T10:23:30.314Z</time>
      </trkpt>
      <trkpt lat="46.13785" lon="-1.12861">
        <ele>55.462924</ele>
        <time>2022-12-21T10:23:34.329Z</time>
      </trkpt>
      <trkpt lat="46.13781" lon="-1.12849">
        <ele>55.700403</ele>
        <time>2022-12-21T10:23:38.316Z</time>
      </trkpt>
      <trkpt lat="46.13776" lon="-1.12835">
        <ele>55.955596</ele>
        <time>2022-12-21T10:23:42.313Z</time>
      </trkpt>
      <trkpt lat="46.13772" lon="-1.12821">
        <ele>56.207793</ele>
        <time>2022-12-21T10:23:46.318Z</time>
      </trkpt>
      <trkpt lat="46.13766" lon="-1.12807">
        <ele>56.480357</ele>
        <time>2022-12-21T10:23:50.316Z</time>
      </trkpt>
      <trkpt lat="46.1376" lon="-1.12792">
        <ele>56.763905</ele>
        <time>2022-12-21T10:23:54.309Z</time>
      </trkpt>
      <trkpt lat="46.13755" lon="-1.12777">
        <ele>57.039148</ele>
        <time>2022-12-21T10:23:58.322Z</time>
      </trkpt>
      <trkpt lat="46.13749" lon="-1.12762">
        <ele>57.314566</ele>
        <time>2022-12-21T10:24:02.321Z</time>
      </trkpt>
      <trkpt lat="46.13744" lon="-1.12747">
        <ele>57.594462</ele>
        <time>2022-12-21T10:24:06.341Z</time>
      </trkpt>
      <trkpt lat="46.13739" lon="-1.12732">
        <ele>57.866169</ele>
        <time>2022-12-21T10:24:10.315Z</time>
      </trkpt>
      <trkpt lat="46.13734" lon="-1.12717">
        <ele>58.142416</ele>
        <time>2022-12-21T10:24:14.326Z</time>
      </trkpt>
      <trkpt lat="46.13729" lon="-1.12703">
        <ele>58.418284</ele>
        <time>2022-12-21T10:24:18.322Z</time>
      </trkpt>
      <trkpt lat="46.13723" lon="-1.12687">
        <ele>58.675273</ele>
        <time>2022-12-21T10:24:22.314Z</time>
      </trkpt>
      <trkpt lat="46.13718" lon="-1.12672">
        <ele>58.891506</ele>
        <time>2022-12-21T10:24:26.324Z</time>
      </trkpt>
      <trkpt lat="46.13713" lon="-1.12658">
        <ele>59.102268</ele>
        <time>2022-12-21T10:24:30.313Z</time>
      </trkpt>
      <trkpt lat="46.13708" lon="-1.12642">
        <ele>59.325134</ele>
        <time>2022-12-21T10:24:34.341Z</time>
      </trkpt>
      <trkpt lat="46.13703" lon="-1.12631">
        <ele>59.49949</ele>
        <time>2022-12-21T10:24:37.331Z</time>
      </trkpt>
      <trkpt lat="46.13697" lon="-1.12616">
        <ele>59.721224</ele>
        <time>2022-12-21T10:24:41.318Z</time>
      </trkpt>
      <trkpt lat="46.13692" lon="-1.12601">
        <ele>59.942619</ele>
        <time>2022-12-21T10:24:45.342Z</time>
      </trkpt>
      <trkpt lat="46.13688" lon="-1.12588">
        <ele>60.126992</ele>
        <time>2022-12-21T10:24:48.313Z</time>
      </trkpt>
      <trkpt lat="46.13683" lon="-1.12574">
        <ele>60.318016</ele>
        <time>2022-12-21T10:24:51.342Z</time>
      </trkpt>
      <trkpt lat="46.13679" lon="-1.12563">
        <ele>60.48911</ele>
        <time>2022-12-21T10:24:54.340Z</time>
      </trkpt>
      <trkpt lat="46.13674" lon="-1.12548">
        <ele>60.707052</ele>
        <time>2022-12-21T10:24:58.335Z</time>
      </trkpt>
      <trkpt lat="46.1367" lon="-1.12535">
        <ele>60.891123</ele>
        <time>2022-12-21T10:25:02.320Z</time>
      </trkpt>
      <trkpt lat="46.13665" lon="-1.12522">
        <ele>61.081176</ele>
        <time>2022-12-21T10:25:06.338Z</time>
      </trkpt>
      <trkpt lat="46.13661" lon="-1.12509">
        <ele>61.273246</ele>
        <time>2022-12-21T10:25:10.339Z</time>
      </trkpt>
      <trkpt lat="46.13652" lon="-1.12498">
        <ele>61.489601</ele>
        <time>2022-12-21T10:25:14.330Z</time>
      </trkpt>
      <trkpt lat="46.13643" lon="-1.12491">
        <ele>61.679193</ele>
        <time>2022-12-21T10:25:17.340Z</time>
      </trkpt>
      <trkpt lat="46.13637" lon="-1.12478">
        <ele>61.87948</ele>
        <time>2022-12-21T10:25:20.340Z</time>
      </trkpt>
      <trkpt lat="46.13638" lon="-1.12462">
        <ele>61.758542</ele>
        <time>2022-12-21T10:25:23.310Z</time>
      </trkpt>
      <trkpt lat="46.13638" lon="-1.12447">
        <ele>61.496081</ele>
        <time>2022-12-21T10:25:26.319Z</time>
      </trkpt>
      <trkpt lat="46.13633" lon="-1.12432">
        <ele>61.208476</ele>
        <time>2022-12-21T10:25:29.324Z</time>
      </trkpt>
      <trkpt lat="46.13627" lon="-1.12416">
        <ele>60.907278</ele>
        <time>2022-12-21T10:25:32.340Z</time>
      </trkpt>
      <trkpt lat="46.13621" lon="-1.12401">
        <ele>60.613523</ele>
        <time>2022-12-21T10:25:35.316Z</time>
      </trkpt>
      <trkpt lat="46.13617" lon="-1.12386">
        <ele>60.327091</ele>
        <time>2022-12-21T10:25:38.318Z</time>
      </trkpt>
      <trkpt lat="46.13611" lon="-1.12371">
        <ele>60.037603</ele>
        <time>2022-12-21T10:25:41.317Z</time>
      </trkpt>
      <trkpt lat="46.13606" lon="-1.12356">
        <ele>59.745084</ele>
        <time>2022-12-21T10:25:44.333Z</time>
      </trkpt>
      <trkpt lat="46.136" lon="-1.12341">
        <ele>59.457889</ele>
        <time>2022-12-21T10:25:47.325Z</time>
      </trkpt>
      <trkpt lat="46.13595" lon="-1.12326">
        <ele>59.171381</ele>
        <time>2022-12-21T10:25:50.320Z</time>
      </trkpt>
      <trkpt lat="46.1359" lon="-1.12312">
        <ele>58.898253</ele>
        <time>2022-12-21T10:25:53.310Z</time>
      </trkpt>
      <trkpt lat="46.13585" lon="-1.12297">
        <ele>58.611057</ele>
        <time>2022-12-21T10:25:56.341Z</time>
      </trkpt>
      <trkpt lat="46.1358" lon="-1.12283">
        <ele>58.335994</ele>
        <time>2022-12-21T10:25:59.338Z</time>
      </trkpt>
      <trkpt lat="46.13575" lon="-1.12269">
        <ele>58.073147</ele>
        <time>2022-12-21T10:26:02.320Z</time>
      </trkpt>
      <trkpt lat="46.13569" lon="-1.12256">
        <ele>57.820395</ele>
        <time>2022-12-21T10:26:05.324Z</time>
      </trkpt>
      <trkpt lat="46.13565" lon="-1.12243">
        <ele>57.566597</ele>
        <time>2022-12-21T10:26:08.323Z</time>
      </trkpt>
      <trkpt lat="46.13561" lon="-1.1223">
        <ele>57.486539</ele>
        <time>2022-12-21T10:26:11.324Z</time>
      </trkpt>
      <trkpt lat="46.13557" lon="-1.12218">
        <ele>57.475284</ele>
        <time>2022-12-21T10:26:14.329Z</time>
      </trkpt>
      <trkpt lat="46.13553" lon="-1.12206">
        <ele>57.464104</ele>
        <time>2022-12-21T10:26:17.325Z</time>
      </trkpt>
      <trkpt lat="46.13548" lon="-1.12192">
        <ele>57.450727</ele>
        <time>2022-12-21T10:26:20.319Z</time>
      </trkpt>
      <trkpt lat="46.13542" lon="-1.12177">
        <ele>57.436665</ele>
        <time>2022-12-21T10:26:23.317Z</time>
      </trkpt>
      <trkpt lat="46.13537" lon="-1.12161">
        <ele>57.422217</ele>
        <time>2022-12-21T10:26:26.316Z</time>
      </trkpt>
      <trkpt lat="46.13531" lon="-1.12146">
        <ele>57.407844</ele>
        <time>2022-12-21T10:26:29.310Z</time>
      </trkpt>
      <trkpt lat="46.13524" lon="-1.12132">
        <ele>57.393244</ele>
        <time>2022-12-21T10:26:32.339Z</time>
      </trkpt>
      <trkpt lat="46.13518" lon="-1.12118">
        <ele>57.379258</ele>
        <time>2022-12-21T10:26:35.314Z</time>
      </trkpt>
      <trkpt lat="46.1351" lon="-1.12106">
        <ele>57.365931</ele>
        <time>2022-12-21T10:26:38.323Z</time>
      </trkpt>
      <trkpt lat="46.135" lon="-1.12101">
        <ele>57.35362</ele>
        <time>2022-12-21T10:26:41.341Z</time>
      </trkpt>
      <trkpt lat="46.13491" lon="-1.12098">
        <ele>57.341959</ele>
        <time>2022-12-21T10:26:44.315Z</time>
      </trkpt>
      <trkpt lat="46.13482" lon="-1.12091">
        <ele>57.329889</ele>
        <time>2022-12-21T10:26:47.314Z</time>
      </trkpt>
      <trkpt lat="46.13475" lon="-1.12081">
        <ele>57.317979</ele>
        <time>2022-12-21T10:26:50.311Z</time>
      </trkpt>
      <trkpt lat="46.13466" lon="-1.12074">
        <ele>57.30549</ele>
        <time>2022-12-21T10:26:53.312Z</time>
      </trkpt>
      <trkpt lat="46.13457" lon="-1.12068">
        <ele>57.294031</ele>
        <time>2022-12-21T10:26:56.319Z</time>
      </trkpt>
      <trkpt lat="46.13449" lon="-1.12062">
        <ele>57.283142</ele>
        <time>2022-12-21T10:26:59.318Z</time>
      </trkpt>
      <trkpt lat="46.1344" lon="-1.12053">
        <ele>57.132212</ele>
        <time>2022-12-21T10:27:03.310Z</time>
      </trkpt>
      <trkpt lat="46.1343" lon="-1.12045">
        <ele>56.909839</ele>
        <time>2022-12-21T10:27:07.311Z</time>
      </trkpt>
      <trkpt lat="46.13422" lon="-1.12037">
        <ele>56.712099</ele>
        <time>2022-12-21T10:27:10.314Z</time>
      </trkpt>
      <trkpt lat="46.13413" lon="-1.1203">
        <ele>56.510993</ele>
        <time>2022-12-21T10:27:13.317Z</time>
      </trkpt>
      <trkpt lat="46.13404" lon="-1.12022">
        <ele>56.300955</ele>
        <time>2022-12-21T10:27:16.313Z</time>
      </trkpt>
      <trkpt lat="46.13394" lon="-1.12014">
        <ele>56.069176</ele>
        <time>2022-12-21T10:27:19.314Z</time>
      </trkpt>
      <trkpt lat="46.13384" lon="-1.12006">
        <ele>55.833689</ele>
        <time>2022-12-21T10:27:22.340Z</time>
      </trkpt>
      <trkpt lat="46.13374" lon="-1.11998">
        <ele>55.60996</ele>
        <time>2022-12-21T10:27:25.319Z</time>
      </trkpt>
      <trkpt lat="46.13365" lon="-1.11991">
        <ele>55.408551</ele>
        <time>2022-12-21T10:27:28.320Z</time>
      </trkpt>
      <trkpt lat="46.13356" lon="-1.11984">
        <ele>55.212601</ele>
        <time>2022-12-21T10:27:31.333Z</time>
      </trkpt>
      <trkpt lat="46.13348" lon="-1.11977">
        <ele>55.02811</ele>
        <time>2022-12-21T10:27:34.315Z</time>
      </trkpt>
      <trkpt lat="46.13338" lon="-1.11969">
        <ele>54.800242</ele>
        <time>2022-12-21T10:27:38.309Z</time>
      </trkpt>
      <trkpt lat="46.1333" lon="-1.11965">
        <ele>54.620272</ele>
        <time>2022-12-21T10:27:42.342Z</time>
      </trkpt>
      <trkpt lat="46.13321" lon="-1.11974">
        <ele>54.409894</ele>
        <time>2022-12-21T10:27:46.311Z</time>
      </trkpt>
      <trkpt lat="46.13315" lon="-1.11988">
        <ele>54.182176</ele>
        <time>2022-12-21T10:27:49.313Z</time>
      </trkpt>
      <trkpt lat="46.1331" lon="-1.12003">
        <ele>53.949713</ele>
        <time>2022-12-21T10:27:52.309Z</time>
      </trkpt>
      <trkpt lat="46.13303" lon="-1.12017">
        <ele>53.715216</ele>
        <time>2022-12-21T10:27:55.327Z</time>
      </trkpt>
      <trkpt lat="46.13298" lon="-1.12033">
        <ele>53.55818</ele>
        <time>2022-12-21T10:27:58.342Z</time>
      </trkpt>
      <trkpt lat="46.13292" lon="-1.1205">
        <ele>53.398266</ele>
        <time>2022-12-21T10:28:01.328Z</time>
      </trkpt>
      <trkpt lat="46.13286" lon="-1.12067">
        <ele>53.238912</ele>
        <time>2022-12-21T10:28:04.342Z</time>
      </trkpt>
      <trkpt lat="46.13282" lon="-1.12079">
        <ele>53.127774</ele>
        <time>2022-12-21T10:28:06.338Z</time>
      </trkpt>
      <trkpt lat="46.13277" lon="-1.12094">
        <ele>52.981658</ele>
        <time>2022-12-21T10:28:09.317Z</time>
      </trkpt>
      <trkpt lat="46.13273" lon="-1.12111">
        <ele>52.832226</ele>
        <time>2022-12-21T10:28:12.328Z</time>
      </trkpt>
      <trkpt lat="46.13268" lon="-1.12126">
        <ele>52.689832</ele>
        <time>2022-12-21T10:28:15.334Z</time>
      </trkpt>
      <trkpt lat="46.13264" lon="-1.1214">
        <ele>52.560624</ele>
        <time>2022-12-21T10:28:18.324Z</time>
      </trkpt>
      <trkpt lat="46.1326" lon="-1.12155">
        <ele>52.429064</ele>
        <time>2022-12-21T10:28:21.322Z</time>
      </trkpt>
      <trkpt lat="46.13258" lon="-1.12169">
        <ele>52.306712</ele>
        <time>2022-12-21T10:28:24.315Z</time>
      </trkpt>
      <trkpt lat="46.13258" lon="-1.12182">
        <ele>52.190246</ele>
        <time>2022-12-21T10:28:27.320Z</time>
      </trkpt>
      <trkpt lat="46.13254" lon="-1.12195">
        <ele>52.073427</ele>
        <time>2022-12-21T10:28:30.342Z</time>
      </trkpt>
      <trkpt lat="46.13243" lon="-1.12199">
        <ele>51.926919</ele>
        <time>2022-12-21T10:28:34.342Z</time>
      </trkpt>
      <trkpt lat="46.13233" lon="-1.12195">
        <ele>51.805241</ele>
        <time>2022-12-21T10:28:37.338Z</time>
      </trkpt>
      <trkpt lat="46.13223" lon="-1.12196">
        <ele>51.687462</ele>
        <time>2022-12-21T10:28:40.339Z</time>
      </trkpt>
      <trkpt lat="46.13213" lon="-1.12198">
        <ele>51.563371</ele>
        <time>2022-12-21T10:28:43.340Z</time>
      </trkpt>
      <trkpt lat="46.13203" lon="-1.122">
        <ele>51.490828</ele>
        <time>2022-12-21T10:28:46.331Z</time>
      </trkpt>
      <trkpt lat="46.13192" lon="-1.12203">
        <ele>51.475955</ele>
        <time>2022-12-21T10:28:49.318Z</time>
      </trkpt>
      <trkpt lat="46.13181" lon="-1.12206">
        <ele>51.461344</ele>
        <time>2022-12-21T10:28:52.317Z</time>
      </trkpt>
      <trkpt lat="46.1317" lon="-1.1221">
        <ele>51.446394</ele>
        <time>2022-12-21T10:28:55.326Z</time>
      </trkpt>
      <trkpt lat="46.1316" lon="-1.12215">
        <ele>51.431756</ele>
        <time>2022-12-21T10:28:58.333Z</time>
      </trkpt>
      <trkpt lat="46.1315" lon="-1.12221">
        <ele>51.416903</ele>
        <time>2022-12-21T10:29:01.312Z</time>
      </trkpt>
      <trkpt lat="46.1314" lon="-1.12227">
        <ele>51.402384</ele>
        <time>2022-12-21T10:29:04.325Z</time>
      </trkpt>
      <trkpt lat="46.1313" lon="-1.12231">
        <ele>51.388388</ele>
        <time>2022-12-21T10:29:07.307Z</time>
      </trkpt>
      <trkpt lat="46.1312" lon="-1.12237">
        <ele>51.374502</ele>
        <time>2022-12-21T10:29:10.315Z</time>
      </trkpt>
      <trkpt lat="46.1311" lon="-1.12243">
        <ele>51.359612</ele>
        <time>2022-12-21T10:29:13.313Z</time>
      </trkpt>
      <trkpt lat="46.131" lon="-1.12249">
        <ele>51.345211</ele>
        <time>2022-12-21T10:29:16.312Z</time>
      </trkpt>
      <trkpt lat="46.13091" lon="-1.12256">
        <ele>51.331212</ele>
        <time>2022-12-21T10:29:19.314Z</time>
      </trkpt>
      <trkpt lat="46.13082" lon="-1.12263">
        <ele>51.318226</ele>
        <time>2022-12-21T10:29:22.318Z</time>
      </trkpt>
      <trkpt lat="46.13073" lon="-1.1227">
        <ele>51.305024</ele>
        <time>2022-12-21T10:29:25.309Z</time>
      </trkpt>
      <trkpt lat="46.13064" lon="-1.12276">
        <ele>51.291373</ele>
        <time>2022-12-21T10:29:28.320Z</time>
      </trkpt>
      <trkpt lat="46.13054" lon="-1.12281">
        <ele>51.276765</ele>
        <time>2022-12-21T10:29:31.338Z</time>
      </trkpt>
      <trkpt lat="46.13044" lon="-1.12285">
        <ele>51.262924</ele>
        <time>2022-12-21T10:29:34.340Z</time>
      </trkpt>
      <trkpt lat="46.13034" lon="-1.12288">
        <ele>51.291731</ele>
        <time>2022-12-21T10:29:37.318Z</time>
      </trkpt>
      <trkpt lat="46.13024" lon="-1.1229">
        <ele>51.351472</ele>
        <time>2022-12-21T10:29:40.344Z</time>
      </trkpt>
      <trkpt lat="46.13014" lon="-1.12292">
        <ele>51.41093</ele>
        <time>2022-12-21T10:29:43.311Z</time>
      </trkpt>
      <trkpt lat="46.13004" lon="-1.12292">
        <ele>51.465466</ele>
        <time>2022-12-21T10:29:46.322Z</time>
      </trkpt>
      <trkpt lat="46.12997" lon="-1.123">
        <ele>51.521331</ele>
        <time>2022-12-21T10:29:50.338Z</time>
      </trkpt>
      <trkpt lat="46.12997" lon="-1.12318">
        <ele>51.593679</ele>
        <time>2022-12-21T10:29:54.340Z</time>
      </trkpt>
      <trkpt lat="46.12998" lon="-1.12333">
        <ele>51.658229</ele>
        <time>2022-12-21T10:29:57.328Z</time>
      </trkpt>
      <trkpt lat="46.12993" lon="-1.12345">
        <ele>51.713972</ele>
        <time>2022-12-21T10:30:00.334Z</time>
      </trkpt>
      <trkpt lat="46.12984" lon="-1.12347">
        <ele>51.768758</ele>
        <time>2022-12-21T10:30:03.329Z</time>
      </trkpt>
      <trkpt lat="46.12974" lon="-1.12342">
        <ele>51.83091</ele>
        <time>2022-12-21T10:30:06.337Z</time>
      </trkpt>
      <trkpt lat="46.12963" lon="-1.12336">
        <ele>51.895555</ele>
        <time>2022-12-21T10:30:09.315Z</time>
      </trkpt>
      <trkpt lat="46.12953" lon="-1.12334">
        <ele>51.959785</ele>
        <time>2022-12-21T10:30:12.313Z</time>
      </trkpt>
      <trkpt lat="46.12941" lon="-1.12333">
        <ele>52.026048</ele>
        <time>2022-12-21T10:30:15.320Z</time>
      </trkpt>
      <trkpt lat="46.1293" lon="-1.12333">
        <ele>52.093469</ele>
        <time>2022-12-21T10:30:18.320Z</time>
      </trkpt>
      <trkpt lat="46.12919" lon="-1.12334">
        <ele>52.159226</ele>
        <time>2022-12-21T10:30:21.316Z</time>
      </trkpt>
      <trkpt lat="46.12907" lon="-1.12335">
        <ele>52.22613</ele>
        <time>2022-12-21T10:30:24.323Z</time>
      </trkpt>
      <trkpt lat="46.12897" lon="-1.1234">
        <ele>52.288702</ele>
        <time>2022-12-21T10:30:27.312Z</time>
      </trkpt>
      <trkpt lat="46.12891" lon="-1.12353">
        <ele>52.320047</ele>
        <time>2022-12-21T10:30:30.337Z</time>
      </trkpt>
      <trkpt lat="46.12891" lon="-1.12368">
        <ele>52.334006</ele>
        <time>2022-12-21T10:30:33.341Z</time>
      </trkpt>
      <trkpt lat="46.12894" lon="-1.12384">
        <ele>52.349618</ele>
        <time>2022-12-21T10:30:36.323Z</time>
      </trkpt>
      <trkpt lat="46.12899" lon="-1.124">
        <ele>52.366112</ele>
        <time>2022-12-21T10:30:39.335Z</time>
      </trkpt>
      <trkpt lat="46.12905" lon="-1.12415">
        <ele>52.3821</ele>
        <time>2022-12-21T10:30:42.323Z</time>
      </trkpt>
      <trkpt lat="46.12909" lon="-1.12431">
        <ele>52.39776</ele>
        <time>2022-12-21T10:30:45.323Z</time>
      </trkpt>
      <trkpt lat="46.12911" lon="-1.12446">
        <ele>52.411977</ele>
        <time>2022-12-21T10:30:48.342Z</time>
      </trkpt>
      <trkpt lat="46.12906" lon="-1.1246">
        <ele>52.427286</ele>
        <time>2022-12-21T10:30:52.329Z</time>
      </trkpt>
      <trkpt lat="46.12898" lon="-1.12467">
        <ele>52.440113</ele>
        <time>2022-12-21T10:30:55.345Z</time>
      </trkpt>
      <trkpt lat="46.12888" lon="-1.12469">
        <ele>52.453399</ele>
        <time>2022-12-21T10:30:58.342Z</time>
      </trkpt>
      <trkpt lat="46.12878" lon="-1.1247">
        <ele>52.466875</ele>
        <time>2022-12-21T10:31:01.325Z</time>
      </trkpt>
      <trkpt lat="46.12868" lon="-1.12472">
        <ele>52.480543</ele>
        <time>2022-12-21T10:31:04.341Z</time>
      </trkpt>
      <trkpt lat="46.12858" lon="-1.12475">
        <ele>52.494509</ele>
        <time>2022-12-21T10:31:07.309Z</time>
      </trkpt>
      <trkpt lat="46.12848" lon="-1.12477">
        <ele>52.508412</ele>
        <time>2022-12-21T10:31:10.323Z</time>
      </trkpt>
      <trkpt lat="46.12838" lon="-1.1248">
        <ele>52.521681</ele>
        <time>2022-12-21T10:31:13.342Z</time>
      </trkpt>
      <trkpt lat="46.12828" lon="-1.12483">
        <ele>52.535154</ele>
        <time>2022-12-21T10:31:16.312Z</time>
      </trkpt>
      <trkpt lat="46.12818" lon="-1.12486">
        <ele>52.548909</ele>
        <time>2022-12-21T10:31:19.321Z</time>
      </trkpt>
      <trkpt lat="46.12808" lon="-1.12488">
        <ele>52.597707</ele>
        <time>2022-12-21T10:31:22.322Z</time>
      </trkpt>
      <trkpt lat="46.12798" lon="-1.12489">
        <ele>52.664908</ele>
        <time>2022-12-21T10:31:25.316Z</time>
      </trkpt>
      <trkpt lat="46.12788" lon="-1.12491">
        <ele>52.734184</ele>
        <time>2022-12-21T10:31:28.330Z</time>
      </trkpt>
      <trkpt lat="46.12778" lon="-1.12491">
        <ele>52.801225</ele>
        <time>2022-12-21T10:31:31.342Z</time>
      </trkpt>
      <trkpt lat="46.12768" lon="-1.12491">
        <ele>52.866254</ele>
        <time>2022-12-21T10:31:34.321Z</time>
      </trkpt>
      <trkpt lat="46.12759" lon="-1.12492">
        <ele>52.930749</ele>
        <time>2022-12-21T10:31:37.322Z</time>
      </trkpt>
      <trkpt lat="46.12747" lon="-1.12493">
        <ele>53.009383</ele>
        <time>2022-12-21T10:31:41.323Z</time>
      </trkpt>
      <trkpt lat="46.1274" lon="-1.12502">
        <ele>53.071121</ele>
        <time>2022-12-21T10:31:45.322Z</time>
      </trkpt>
      <trkpt lat="46.12743" lon="-1.12516">
        <ele>53.140795</ele>
        <time>2022-12-21T10:31:49.322Z</time>
      </trkpt>
      <trkpt lat="46.12747" lon="-1.12528">
        <ele>53.204629</ele>
        <time>2022-12-21T10:31:52.319Z</time>
      </trkpt>
      <trkpt lat="46.12751" lon="-1.12542">
        <ele>53.271648</ele>
        <time>2022-12-21T10:31:55.332Z</time>
      </trkpt>
      <trkpt lat="46.12755" lon="-1.12556">
        <ele>53.341699</ele>
        <time>2022-12-21T10:31:58.314Z</time>
      </trkpt>
      <trkpt lat="46.12757" lon="-1.12572">
        <ele>53.416546</ele>
        <time>2022-12-21T10:32:01.324Z</time>
      </trkpt>
      <trkpt lat="46.12759" lon="-1.12585">
        <ele>53.482051</ele>
        <time>2022-12-21T10:32:04.341Z</time>
      </trkpt>
      <trkpt lat="46.12761" lon="-1.12599">
        <ele>53.547871</ele>
        <time>2022-12-21T10:32:07.323Z</time>
      </trkpt>
      <trkpt lat="46.12762" lon="-1.12614">
        <ele>53.614798</ele>
        <time>2022-12-21T10:32:10.334Z</time>
      </trkpt>
      <trkpt lat="46.12763" lon="-1.12629">
        <ele>53.685624</ele>
        <time>2022-12-21T10:32:13.341Z</time>
      </trkpt>
      <trkpt lat="46.12763" lon="-1.12645">
        <ele>53.758573</ele>
        <time>2022-12-21T10:32:16.308Z</time>
      </trkpt>
      <trkpt lat="46.12763" lon="-1.1266">
        <ele>53.771337</ele>
        <time>2022-12-21T10:32:19.339Z</time>
      </trkpt>
      <trkpt lat="46.12763" lon="-1.12675">
        <ele>53.783015</ele>
        <time>2022-12-21T10:32:22.314Z</time>
      </trkpt>
      <trkpt lat="46.12763" lon="-1.12688">
        <ele>53.793734</ele>
        <time>2022-12-21T10:32:25.322Z</time>
      </trkpt>
      <trkpt lat="46.12762" lon="-1.12703">
        <ele>53.805748</ele>
        <time>2022-12-21T10:32:28.341Z</time>
      </trkpt>
      <trkpt lat="46.12761" lon="-1.12719">
        <ele>53.8185</ele>
        <time>2022-12-21T10:32:31.345Z</time>
      </trkpt>
      <trkpt lat="46.1276" lon="-1.12735">
        <ele>53.830831</ele>
        <time>2022-12-21T10:32:34.339Z</time>
      </trkpt>
      <trkpt lat="46.12761" lon="-1.1275">
        <ele>53.843327</ele>
        <time>2022-12-21T10:32:37.316Z</time>
      </trkpt>
      <trkpt lat="46.12763" lon="-1.12766">
        <ele>53.856066</ele>
        <time>2022-12-21T10:32:40.339Z</time>
      </trkpt>
      <trkpt lat="46.12766" lon="-1.12782">
        <ele>53.869438</ele>
        <time>2022-12-21T10:32:43.345Z</time>
      </trkpt>
      <trkpt lat="46.1277" lon="-1.12798">
        <ele>53.882641</ele>
        <time>2022-12-21T10:32:46.313Z</time>
      </trkpt>
      <trkpt lat="46.12773" lon="-1.12812">
        <ele>53.894406</ele>
        <time>2022-12-21T10:32:49.329Z</time>
      </trkpt>
      <trkpt lat="46.12774" lon="-1.12826">
        <ele>53.905591</ele>
        <time>2022-12-21T10:32:53.339Z</time>
      </trkpt>
      <trkpt lat="46.12768" lon="-1.12839">
        <ele>53.918053</ele>
        <time>2022-12-21T10:32:58.329Z</time>
      </trkpt>
      <trkpt lat="46.12761" lon="-1.12849">
        <ele>53.928899</ele>
        <time>2022-12-21T10:33:02.332Z</time>
      </trkpt>
      <trkpt lat="46.12752" lon="-1.12854">
        <ele>53.94032</ele>
        <time>2022-12-21T10:33:06.321Z</time>
      </trkpt>
      <trkpt lat="46.12744" lon="-1.12843">
        <ele>53.952785</ele>
        <time>2022-12-21T10:33:10.330Z</time>
      </trkpt>
      <trkpt lat="46.12737" lon="-1.12832">
        <ele>53.965069</ele>
        <time>2022-12-21T10:33:14.315Z</time>
      </trkpt>
      <trkpt lat="46.12728" lon="-1.1282">
        <ele>54.048359</ele>
        <time>2022-12-21T10:33:18.320Z</time>
      </trkpt>
      <trkpt lat="46.12721" lon="-1.12812">
        <ele>54.11184</ele>
        <time>2022-12-21T10:33:21.324Z</time>
      </trkpt>
      <trkpt lat="46.12713" lon="-1.12803">
        <ele>54.180718</ele>
        <time>2022-12-21T10:33:24.312Z</time>
      </trkpt>
      <trkpt lat="46.12706" lon="-1.12793">
        <ele>54.251826</ele>
        <time>2022-12-21T10:33:27.319Z</time>
      </trkpt>
      <trkpt lat="46.12698" lon="-1.12785">
        <ele>54.319927</ele>
        <time>2022-12-21T10:33:30.322Z</time>
      </trkpt>
      <trkpt lat="46.1269" lon="-1.12776">
        <ele>54.390906</ele>
        <time>2022-12-21T10:33:33.316Z</time>
      </trkpt>
      <trkpt lat="46.12682" lon="-1.12767">
        <ele>54.462438</ele>
        <time>2022-12-21T10:33:36.315Z</time>
      </trkpt>
      <trkpt lat="46.12673" lon="-1.12758">
        <ele>54.533084</ele>
        <time>2022-12-21T10:33:39.313Z</time>
      </trkpt>
      <trkpt lat="46.12665" lon="-1.1275">
        <ele>54.604046</ele>
        <time>2022-12-21T10:33:43.314Z</time>
      </trkpt>
      <trkpt lat="46.12656" lon="-1.12741">
        <ele>54.681237</ele>
        <time>2022-12-21T10:33:48.325Z</time>
      </trkpt>
      <trkpt lat="46.12647" lon="-1.12733">
        <ele>54.753109</ele>
        <time>2022-12-21T10:33:52.549Z</time>
      </trkpt>
      <trkpt lat="46.12638" lon="-1.12727">
        <ele>54.823552</ele>
        <time>2022-12-21T10:33:56.311Z</time>
      </trkpt>
      <trkpt lat="46.12628" lon="-1.1272">
        <ele>54.902016</ele>
        <time>2022-12-21T10:34:00.323Z</time>
      </trkpt>
      <trkpt lat="46.12618" lon="-1.12713">
        <ele>54.981708</ele>
        <time>2022-12-21T10:34:04.304Z</time>
      </trkpt>
      <trkpt lat="46.12607" lon="-1.12707">
        <ele>55.064696</ele>
        <time>2022-12-21T10:34:08.338Z</time>
      </trkpt>
      <trkpt lat="46.12596" lon="-1.127">
        <ele>55.145928</ele>
        <time>2022-12-21T10:34:12.328Z</time>
      </trkpt>
      <trkpt lat="46.12588" lon="-1.12693">
        <ele>55.209443</ele>
        <time>2022-12-21T10:34:15.315Z</time>
      </trkpt>
      <trkpt lat="46.12579" lon="-1.12684">
        <ele>55.150324</ele>
        <time>2022-12-21T10:34:19.335Z</time>
      </trkpt>
      <trkpt lat="46.12571" lon="-1.12678">
        <ele>55.079685</ele>
        <time>2022-12-21T10:34:22.341Z</time>
      </trkpt>
      <trkpt lat="46.12562" lon="-1.12672">
        <ele>55.004989</ele>
        <time>2022-12-21T10:34:25.322Z</time>
      </trkpt>
      <trkpt lat="46.12553" lon="-1.12666">
        <ele>54.929088</ele>
        <time>2022-12-21T10:34:28.325Z</time>
      </trkpt>
      <trkpt lat="46.12545" lon="-1.12659">
        <ele>54.857775</ele>
        <time>2022-12-21T10:34:31.322Z</time>
      </trkpt>
      <trkpt lat="46.12534" lon="-1.12653">
        <ele>54.769126</ele>
        <time>2022-12-21T10:34:35.324Z</time>
      </trkpt>
      <trkpt lat="46.12525" lon="-1.12648">
        <ele>54.692938</ele>
        <time>2022-12-21T10:34:38.320Z</time>
      </trkpt>
      <trkpt lat="46.12515" lon="-1.12641">
        <ele>54.609646</ele>
        <time>2022-12-21T10:34:41.330Z</time>
      </trkpt>
      <trkpt lat="46.12505" lon="-1.12634">
        <ele>54.52335</ele>
        <time>2022-12-21T10:34:44.323Z</time>
      </trkpt>
      <trkpt lat="46.12495" lon="-1.12627">
        <ele>54.43473</ele>
        <time>2022-12-21T10:34:47.316Z</time>
      </trkpt>
      <trkpt lat="46.12485" lon="-1.12621">
        <ele>54.347481</ele>
        <time>2022-12-21T10:34:50.313Z</time>
      </trkpt>
      <trkpt lat="46.12476" lon="-1.12616">
        <ele>54.272286</ele>
        <time>2022-12-21T10:34:53.321Z</time>
      </trkpt>
      <trkpt lat="46.12467" lon="-1.1261">
        <ele>54.201754</ele>
        <time>2022-12-21T10:34:56.310Z</time>
      </trkpt>
      <trkpt lat="46.12457" lon="-1.12603">
        <ele>54.116141</ele>
        <time>2022-12-21T10:35:00.317Z</time>
      </trkpt>
      <trkpt lat="46.12449" lon="-1.12597">
        <ele>54.046311</ele>
        <time>2022-12-21T10:35:03.313Z</time>
      </trkpt>
      <trkpt lat="46.12439" lon="-1.12592">
        <ele>53.963998</ele>
        <time>2022-12-21T10:35:06.321Z</time>
      </trkpt>
      <trkpt lat="46.12428" lon="-1.12585">
        <ele>53.870774</ele>
        <time>2022-12-21T10:35:09.317Z</time>
      </trkpt>
      <trkpt lat="46.12417" lon="-1.12577">
        <ele>53.782119</ele>
        <time>2022-12-21T10:35:12.322Z</time>
      </trkpt>
      <trkpt lat="46.12407" lon="-1.1257">
        <ele>53.698773</ele>
        <time>2022-12-21T10:35:15.311Z</time>
      </trkpt>
      <trkpt lat="46.12397" lon="-1.12563">
        <ele>53.620592</ele>
        <time>2022-12-21T10:35:18.342Z</time>
      </trkpt>
      <trkpt lat="46.12386" lon="-1.12558">
        <ele>53.536842</ele>
        <time>2022-12-21T10:35:21.322Z</time>
      </trkpt>
      <trkpt lat="46.12375" lon="-1.1255">
        <ele>53.447705</ele>
        <time>2022-12-21T10:35:24.308Z</time>
      </trkpt>
      <trkpt lat="46.12363" lon="-1.12544">
        <ele>53.360066</ele>
        <time>2022-12-21T10:35:27.316Z</time>
      </trkpt>
      <trkpt lat="46.12352" lon="-1.12537">
        <ele>53.274309</ele>
        <time>2022-12-21T10:35:30.310Z</time>
      </trkpt>
      <trkpt lat="46.12341" lon="-1.12531">
        <ele>53.192234</ele>
        <time>2022-12-21T10:35:33.310Z</time>
      </trkpt>
      <trkpt lat="46.12332" lon="-1.12527">
        <ele>53.124363</ele>
        <time>2022-12-21T10:35:36.310Z</time>
      </trkpt>
      <trkpt lat="46.12319" lon="-1.12517">
        <ele>53.016953</ele>
        <time>2022-12-21T10:36:38.325Z</time>
      </trkpt>
      <trkpt lat="46.1231" lon="-1.12512">
        <ele>52.949625</ele>
        <time>2022-12-21T10:36:41.319Z</time>
      </trkpt>
      <trkpt lat="46.12301" lon="-1.12506">
        <ele>52.87699</ele>
        <time>2022-12-21T10:36:44.322Z</time>
      </trkpt>
      <trkpt lat="46.12292" lon="-1.125">
        <ele>52.804171</ele>
        <time>2022-12-21T10:36:47.317Z</time>
      </trkpt>
      <trkpt lat="46.12283" lon="-1.12493">
        <ele>52.734124</ele>
        <time>2022-12-21T10:36:50.327Z</time>
      </trkpt>
      <trkpt lat="46.12274" lon="-1.12488">
        <ele>52.660939</ele>
        <time>2022-12-21T10:36:53.331Z</time>
      </trkpt>
      <trkpt lat="46.12264" lon="-1.12482">
        <ele>52.583696</ele>
        <time>2022-12-21T10:36:56.321Z</time>
      </trkpt>
      <trkpt lat="46.12254" lon="-1.12474">
        <ele>52.531609</ele>
        <time>2022-12-21T10:36:59.320Z</time>
      </trkpt>
      <trkpt lat="46.12244" lon="-1.12469">
        <ele>52.500496</ele>
        <time>2022-12-21T10:37:02.339Z</time>
      </trkpt>
      <trkpt lat="46.12234" lon="-1.12463">
        <ele>52.470592</ele>
        <time>2022-12-21T10:37:05.315Z</time>
      </trkpt>
      <trkpt lat="46.12225" lon="-1.12458">
        <ele>52.442312</ele>
        <time>2022-12-21T10:37:08.318Z</time>
      </trkpt>
      <trkpt lat="46.12216" lon="-1.12452">
        <ele>52.414863</ele>
        <time>2022-12-21T10:37:11.320Z</time>
      </trkpt>
      <trkpt lat="46.12207" lon="-1.12447">
        <ele>52.385638</ele>
        <time>2022-12-21T10:37:14.321Z</time>
      </trkpt>
      <trkpt lat="46.12197" lon="-1.12441">
        <ele>52.355794</ele>
        <time>2022-12-21T10:37:17.312Z</time>
      </trkpt>
      <trkpt lat="46.12187" lon="-1.12435">
        <ele>52.323881</ele>
        <time>2022-12-21T10:37:20.326Z</time>
      </trkpt>
      <trkpt lat="46.12176" lon="-1.1243">
        <ele>52.291628</ele>
        <time>2022-12-21T10:37:23.313Z</time>
      </trkpt>
      <trkpt lat="46.12166" lon="-1.12423">
        <ele>52.260756</ele>
        <time>2022-12-21T10:37:26.331Z</time>
      </trkpt>
      <trkpt lat="46.12156" lon="-1.12417">
        <ele>52.229153</ele>
        <time>2022-12-21T10:37:29.323Z</time>
      </trkpt>
      <trkpt lat="46.12146" lon="-1.12412">
        <ele>52.199733</ele>
        <time>2022-12-21T10:37:32.318Z</time>
      </trkpt>
      <trkpt lat="46.12136" lon="-1.12406">
        <ele>52.166749</ele>
        <time>2022-12-21T10:37:36.323Z</time>
      </trkpt>
      <trkpt lat="46.12127" lon="-1.12401">
        <ele>52.139945</ele>
        <time>2022-12-21T10:37:39.322Z</time>
      </trkpt>
      <trkpt lat="46.12117" lon="-1.12396">
        <ele>52.11053</ele>
        <time>2022-12-21T10:37:42.320Z</time>
      </trkpt>
      <trkpt lat="46.12107" lon="-1.12392">
        <ele>52.079784</ele>
        <time>2022-12-21T10:37:45.313Z</time>
      </trkpt>
      <trkpt lat="46.12097" lon="-1.12388">
        <ele>52.050579</ele>
        <time>2022-12-21T10:37:48.327Z</time>
      </trkpt>
      <trkpt lat="46.12087" lon="-1.12385">
        <ele>52.010444</ele>
        <time>2022-12-21T10:37:53.319Z</time>
      </trkpt>
      <trkpt lat="46.12077" lon="-1.12382">
        <ele>51.951368</ele>
        <time>2022-12-21T10:38:04.329Z</time>
      </trkpt>
      <trkpt lat="46.12067" lon="-1.12378">
        <ele>51.887816</ele>
        <time>2022-12-21T10:38:09.322Z</time>
      </trkpt>
      <trkpt lat="46.12057" lon="-1.12375">
        <ele>51.830817</ele>
        <time>2022-12-21T10:38:13.315Z</time>
      </trkpt>
      <trkpt lat="46.12046" lon="-1.12371">
        <ele>51.763327</ele>
        <time>2022-12-21T10:38:17.317Z</time>
      </trkpt>
      <trkpt lat="46.12037" lon="-1.12369">
        <ele>51.71015</ele>
        <time>2022-12-21T10:38:20.337Z</time>
      </trkpt>
      <trkpt lat="46.12028" lon="-1.12365">
        <ele>51.655093</ele>
        <time>2022-12-21T10:38:23.326Z</time>
      </trkpt>
      <trkpt lat="46.12018" lon="-1.12362">
        <ele>51.598837</ele>
        <time>2022-12-21T10:38:26.327Z</time>
      </trkpt>
      <trkpt lat="46.12009" lon="-1.12359">
        <ele>51.545394</ele>
        <time>2022-12-21T10:38:29.316Z</time>
      </trkpt>
      <trkpt lat="46.12" lon="-1.12355">
        <ele>51.492223</ele>
        <time>2022-12-21T10:38:32.316Z</time>
      </trkpt>
      <trkpt lat="46.11991" lon="-1.1235">
        <ele>51.435581</ele>
        <time>2022-12-21T10:38:35.319Z</time>
      </trkpt>
      <trkpt lat="46.11982" lon="-1.12346">
        <ele>51.379414</ele>
        <time>2022-12-21T10:38:38.316Z</time>
      </trkpt>
      <trkpt lat="46.11973" lon="-1.1234">
        <ele>51.321895</ele>
        <time>2022-12-21T10:38:41.308Z</time>
      </trkpt>
      <trkpt lat="46.11964" lon="-1.12336">
        <ele>51.27028</ele>
        <time>2022-12-21T10:38:44.318Z</time>
      </trkpt>
      <trkpt lat="46.11954" lon="-1.12332">
        <ele>51.207127</ele>
        <time>2022-12-21T10:38:48.314Z</time>
      </trkpt>
      <trkpt lat="46.11943" lon="-1.12328">
        <ele>51.143195</ele>
        <time>2022-12-21T10:38:52.313Z</time>
      </trkpt>
      <trkpt lat="46.11932" lon="-1.12324">
        <ele>51.076915</ele>
        <time>2022-12-21T10:38:56.338Z</time>
      </trkpt>
      <trkpt lat="46.1192" lon="-1.12319">
        <ele>51.008094</ele>
        <time>2022-12-21T10:39:00.313Z</time>
      </trkpt>
      <trkpt lat="46.1191" lon="-1.12317">
        <ele>50.99111</ele>
        <time>2022-12-21T10:39:03.347Z</time>
      </trkpt>
      <trkpt lat="46.11901" lon="-1.12314">
        <ele>50.985983</ele>
        <time>2022-12-21T10:39:06.315Z</time>
      </trkpt>
      <trkpt lat="46.11891" lon="-1.12311">
        <ele>50.980264</ele>
        <time>2022-12-21T10:39:10.323Z</time>
      </trkpt>
      <trkpt lat="46.11881" lon="-1.12307">
        <ele>50.974971</ele>
        <time>2022-12-21T10:39:14.338Z</time>
      </trkpt>
      <trkpt lat="46.1187" lon="-1.12304">
        <ele>50.968769</ele>
        <time>2022-12-21T10:39:18.316Z</time>
      </trkpt>
      <trkpt lat="46.11859" lon="-1.12302">
        <ele>50.963102</ele>
        <time>2022-12-21T10:39:22.309Z</time>
      </trkpt>
      <trkpt lat="46.11852" lon="-1.12312">
        <ele>50.957717</ele>
        <time>2022-12-21T10:39:28.324Z</time>
      </trkpt>
      <trkpt lat="46.1185" lon="-1.12342">
        <ele>50.946293</ele>
        <time>2022-12-21T10:41:06.312Z</time>
      </trkpt>
      <trkpt lat="46.11841" lon="-1.12352">
        <ele>50.940504</ele>
        <time>2022-12-21T10:41:11.313Z</time>
      </trkpt>
      <trkpt lat="46.1183" lon="-1.12351">
        <ele>50.934427</ele>
        <time>2022-12-21T10:41:15.310Z</time>
      </trkpt>
      <trkpt lat="46.11821" lon="-1.12349">
        <ele>50.929596</ele>
        <time>2022-12-21T10:41:18.337Z</time>
      </trkpt>
      <trkpt lat="46.11809" lon="-1.12346">
        <ele>50.92321</ele>
        <time>2022-12-21T10:41:22.331Z</time>
      </trkpt>
      <trkpt lat="46.11799" lon="-1.12343">
        <ele>50.917925</ele>
        <time>2022-12-21T10:41:25.330Z</time>
      </trkpt>
      <trkpt lat="46.1179" lon="-1.12341">
        <ele>50.912723</ele>
        <time>2022-12-21T10:41:28.332Z</time>
      </trkpt>
      <trkpt lat="46.11781" lon="-1.12339">
        <ele>50.907787</ele>
        <time>2022-12-21T10:41:31.313Z</time>
      </trkpt>
      <trkpt lat="46.11771" lon="-1.12336">
        <ele>50.902218</ele>
        <time>2022-12-21T10:41:34.336Z</time>
      </trkpt>
      <trkpt lat="46.1176" lon="-1.12334">
        <ele>50.835714</ele>
        <time>2022-12-21T10:41:37.322Z</time>
      </trkpt>
      <trkpt lat="46.11749" lon="-1.12332">
        <ele>50.696192</ele>
        <time>2022-12-21T10:41:40.327Z</time>
      </trkpt>
      <trkpt lat="46.1174" lon="-1.12332">
        <ele>50.565562</ele>
        <time>2022-12-21T10:41:43.330Z</time>
      </trkpt>
      <trkpt lat="46.1173" lon="-1.1233">
        <ele>50.431818</ele>
        <time>2022-12-21T10:41:46.316Z</time>
      </trkpt>
      <trkpt lat="46.1172" lon="-1.12329">
        <ele>50.29008</ele>
        <time>2022-12-21T10:41:50.337Z</time>
      </trkpt>
      <trkpt lat="46.1171" lon="-1.12326">
        <ele>50.155658</ele>
        <time>2022-12-21T10:41:55.334Z</time>
      </trkpt>
      <trkpt lat="46.11699" lon="-1.12323">
        <ele>50.008945</ele>
        <time>2022-12-21T10:41:59.332Z</time>
      </trkpt>
      <trkpt lat="46.1169" lon="-1.12323">
        <ele>49.878315</ele>
        <time>2022-12-21T10:42:02.325Z</time>
      </trkpt>
      <trkpt lat="46.1168" lon="-1.12321">
        <ele>49.739071</ele>
        <time>2022-12-21T10:42:05.329Z</time>
      </trkpt>
      <trkpt lat="46.1167" lon="-1.1232">
        <ele>49.610465</ele>
        <time>2022-12-21T10:42:08.328Z</time>
      </trkpt>
      <trkpt lat="46.11661" lon="-1.12318">
        <ele>49.480171</ele>
        <time>2022-12-21T10:42:11.333Z</time>
      </trkpt>
      <trkpt lat="46.11649" lon="-1.12318">
        <ele>49.323763</ele>
        <time>2022-12-21T10:42:15.323Z</time>
      </trkpt>
      <trkpt lat="46.1164" lon="-1.12319">
        <ele>49.196792</ele>
        <time>2022-12-21T10:42:18.326Z</time>
      </trkpt>
      <trkpt lat="46.1163" lon="-1.12322">
        <ele>49.064459</ele>
        <time>2022-12-21T10:42:21.333Z</time>
      </trkpt>
      <trkpt lat="46.11621" lon="-1.12325">
        <ele>48.93663</ele>
        <time>2022-12-21T10:42:24.314Z</time>
      </trkpt>
      <trkpt lat="46.11614" lon="-1.12334">
        <ele>48.801866</ele>
        <time>2022-12-21T10:42:27.333Z</time>
      </trkpt>
      <trkpt lat="46.11603" lon="-1.12342">
        <ele>48.641147</ele>
        <time>2022-12-21T10:42:31.320Z</time>
      </trkpt>
      <trkpt lat="46.11591" lon="-1.12343">
        <ele>48.481908</ele>
        <time>2022-12-21T10:42:35.329Z</time>
      </trkpt>
      <trkpt lat="46.11582" lon="-1.12343">
        <ele>48.447193</ele>
        <time>2022-12-21T10:42:38.331Z</time>
      </trkpt>
      <trkpt lat="46.11572" lon="-1.12342">
        <ele>48.43973</ele>
        <time>2022-12-21T10:42:41.325Z</time>
      </trkpt>
      <trkpt lat="46.11562" lon="-1.12341">
        <ele>48.431901</ele>
        <time>2022-12-21T10:42:44.310Z</time>
      </trkpt>
      <trkpt lat="46.11552" lon="-1.12343">
        <ele>48.424192</ele>
        <time>2022-12-21T10:42:47.334Z</time>
      </trkpt>
      <trkpt lat="46.11542" lon="-1.12344">
        <ele>48.416471</ele>
        <time>2022-12-21T10:42:50.326Z</time>
      </trkpt>
      <trkpt lat="46.11533" lon="-1.12346">
        <ele>48.409045</ele>
        <time>2022-12-21T10:42:53.334Z</time>
      </trkpt>
      <trkpt lat="46.11522" lon="-1.12348">
        <ele>48.400125</ele>
        <time>2022-12-21T10:42:57.318Z</time>
      </trkpt>
      <trkpt lat="46.11512" lon="-1.12346">
        <ele>48.39225</ele>
        <time>2022-12-21T10:43:02.323Z</time>
      </trkpt>
      <trkpt lat="46.1151" lon="-1.12333">
        <ele>48.385087</ele>
        <time>2022-12-21T10:43:07.311Z</time>
      </trkpt>
      <trkpt lat="46.11501" lon="-1.12331">
        <ele>48.378059</ele>
        <time>2022-12-21T10:43:11.313Z</time>
      </trkpt>
      <trkpt lat="46.11493" lon="-1.12327">
        <ele>48.37104</ele>
        <time>2022-12-21T10:43:14.316Z</time>
      </trkpt>
      <trkpt lat="46.11483" lon="-1.12322">
        <ele>48.363403</ele>
        <time>2022-12-21T10:43:17.331Z</time>
      </trkpt>
      <trkpt lat="46.11474" lon="-1.12319">
        <ele>48.355791</ele>
        <time>2022-12-21T10:43:20.332Z</time>
      </trkpt>
      <trkpt lat="46.11463" lon="-1.12317">
        <ele>48.347614</ele>
        <time>2022-12-21T10:43:23.311Z</time>
      </trkpt>
      <trkpt lat="46.11453" lon="-1.12317">
        <ele>48.339472</ele>
        <time>2022-12-21T10:43:26.333Z</time>
      </trkpt>
      <trkpt lat="46.11442" lon="-1.12316">
        <ele>48.331178</ele>
        <time>2022-12-21T10:43:29.335Z</time>
      </trkpt>
      <trkpt lat="46.11432" lon="-1.12317">
        <ele>48.323349</ele>
        <time>2022-12-21T10:43:32.336Z</time>
      </trkpt>
      <trkpt lat="46.11422" lon="-1.12316">
        <ele>48.315819</ele>
        <time>2022-12-21T10:43:35.331Z</time>
      </trkpt>
      <trkpt lat="46.11413" lon="-1.12315">
        <ele>48.395152</ele>
        <time>2022-12-21T10:43:38.336Z</time>
      </trkpt>
      <trkpt lat="46.11404" lon="-1.12315">
        <ele>48.519207</ele>
        <time>2022-12-21T10:43:41.335Z</time>
      </trkpt>
      <trkpt lat="46.11394" lon="-1.12316">
        <ele>48.644211</ele>
        <time>2022-12-21T10:43:44.323Z</time>
      </trkpt>
      <trkpt lat="46.11385" lon="-1.12319">
        <ele>48.762083</ele>
        <time>2022-12-21T10:43:47.308Z</time>
      </trkpt>
      <trkpt lat="46.11375" lon="-1.12325">
        <ele>48.906113</ele>
        <time>2022-12-21T10:43:51.330Z</time>
      </trkpt>
      <trkpt lat="46.11366" lon="-1.1233">
        <ele>49.036357</ele>
        <time>2022-12-21T10:43:55.333Z</time>
      </trkpt>
      <trkpt lat="46.11359" lon="-1.12341">
        <ele>49.167625</ele>
        <time>2022-12-21T10:44:02.311Z</time>
      </trkpt>
      <trkpt lat="46.11362" lon="-1.12355">
        <ele>49.303367</ele>
        <time>2022-12-21T10:44:07.315Z</time>
      </trkpt>
      <trkpt lat="46.11364" lon="-1.12369">
        <ele>49.429815</ele>
        <time>2022-12-21T10:44:11.311Z</time>
      </trkpt>
      <trkpt lat="46.11365" lon="-1.12383">
        <ele>49.559369</ele>
        <time>2022-12-21T10:44:16.307Z</time>
      </trkpt>
      <trkpt lat="46.11356" lon="-1.12386">
        <ele>49.686444</ele>
        <time>2022-12-21T10:44:21.312Z</time>
      </trkpt>
      <trkpt lat="46.11346" lon="-1.12389">
        <ele>49.822298</ele>
        <time>2022-12-21T10:44:25.321Z</time>
      </trkpt>
      <trkpt lat="46.11334" lon="-1.12391">
        <ele>49.976256</ele>
        <time>2022-12-21T10:44:29.312Z</time>
      </trkpt>
      <trkpt lat="46.11325" lon="-1.12394">
        <ele>50.095206</ele>
        <time>2022-12-21T10:44:32.338Z</time>
      </trkpt>
      <trkpt lat="46.11314" lon="-1.12397">
        <ele>50.237899</ele>
        <time>2022-12-21T10:44:36.331Z</time>
      </trkpt>
      <trkpt lat="46.11303" lon="-1.12398">
        <ele>50.389644</ele>
        <time>2022-12-21T10:44:40.332Z</time>
      </trkpt>
      <trkpt lat="46.11292" lon="-1.12402">
        <ele>50.538001</ele>
        <time>2022-12-21T10:44:44.333Z</time>
      </trkpt>
      <trkpt lat="46.1128" lon="-1.12405">
        <ele>50.678246</ele>
        <time>2022-12-21T10:44:48.306Z</time>
      </trkpt>
      <trkpt lat="46.11269" lon="-1.12407">
        <ele>50.763278</ele>
        <time>2022-12-21T10:44:52.311Z</time>
      </trkpt>
      <trkpt lat="46.1126" lon="-1.1241">
        <ele>50.829686</ele>
        <time>2022-12-21T10:44:55.311Z</time>
      </trkpt>
      <trkpt lat="46.11248" lon="-1.12413">
        <ele>50.912011</ele>
        <time>2022-12-21T10:44:59.332Z</time>
      </trkpt>
      <trkpt lat="46.11238" lon="-1.12416">
        <ele>50.990322</ele>
        <time>2022-12-21T10:45:03.317Z</time>
      </trkpt>
      <trkpt lat="46.11226" lon="-1.12419">
        <ele>51.073955</ele>
        <time>2022-12-21T10:45:07.336Z</time>
      </trkpt>
      <trkpt lat="46.11215" lon="-1.12424">
        <ele>51.157112</ele>
        <time>2022-12-21T10:45:11.325Z</time>
      </trkpt>
      <trkpt lat="46.11204" lon="-1.12429">
        <ele>51.239103</ele>
        <time>2022-12-21T10:45:15.332Z</time>
      </trkpt>
      <trkpt lat="46.11194" lon="-1.12434">
        <ele>51.320196</ele>
        <time>2022-12-21T10:45:19.310Z</time>
      </trkpt>
      <trkpt lat="46.11185" lon="-1.1244">
        <ele>51.387735</ele>
        <time>2022-12-21T10:45:22.310Z</time>
      </trkpt>
      <trkpt lat="46.11178" lon="-1.12449">
        <ele>51.457832</ele>
        <time>2022-12-21T10:45:25.329Z</time>
      </trkpt>
      <trkpt lat="46.11169" lon="-1.12457">
        <ele>51.531436</ele>
        <time>2022-12-21T10:45:28.310Z</time>
      </trkpt>
      <trkpt lat="46.11161" lon="-1.12465">
        <ele>51.603548</ele>
        <time>2022-12-21T10:45:31.331Z</time>
      </trkpt>
      <trkpt lat="46.11152" lon="-1.12472">
        <ele>51.675219</ele>
        <time>2022-12-21T10:45:34.310Z</time>
      </trkpt>
      <trkpt lat="46.11143" lon="-1.12479">
        <ele>51.75053</ele>
        <time>2022-12-21T10:45:37.335Z</time>
      </trkpt>
      <trkpt lat="46.11134" lon="-1.12487">
        <ele>51.825009</ele>
        <time>2022-12-21T10:45:40.309Z</time>
      </trkpt>
      <trkpt lat="46.11125" lon="-1.12495">
        <ele>51.902809</ele>
        <time>2022-12-21T10:45:43.309Z</time>
      </trkpt>
      <trkpt lat="46.11116" lon="-1.12504">
        <ele>51.978313</ele>
        <time>2022-12-21T10:45:46.331Z</time>
      </trkpt>
      <trkpt lat="46.11108" lon="-1.12513">
        <ele>52.049016</ele>
        <time>2022-12-21T10:45:49.337Z</time>
      </trkpt>
      <trkpt lat="46.111" lon="-1.12524">
        <ele>52.123536</ele>
        <time>2022-12-21T10:45:52.336Z</time>
      </trkpt>
      <trkpt lat="46.11092" lon="-1.12535">
        <ele>52.196845</ele>
        <time>2022-12-21T10:45:55.335Z</time>
      </trkpt>
      <trkpt lat="46.11086" lon="-1.12547">
        <ele>52.267299</ele>
        <time>2022-12-21T10:45:58.312Z</time>
      </trkpt>
      <trkpt lat="46.11081" lon="-1.12558">
        <ele>52.330376</ele>
        <time>2022-12-21T10:46:01.337Z</time>
      </trkpt>
      <trkpt lat="46.11078" lon="-1.12572">
        <ele>52.398028</ele>
        <time>2022-12-21T10:46:05.332Z</time>
      </trkpt>
      <trkpt lat="46.11077" lon="-1.12585">
        <ele>52.460424</ele>
        <time>2022-12-21T10:46:08.331Z</time>
      </trkpt>
      <trkpt lat="46.11077" lon="-1.12599">
        <ele>52.527651</ele>
        <time>2022-12-21T10:46:11.335Z</time>
      </trkpt>
      <trkpt lat="46.11078" lon="-1.12613">
        <ele>52.590796</ele>
        <time>2022-12-21T10:46:14.320Z</time>
      </trkpt>
      <trkpt lat="46.11079" lon="-1.12627">
        <ele>52.657139</ele>
        <time>2022-12-21T10:46:17.332Z</time>
      </trkpt>
      <trkpt lat="46.11078" lon="-1.12641">
        <ele>52.724503</ele>
        <time>2022-12-21T10:46:20.329Z</time>
      </trkpt>
      <trkpt lat="46.11076" lon="-1.12655">
        <ele>52.791641</ele>
        <time>2022-12-21T10:46:23.334Z</time>
      </trkpt>
      <trkpt lat="46.11074" lon="-1.1267">
        <ele>52.861738</ele>
        <time>2022-12-21T10:46:26.319Z</time>
      </trkpt>
      <trkpt lat="46.11071" lon="-1.12685">
        <ele>52.935761</ele>
        <time>2022-12-21T10:46:29.333Z</time>
      </trkpt>
      <trkpt lat="46.11069" lon="-1.12701">
        <ele>53.012685</ele>
        <time>2022-12-21T10:46:32.310Z</time>
      </trkpt>
      <trkpt lat="46.11066" lon="-1.12716">
        <ele>53.086949</ele>
        <time>2022-12-21T10:46:35.334Z</time>
      </trkpt>
      <trkpt lat="46.11063" lon="-1.12732">
        <ele>53.161137</ele>
        <time>2022-12-21T10:46:38.333Z</time>
      </trkpt>
      <trkpt lat="46.1106" lon="-1.12748">
        <ele>53.119131</ele>
        <time>2022-12-21T10:46:41.336Z</time>
      </trkpt>
      <trkpt lat="46.11056" lon="-1.12765">
        <ele>53.043429</ele>
        <time>2022-12-21T10:46:44.325Z</time>
      </trkpt>
      <trkpt lat="46.11053" lon="-1.12781">
        <ele>52.970601</ele>
        <time>2022-12-21T10:46:47.327Z</time>
      </trkpt>
      <trkpt lat="46.11048" lon="-1.12795">
        <ele>52.902161</ele>
        <time>2022-12-21T10:46:50.330Z</time>
      </trkpt>
      <trkpt lat="46.11043" lon="-1.12809">
        <ele>52.834213</ele>
        <time>2022-12-21T10:46:53.307Z</time>
      </trkpt>
      <trkpt lat="46.11038" lon="-1.12822">
        <ele>52.767625</ele>
        <time>2022-12-21T10:46:56.325Z</time>
      </trkpt>
      <trkpt lat="46.11032" lon="-1.12835">
        <ele>52.702896</ele>
        <time>2022-12-21T10:46:59.333Z</time>
      </trkpt>
      <trkpt lat="46.11027" lon="-1.12848">
        <ele>52.642381</ele>
        <time>2022-12-21T10:47:02.333Z</time>
      </trkpt>
      <trkpt lat="46.11022" lon="-1.1286">
        <ele>52.579076</ele>
        <time>2022-12-21T10:47:05.337Z</time>
      </trkpt>
      <trkpt lat="46.11017" lon="-1.12874">
        <ele>52.51174</ele>
        <time>2022-12-21T10:47:08.335Z</time>
      </trkpt>
      <trkpt lat="46.11012" lon="-1.12888">
        <ele>52.443949</ele>
        <time>2022-12-21T10:47:11.324Z</time>
      </trkpt>
      <trkpt lat="46.11006" lon="-1.12902">
        <ele>52.375862</ele>
        <time>2022-12-21T10:47:14.329Z</time>
      </trkpt>
      <trkpt lat="46.11001" lon="-1.12916">
        <ele>52.307983</ele>
        <time>2022-12-21T10:47:17.334Z</time>
      </trkpt>
      <trkpt lat="46.10996" lon="-1.12931">
        <ele>52.236581</ele>
        <time>2022-12-21T10:47:20.311Z</time>
      </trkpt>
      <trkpt lat="46.10991" lon="-1.12945">
        <ele>52.168412</ele>
        <time>2022-12-21T10:47:23.336Z</time>
      </trkpt>
      <trkpt lat="46.10984" lon="-1.12959">
        <ele>52.094926</ele>
        <time>2022-12-21T10:47:26.336Z</time>
      </trkpt>
      <trkpt lat="46.10978" lon="-1.12973">
        <ele>52.079335</ele>
        <time>2022-12-21T10:47:29.331Z</time>
      </trkpt>
      <trkpt lat="46.10972" lon="-1.12987">
        <ele>52.108141</ele>
        <time>2022-12-21T10:47:32.335Z</time>
      </trkpt>
      <trkpt lat="46.10965" lon="-1.12999">
        <ele>52.134028</ele>
        <time>2022-12-21T10:47:35.333Z</time>
      </trkpt>
      <trkpt lat="46.10957" lon="-1.1301">
        <ele>52.161089</ele>
        <time>2022-12-21T10:47:38.320Z</time>
      </trkpt>
      <trkpt lat="46.10949" lon="-1.13021">
        <ele>52.189214</ele>
        <time>2022-12-21T10:47:41.308Z</time>
      </trkpt>
      <trkpt lat="46.1094" lon="-1.1303">
        <ele>52.217603</ele>
        <time>2022-12-21T10:47:44.308Z</time>
      </trkpt>
      <trkpt lat="46.10931" lon="-1.13041">
        <ele>52.246047</ele>
        <time>2022-12-21T10:47:47.319Z</time>
      </trkpt>
      <trkpt lat="46.10923" lon="-1.13053">
        <ele>52.274246</ele>
        <time>2022-12-21T10:47:50.311Z</time>
      </trkpt>
      <trkpt lat="46.10916" lon="-1.13066">
        <ele>52.302773</ele>
        <time>2022-12-21T10:47:53.303Z</time>
      </trkpt>
      <trkpt lat="46.10912" lon="-1.1308">
        <ele>52.330316</ele>
        <time>2022-12-21T10:47:56.309Z</time>
      </trkpt>
      <trkpt lat="46.10908" lon="-1.13093">
        <ele>52.354932</ele>
        <time>2022-12-21T10:47:59.336Z</time>
      </trkpt>
      <trkpt lat="46.10902" lon="-1.13109">
        <ele>52.384975</ele>
        <time>2022-12-21T10:48:03.338Z</time>
      </trkpt>
      <trkpt lat="46.10898" lon="-1.13121">
        <ele>52.408122</ele>
        <time>2022-12-21T10:48:06.337Z</time>
      </trkpt>
      <trkpt lat="46.10895" lon="-1.13133">
        <ele>52.430849</ele>
        <time>2022-12-21T10:48:09.324Z</time>
      </trkpt>
      <trkpt lat="46.10891" lon="-1.13148">
        <ele>52.457364</ele>
        <time>2022-12-21T10:48:13.334Z</time>
      </trkpt>
      <trkpt lat="46.10891" lon="-1.13161">
        <ele>52.479861</ele>
        <time>2022-12-21T10:48:17.312Z</time>
      </trkpt>
      <trkpt lat="46.10891" lon="-1.13175">
        <ele>52.504208</ele>
        <time>2022-12-21T10:48:22.313Z</time>
      </trkpt>
      <trkpt lat="46.1089" lon="-1.13188">
        <ele>52.497616</ele>
        <time>2022-12-21T10:48:27.306Z</time>
      </trkpt>
      <trkpt lat="46.1089" lon="-1.13205">
        <ele>52.474364</ele>
        <time>2022-12-21T10:48:32.331Z</time>
      </trkpt>
      <trkpt lat="46.10893" lon="-1.13218">
        <ele>52.455356</ele>
        <time>2022-12-21T10:48:56.305Z</time>
      </trkpt>
      <trkpt lat="46.10896" lon="-1.13238">
        <ele>52.425831</ele>
        <time>2022-12-21T10:49:40.316Z</time>
      </trkpt>
      <trkpt lat="46.109" lon="-1.13251">
        <ele>52.407467</ele>
        <time>2022-12-21T10:49:46.313Z</time>
      </trkpt>
      <trkpt lat="46.10908" lon="-1.13263">
        <ele>52.382843</ele>
        <time>2022-12-21T10:49:51.311Z</time>
      </trkpt>
      <trkpt lat="46.10915" lon="-1.13274">
        <ele>52.363498</ele>
        <time>2022-12-21T10:49:54.331Z</time>
      </trkpt>
      <trkpt lat="46.10921" lon="-1.13283">
        <ele>52.345197</ele>
        <time>2022-12-21T10:49:57.337Z</time>
      </trkpt>
      <trkpt lat="46.10927" lon="-1.13294">
        <ele>52.325138</ele>
        <time>2022-12-21T10:50:00.310Z</time>
      </trkpt>
      <trkpt lat="46.10934" lon="-1.13307">
        <ele>52.303378</ele>
        <time>2022-12-21T10:50:03.336Z</time>
      </trkpt>
      <trkpt lat="46.10939" lon="-1.1332">
        <ele>52.281281</ele>
        <time>2022-12-21T10:50:06.335Z</time>
      </trkpt>
      <trkpt lat="46.10943" lon="-1.13335">
        <ele>52.258855</ele>
        <time>2022-12-21T10:50:09.336Z</time>
      </trkpt>
      <trkpt lat="46.10946" lon="-1.13351">
        <ele>52.236179</ele>
        <time>2022-12-21T10:50:12.307Z</time>
      </trkpt>
      <trkpt lat="46.10949" lon="-1.13366">
        <ele>52.213703</ele>
        <time>2022-12-21T10:50:15.334Z</time>
      </trkpt>
      <trkpt lat="46.10951" lon="-1.13382">
        <ele>52.191366</ele>
        <time>2022-12-21T10:50:18.334Z</time>
      </trkpt>
      <trkpt lat="46.10953" lon="-1.13398">
        <ele>52.168558</ele>
        <time>2022-12-21T10:50:21.333Z</time>
      </trkpt>
      <trkpt lat="46.10956" lon="-1.13415">
        <ele>52.163974</ele>
        <time>2022-12-21T10:50:24.335Z</time>
      </trkpt>
      <trkpt lat="46.10957" lon="-1.13431">
        <ele>52.295931</ele>
        <time>2022-12-21T10:50:27.310Z</time>
      </trkpt>
      <trkpt lat="46.10958" lon="-1.13447">
        <ele>52.426524</ele>
        <time>2022-12-21T10:50:30.336Z</time>
      </trkpt>
      <trkpt lat="46.10959" lon="-1.13464">
        <ele>52.557243</ele>
        <time>2022-12-21T10:50:33.337Z</time>
      </trkpt>
      <trkpt lat="46.1096" lon="-1.1348">
        <ele>52.686927</ele>
        <time>2022-12-21T10:50:36.330Z</time>
      </trkpt>
      <trkpt lat="46.1096" lon="-1.13496">
        <ele>52.815201</ele>
        <time>2022-12-21T10:50:39.336Z</time>
      </trkpt>
      <trkpt lat="46.1096" lon="-1.13511">
        <ele>52.937899</ele>
        <time>2022-12-21T10:50:42.336Z</time>
      </trkpt>
      <trkpt lat="46.1096" lon="-1.13527">
        <ele>53.062982</ele>
        <time>2022-12-21T10:50:45.335Z</time>
      </trkpt>
      <trkpt lat="46.1096" lon="-1.13543">
        <ele>53.19046</ele>
        <time>2022-12-21T10:50:48.339Z</time>
      </trkpt>
      <trkpt lat="46.1096" lon="-1.13559">
        <ele>53.318015</ele>
        <time>2022-12-21T10:50:51.336Z</time>
      </trkpt>
      <trkpt lat="46.10959" lon="-1.13574">
        <ele>53.441051</ele>
        <time>2022-12-21T10:50:54.330Z</time>
      </trkpt>
      <trkpt lat="46.10958" lon="-1.13589">
        <ele>53.554393</ele>
        <time>2022-12-21T10:50:57.335Z</time>
      </trkpt>
      <trkpt lat="46.10958" lon="-1.13602">
        <ele>53.663693</ele>
        <time>2022-12-21T10:51:00.336Z</time>
      </trkpt>
      <trkpt lat="46.10958" lon="-1.13617">
        <ele>53.781695</ele>
        <time>2022-12-21T10:51:03.339Z</time>
      </trkpt>
      <trkpt lat="46.10957" lon="-1.13632">
        <ele>53.903639</ele>
        <time>2022-12-21T10:51:06.337Z</time>
      </trkpt>
      <trkpt lat="46.10958" lon="-1.13648">
        <ele>54.031159</ele>
        <time>2022-12-21T10:51:09.327Z</time>
      </trkpt>
      <trkpt lat="46.10959" lon="-1.13665">
        <ele>54.162014</ele>
        <time>2022-12-21T10:51:12.330Z</time>
      </trkpt>
      <trkpt lat="46.10961" lon="-1.13681">
        <ele>54.161718</ele>
        <time>2022-12-21T10:51:15.312Z</time>
      </trkpt>
      <trkpt lat="46.10963" lon="-1.13696">
        <ele>54.077363</ele>
        <time>2022-12-21T10:51:18.335Z</time>
      </trkpt>
      <trkpt lat="46.10965" lon="-1.1371">
        <ele>54.00218</ele>
        <time>2022-12-21T10:51:21.336Z</time>
      </trkpt>
      <trkpt lat="46.10968" lon="-1.13722">
        <ele>53.931008</ele>
        <time>2022-12-21T10:51:24.326Z</time>
      </trkpt>
      <trkpt lat="46.10971" lon="-1.13738">
        <ele>53.840025</ele>
        <time>2022-12-21T10:51:28.338Z</time>
      </trkpt>
      <trkpt lat="46.10974" lon="-1.13753">
        <ele>53.756908</ele>
        <time>2022-12-21T10:51:32.324Z</time>
      </trkpt>
      <trkpt lat="46.10977" lon="-1.13765">
        <ele>53.686237</ele>
        <time>2022-12-21T10:51:36.322Z</time>
      </trkpt>
      <trkpt lat="46.10974" lon="-1.13781">
        <ele>53.59946</ele>
        <time>2022-12-21T10:51:41.323Z</time>
      </trkpt>
      <trkpt lat="46.10968" lon="-1.13793">
        <ele>53.519301</ele>
        <time>2022-12-21T10:51:46.322Z</time>
      </trkpt>
      <trkpt lat="46.10958" lon="-1.13799">
        <ele>53.436101</ele>
        <time>2022-12-21T10:51:50.306Z</time>
      </trkpt>
      <trkpt lat="46.10948" lon="-1.13802">
        <ele>53.356795</ele>
        <time>2022-12-21T10:51:52.314Z</time>
      </trkpt>
      <trkpt lat="46.10939" lon="-1.13807">
        <ele>53.280474</ele>
        <time>2022-12-21T10:51:54.329Z</time>
      </trkpt>
      <trkpt lat="46.10926" lon="-1.13811">
        <ele>53.181175</ele>
        <time>2022-12-21T10:51:57.333Z</time>
      </trkpt>
      <trkpt lat="46.10915" lon="-1.13812">
        <ele>53.094827</ele>
        <time>2022-12-21T10:52:00.311Z</time>
      </trkpt>
      <trkpt lat="46.10906" lon="-1.13813">
        <ele>53.024193</ele>
        <time>2022-12-21T10:52:03.335Z</time>
      </trkpt>
      <trkpt lat="46.10897" lon="-1.13813">
        <ele>52.953077</ele>
        <time>2022-12-21T10:52:06.331Z</time>
      </trkpt>
      <trkpt lat="46.10888" lon="-1.13815">
        <ele>52.877724</ele>
        <time>2022-12-21T10:52:09.331Z</time>
      </trkpt>
      <trkpt lat="46.10878" lon="-1.13817">
        <ele>52.807637</ele>
        <time>2022-12-21T10:52:12.329Z</time>
      </trkpt>
      <trkpt lat="46.10868" lon="-1.13818">
        <ele>52.78816</ele>
        <time>2022-12-21T10:52:15.338Z</time>
      </trkpt>
      <trkpt lat="46.10858" lon="-1.13821">
        <ele>52.768707</ele>
        <time>2022-12-21T10:52:18.334Z</time>
      </trkpt>
      <trkpt lat="46.10848" lon="-1.13823">
        <ele>52.749482</ele>
        <time>2022-12-21T10:52:21.318Z</time>
      </trkpt>
      <trkpt lat="46.10838" lon="-1.13826">
        <ele>52.730488</ele>
        <time>2022-12-21T10:52:24.328Z</time>
      </trkpt>
      <trkpt lat="46.10828" lon="-1.13829">
        <ele>52.711171</ele>
        <time>2022-12-21T10:52:27.333Z</time>
      </trkpt>
      <trkpt lat="46.10818" lon="-1.13834">
        <ele>52.691228</ele>
        <time>2022-12-21T10:52:30.334Z</time>
      </trkpt>
      <trkpt lat="46.10809" lon="-1.13843">
        <ele>52.671174</ele>
        <time>2022-12-21T10:52:33.311Z</time>
      </trkpt>
      <trkpt lat="46.10801" lon="-1.13854">
        <ele>52.651432</ele>
        <time>2022-12-21T10:52:36.307Z</time>
      </trkpt>
      <trkpt lat="46.10795" lon="-1.13866">
        <ele>52.63126</ele>
        <time>2022-12-21T10:52:39.309Z</time>
      </trkpt>
      <trkpt lat="46.10788" lon="-1.13878">
        <ele>52.611779</ele>
        <time>2022-12-21T10:52:42.312Z</time>
      </trkpt>
      <trkpt lat="46.1078" lon="-1.13886">
        <ele>52.592335</ele>
        <time>2022-12-21T10:52:45.307Z</time>
      </trkpt>
      <trkpt lat="46.1077" lon="-1.13891">
        <ele>52.573231</ele>
        <time>2022-12-21T10:52:48.317Z</time>
      </trkpt>
      <trkpt lat="46.1076" lon="-1.13895">
        <ele>52.553816</ele>
        <time>2022-12-21T10:52:51.337Z</time>
      </trkpt>
      <trkpt lat="46.10749" lon="-1.13895">
        <ele>52.533495</ele>
        <time>2022-12-21T10:52:54.311Z</time>
      </trkpt>
      <trkpt lat="46.10739" lon="-1.13895">
        <ele>52.514125</ele>
        <time>2022-12-21T10:52:57.334Z</time>
      </trkpt>
      <trkpt lat="46.10729" lon="-1.13897">
        <ele>52.495329</ele>
        <time>2022-12-21T10:53:00.335Z</time>
      </trkpt>
      <trkpt lat="46.10719" lon="-1.13898">
        <ele>52.47615</ele>
        <time>2022-12-21T10:53:03.339Z</time>
      </trkpt>
      <trkpt lat="46.10709" lon="-1.13897">
        <ele>52.479825</ele>
        <time>2022-12-21T10:53:06.330Z</time>
      </trkpt>
      <trkpt lat="46.10698" lon="-1.13897">
        <ele>52.492227</ele>
        <time>2022-12-21T10:53:09.337Z</time>
      </trkpt>
      <trkpt lat="46.10688" lon="-1.13897">
        <ele>52.504862</ele>
        <time>2022-12-21T10:53:12.335Z</time>
      </trkpt>
      <trkpt lat="46.10678" lon="-1.13898">
        <ele>52.516671</ele>
        <time>2022-12-21T10:53:15.334Z</time>
      </trkpt>
      <trkpt lat="46.10668" lon="-1.13899">
        <ele>52.529498</ele>
        <time>2022-12-21T10:53:19.334Z</time>
      </trkpt>
      <trkpt lat="46.10659" lon="-1.13897">
        <ele>52.540683</ele>
        <time>2022-12-21T10:53:22.308Z</time>
      </trkpt>
      <trkpt lat="46.1065" lon="-1.13891">
        <ele>52.552036</ele>
        <time>2022-12-21T10:53:25.332Z</time>
      </trkpt>
      <trkpt lat="46.10644" lon="-1.13879">
        <ele>52.564895</ele>
        <time>2022-12-21T10:53:29.330Z</time>
      </trkpt>
      <trkpt lat="46.10637" lon="-1.13868">
        <ele>52.577228</ele>
        <time>2022-12-21T10:53:35.316Z</time>
      </trkpt>
      <trkpt lat="46.10633" lon="-1.13856">
        <ele>52.588831</ele>
        <time>2022-12-21T10:53:40.319Z</time>
      </trkpt>
      <trkpt lat="46.10632" lon="-1.13842">
        <ele>52.600183</ele>
        <time>2022-12-21T10:53:44.313Z</time>
      </trkpt>
      <trkpt lat="46.10631" lon="-1.13828">
        <ele>52.612435</ele>
        <time>2022-12-21T10:53:49.333Z</time>
      </trkpt>
      <trkpt lat="46.10631" lon="-1.13812">
        <ele>52.625996</ele>
        <time>2022-12-21T10:53:53.320Z</time>
      </trkpt>
      <trkpt lat="46.10632" lon="-1.13794">
        <ele>52.640569</ele>
        <time>2022-12-21T10:53:57.318Z</time>
      </trkpt>
      <trkpt lat="46.10633" lon="-1.13781">
        <ele>52.651754</ele>
        <time>2022-12-21T10:54:00.326Z</time>
      </trkpt>
      <trkpt lat="46.10633" lon="-1.13766">
        <ele>52.664229</ele>
        <time>2022-12-21T10:54:04.333Z</time>
      </trkpt>
      <trkpt lat="46.10635" lon="-1.13754">
        <ele>52.675172</ele>
        <time>2022-12-21T10:54:07.326Z</time>
      </trkpt>
      <trkpt lat="46.10637" lon="-1.1374">
        <ele>52.687186</ele>
        <time>2022-12-21T10:54:10.335Z</time>
      </trkpt>
      <trkpt lat="46.10639" lon="-1.13725">
        <ele>52.667933</ele>
        <time>2022-12-21T10:54:13.342Z</time>
      </trkpt>
      <trkpt lat="46.10641" lon="-1.1371">
        <ele>52.641163</ele>
        <time>2022-12-21T10:54:16.310Z</time>
      </trkpt>
      <trkpt lat="46.1064" lon="-1.13694">
        <ele>52.612406</ele>
        <time>2022-12-21T10:54:19.327Z</time>
      </trkpt>
      <trkpt lat="46.10639" lon="-1.13678">
        <ele>52.583542</ele>
        <time>2022-12-21T10:54:22.310Z</time>
      </trkpt>
      <trkpt lat="46.10638" lon="-1.13662">
        <ele>52.555051</ele>
        <time>2022-12-21T10:54:25.329Z</time>
      </trkpt>
      <trkpt lat="46.10635" lon="-1.13646">
        <ele>52.525948</ele>
        <time>2022-12-21T10:54:28.310Z</time>
      </trkpt>
      <trkpt lat="46.10633" lon="-1.1363">
        <ele>52.496899</ele>
        <time>2022-12-21T10:54:31.336Z</time>
      </trkpt>
      <trkpt lat="46.1063" lon="-1.13615">
        <ele>52.470139</ele>
        <time>2022-12-21T10:54:34.333Z</time>
      </trkpt>
      <trkpt lat="46.10627" lon="-1.13603">
        <ele>52.446618</ele>
        <time>2022-12-21T10:54:37.329Z</time>
      </trkpt>
      <trkpt lat="46.10623" lon="-1.13591">
        <ele>52.423603</ele>
        <time>2022-12-21T10:54:40.315Z</time>
      </trkpt>
      <trkpt lat="46.10616" lon="-1.13579">
        <ele>52.397037</ele>
        <time>2022-12-21T10:54:43.335Z</time>
      </trkpt>
      <trkpt lat="46.10608" lon="-1.13568">
        <ele>52.369283</ele>
        <time>2022-12-21T10:54:46.313Z</time>
      </trkpt>
      <trkpt lat="46.10601" lon="-1.13557">
        <ele>52.340652</ele>
        <time>2022-12-21T10:54:49.327Z</time>
      </trkpt>
      <trkpt lat="46.10594" lon="-1.13544">
        <ele>52.312582</ele>
        <time>2022-12-21T10:54:52.336Z</time>
      </trkpt>
      <trkpt lat="46.10587" lon="-1.13531">
        <ele>52.28417</ele>
        <time>2022-12-21T10:54:55.312Z</time>
      </trkpt>
      <trkpt lat="46.1058" lon="-1.13519">
        <ele>52.255576</ele>
        <time>2022-12-21T10:54:58.329Z</time>
      </trkpt>
      <trkpt lat="46.10573" lon="-1.13506">
        <ele>52.23733</ele>
        <time>2022-12-21T10:55:01.336Z</time>
      </trkpt>
      <trkpt lat="46.10567" lon="-1.13492">
        <ele>52.273704</ele>
        <time>2022-12-21T10:55:04.334Z</time>
      </trkpt>
      <trkpt lat="46.1056" lon="-1.13479">
        <ele>52.310248</ele>
        <time>2022-12-21T10:55:07.333Z</time>
      </trkpt>
      <trkpt lat="46.10553" lon="-1.13466">
        <ele>52.3452</ele>
        <time>2022-12-21T10:55:10.306Z</time>
      </trkpt>
      <trkpt lat="46.10548" lon="-1.13454">
        <ele>52.375829</ele>
        <time>2022-12-21T10:55:13.333Z</time>
      </trkpt>
      <trkpt lat="46.10543" lon="-1.13443">
        <ele>52.40695</ele>
        <time>2022-12-21T10:55:16.335Z</time>
      </trkpt>
      <trkpt lat="46.10537" lon="-1.1343">
        <ele>52.440059</ele>
        <time>2022-12-21T10:55:19.335Z</time>
      </trkpt>
      <trkpt lat="46.1053" lon="-1.13418">
        <ele>52.473177</ele>
        <time>2022-12-21T10:55:22.327Z</time>
      </trkpt>
      <trkpt lat="46.10524" lon="-1.13407">
        <ele>52.505981</ele>
        <time>2022-12-21T10:55:25.333Z</time>
      </trkpt>
      <trkpt lat="46.10517" lon="-1.13395">
        <ele>52.540501</ele>
        <time>2022-12-21T10:55:28.336Z</time>
      </trkpt>
      <trkpt lat="46.1051" lon="-1.13382">
        <ele>52.576888</ele>
        <time>2022-12-21T10:55:31.335Z</time>
      </trkpt>
      <trkpt lat="46.10502" lon="-1.1337">
        <ele>52.612153</ele>
        <time>2022-12-21T10:55:34.312Z</time>
      </trkpt>
      <trkpt lat="46.10495" lon="-1.13358">
        <ele>52.647881</ele>
        <time>2022-12-21T10:55:37.334Z</time>
      </trkpt>
      <trkpt lat="46.10486" lon="-1.13347">
        <ele>52.683965</ele>
        <time>2022-12-21T10:55:40.336Z</time>
      </trkpt>
      <trkpt lat="46.10479" lon="-1.13335">
        <ele>52.719914</ele>
        <time>2022-12-21T10:55:43.328Z</time>
      </trkpt>
      <trkpt lat="46.1047" lon="-1.13324">
        <ele>52.75592</ele>
        <time>2022-12-21T10:55:46.331Z</time>
      </trkpt>
      <trkpt lat="46.10462" lon="-1.13312">
        <ele>52.79323</ele>
        <time>2022-12-21T10:55:49.336Z</time>
      </trkpt>
      <trkpt lat="46.10453" lon="-1.13301">
        <ele>52.851768</ele>
        <time>2022-12-21T10:55:52.334Z</time>
      </trkpt>
      <trkpt lat="46.10445" lon="-1.1329">
        <ele>52.917139</ele>
        <time>2022-12-21T10:55:55.336Z</time>
      </trkpt>
      <trkpt lat="46.10437" lon="-1.13278">
        <ele>52.981881</ele>
        <time>2022-12-21T10:55:58.332Z</time>
      </trkpt>
      <trkpt lat="46.10432" lon="-1.13263">
        <ele>53.049049</ele>
        <time>2022-12-21T10:56:01.307Z</time>
      </trkpt>
      <trkpt lat="46.10428" lon="-1.13247">
        <ele>53.116244</ele>
        <time>2022-12-21T10:56:04.333Z</time>
      </trkpt>
      <trkpt lat="46.10426" lon="-1.1323">
        <ele>53.184466</ele>
        <time>2022-12-21T10:56:07.324Z</time>
      </trkpt>
      <trkpt lat="46.10423" lon="-1.13215">
        <ele>53.247205</ele>
        <time>2022-12-21T10:56:10.333Z</time>
      </trkpt>
      <trkpt lat="46.1042" lon="-1.132">
        <ele>53.310109</ele>
        <time>2022-12-21T10:56:13.334Z</time>
      </trkpt>
      <trkpt lat="46.10418" lon="-1.13184">
        <ele>53.373248</ele>
        <time>2022-12-21T10:56:16.332Z</time>
      </trkpt>
      <trkpt lat="46.10415" lon="-1.1317">
        <ele>53.430695</ele>
        <time>2022-12-21T10:56:19.308Z</time>
      </trkpt>
      <trkpt lat="46.10413" lon="-1.13156">
        <ele>53.487642</ele>
        <time>2022-12-21T10:56:22.321Z</time>
      </trkpt>
      <trkpt lat="46.10412" lon="-1.13143">
        <ele>53.54147</ele>
        <time>2022-12-21T10:56:25.332Z</time>
      </trkpt>
      <trkpt lat="46.1041" lon="-1.1313">
        <ele>53.594789</ele>
        <time>2022-12-21T10:56:28.331Z</time>
      </trkpt>
      <trkpt lat="46.10408" lon="-1.13114">
        <ele>53.658709</ele>
        <time>2022-12-21T10:56:32.329Z</time>
      </trkpt>
      <trkpt lat="46.10405" lon="-1.13099">
        <ele>53.72336</ele>
        <time>2022-12-21T10:56:37.336Z</time>
      </trkpt>
      <trkpt lat="46.10402" lon="-1.13084">
        <ele>53.782494</ele>
        <time>2022-12-21T10:56:41.338Z</time>
      </trkpt>
      <trkpt lat="46.104" lon="-1.13069">
        <ele>53.813847</ele>
        <time>2022-12-21T10:56:45.335Z</time>
      </trkpt>
      <trkpt lat="46.10398" lon="-1.13053">
        <ele>53.617003</ele>
        <time>2022-12-21T10:56:49.315Z</time>
      </trkpt>
      <trkpt lat="46.10395" lon="-1.13037">
        <ele>53.425973</ele>
        <time>2022-12-21T10:56:52.326Z</time>
      </trkpt>
      <trkpt lat="46.10392" lon="-1.1302">
        <ele>53.209851</ele>
        <time>2022-12-21T10:56:55.332Z</time>
      </trkpt>
      <trkpt lat="46.10387" lon="-1.13001">
        <ele>52.972954</ele>
        <time>2022-12-21T10:56:58.311Z</time>
      </trkpt>
      <trkpt lat="46.10384" lon="-1.12988">
        <ele>52.816115</ele>
        <time>2022-12-21T10:57:00.315Z</time>
      </trkpt>
      <trkpt lat="46.10381" lon="-1.12975">
        <ele>52.654828</ele>
        <time>2022-12-21T10:57:02.313Z</time>
      </trkpt>
      <trkpt lat="46.10378" lon="-1.12962">
        <ele>52.491819</ele>
        <time>2022-12-21T10:57:04.333Z</time>
      </trkpt>
      <trkpt lat="46.10376" lon="-1.1295">
        <ele>52.335077</ele>
        <time>2022-12-21T10:57:06.335Z</time>
      </trkpt>
      <trkpt lat="46.10374" lon="-1.12936">
        <ele>52.168294</ele>
        <time>2022-12-21T10:57:08.334Z</time>
      </trkpt>
      <trkpt lat="46.10372" lon="-1.12923">
        <ele>52.007326</ele>
        <time>2022-12-21T10:57:10.334Z</time>
      </trkpt>
      <trkpt lat="46.1037" lon="-1.1291">
        <ele>51.849343</ele>
        <time>2022-12-21T10:57:12.334Z</time>
      </trkpt>
      <trkpt lat="46.10368" lon="-1.12896">
        <ele>51.68903</ele>
        <time>2022-12-21T10:57:14.333Z</time>
      </trkpt>
      <trkpt lat="46.10366" lon="-1.12883">
        <ele>51.53311</ele>
        <time>2022-12-21T10:57:16.335Z</time>
      </trkpt>
      <trkpt lat="46.10365" lon="-1.1287">
        <ele>51.372948</ele>
        <time>2022-12-21T10:57:18.316Z</time>
      </trkpt>
      <trkpt lat="46.10363" lon="-1.12857">
        <ele>51.217605</ele>
        <time>2022-12-21T10:57:20.326Z</time>
      </trkpt>
      <trkpt lat="46.10362" lon="-1.12839">
        <ele>50.996586</ele>
        <time>2022-12-21T10:57:23.324Z</time>
      </trkpt>
      <trkpt lat="46.10361" lon="-1.1282">
        <ele>50.771845</ele>
        <time>2022-12-21T10:57:26.333Z</time>
      </trkpt>
      <trkpt lat="46.10358" lon="-1.12802">
        <ele>50.745537</ele>
        <time>2022-12-21T10:57:29.335Z</time>
      </trkpt>
      <trkpt lat="46.10356" lon="-1.12786">
        <ele>50.730779</ele>
        <time>2022-12-21T10:57:32.331Z</time>
      </trkpt>
      <trkpt lat="46.10353" lon="-1.12771">
        <ele>50.717157</ele>
        <time>2022-12-21T10:57:35.333Z</time>
      </trkpt>
      <trkpt lat="46.10351" lon="-1.12757">
        <ele>50.703995</ele>
        <time>2022-12-21T10:57:38.334Z</time>
      </trkpt>
      <trkpt lat="46.10348" lon="-1.12742">
        <ele>50.690367</ele>
        <time>2022-12-21T10:57:41.329Z</time>
      </trkpt>
      <trkpt lat="46.10346" lon="-1.12726">
        <ele>50.675332</ele>
        <time>2022-12-21T10:57:44.310Z</time>
      </trkpt>
      <trkpt lat="46.10345" lon="-1.12708">
        <ele>50.659228</ele>
        <time>2022-12-21T10:57:47.324Z</time>
      </trkpt>
      <trkpt lat="46.10345" lon="-1.1269">
        <ele>50.643096</ele>
        <time>2022-12-21T10:57:50.307Z</time>
      </trkpt>
      <trkpt lat="46.10347" lon="-1.12674">
        <ele>50.628569</ele>
        <time>2022-12-21T10:57:53.311Z</time>
      </trkpt>
      <trkpt lat="46.10349" lon="-1.12658">
        <ele>50.614246</ele>
        <time>2022-12-21T10:57:56.331Z</time>
      </trkpt>
      <trkpt lat="46.10352" lon="-1.12642">
        <ele>50.599778</ele>
        <time>2022-12-21T10:57:59.333Z</time>
      </trkpt>
      <trkpt lat="46.10354" lon="-1.12626">
        <ele>50.584493</ele>
        <time>2022-12-21T10:58:02.340Z</time>
      </trkpt>
      <trkpt lat="46.10356" lon="-1.12609">
        <ele>50.569296</ele>
        <time>2022-12-21T10:58:05.321Z</time>
      </trkpt>
      <trkpt lat="46.10359" lon="-1.12593">
        <ele>50.554438</ele>
        <time>2022-12-21T10:58:08.328Z</time>
      </trkpt>
      <trkpt lat="46.10359" lon="-1.12578">
        <ele>50.541412</ele>
        <time>2022-12-21T10:58:11.328Z</time>
      </trkpt>
      <trkpt lat="46.10361" lon="-1.12562">
        <ele>50.545752</ele>
        <time>2022-12-21T10:58:15.329Z</time>
      </trkpt>
      <trkpt lat="46.10362" lon="-1.12548">
        <ele>50.691946</ele>
        <time>2022-12-21T10:58:20.333Z</time>
      </trkpt>
      <trkpt lat="46.10364" lon="-1.12533">
        <ele>50.85024</ele>
        <time>2022-12-21T10:58:24.326Z</time>
      </trkpt>
      <trkpt lat="46.10366" lon="-1.1252">
        <ele>50.984958</ele>
        <time>2022-12-21T10:58:27.329Z</time>
      </trkpt>
      <trkpt lat="46.1037" lon="-1.12505">
        <ele>51.143413</ele>
        <time>2022-12-21T10:58:31.333Z</time>
      </trkpt>
      <trkpt lat="46.10372" lon="-1.12492">
        <ele>51.275507</ele>
        <time>2022-12-21T10:58:35.324Z</time>
      </trkpt>
      <trkpt lat="46.10369" lon="-1.12476">
        <ele>51.441023</ele>
        <time>2022-12-21T10:58:39.307Z</time>
      </trkpt>
      <trkpt lat="46.10365" lon="-1.12464">
        <ele>51.580536</ele>
        <time>2022-12-21T10:58:42.307Z</time>
      </trkpt>
      <trkpt lat="46.10361" lon="-1.12451">
        <ele>51.725542</ele>
        <time>2022-12-21T10:58:45.324Z</time>
      </trkpt>
      <trkpt lat="46.10357" lon="-1.12437">
        <ele>51.87557</ele>
        <time>2022-12-21T10:58:48.307Z</time>
      </trkpt>
      <trkpt lat="46.10352" lon="-1.12424">
        <ele>52.023401</ele>
        <time>2022-12-21T10:58:51.332Z</time>
      </trkpt>
      <trkpt lat="46.1035" lon="-1.1241">
        <ele>52.168341</ele>
        <time>2022-12-21T10:58:54.322Z</time>
      </trkpt>
      <trkpt lat="46.10347" lon="-1.12396">
        <ele>52.313512</ele>
        <time>2022-12-21T10:58:57.315Z</time>
      </trkpt>
      <trkpt lat="46.10345" lon="-1.12383">
        <ele>52.450187</ele>
        <time>2022-12-21T10:59:00.321Z</time>
      </trkpt>
      <trkpt lat="46.10342" lon="-1.12366">
        <ele>52.623171</ele>
        <time>2022-12-21T10:59:04.329Z</time>
      </trkpt>
      <trkpt lat="46.10341" lon="-1.12353">
        <ele>52.761305</ele>
        <time>2022-12-21T10:59:07.334Z</time>
      </trkpt>
      <trkpt lat="46.1034" lon="-1.12339">
        <ele>52.902615</ele>
        <time>2022-12-21T10:59:10.332Z</time>
      </trkpt>
      <trkpt lat="46.10339" lon="-1.12325">
        <ele>53.041157</ele>
        <time>2022-12-21T10:59:13.309Z</time>
      </trkpt>
      <trkpt lat="46.10339" lon="-1.1231">
        <ele>53.165991</ele>
        <time>2022-12-21T10:59:16.334Z</time>
      </trkpt>
      <trkpt lat="46.1034" lon="-1.12296">
        <ele>53.242989</ele>
        <time>2022-12-21T10:59:19.331Z</time>
      </trkpt>
      <trkpt lat="46.10339" lon="-1.12281">
        <ele>53.324154</ele>
        <time>2022-12-21T10:59:22.334Z</time>
      </trkpt>
      <trkpt lat="46.10339" lon="-1.12265">
        <ele>53.409626</ele>
        <time>2022-12-21T10:59:25.324Z</time>
      </trkpt>
      <trkpt lat="46.10339" lon="-1.1225">
        <ele>53.491298</ele>
        <time>2022-12-21T10:59:28.336Z</time>
      </trkpt>
      <trkpt lat="46.1034" lon="-1.12235">
        <ele>53.572613</ele>
        <time>2022-12-21T10:59:31.326Z</time>
      </trkpt>
      <trkpt lat="46.10341" lon="-1.1222">
        <ele>53.655986</ele>
        <time>2022-12-21T10:59:34.326Z</time>
      </trkpt>
      <trkpt lat="46.10344" lon="-1.12205">
        <ele>53.741006</ele>
        <time>2022-12-21T10:59:37.334Z</time>
      </trkpt>
      <trkpt lat="46.10346" lon="-1.12189">
        <ele>53.824836</ele>
        <time>2022-12-21T10:59:40.336Z</time>
      </trkpt>
      <trkpt lat="46.10347" lon="-1.12174">
        <ele>53.907234</ele>
        <time>2022-12-21T10:59:43.314Z</time>
      </trkpt>
      <trkpt lat="46.10348" lon="-1.1216">
        <ele>53.984181</ele>
        <time>2022-12-21T10:59:46.335Z</time>
      </trkpt>
      <trkpt lat="46.10349" lon="-1.12143">
        <ele>54.07646</ele>
        <time>2022-12-21T10:59:50.332Z</time>
      </trkpt>
      <trkpt lat="46.10348" lon="-1.12128">
        <ele>54.155739</ele>
        <time>2022-12-21T10:59:53.311Z</time>
      </trkpt>
      <trkpt lat="46.10345" lon="-1.12113">
        <ele>54.241993</ele>
        <time>2022-12-21T10:59:56.322Z</time>
      </trkpt>
      <trkpt lat="46.10342" lon="-1.12097">
        <ele>54.331541</ele>
        <time>2022-12-21T10:59:59.307Z</time>
      </trkpt>
      <trkpt lat="46.1034" lon="-1.1208">
        <ele>54.425224</ele>
        <time>2022-12-21T11:00:02.311Z</time>
      </trkpt>
      <trkpt lat="46.10338" lon="-1.12062">
        <ele>54.522032</ele>
        <time>2022-12-21T11:00:05.314Z</time>
      </trkpt>
      <trkpt lat="46.10337" lon="-1.12044">
        <ele>54.576901</ele>
        <time>2022-12-21T11:00:08.332Z</time>
      </trkpt>
      <trkpt lat="46.10337" lon="-1.12026">
        <ele>54.618739</ele>
        <time>2022-12-21T11:00:11.322Z</time>
      </trkpt>
      <trkpt lat="46.10339" lon="-1.12009">
        <ele>54.658769</ele>
        <time>2022-12-21T11:00:14.332Z</time>
      </trkpt>
      <trkpt lat="46.1034" lon="-1.11993">
        <ele>54.695673</ele>
        <time>2022-12-21T11:00:17.334Z</time>
      </trkpt>
      <trkpt lat="46.10341" lon="-1.11977">
        <ele>54.731886</ele>
        <time>2022-12-21T11:00:20.329Z</time>
      </trkpt>
      <trkpt lat="46.10341" lon="-1.11961">
        <ele>54.769114</ele>
        <time>2022-12-21T11:00:23.327Z</time>
      </trkpt>
      <trkpt lat="46.10339" lon="-1.11944">
        <ele>54.808999</ele>
        <time>2022-12-21T11:00:26.310Z</time>
      </trkpt>
      <trkpt lat="46.10337" lon="-1.11927">
        <ele>54.848913</ele>
        <time>2022-12-21T11:00:29.334Z</time>
      </trkpt>
      <trkpt lat="46.10333" lon="-1.1191">
        <ele>54.890303</ele>
        <time>2022-12-21T11:00:32.333Z</time>
      </trkpt>
      <trkpt lat="46.1033" lon="-1.11893">
        <ele>54.932151</ele>
        <time>2022-12-21T11:00:35.335Z</time>
      </trkpt>
      <trkpt lat="46.10326" lon="-1.11878">
        <ele>54.968348</ele>
        <time>2022-12-21T11:00:38.312Z</time>
      </trkpt>
      <trkpt lat="46.10323" lon="-1.11864">
        <ele>55.002219</ele>
        <time>2022-12-21T11:00:41.333Z</time>
      </trkpt>
      <trkpt lat="46.1032" lon="-1.11849">
        <ele>55.037639</ele>
        <time>2022-12-21T11:00:44.336Z</time>
      </trkpt>
      <trkpt lat="46.10316" lon="-1.11835">
        <ele>55.072373</ele>
        <time>2022-12-21T11:00:47.335Z</time>
      </trkpt>
      <trkpt lat="46.10314" lon="-1.1182">
        <ele>55.109157</ele>
        <time>2022-12-21T11:00:50.319Z</time>
      </trkpt>
      <trkpt lat="46.10313" lon="-1.11803">
        <ele>55.137155</ele>
        <time>2022-12-21T11:00:53.308Z</time>
      </trkpt>
      <trkpt lat="46.10313" lon="-1.11788">
        <ele>55.085221</ele>
        <time>2022-12-21T11:00:56.333Z</time>
      </trkpt>
      <trkpt lat="46.10315" lon="-1.11772">
        <ele>55.03322</ele>
        <time>2022-12-21T11:00:59.311Z</time>
      </trkpt>
      <trkpt lat="46.10317" lon="-1.11757">
        <ele>54.98049</ele>
        <time>2022-12-21T11:01:02.307Z</time>
      </trkpt>
      <trkpt lat="46.10321" lon="-1.11741">
        <ele>54.92561</ele>
        <time>2022-12-21T11:01:05.311Z</time>
      </trkpt>
      <trkpt lat="46.10326" lon="-1.11726">
        <ele>54.868833</ele>
        <time>2022-12-21T11:01:08.314Z</time>
      </trkpt>
      <trkpt lat="46.10331" lon="-1.1171">
        <ele>54.811657</ele>
        <time>2022-12-21T11:01:11.329Z</time>
      </trkpt>
      <trkpt lat="46.10337" lon="-1.11696">
        <ele>54.756149</ele>
        <time>2022-12-21T11:01:14.331Z</time>
      </trkpt>
      <trkpt lat="46.10342" lon="-1.11682">
        <ele>54.704609</ele>
        <time>2022-12-21T11:01:17.332Z</time>
      </trkpt>
      <trkpt lat="46.10346" lon="-1.11668">
        <ele>54.653059</ele>
        <time>2022-12-21T11:01:20.324Z</time>
      </trkpt>
      <trkpt lat="46.10351" lon="-1.11652">
        <ele>54.596969</ele>
        <time>2022-12-21T11:01:23.306Z</time>
      </trkpt>
      <trkpt lat="46.10354" lon="-1.11636">
        <ele>54.540864</ele>
        <time>2022-12-21T11:01:26.317Z</time>
      </trkpt>
      <trkpt lat="46.10356" lon="-1.11619">
        <ele>54.483267</ele>
        <time>2022-12-21T11:01:29.311Z</time>
      </trkpt>
      <trkpt lat="46.10359" lon="-1.11603">
        <ele>54.426961</ele>
        <time>2022-12-21T11:01:32.327Z</time>
      </trkpt>
      <trkpt lat="46.10362" lon="-1.11585">
        <ele>54.368508</ele>
        <time>2022-12-21T11:01:35.316Z</time>
      </trkpt>
      <trkpt lat="46.10365" lon="-1.11569">
        <ele>54.310351</ele>
        <time>2022-12-21T11:01:38.335Z</time>
      </trkpt>
      <trkpt lat="46.10367" lon="-1.11552">
        <ele>54.288751</ele>
        <time>2022-12-21T11:01:41.335Z</time>
      </trkpt>
      <trkpt lat="46.10368" lon="-1.11536">
        <ele>54.307497</ele>
        <time>2022-12-21T11:01:44.333Z</time>
      </trkpt>
      <trkpt lat="46.10371" lon="-1.1152">
        <ele>54.326882</ele>
        <time>2022-12-21T11:01:47.325Z</time>
      </trkpt>
      <trkpt lat="46.10374" lon="-1.11503">
        <ele>54.347533</ele>
        <time>2022-12-21T11:01:50.312Z</time>
      </trkpt>
      <trkpt lat="46.10376" lon="-1.11486">
        <ele>54.368631</ele>
        <time>2022-12-21T11:01:53.332Z</time>
      </trkpt>
      <trkpt lat="46.1038" lon="-1.11469">
        <ele>54.38883</ele>
        <time>2022-12-21T11:01:56.306Z</time>
      </trkpt>
      <trkpt lat="46.10382" lon="-1.11452">
        <ele>54.409268</ele>
        <time>2022-12-21T11:01:59.334Z</time>
      </trkpt>
      <trkpt lat="46.10385" lon="-1.11435">
        <ele>54.429956</ele>
        <time>2022-12-21T11:02:02.322Z</time>
      </trkpt>
      <trkpt lat="46.10387" lon="-1.11419">
        <ele>54.449286</ele>
        <time>2022-12-21T11:02:05.310Z</time>
      </trkpt>
      <trkpt lat="46.10389" lon="-1.11405">
        <ele>54.466364</ele>
        <time>2022-12-21T11:02:08.330Z</time>
      </trkpt>
      <trkpt lat="46.10389" lon="-1.11389">
        <ele>54.484714</ele>
        <time>2022-12-21T11:02:12.326Z</time>
      </trkpt>
      <trkpt lat="46.10381" lon="-1.11379">
        <ele>54.503503</ele>
        <time>2022-12-21T11:02:17.314Z</time>
      </trkpt>
      <trkpt lat="46.1037" lon="-1.11374">
        <ele>54.522055</ele>
        <time>2022-12-21T11:02:20.330Z</time>
      </trkpt>
      <trkpt lat="46.10358" lon="-1.11368">
        <ele>54.543441</ele>
        <time>2022-12-21T11:02:23.334Z</time>
      </trkpt>
      <trkpt lat="46.10348" lon="-1.11361">
        <ele>54.563294</ele>
        <time>2022-12-21T11:02:26.309Z</time>
      </trkpt>
      <trkpt lat="46.10336" lon="-1.11355">
        <ele>54.583562</ele>
        <time>2022-12-21T11:02:29.333Z</time>
      </trkpt>
      <trkpt lat="46.10326" lon="-1.11349">
        <ele>54.730339</ele>
        <time>2022-12-21T11:02:32.335Z</time>
      </trkpt>
      <trkpt lat="46.10315" lon="-1.11343">
        <ele>54.883307</ele>
        <time>2022-12-21T11:02:35.313Z</time>
      </trkpt>
      <trkpt lat="46.10306" lon="-1.11338">
        <ele>55.019332</ele>
        <time>2022-12-21T11:02:38.332Z</time>
      </trkpt>
      <trkpt lat="46.10296" lon="-1.11331">
        <ele>55.170367</ele>
        <time>2022-12-21T11:02:43.336Z</time>
      </trkpt>
      <trkpt lat="46.10286" lon="-1.11325">
        <ele>55.306678</ele>
        <time>2022-12-21T11:02:47.311Z</time>
      </trkpt>
      <trkpt lat="46.10276" lon="-1.11317">
        <ele>55.465126</ele>
        <time>2022-12-21T11:02:51.307Z</time>
      </trkpt>
      <trkpt lat="46.10266" lon="-1.1131">
        <ele>55.617786</ele>
        <time>2022-12-21T11:02:55.333Z</time>
      </trkpt>
      <trkpt lat="46.10258" lon="-1.11303">
        <ele>55.744972</ele>
        <time>2022-12-21T11:02:58.337Z</time>
      </trkpt>
      <trkpt lat="46.10248" lon="-1.11294">
        <ele>55.904483</ele>
        <time>2022-12-21T11:03:02.336Z</time>
      </trkpt>
      <trkpt lat="46.1024" lon="-1.11287">
        <ele>56.036352</ele>
        <time>2022-12-21T11:03:05.313Z</time>
      </trkpt>
      <trkpt lat="46.10231" lon="-1.1128">
        <ele>56.169865</ele>
        <time>2022-12-21T11:03:08.337Z</time>
      </trkpt>
      <trkpt lat="46.10222" lon="-1.11272">
        <ele>56.311258</ele>
        <time>2022-12-21T11:03:12.323Z</time>
      </trkpt>
      <trkpt lat="46.10213" lon="-1.11261">
        <ele>56.465226</ele>
        <time>2022-12-21T11:03:17.313Z</time>
      </trkpt>
      <trkpt lat="46.10205" lon="-1.11254">
        <ele>56.599034</ele>
        <time>2022-12-21T11:03:21.315Z</time>
      </trkpt>
      <trkpt lat="46.10197" lon="-1.11246">
        <ele>56.727758</ele>
        <time>2022-12-21T11:03:25.324Z</time>
      </trkpt>
      <trkpt lat="46.10189" lon="-1.11239">
        <ele>56.857505</ele>
        <time>2022-12-21T11:03:30.311Z</time>
      </trkpt>
      <trkpt lat="46.10181" lon="-1.11232">
        <ele>56.980785</ele>
        <time>2022-12-21T11:03:34.334Z</time>
      </trkpt>
      <trkpt lat="46.10172" lon="-1.11222">
        <ele>57.004317</ele>
        <time>2022-12-21T11:03:38.326Z</time>
      </trkpt>
      <trkpt lat="46.10163" lon="-1.11212">
        <ele>56.980959</ele>
        <time>2022-12-21T11:03:42.333Z</time>
      </trkpt>
      <trkpt lat="46.10154" lon="-1.11202">
        <ele>56.956854</ele>
        <time>2022-12-21T11:03:46.339Z</time>
      </trkpt>
      <trkpt lat="46.10148" lon="-1.11193">
        <ele>56.938425</ele>
        <time>2022-12-21T11:03:49.332Z</time>
      </trkpt>
      <trkpt lat="46.1014" lon="-1.11185">
        <ele>56.919337</ele>
        <time>2022-12-21T11:03:52.312Z</time>
      </trkpt>
      <trkpt lat="46.10132" lon="-1.11174">
        <ele>56.897661</ele>
        <time>2022-12-21T11:03:56.316Z</time>
      </trkpt>
      <trkpt lat="46.10123" lon="-1.11164">
        <ele>56.873128</ele>
        <time>2022-12-21T11:04:00.308Z</time>
      </trkpt>
      <trkpt lat="46.10115" lon="-1.11152">
        <ele>56.849224</ele>
        <time>2022-12-21T11:04:04.334Z</time>
      </trkpt>
      <trkpt lat="46.10107" lon="-1.11142">
        <ele>56.828633</ele>
        <time>2022-12-21T11:04:08.321Z</time>
      </trkpt>
      <trkpt lat="46.10101" lon="-1.11133">
        <ele>56.809574</ele>
        <time>2022-12-21T11:04:11.333Z</time>
      </trkpt>
      <trkpt lat="46.10094" lon="-1.11123">
        <ele>56.789825</ele>
        <time>2022-12-21T11:04:14.326Z</time>
      </trkpt>
      <trkpt lat="46.10087" lon="-1.11113">
        <ele>56.768685</ele>
        <time>2022-12-21T11:04:17.332Z</time>
      </trkpt>
      <trkpt lat="46.10079" lon="-1.11101">
        <ele>56.745703</ele>
        <time>2022-12-21T11:04:20.312Z</time>
      </trkpt>
      <trkpt lat="46.10071" lon="-1.1109">
        <ele>56.722596</ele>
        <time>2022-12-21T11:04:23.341Z</time>
      </trkpt>
      <trkpt lat="46.10064" lon="-1.11078">
        <ele>56.70093</ele>
        <time>2022-12-21T11:04:26.311Z</time>
      </trkpt>
      <trkpt lat="46.10057" lon="-1.11068">
        <ele>56.681364</ele>
        <time>2022-12-21T11:04:29.333Z</time>
      </trkpt>
      <trkpt lat="46.1005" lon="-1.11057">
        <ele>56.658453</ele>
        <time>2022-12-21T11:04:33.330Z</time>
      </trkpt>
      <trkpt lat="46.10043" lon="-1.11043">
        <ele>56.741137</ele>
        <time>2022-12-21T11:04:37.335Z</time>
      </trkpt>
      <trkpt lat="46.10037" lon="-1.11032">
        <ele>56.842894</ele>
        <time>2022-12-21T11:04:40.337Z</time>
      </trkpt>
      <trkpt lat="46.10031" lon="-1.11021">
        <ele>56.94732</ele>
        <time>2022-12-21T11:04:43.325Z</time>
      </trkpt>
      <trkpt lat="46.10025" lon="-1.11009">
        <ele>57.052191</ele>
        <time>2022-12-21T11:04:46.330Z</time>
      </trkpt>
      <trkpt lat="46.10019" lon="-1.10998">
        <ele>57.164807</ele>
        <time>2022-12-21T11:04:49.339Z</time>
      </trkpt>
      <trkpt lat="46.10013" lon="-1.10986">
        <ele>57.270978</ele>
        <time>2022-12-21T11:04:52.332Z</time>
      </trkpt>
      <trkpt lat="46.10006" lon="-1.10972">
        <ele>57.39655</ele>
        <time>2022-12-21T11:04:56.312Z</time>
      </trkpt>
      <trkpt lat="46.10001" lon="-1.10961">
        <ele>57.495298</ele>
        <time>2022-12-21T11:04:59.335Z</time>
      </trkpt>
      <trkpt lat="46.09995" lon="-1.10951">
        <ele>57.594247</ele>
        <time>2022-12-21T11:05:02.324Z</time>
      </trkpt>
      <trkpt lat="46.09989" lon="-1.10941">
        <ele>57.69285</ele>
        <time>2022-12-21T11:05:05.314Z</time>
      </trkpt>
      <trkpt lat="46.09983" lon="-1.1093">
        <ele>57.795549</ele>
        <time>2022-12-21T11:05:08.324Z</time>
      </trkpt>
      <trkpt lat="46.09977" lon="-1.10919">
        <ele>57.898149</ele>
        <time>2022-12-21T11:05:11.316Z</time>
      </trkpt>
      <trkpt lat="46.09971" lon="-1.10906">
        <ele>58.01272</ele>
        <time>2022-12-21T11:05:15.332Z</time>
      </trkpt>
      <trkpt lat="46.09965" lon="-1.10895">
        <ele>58.123205</ele>
        <time>2022-12-21T11:05:19.323Z</time>
      </trkpt>
      <trkpt lat="46.09959" lon="-1.10884">
        <ele>58.220766</ele>
        <time>2022-12-21T11:05:22.331Z</time>
      </trkpt>
      <trkpt lat="46.09952" lon="-1.10875">
        <ele>58.324562</ele>
        <time>2022-12-21T11:05:25.328Z</time>
      </trkpt>
      <trkpt lat="46.09943" lon="-1.10867">
        <ele>58.437194</ele>
        <time>2022-12-21T11:05:28.320Z</time>
      </trkpt>
      <trkpt lat="46.09934" lon="-1.10861">
        <ele>58.542293</ele>
        <time>2022-12-21T11:05:31.311Z</time>
      </trkpt>
      <trkpt lat="46.09925" lon="-1.10855">
        <ele>58.605041</ele>
        <time>2022-12-21T11:05:35.326Z</time>
      </trkpt>
      <trkpt lat="46.09919" lon="-1.10843">
        <ele>58.649407</ele>
        <time>2022-12-21T11:05:40.317Z</time>
      </trkpt>
      <trkpt lat="46.09914" lon="-1.10831">
        <ele>58.692098</ele>
        <time>2022-12-21T11:05:44.333Z</time>
      </trkpt>
      <trkpt lat="46.09908" lon="-1.10817">
        <ele>58.739096</ele>
        <time>2022-12-21T11:05:48.336Z</time>
      </trkpt>
      <trkpt lat="46.09904" lon="-1.10801">
        <ele>58.788974</ele>
        <time>2022-12-21T11:05:52.329Z</time>
      </trkpt>
      <trkpt lat="46.09901" lon="-1.10786">
        <ele>58.836368</ele>
        <time>2022-12-21T11:05:56.336Z</time>
      </trkpt>
      <trkpt lat="46.09896" lon="-1.10772">
        <ele>58.886092</ele>
        <time>2022-12-21T11:06:00.321Z</time>
      </trkpt>
      <trkpt lat="46.09889" lon="-1.10762">
        <ele>58.926683</ele>
        <time>2022-12-21T11:06:03.317Z</time>
      </trkpt>
      <trkpt lat="46.09884" lon="-1.10751">
        <ele>58.968603</ele>
        <time>2022-12-21T11:06:06.334Z</time>
      </trkpt>
      <trkpt lat="46.09878" lon="-1.1074">
        <ele>59.009067</ele>
        <time>2022-12-21T11:06:09.333Z</time>
      </trkpt>
      <trkpt lat="46.09872" lon="-1.1073">
        <ele>59.049091</ele>
        <time>2022-12-21T11:06:12.337Z</time>
      </trkpt>
      <trkpt lat="46.09866" lon="-1.10718">
        <ele>59.091736</ele>
        <time>2022-12-21T11:06:15.329Z</time>
      </trkpt>
      <trkpt lat="46.0986" lon="-1.10707">
        <ele>59.13429</ele>
        <time>2022-12-21T11:06:18.336Z</time>
      </trkpt>
      <trkpt lat="46.09853" lon="-1.10694">
        <ele>59.183605</ele>
        <time>2022-12-21T11:06:22.316Z</time>
      </trkpt>
      <trkpt lat="46.09846" lon="-1.10681">
        <ele>59.231961</ele>
        <time>2022-12-21T11:06:26.328Z</time>
      </trkpt>
      <trkpt lat="46.09841" lon="-1.1067">
        <ele>59.272874</ele>
        <time>2022-12-21T11:06:29.337Z</time>
      </trkpt>
      <trkpt lat="46.09836" lon="-1.10657">
        <ele>59.317456</ele>
        <time>2022-12-21T11:06:32.305Z</time>
      </trkpt>
      <trkpt lat="46.0983" lon="-1.10645">
        <ele>59.334331</ele>
        <time>2022-12-21T11:06:35.336Z</time>
      </trkpt>
      <trkpt lat="46.09822" lon="-1.10632">
        <ele>59.248271</ele>
        <time>2022-12-21T11:06:38.317Z</time>
      </trkpt>
      <trkpt lat="46.09815" lon="-1.10618">
        <ele>59.162369</ele>
        <time>2022-12-21T11:06:41.323Z</time>
      </trkpt>
      <trkpt lat="46.09808" lon="-1.10606">
        <ele>59.078768</ele>
        <time>2022-12-21T11:06:44.337Z</time>
      </trkpt>
      <trkpt lat="46.09802" lon="-1.10594">
        <ele>59.002191</ele>
        <time>2022-12-21T11:06:47.333Z</time>
      </trkpt>
      <trkpt lat="46.09796" lon="-1.10582">
        <ele>58.926471</ele>
        <time>2022-12-21T11:06:50.314Z</time>
      </trkpt>
      <trkpt lat="46.0979" lon="-1.1057">
        <ele>58.847822</ele>
        <time>2022-12-21T11:06:53.349Z</time>
      </trkpt>
      <trkpt lat="46.09783" lon="-1.10557">
        <ele>58.765222</ele>
        <time>2022-12-21T11:06:56.324Z</time>
      </trkpt>
      <trkpt lat="46.09776" lon="-1.10544">
        <ele>58.680647</ele>
        <time>2022-12-21T11:06:59.331Z</time>
      </trkpt>
      <trkpt lat="46.09769" lon="-1.10531">
        <ele>58.595107</ele>
        <time>2022-12-21T11:07:02.304Z</time>
      </trkpt>
      <trkpt lat="46.09762" lon="-1.10519">
        <ele>58.517258</ele>
        <time>2022-12-21T11:07:05.330Z</time>
      </trkpt>
      <trkpt lat="46.09756" lon="-1.10507">
        <ele>58.439412</ele>
        <time>2022-12-21T11:07:08.319Z</time>
      </trkpt>
      <trkpt lat="46.09749" lon="-1.10494">
        <ele>58.354368</ele>
        <time>2022-12-21T11:07:11.336Z</time>
      </trkpt>
      <trkpt lat="46.09741" lon="-1.10482">
        <ele>58.268995</ele>
        <time>2022-12-21T11:07:14.334Z</time>
      </trkpt>
      <trkpt lat="46.09734" lon="-1.10468">
        <ele>58.182683</ele>
        <time>2022-12-21T11:07:17.345Z</time>
      </trkpt>
      <trkpt lat="46.09728" lon="-1.10457">
        <ele>58.106472</ele>
        <time>2022-12-21T11:07:20.336Z</time>
      </trkpt>
      <trkpt lat="46.09721" lon="-1.10445">
        <ele>58.027673</ele>
        <time>2022-12-21T11:07:23.337Z</time>
      </trkpt>
      <trkpt lat="46.09714" lon="-1.10432">
        <ele>57.896316</ele>
        <time>2022-12-21T11:07:26.331Z</time>
      </trkpt>
      <trkpt lat="46.09707" lon="-1.10418">
        <ele>57.748261</ele>
        <time>2022-12-21T11:07:29.336Z</time>
      </trkpt>
      <trkpt lat="46.09699" lon="-1.10406">
        <ele>57.610775</ele>
        <time>2022-12-21T11:07:32.334Z</time>
      </trkpt>
      <trkpt lat="46.09694" lon="-1.10394">
        <ele>57.485999</ele>
        <time>2022-12-21T11:07:35.325Z</time>
      </trkpt>
      <trkpt lat="46.09687" lon="-1.10382">
        <ele>57.361769</ele>
        <time>2022-12-21T11:07:38.335Z</time>
      </trkpt>
      <trkpt lat="46.09681" lon="-1.10371">
        <ele>57.235013</ele>
        <time>2022-12-21T11:07:41.334Z</time>
      </trkpt>
      <trkpt lat="46.09674" lon="-1.10359">
        <ele>57.104086</ele>
        <time>2022-12-21T11:07:44.323Z</time>
      </trkpt>
      <trkpt lat="46.09667" lon="-1.10347">
        <ele>56.972635</ele>
        <time>2022-12-21T11:07:47.334Z</time>
      </trkpt>
      <trkpt lat="46.09661" lon="-1.10336">
        <ele>56.847731</ele>
        <time>2022-12-21T11:07:50.335Z</time>
      </trkpt>
      <trkpt lat="46.09654" lon="-1.10325">
        <ele>56.726431</ele>
        <time>2022-12-21T11:07:53.339Z</time>
      </trkpt>
      <trkpt lat="46.09646" lon="-1.10315">
        <ele>56.599328</ele>
        <time>2022-12-21T11:07:56.312Z</time>
      </trkpt>
      <trkpt lat="46.09637" lon="-1.10306">
        <ele>56.461532</ele>
        <time>2022-12-21T11:07:59.314Z</time>
      </trkpt>
      <trkpt lat="46.09626" lon="-1.10298">
        <ele>56.310119</ele>
        <time>2022-12-21T11:08:02.312Z</time>
      </trkpt>
      <trkpt lat="46.09614" lon="-1.10292">
        <ele>56.155497</ele>
        <time>2022-12-21T11:08:05.304Z</time>
      </trkpt>
      <trkpt lat="46.09604" lon="-1.10282">
        <ele>56.002597</ele>
        <time>2022-12-21T11:08:08.306Z</time>
      </trkpt>
      <trkpt lat="46.09594" lon="-1.10272">
        <ele>55.856191</ele>
        <time>2022-12-21T11:08:11.334Z</time>
      </trkpt>
      <trkpt lat="46.09585" lon="-1.10259">
        <ele>55.724713</ele>
        <time>2022-12-21T11:08:14.337Z</time>
      </trkpt>
      <trkpt lat="46.09577" lon="-1.10246">
        <ele>55.605794</ele>
        <time>2022-12-21T11:08:17.337Z</time>
      </trkpt>
      <trkpt lat="46.09569" lon="-1.10232">
        <ele>55.48019</ele>
        <time>2022-12-21T11:08:20.327Z</time>
      </trkpt>
      <trkpt lat="46.09559" lon="-1.10218">
        <ele>55.350071</ele>
        <time>2022-12-21T11:08:23.331Z</time>
      </trkpt>
      <trkpt lat="46.09553" lon="-1.10208">
        <ele>55.261566</ele>
        <time>2022-12-21T11:08:25.334Z</time>
      </trkpt>
      <trkpt lat="46.09545" lon="-1.10195">
        <ele>55.139707</ele>
        <time>2022-12-21T11:08:28.328Z</time>
      </trkpt>
      <trkpt lat="46.09537" lon="-1.10179">
        <ele>55.011208</ele>
        <time>2022-12-21T11:08:31.308Z</time>
      </trkpt>
      <trkpt lat="46.09529" lon="-1.10165">
        <ele>54.884555</ele>
        <time>2022-12-21T11:08:34.329Z</time>
      </trkpt>
      <trkpt lat="46.09522" lon="-1.1015">
        <ele>54.760553</ele>
        <time>2022-12-21T11:08:37.325Z</time>
      </trkpt>
      <trkpt lat="46.09513" lon="-1.10138">
        <ele>54.639683</ele>
        <time>2022-12-21T11:08:40.311Z</time>
      </trkpt>
      <trkpt lat="46.09502" lon="-1.10133">
        <ele>54.530862</ele>
        <time>2022-12-21T11:08:43.315Z</time>
      </trkpt>
      <trkpt lat="46.09492" lon="-1.10129">
        <ele>54.429043</ele>
        <time>2022-12-21T11:08:46.308Z</time>
      </trkpt>
      <trkpt lat="46.09484" lon="-1.10119">
        <ele>54.322002</ele>
        <time>2022-12-21T11:08:49.307Z</time>
      </trkpt>
      <trkpt lat="46.09478" lon="-1.10104">
        <ele>54.20517</ele>
        <time>2022-12-21T11:08:52.312Z</time>
      </trkpt>
      <trkpt lat="46.09474" lon="-1.10088">
        <ele>54.08764</ele>
        <time>2022-12-21T11:08:55.316Z</time>
      </trkpt>
      <trkpt lat="46.09475" lon="-1.10071">
        <ele>54.024511</ele>
        <time>2022-12-21T11:08:58.316Z</time>
      </trkpt>
      <trkpt lat="46.0948" lon="-1.10057">
        <ele>53.983263</ele>
        <time>2022-12-21T11:09:02.319Z</time>
      </trkpt>
      <trkpt lat="46.09483" lon="-1.10042">
        <ele>53.944317</ele>
        <time>2022-12-21T11:09:06.320Z</time>
      </trkpt>
      <trkpt lat="46.09483" lon="-1.10029">
        <ele>53.911363</ele>
        <time>2022-12-21T11:09:09.315Z</time>
      </trkpt>
      <trkpt lat="46.09479" lon="-1.10016">
        <ele>53.877984</ele>
        <time>2022-12-21T11:09:12.317Z</time>
      </trkpt>
      <trkpt lat="46.09471" lon="-1.10011">
        <ele>53.845431</ele>
        <time>2022-12-21T11:09:15.314Z</time>
      </trkpt>
      <trkpt lat="46.0946" lon="-1.1001">
        <ele>53.805487</ele>
        <time>2022-12-21T11:09:19.334Z</time>
      </trkpt>
      <trkpt lat="46.09451" lon="-1.10009">
        <ele>53.770674</ele>
        <time>2022-12-21T11:09:22.318Z</time>
      </trkpt>
      <trkpt lat="46.0944" lon="-1.10006">
        <ele>53.730767</ele>
        <time>2022-12-21T11:09:25.311Z</time>
      </trkpt>
      <trkpt lat="46.09429" lon="-1.10002">
        <ele>53.689127</ele>
        <time>2022-12-21T11:09:28.336Z</time>
      </trkpt>
      <trkpt lat="46.09419" lon="-1.09998">
        <ele>53.650891</ele>
        <time>2022-12-21T11:09:31.318Z</time>
      </trkpt>
      <trkpt lat="46.09409" lon="-1.09994">
        <ele>53.615152</ele>
        <time>2022-12-21T11:09:34.337Z</time>
      </trkpt>
      <trkpt lat="46.09399" lon="-1.09991">
        <ele>53.578846</ele>
        <time>2022-12-21T11:09:37.336Z</time>
      </trkpt>
      <trkpt lat="46.0939" lon="-1.09986">
        <ele>53.543874</ele>
        <time>2022-12-21T11:09:40.323Z</time>
      </trkpt>
      <trkpt lat="46.09381" lon="-1.09983">
        <ele>53.508049</ele>
        <time>2022-12-21T11:09:43.318Z</time>
      </trkpt>
      <trkpt lat="46.09371" lon="-1.09979">
        <ele>53.472102</ele>
        <time>2022-12-21T11:09:46.333Z</time>
      </trkpt>
      <trkpt lat="46.09362" lon="-1.09975">
        <ele>53.436512</ele>
        <time>2022-12-21T11:09:49.335Z</time>
      </trkpt>
      <trkpt lat="46.09352" lon="-1.0997">
        <ele>53.410343</ele>
        <time>2022-12-21T11:09:52.314Z</time>
      </trkpt>
      <trkpt lat="46.09343" lon="-1.09965">
        <ele>53.482747</ele>
        <time>2022-12-21T11:09:55.337Z</time>
      </trkpt>
      <trkpt lat="46.09333" lon="-1.09962">
        <ele>53.554134</ele>
        <time>2022-12-21T11:09:58.336Z</time>
      </trkpt>
      <trkpt lat="46.09324" lon="-1.09959">
        <ele>53.624065</ele>
        <time>2022-12-21T11:10:01.332Z</time>
      </trkpt>
      <trkpt lat="46.09313" lon="-1.09956">
        <ele>53.704202</ele>
        <time>2022-12-21T11:10:05.335Z</time>
      </trkpt>
      <trkpt lat="46.09303" lon="-1.09955">
        <ele>53.779268</ele>
        <time>2022-12-21T11:10:09.335Z</time>
      </trkpt>
      <trkpt lat="46.09292" lon="-1.09952">
        <ele>53.859487</ele>
        <time>2022-12-21T11:10:13.308Z</time>
      </trkpt>
      <trkpt lat="46.09281" lon="-1.0995">
        <ele>53.943967</ele>
        <time>2022-12-21T11:10:17.331Z</time>
      </trkpt>
      <trkpt lat="46.09272" lon="-1.09948">
        <ele>54.010682</ele>
        <time>2022-12-21T11:10:20.330Z</time>
      </trkpt>
      <trkpt lat="46.09262" lon="-1.09946">
        <ele>54.080595</ele>
        <time>2022-12-21T11:10:23.336Z</time>
      </trkpt>
      <trkpt lat="46.09252" lon="-1.09944">
        <ele>54.160653</ele>
        <time>2022-12-21T11:10:27.327Z</time>
      </trkpt>
      <trkpt lat="46.09242" lon="-1.09942">
        <ele>54.229333</ele>
        <time>2022-12-21T11:10:30.338Z</time>
      </trkpt>
      <trkpt lat="46.09233" lon="-1.09941">
        <ele>54.298352</ele>
        <time>2022-12-21T11:10:33.314Z</time>
      </trkpt>
      <trkpt lat="46.09223" lon="-1.09939">
        <ele>54.370938</ele>
        <time>2022-12-21T11:10:36.338Z</time>
      </trkpt>
      <trkpt lat="46.09214" lon="-1.09937">
        <ele>54.44193</ele>
        <time>2022-12-21T11:10:39.337Z</time>
      </trkpt>
      <trkpt lat="46.09204" lon="-1.09935">
        <ele>54.512052</ele>
        <time>2022-12-21T11:10:42.309Z</time>
      </trkpt>
      <trkpt lat="46.09194" lon="-1.09931">
        <ele>54.585434</ele>
        <time>2022-12-21T11:10:45.310Z</time>
      </trkpt>
      <trkpt lat="46.09185" lon="-1.09928">
        <ele>54.657293</ele>
        <time>2022-12-21T11:10:48.331Z</time>
      </trkpt>
      <trkpt lat="46.09175" lon="-1.09925">
        <ele>54.727379</ele>
        <time>2022-12-21T11:10:51.310Z</time>
      </trkpt>
      <trkpt lat="46.09165" lon="-1.09921">
        <ele>54.776497</ele>
        <time>2022-12-21T11:10:54.332Z</time>
      </trkpt>
      <trkpt lat="46.09155" lon="-1.09917">
        <ele>54.828675</ele>
        <time>2022-12-21T11:10:57.334Z</time>
      </trkpt>
      <trkpt lat="46.09144" lon="-1.09914">
        <ele>54.880927</ele>
        <time>2022-12-21T11:11:00.329Z</time>
      </trkpt>
      <trkpt lat="46.09134" lon="-1.09911">
        <ele>54.931687</ele>
        <time>2022-12-21T11:11:03.335Z</time>
      </trkpt>
      <trkpt lat="46.09124" lon="-1.09907">
        <ele>54.984412</ele>
        <time>2022-12-21T11:11:06.328Z</time>
      </trkpt>
      <trkpt lat="46.09113" lon="-1.09904">
        <ele>55.037871</ele>
        <time>2022-12-21T11:11:09.324Z</time>
      </trkpt>
      <trkpt lat="46.09102" lon="-1.099">
        <ele>55.091222</ele>
        <time>2022-12-21T11:11:12.308Z</time>
      </trkpt>
      <trkpt lat="46.09092" lon="-1.09897">
        <ele>55.141981</ele>
        <time>2022-12-21T11:11:15.323Z</time>
      </trkpt>
      <trkpt lat="46.09082" lon="-1.09895">
        <ele>55.190235</ele>
        <time>2022-12-21T11:11:18.330Z</time>
      </trkpt>
      <trkpt lat="46.09073" lon="-1.09891">
        <ele>55.237661</ele>
        <time>2022-12-21T11:11:21.332Z</time>
      </trkpt>
      <trkpt lat="46.09062" lon="-1.09888">
        <ele>55.288678</ele>
        <time>2022-12-21T11:11:24.312Z</time>
      </trkpt>
      <trkpt lat="46.09051" lon="-1.09884">
        <ele>55.343295</ele>
        <time>2022-12-21T11:11:27.335Z</time>
      </trkpt>
      <trkpt lat="46.0904" lon="-1.09882">
        <ele>55.397514</ele>
        <time>2022-12-21T11:11:30.342Z</time>
      </trkpt>
      <trkpt lat="46.0903" lon="-1.09878">
        <ele>55.450171</ele>
        <time>2022-12-21T11:11:33.330Z</time>
      </trkpt>
      <trkpt lat="46.0902" lon="-1.09874">
        <ele>55.496528</ele>
        <time>2022-12-21T11:11:36.321Z</time>
      </trkpt>
      <trkpt lat="46.09011" lon="-1.09872">
        <ele>55.541801</ele>
        <time>2022-12-21T11:11:39.338Z</time>
      </trkpt>
      <trkpt lat="46.09002" lon="-1.09868">
        <ele>55.590718</ele>
        <time>2022-12-21T11:11:42.309Z</time>
      </trkpt>
      <trkpt lat="46.08992" lon="-1.09864">
        <ele>55.517928</ele>
        <time>2022-12-21T11:11:45.337Z</time>
      </trkpt>
      <trkpt lat="46.08981" lon="-1.09857">
        <ele>55.434335</ele>
        <time>2022-12-21T11:11:48.317Z</time>
      </trkpt>
      <trkpt lat="46.08971" lon="-1.09851">
        <ele>55.350268</ele>
        <time>2022-12-21T11:11:51.315Z</time>
      </trkpt>
      <trkpt lat="46.08961" lon="-1.09844">
        <ele>55.262809</ele>
        <time>2022-12-21T11:11:54.317Z</time>
      </trkpt>
      <trkpt lat="46.08951" lon="-1.09836">
        <ele>55.176599</ele>
        <time>2022-12-21T11:11:57.331Z</time>
      </trkpt>
      <trkpt lat="46.08941" lon="-1.09827">
        <ele>55.093082</ele>
        <time>2022-12-21T11:12:00.328Z</time>
      </trkpt>
      <trkpt lat="46.08932" lon="-1.09819">
        <ele>55.013276</ele>
        <time>2022-12-21T11:12:03.310Z</time>
      </trkpt>
      <trkpt lat="46.08924" lon="-1.09809">
        <ele>54.931234</ele>
        <time>2022-12-21T11:12:06.314Z</time>
      </trkpt>
      <trkpt lat="46.08916" lon="-1.09799">
        <ele>54.84834</ele>
        <time>2022-12-21T11:12:09.337Z</time>
      </trkpt>
      <trkpt lat="46.08907" lon="-1.09788">
        <ele>54.760766</ele>
        <time>2022-12-21T11:12:12.317Z</time>
      </trkpt>
      <trkpt lat="46.08899" lon="-1.09777">
        <ele>54.674713</ele>
        <time>2022-12-21T11:12:15.335Z</time>
      </trkpt>
      <trkpt lat="46.08891" lon="-1.09767">
        <ele>54.597289</ele>
        <time>2022-12-21T11:12:18.333Z</time>
      </trkpt>
      <trkpt lat="46.08884" lon="-1.09757">
        <ele>54.522468</ele>
        <time>2022-12-21T11:12:21.333Z</time>
      </trkpt>
      <trkpt lat="46.08875" lon="-1.09747">
        <ele>54.442311</ele>
        <time>2022-12-21T11:12:24.333Z</time>
      </trkpt>
      <trkpt lat="46.08867" lon="-1.09736">
        <ele>54.356983</ele>
        <time>2022-12-21T11:12:27.314Z</time>
      </trkpt>
      <trkpt lat="46.08858" lon="-1.09723">
        <ele>54.26386</ele>
        <time>2022-12-21T11:12:30.312Z</time>
      </trkpt>
      <trkpt lat="46.08849" lon="-1.09713">
        <ele>54.158332</ele>
        <time>2022-12-21T11:12:33.310Z</time>
      </trkpt>
      <trkpt lat="46.0884" lon="-1.09702">
        <ele>54.041884</ele>
        <time>2022-12-21T11:12:36.310Z</time>
      </trkpt>
      <trkpt lat="46.08832" lon="-1.09692">
        <ele>53.933523</ele>
        <time>2022-12-21T11:12:39.328Z</time>
      </trkpt>
      <trkpt lat="46.08824" lon="-1.09681">
        <ele>53.831616</ele>
        <time>2022-12-21T11:12:42.322Z</time>
      </trkpt>
      <trkpt lat="46.08817" lon="-1.09673">
        <ele>53.742209</ele>
        <time>2022-12-21T11:12:45.335Z</time>
      </trkpt>
      <trkpt lat="46.08809" lon="-1.09662">
        <ele>53.633154</ele>
        <time>2022-12-21T11:12:49.337Z</time>
      </trkpt>
      <trkpt lat="46.088" lon="-1.09655">
        <ele>53.534126</ele>
        <time>2022-12-21T11:12:53.311Z</time>
      </trkpt>
      <trkpt lat="46.08791" lon="-1.09648">
        <ele>53.431983</ele>
        <time>2022-12-21T11:12:58.336Z</time>
      </trkpt>
      <trkpt lat="46.08787" lon="-1.09636">
        <ele>53.341951</ele>
        <time>2022-12-21T11:13:02.313Z</time>
      </trkpt>
      <trkpt lat="46.08777" lon="-1.09626">
        <ele>53.221482</ele>
        <time>2022-12-21T11:13:06.332Z</time>
      </trkpt>
      <trkpt lat="46.08767" lon="-1.09617">
        <ele>53.110869</ele>
        <time>2022-12-21T11:13:09.332Z</time>
      </trkpt>
      <trkpt lat="46.08758" lon="-1.09607">
        <ele>52.997499</ele>
        <time>2022-12-21T11:13:12.333Z</time>
      </trkpt>
      <trkpt lat="46.08747" lon="-1.09598">
        <ele>52.877464</ele>
        <time>2022-12-21T11:13:15.331Z</time>
      </trkpt>
      <trkpt lat="46.08737" lon="-1.09588">
        <ele>52.762549</ele>
        <time>2022-12-21T11:13:18.336Z</time>
      </trkpt>
      <trkpt lat="46.08728" lon="-1.09579">
        <ele>52.649935</ele>
        <time>2022-12-21T11:13:21.332Z</time>
      </trkpt>
      <trkpt lat="46.08718" lon="-1.09571">
        <ele>52.535843</ele>
        <time>2022-12-21T11:13:24.333Z</time>
      </trkpt>
      <trkpt lat="46.08708" lon="-1.09563">
        <ele>52.432131</ele>
        <time>2022-12-21T11:13:27.334Z</time>
      </trkpt>
      <trkpt lat="46.08697" lon="-1.09554">
        <ele>52.330939</ele>
        <time>2022-12-21T11:13:30.334Z</time>
      </trkpt>
      <trkpt lat="46.08687" lon="-1.09545">
        <ele>52.231014</ele>
        <time>2022-12-21T11:13:33.323Z</time>
      </trkpt>
      <trkpt lat="46.08677" lon="-1.09537">
        <ele>52.132827</ele>
        <time>2022-12-21T11:13:36.332Z</time>
      </trkpt>
      <trkpt lat="46.08668" lon="-1.09529">
        <ele>52.045048</ele>
        <time>2022-12-21T11:13:39.334Z</time>
      </trkpt>
      <trkpt lat="46.0866" lon="-1.09521">
        <ele>51.959134</ele>
        <time>2022-12-21T11:13:42.331Z</time>
      </trkpt>
      <trkpt lat="46.08651" lon="-1.09513">
        <ele>51.872291</ele>
        <time>2022-12-21T11:13:45.333Z</time>
      </trkpt>
      <trkpt lat="46.08642" lon="-1.09505">
        <ele>51.782286</ele>
        <time>2022-12-21T11:13:48.320Z</time>
      </trkpt>
      <trkpt lat="46.08633" lon="-1.09496">
        <ele>51.688749</ele>
        <time>2022-12-21T11:13:51.311Z</time>
      </trkpt>
      <trkpt lat="46.08623" lon="-1.09488">
        <ele>51.593681</ele>
        <time>2022-12-21T11:13:54.337Z</time>
      </trkpt>
      <trkpt lat="46.08612" lon="-1.09479">
        <ele>51.490687</ele>
        <time>2022-12-21T11:13:57.336Z</time>
      </trkpt>
      <trkpt lat="46.08602" lon="-1.09469">
        <ele>51.386136</ele>
        <time>2022-12-21T11:14:00.331Z</time>
      </trkpt>
      <trkpt lat="46.08592" lon="-1.09459">
        <ele>51.282357</ele>
        <time>2022-12-21T11:14:03.322Z</time>
      </trkpt>
      <trkpt lat="46.08581" lon="-1.0945">
        <ele>51.175883</ele>
        <time>2022-12-21T11:14:06.334Z</time>
      </trkpt>
      <trkpt lat="46.0857" lon="-1.09439">
        <ele>51.064473</ele>
        <time>2022-12-21T11:14:09.333Z</time>
      </trkpt>
      <trkpt lat="46.08559" lon="-1.09429">
        <ele>50.995166</ele>
        <time>2022-12-21T11:14:12.321Z</time>
      </trkpt>
      <trkpt lat="46.08549" lon="-1.09419">
        <ele>51.239325</ele>
        <time>2022-12-21T11:14:15.334Z</time>
      </trkpt>
      <trkpt lat="46.0854" lon="-1.09412">
        <ele>51.445128</ele>
        <time>2022-12-21T11:14:18.334Z</time>
      </trkpt>
      <trkpt lat="46.08531" lon="-1.09404">
        <ele>51.678087</ele>
        <time>2022-12-21T11:14:21.312Z</time>
      </trkpt>
      <trkpt lat="46.08521" lon="-1.09394">
        <ele>51.924127</ele>
        <time>2022-12-21T11:14:24.334Z</time>
      </trkpt>
      <trkpt lat="46.0851" lon="-1.09385">
        <ele>52.169381</ele>
        <time>2022-12-21T11:14:27.332Z</time>
      </trkpt>
      <trkpt lat="46.085" lon="-1.09377">
        <ele>52.414329</ele>
        <time>2022-12-21T11:14:30.335Z</time>
      </trkpt>
      <trkpt lat="46.0849" lon="-1.09366">
        <ele>52.677748</ele>
        <time>2022-12-21T11:14:33.335Z</time>
      </trkpt>
      <trkpt lat="46.08479" lon="-1.09358">
        <ele>52.931227</ele>
        <time>2022-12-21T11:14:36.334Z</time>
      </trkpt>
      <trkpt lat="46.08469" lon="-1.09349">
        <ele>53.159191</ele>
        <time>2022-12-21T11:14:39.311Z</time>
      </trkpt>
      <trkpt lat="46.08461" lon="-1.09341">
        <ele>53.374311</ele>
        <time>2022-12-21T11:14:42.337Z</time>
      </trkpt>
      <trkpt lat="46.08452" lon="-1.09333">
        <ele>53.585389</ele>
        <time>2022-12-21T11:14:45.339Z</time>
      </trkpt>
      <trkpt lat="46.08443" lon="-1.09327">
        <ele>53.78106</ele>
        <time>2022-12-21T11:14:48.335Z</time>
      </trkpt>
      <trkpt lat="46.08433" lon="-1.09322">
        <ele>54.006294</ele>
        <time>2022-12-21T11:14:53.317Z</time>
      </trkpt>
      <trkpt lat="46.08422" lon="-1.09319">
        <ele>54.224197</ele>
        <time>2022-12-21T11:14:58.310Z</time>
      </trkpt>
      <trkpt lat="46.08412" lon="-1.09319">
        <ele>54.435854</ele>
        <time>2022-12-21T11:15:02.334Z</time>
      </trkpt>
      <trkpt lat="46.08401" lon="-1.09321">
        <ele>54.671557</ele>
        <time>2022-12-21T11:15:06.321Z</time>
      </trkpt>
      <trkpt lat="46.08391" lon="-1.09326">
        <ele>54.902732</ele>
        <time>2022-12-21T11:15:11.317Z</time>
      </trkpt>
      <trkpt lat="46.08381" lon="-1.09326">
        <ele>55.145605</ele>
        <time>2022-12-21T11:15:17.311Z</time>
      </trkpt>
      <trkpt lat="46.08371" lon="-1.09332">
        <ele>55.380364</ele>
        <time>2022-12-21T11:15:21.322Z</time>
      </trkpt>
      <trkpt lat="46.08366" lon="-1.09344">
        <ele>55.596207</ele>
        <time>2022-12-21T11:15:24.311Z</time>
      </trkpt>
      <trkpt lat="46.08363" lon="-1.09356">
        <ele>55.804401</ele>
        <time>2022-12-21T11:15:27.312Z</time>
      </trkpt>
      <trkpt lat="46.08358" lon="-1.09368">
        <ele>56.030362</ele>
        <time>2022-12-21T11:15:30.332Z</time>
      </trkpt>
      <trkpt lat="46.08353" lon="-1.0938">
        <ele>56.242299</ele>
        <time>2022-12-21T11:15:33.336Z</time>
      </trkpt>
      <trkpt lat="46.08348" lon="-1.09392">
        <ele>56.467498</ele>
        <time>2022-12-21T11:15:36.327Z</time>
      </trkpt>
      <trkpt lat="46.08344" lon="-1.09405">
        <ele>56.686771</ele>
        <time>2022-12-21T11:15:39.330Z</time>
      </trkpt>
      <trkpt lat="46.0834" lon="-1.0942">
        <ele>56.944708</ele>
        <time>2022-12-21T11:15:43.329Z</time>
      </trkpt>
      <trkpt lat="46.08336" lon="-1.09431">
        <ele>57.152005</ele>
        <time>2022-12-21T11:15:46.318Z</time>
      </trkpt>
      <trkpt lat="46.08331" lon="-1.09445">
        <ele>57.398768</ele>
        <time>2022-12-21T11:15:51.318Z</time>
      </trkpt>
      <trkpt lat="46.08327" lon="-1.09459">
        <ele>57.6265</ele>
        <time>2022-12-21T11:15:55.316Z</time>
      </trkpt>
      <trkpt lat="46.08328" lon="-1.09473">
        <ele>57.863391</ele>
        <time>2022-12-21T11:15:59.316Z</time>
      </trkpt>
      <trkpt lat="46.08327" lon="-1.0949">
        <ele>58.127687</ele>
        <time>2022-12-21T11:16:03.334Z</time>
      </trkpt>
      <trkpt lat="46.08327" lon="-1.09507">
        <ele>58.402706</ele>
        <time>2022-12-21T11:16:07.333Z</time>
      </trkpt>
      <trkpt lat="46.08325" lon="-1.09521">
        <ele>58.616491</ele>
        <time>2022-12-21T11:16:10.314Z</time>
      </trkpt>
      <trkpt lat="46.08323" lon="-1.09533">
        <ele>58.77804</ele>
        <time>2022-12-21T11:16:13.328Z</time>
      </trkpt>
      <trkpt lat="46.0832" lon="-1.09546">
        <ele>58.757751</ele>
        <time>2022-12-21T11:16:16.330Z</time>
      </trkpt>
      <trkpt lat="46.08317" lon="-1.09558">
        <ele>58.737742</ele>
        <time>2022-12-21T11:16:19.309Z</time>
      </trkpt>
      <trkpt lat="46.08315" lon="-1.09575">
        <ele>58.711735</ele>
        <time>2022-12-21T11:16:23.313Z</time>
      </trkpt>
      <trkpt lat="46.08314" lon="-1.09589">
        <ele>58.689901</ele>
        <time>2022-12-21T11:16:26.330Z</time>
      </trkpt>
      <trkpt lat="46.08313" lon="-1.09603">
        <ele>58.668121</ele>
        <time>2022-12-21T11:16:29.320Z</time>
      </trkpt>
      <trkpt lat="46.0831" lon="-1.09617">
        <ele>58.646105</ele>
        <time>2022-12-21T11:16:32.329Z</time>
      </trkpt>
      <trkpt lat="46.08308" lon="-1.09631">
        <ele>58.623813</ele>
        <time>2022-12-21T11:16:35.309Z</time>
      </trkpt>
      <trkpt lat="46.08305" lon="-1.09644">
        <ele>58.602868</ele>
        <time>2022-12-21T11:16:38.310Z</time>
      </trkpt>
      <trkpt lat="46.083" lon="-1.09655">
        <ele>58.581145</ele>
        <time>2022-12-21T11:16:41.323Z</time>
      </trkpt>
      <trkpt lat="46.0829" lon="-1.09661">
        <ele>58.558767</ele>
        <time>2022-12-21T11:16:44.314Z</time>
      </trkpt>
      <trkpt lat="46.08279" lon="-1.09656">
        <ele>58.533285</ele>
        <time>2022-12-21T11:16:48.312Z</time>
      </trkpt>
      <trkpt lat="46.08268" lon="-1.0965">
        <ele>58.506378</ele>
        <time>2022-12-21T11:16:52.327Z</time>
      </trkpt>
      <trkpt lat="46.08259" lon="-1.09645">
        <ele>58.484918</ele>
        <time>2022-12-21T11:16:55.327Z</time>
      </trkpt>
      <trkpt lat="46.0825" lon="-1.09639">
        <ele>58.46248</ele>
        <time>2022-12-21T11:16:58.334Z</time>
      </trkpt>
      <trkpt lat="46.08241" lon="-1.09634">
        <ele>58.440019</ele>
        <time>2022-12-21T11:17:01.328Z</time>
      </trkpt>
      <trkpt lat="46.08231" lon="-1.09628">
        <ele>58.416372</ele>
        <time>2022-12-21T11:17:04.317Z</time>
      </trkpt>
      <trkpt lat="46.08221" lon="-1.09623">
        <ele>58.393415</ele>
        <time>2022-12-21T11:17:07.317Z</time>
      </trkpt>
      <trkpt lat="46.08212" lon="-1.09617">
        <ele>58.407694</ele>
        <time>2022-12-21T11:17:10.318Z</time>
      </trkpt>
      <trkpt lat="46.08203" lon="-1.09612">
        <ele>58.456233</ele>
        <time>2022-12-21T11:17:13.311Z</time>
      </trkpt>
      <trkpt lat="46.08193" lon="-1.09607">
        <ele>58.510645</ele>
        <time>2022-12-21T11:17:17.330Z</time>
      </trkpt>
      <trkpt lat="46.08184" lon="-1.09602">
        <ele>58.560655</ele>
        <time>2022-12-21T11:17:20.332Z</time>
      </trkpt>
      <trkpt lat="46.08173" lon="-1.09597">
        <ele>58.616406</ele>
        <time>2022-12-21T11:17:23.313Z</time>
      </trkpt>
      <trkpt lat="46.08163" lon="-1.09591">
        <ele>58.673093</ele>
        <time>2022-12-21T11:17:26.337Z</time>
      </trkpt>
      <trkpt lat="46.08153" lon="-1.09586">
        <ele>58.728106</ele>
        <time>2022-12-21T11:17:29.315Z</time>
      </trkpt>
      <trkpt lat="46.08142" lon="-1.09581">
        <ele>58.784196</ele>
        <time>2022-12-21T11:17:32.333Z</time>
      </trkpt>
      <trkpt lat="46.08132" lon="-1.09574">
        <ele>58.840555</ele>
        <time>2022-12-21T11:17:35.332Z</time>
      </trkpt>
      <trkpt lat="46.08122" lon="-1.09569">
        <ele>58.894141</ele>
        <time>2022-12-21T11:17:38.316Z</time>
      </trkpt>
      <trkpt lat="46.08113" lon="-1.09562">
        <ele>58.946351</ele>
        <time>2022-12-21T11:17:41.331Z</time>
      </trkpt>
      <trkpt lat="46.08104" lon="-1.09558">
        <ele>58.995905</ele>
        <time>2022-12-21T11:17:44.330Z</time>
      </trkpt>
      <trkpt lat="46.08094" lon="-1.09554">
        <ele>59.048644</ele>
        <time>2022-12-21T11:17:47.336Z</time>
      </trkpt>
      <trkpt lat="46.08084" lon="-1.09548">
        <ele>59.101282</ele>
        <time>2022-12-21T11:17:50.325Z</time>
      </trkpt>
      <trkpt lat="46.08074" lon="-1.09544">
        <ele>59.155053</ele>
        <time>2022-12-21T11:17:53.333Z</time>
      </trkpt>
      <trkpt lat="46.08064" lon="-1.09538">
        <ele>59.209372</ele>
        <time>2022-12-21T11:17:56.311Z</time>
      </trkpt>
      <trkpt lat="46.08054" lon="-1.09534">
        <ele>59.263077</ele>
        <time>2022-12-21T11:17:59.333Z</time>
      </trkpt>
      <trkpt lat="46.08045" lon="-1.09528">
        <ele>59.279857</ele>
        <time>2022-12-21T11:18:02.334Z</time>
      </trkpt>
      <trkpt lat="46.08036" lon="-1.09525">
        <ele>59.224152</ele>
        <time>2022-12-21T11:18:05.333Z</time>
      </trkpt>
      <trkpt lat="46.08027" lon="-1.09521">
        <ele>59.16729</ele>
        <time>2022-12-21T11:18:08.331Z</time>
      </trkpt>
      <trkpt lat="46.08017" lon="-1.09517">
        <ele>59.108026</ele>
        <time>2022-12-21T11:18:11.327Z</time>
      </trkpt>
      <trkpt lat="46.08007" lon="-1.09512">
        <ele>59.045422</ele>
        <time>2022-12-21T11:18:14.322Z</time>
      </trkpt>
      <trkpt lat="46.07998" lon="-1.09508">
        <ele>58.989307</ele>
        <time>2022-12-21T11:18:17.332Z</time>
      </trkpt>
      <trkpt lat="46.07988" lon="-1.09503">
        <ele>58.92178</ele>
        <time>2022-12-21T11:18:21.315Z</time>
      </trkpt>
      <trkpt lat="46.07979" lon="-1.09498">
        <ele>58.864129</ele>
        <time>2022-12-21T11:18:24.338Z</time>
      </trkpt>
      <trkpt lat="46.07969" lon="-1.09493">
        <ele>58.804091</ele>
        <time>2022-12-21T11:18:27.335Z</time>
      </trkpt>
      <trkpt lat="46.07959" lon="-1.09488">
        <ele>58.742511</ele>
        <time>2022-12-21T11:18:30.328Z</time>
      </trkpt>
      <trkpt lat="46.0795" lon="-1.09484">
        <ele>58.686911</ele>
        <time>2022-12-21T11:18:33.337Z</time>
      </trkpt>
      <trkpt lat="46.07939" lon="-1.09479">
        <ele>58.615158</ele>
        <time>2022-12-21T11:18:37.335Z</time>
      </trkpt>
      <trkpt lat="46.07928" lon="-1.09474">
        <ele>58.546368</ele>
        <time>2022-12-21T11:18:41.329Z</time>
      </trkpt>
      <trkpt lat="46.07917" lon="-1.0947">
        <ele>58.480229</ele>
        <time>2022-12-21T11:18:45.332Z</time>
      </trkpt>
      <trkpt lat="46.07906" lon="-1.09465">
        <ele>58.409732</ele>
        <time>2022-12-21T11:18:49.310Z</time>
      </trkpt>
      <trkpt lat="46.07897" lon="-1.09461">
        <ele>58.352487</ele>
        <time>2022-12-21T11:18:52.316Z</time>
      </trkpt>
      <trkpt lat="46.07886" lon="-1.09455">
        <ele>58.285275</ele>
        <time>2022-12-21T11:18:56.321Z</time>
      </trkpt>
      <trkpt lat="46.07877" lon="-1.09451">
        <ele>58.22803</ele>
        <time>2022-12-21T11:19:00.332Z</time>
      </trkpt>
      <trkpt lat="46.07867" lon="-1.09445">
        <ele>58.266316</ele>
        <time>2022-12-21T11:19:04.327Z</time>
      </trkpt>
      <trkpt lat="46.07857" lon="-1.0944">
        <ele>58.307529</ele>
        <time>2022-12-21T11:19:08.332Z</time>
      </trkpt>
      <trkpt lat="46.07846" lon="-1.09435">
        <ele>58.35272</ele>
        <time>2022-12-21T11:19:12.308Z</time>
      </trkpt>
      <trkpt lat="46.07835" lon="-1.0943">
        <ele>58.399187</ele>
        <time>2022-12-21T11:19:16.326Z</time>
      </trkpt>
      <trkpt lat="46.07825" lon="-1.09426">
        <ele>58.43856</ele>
        <time>2022-12-21T11:19:19.311Z</time>
      </trkpt>
      <trkpt lat="46.07815" lon="-1.09421">
        <ele>58.481392</ele>
        <time>2022-12-21T11:19:22.308Z</time>
      </trkpt>
      <trkpt lat="46.07806" lon="-1.09417">
        <ele>58.520765</ele>
        <time>2022-12-21T11:19:25.320Z</time>
      </trkpt>
      <trkpt lat="46.07796" lon="-1.09413">
        <ele>58.558411</ele>
        <time>2022-12-21T11:19:28.327Z</time>
      </trkpt>
      <trkpt lat="46.07787" lon="-1.09411">
        <ele>58.59615</ele>
        <time>2022-12-21T11:19:31.334Z</time>
      </trkpt>
      <trkpt lat="46.07777" lon="-1.09409">
        <ele>58.633876</ele>
        <time>2022-12-21T11:19:34.313Z</time>
      </trkpt>
      <trkpt lat="46.07767" lon="-1.09407">
        <ele>58.676433</ele>
        <time>2022-12-21T11:19:38.325Z</time>
      </trkpt>
      <trkpt lat="46.07757" lon="-1.09405">
        <ele>58.714516</ele>
        <time>2022-12-21T11:19:42.330Z</time>
      </trkpt>
      <trkpt lat="46.07747" lon="-1.09402">
        <ele>58.755253</ele>
        <time>2022-12-21T11:19:46.328Z</time>
      </trkpt>
      <trkpt lat="46.07737" lon="-1.09401">
        <ele>58.794477</ele>
        <time>2022-12-21T11:19:50.330Z</time>
      </trkpt>
      <trkpt lat="46.07727" lon="-1.09399">
        <ele>58.835239</ele>
        <time>2022-12-21T11:19:54.333Z</time>
      </trkpt>
      <trkpt lat="46.07715" lon="-1.09396">
        <ele>58.882566</ele>
        <time>2022-12-21T11:19:58.337Z</time>
      </trkpt>
      <trkpt lat="46.07706" lon="-1.09395">
        <ele>58.918963</ele>
        <time>2022-12-21T11:20:01.327Z</time>
      </trkpt>
      <trkpt lat="46.07696" lon="-1.09393">
        <ele>58.920656</ele>
        <time>2022-12-21T11:20:04.337Z</time>
      </trkpt>
      <trkpt lat="46.07687" lon="-1.0939">
        <ele>58.898634</ele>
        <time>2022-12-21T11:20:07.334Z</time>
      </trkpt>
      <trkpt lat="46.07677" lon="-1.09388">
        <ele>58.87318</ele>
        <time>2022-12-21T11:20:11.333Z</time>
      </trkpt>
      <trkpt lat="46.07665" lon="-1.09387">
        <ele>58.845821</ele>
        <time>2022-12-21T11:20:15.333Z</time>
      </trkpt>
      <trkpt lat="46.07656" lon="-1.09385">
        <ele>58.823764</ele>
        <time>2022-12-21T11:20:18.336Z</time>
      </trkpt>
      <trkpt lat="46.07646" lon="-1.09384">
        <ele>58.801318</ele>
        <time>2022-12-21T11:20:21.331Z</time>
      </trkpt>
      <trkpt lat="46.07637" lon="-1.09382">
        <ele>58.778193</ele>
        <time>2022-12-21T11:20:24.317Z</time>
      </trkpt>
      <trkpt lat="46.07626" lon="-1.09379">
        <ele>58.75374</ele>
        <time>2022-12-21T11:20:27.335Z</time>
      </trkpt>
      <trkpt lat="46.07616" lon="-1.09377">
        <ele>58.729865</ele>
        <time>2022-12-21T11:20:30.317Z</time>
      </trkpt>
      <trkpt lat="46.07607" lon="-1.09375">
        <ele>58.707277</ele>
        <time>2022-12-21T11:20:33.327Z</time>
      </trkpt>
      <trkpt lat="46.07597" lon="-1.09373">
        <ele>58.684331</ele>
        <time>2022-12-21T11:20:37.336Z</time>
      </trkpt>
      <trkpt lat="46.07588" lon="-1.09369">
        <ele>58.661155</ele>
        <time>2022-12-21T11:20:42.312Z</time>
      </trkpt>
      <trkpt lat="46.07577" lon="-1.09367">
        <ele>58.635569</ele>
        <time>2022-12-21T11:20:46.311Z</time>
      </trkpt>
      <trkpt lat="46.07567" lon="-1.09365">
        <ele>58.612048</ele>
        <time>2022-12-21T11:20:49.308Z</time>
      </trkpt>
      <trkpt lat="46.07557" lon="-1.09364">
        <ele>58.587182</ele>
        <time>2022-12-21T11:20:52.338Z</time>
      </trkpt>
      <trkpt lat="46.07546" lon="-1.09361">
        <ele>58.561886</ele>
        <time>2022-12-21T11:20:55.333Z</time>
      </trkpt>
      <trkpt lat="46.07536" lon="-1.09359">
        <ele>58.537898</ele>
        <time>2022-12-21T11:20:58.337Z</time>
      </trkpt>
      <trkpt lat="46.07525" lon="-1.09358">
        <ele>58.513014</ele>
        <time>2022-12-21T11:21:01.333Z</time>
      </trkpt>
      <trkpt lat="46.07515" lon="-1.09356">
        <ele>58.46099</ele>
        <time>2022-12-21T11:21:04.337Z</time>
      </trkpt>
      <trkpt lat="46.07505" lon="-1.09355">
        <ele>58.409081</ele>
        <time>2022-12-21T11:21:07.335Z</time>
      </trkpt>
      <trkpt lat="46.07495" lon="-1.09352">
        <ele>58.35159</ele>
        <time>2022-12-21T11:21:10.336Z</time>
      </trkpt>
      <trkpt lat="46.07484" lon="-1.09349">
        <ele>58.292904</ele>
        <time>2022-12-21T11:21:13.335Z</time>
      </trkpt>
      <trkpt lat="46.07474" lon="-1.09349">
        <ele>58.237323</ele>
        <time>2022-12-21T11:21:16.311Z</time>
      </trkpt>
      <trkpt lat="46.07463" lon="-1.09347">
        <ele>58.179473</ele>
        <time>2022-12-21T11:21:19.336Z</time>
      </trkpt>
      <trkpt lat="46.07452" lon="-1.09345">
        <ele>58.117036</ele>
        <time>2022-12-21T11:21:22.336Z</time>
      </trkpt>
      <trkpt lat="46.07441" lon="-1.09343">
        <ele>58.055946</ele>
        <time>2022-12-21T11:21:25.338Z</time>
      </trkpt>
      <trkpt lat="46.0743" lon="-1.09341">
        <ele>58.000238</ele>
        <time>2022-12-21T11:21:28.334Z</time>
      </trkpt>
      <trkpt lat="46.0742" lon="-1.0934">
        <ele>57.946769</ele>
        <time>2022-12-21T11:21:31.323Z</time>
      </trkpt>
      <trkpt lat="46.0741" lon="-1.09337">
        <ele>57.887389</ele>
        <time>2022-12-21T11:21:34.338Z</time>
      </trkpt>
      <trkpt lat="46.07398" lon="-1.09335">
        <ele>57.825289</ele>
        <time>2022-12-21T11:21:37.328Z</time>
      </trkpt>
      <trkpt lat="46.07387" lon="-1.09334">
        <ele>57.766902</ele>
        <time>2022-12-21T11:21:40.336Z</time>
      </trkpt>
      <trkpt lat="46.07376" lon="-1.09332">
        <ele>57.707881</ele>
        <time>2022-12-21T11:21:43.343Z</time>
      </trkpt>
      <trkpt lat="46.07365" lon="-1.09329">
        <ele>57.64422</ele>
        <time>2022-12-21T11:21:46.337Z</time>
      </trkpt>
      <trkpt lat="46.07354" lon="-1.09327">
        <ele>57.582706</ele>
        <time>2022-12-21T11:21:49.331Z</time>
      </trkpt>
      <trkpt lat="46.07342" lon="-1.09325">
        <ele>57.484831</ele>
        <time>2022-12-21T11:21:52.337Z</time>
      </trkpt>
      <trkpt lat="46.07332" lon="-1.09323">
        <ele>57.334421</ele>
        <time>2022-12-21T11:21:55.337Z</time>
      </trkpt>
      <trkpt lat="46.07322" lon="-1.09322">
        <ele>57.186395</ele>
        <time>2022-12-21T11:21:58.310Z</time>
      </trkpt>
      <trkpt lat="46.07311" lon="-1.0932">
        <ele>57.034679</ele>
        <time>2022-12-21T11:22:01.310Z</time>
      </trkpt>
      <trkpt lat="46.073" lon="-1.09318">
        <ele>56.868604</ele>
        <time>2022-12-21T11:22:04.329Z</time>
      </trkpt>
      <trkpt lat="46.07289" lon="-1.09316">
        <ele>56.708327</ele>
        <time>2022-12-21T11:22:07.334Z</time>
      </trkpt>
      <trkpt lat="46.0728" lon="-1.09315">
        <ele>56.571828</ele>
        <time>2022-12-21T11:22:10.334Z</time>
      </trkpt>
      <trkpt lat="46.0727" lon="-1.09314">
        <ele>56.431596</ele>
        <time>2022-12-21T11:22:14.320Z</time>
      </trkpt>
      <trkpt lat="46.0726" lon="-1.09313">
        <ele>56.285932</ele>
        <time>2022-12-21T11:22:18.309Z</time>
      </trkpt>
      <trkpt lat="46.07251" lon="-1.09311">
        <ele>56.144858</ele>
        <time>2022-12-21T11:22:21.337Z</time>
      </trkpt>
      <trkpt lat="46.07241" lon="-1.0931">
        <ele>55.995286</ele>
        <time>2022-12-21T11:22:24.319Z</time>
      </trkpt>
      <trkpt lat="46.0723" lon="-1.09308">
        <ele>55.837161</ele>
        <time>2022-12-21T11:22:27.329Z</time>
      </trkpt>
      <trkpt lat="46.07219" lon="-1.09307">
        <ele>55.680697</ele>
        <time>2022-12-21T11:22:30.332Z</time>
      </trkpt>
      <trkpt lat="46.07208" lon="-1.09306">
        <ele>55.52119</ele>
        <time>2022-12-21T11:22:33.331Z</time>
      </trkpt>
      <trkpt lat="46.07198" lon="-1.09306">
        <ele>55.369287</ele>
        <time>2022-12-21T11:22:36.332Z</time>
      </trkpt>
      <trkpt lat="46.07187" lon="-1.09305">
        <ele>55.211513</ele>
        <time>2022-12-21T11:22:39.325Z</time>
      </trkpt>
      <trkpt lat="46.07176" lon="-1.09304">
        <ele>55.048765</ele>
        <time>2022-12-21T11:22:42.320Z</time>
      </trkpt>
      <trkpt lat="46.07165" lon="-1.09303">
        <ele>54.915307</ele>
        <time>2022-12-21T11:22:45.335Z</time>
      </trkpt>
      <trkpt lat="46.07154" lon="-1.09302">
        <ele>54.917551</ele>
        <time>2022-12-21T11:22:48.335Z</time>
      </trkpt>
      <trkpt lat="46.07142" lon="-1.09301">
        <ele>54.919895</ele>
        <time>2022-12-21T11:22:51.333Z</time>
      </trkpt>
      <trkpt lat="46.07132" lon="-1.093">
        <ele>54.922085</ele>
        <time>2022-12-21T11:22:54.307Z</time>
      </trkpt>
      <trkpt lat="46.0712" lon="-1.09299">
        <ele>54.92441</ele>
        <time>2022-12-21T11:22:58.335Z</time>
      </trkpt>
      <trkpt lat="46.07111" lon="-1.09298">
        <ele>54.926286</ele>
        <time>2022-12-21T11:23:01.335Z</time>
      </trkpt>
      <trkpt lat="46.07101" lon="-1.09297">
        <ele>54.928351</ele>
        <time>2022-12-21T11:23:04.316Z</time>
      </trkpt>
      <trkpt lat="46.0709" lon="-1.09296">
        <ele>54.930516</ele>
        <time>2022-12-21T11:23:07.337Z</time>
      </trkpt>
      <trkpt lat="46.07079" lon="-1.09296">
        <ele>54.932819</ele>
        <time>2022-12-21T11:23:10.338Z</time>
      </trkpt>
      <trkpt lat="46.07068" lon="-1.09294">
        <ele>54.93505</ele>
        <time>2022-12-21T11:23:13.335Z</time>
      </trkpt>
      <trkpt lat="46.07057" lon="-1.09294">
        <ele>54.937333</ele>
        <time>2022-12-21T11:23:16.310Z</time>
      </trkpt>
      <trkpt lat="46.07046" lon="-1.09292">
        <ele>54.939648</ele>
        <time>2022-12-21T11:23:19.334Z</time>
      </trkpt>
      <trkpt lat="46.07035" lon="-1.0929">
        <ele>54.941877</ele>
        <time>2022-12-21T11:23:22.334Z</time>
      </trkpt>
      <trkpt lat="46.07023" lon="-1.0929">
        <ele>54.944221</ele>
        <time>2022-12-21T11:23:25.336Z</time>
      </trkpt>
      <trkpt lat="46.07012" lon="-1.09289">
        <ele>54.946525</ele>
        <time>2022-12-21T11:23:28.333Z</time>
      </trkpt>
      <trkpt lat="46.07001" lon="-1.09288">
        <ele>54.948669</ele>
        <time>2022-12-21T11:23:31.321Z</time>
      </trkpt>
      <trkpt lat="46.06992" lon="-1.09288">
        <ele>54.950527</ele>
        <time>2022-12-21T11:23:34.336Z</time>
      </trkpt>
      <trkpt lat="46.06983" lon="-1.09289">
        <ele>54.941396</ele>
        <time>2022-12-21T11:23:38.321Z</time>
      </trkpt>
      <trkpt lat="46.06973" lon="-1.09289">
        <ele>54.921594</ele>
        <time>2022-12-21T11:23:42.317Z</time>
      </trkpt>
      <trkpt lat="46.06962" lon="-1.09288">
        <ele>54.898091</ele>
        <time>2022-12-21T11:23:46.336Z</time>
      </trkpt>
      <trkpt lat="46.06951" lon="-1.09286">
        <ele>54.873658</ele>
        <time>2022-12-21T11:23:50.333Z</time>
      </trkpt>
      <trkpt lat="46.06941" lon="-1.09286">
        <ele>54.852121</ele>
        <time>2022-12-21T11:23:53.335Z</time>
      </trkpt>
      <trkpt lat="46.0693" lon="-1.09286">
        <ele>54.829073</ele>
        <time>2022-12-21T11:23:56.325Z</time>
      </trkpt>
      <trkpt lat="46.0692" lon="-1.09286">
        <ele>54.805831</ele>
        <time>2022-12-21T11:23:59.329Z</time>
      </trkpt>
      <trkpt lat="46.06908" lon="-1.09287">
        <ele>54.781726</ele>
        <time>2022-12-21T11:24:02.339Z</time>
      </trkpt>
      <trkpt lat="46.06897" lon="-1.09287">
        <ele>54.756979</ele>
        <time>2022-12-21T11:24:05.314Z</time>
      </trkpt>
      <trkpt lat="46.06886" lon="-1.09287">
        <ele>54.732659</ele>
        <time>2022-12-21T11:24:08.330Z</time>
      </trkpt>
      <trkpt lat="46.06874" lon="-1.09287">
        <ele>54.708343</ele>
        <time>2022-12-21T11:24:11.334Z</time>
      </trkpt>
      <trkpt lat="46.06864" lon="-1.09287">
        <ele>54.685961</ele>
        <time>2022-12-21T11:24:14.326Z</time>
      </trkpt>
      <trkpt lat="46.06853" lon="-1.09289">
        <ele>54.662828</ele>
        <time>2022-12-21T11:24:17.327Z</time>
      </trkpt>
      <trkpt lat="46.06843" lon="-1.09286">
        <ele>54.640187</ele>
        <time>2022-12-21T11:24:20.327Z</time>
      </trkpt>
      <trkpt lat="46.06832" lon="-1.09287">
        <ele>54.615867</ele>
        <time>2022-12-21T11:24:23.320Z</time>
      </trkpt>
      <trkpt lat="46.06821" lon="-1.09287">
        <ele>54.592411</ele>
        <time>2022-12-21T11:24:26.311Z</time>
      </trkpt>
      <trkpt lat="46.0681" lon="-1.09287">
        <ele>54.56874</ele>
        <time>2022-12-21T11:24:29.318Z</time>
      </trkpt>
      <trkpt lat="46.06799" lon="-1.09286">
        <ele>54.523676</ele>
        <time>2022-12-21T11:24:32.320Z</time>
      </trkpt>
      <trkpt lat="46.06789" lon="-1.09287">
        <ele>54.480687</ele>
        <time>2022-12-21T11:24:35.321Z</time>
      </trkpt>
      <trkpt lat="46.06778" lon="-1.09287">
        <ele>54.429987</ele>
        <time>2022-12-21T11:24:39.335Z</time>
      </trkpt>
      <trkpt lat="46.06766" lon="-1.09288">
        <ele>54.37606</ele>
        <time>2022-12-21T11:24:43.340Z</time>
      </trkpt>
      <trkpt lat="46.06756" lon="-1.09288">
        <ele>54.32947</ele>
        <time>2022-12-21T11:24:46.319Z</time>
      </trkpt>
      <trkpt lat="46.06746" lon="-1.09287">
        <ele>54.281041</ele>
        <time>2022-12-21T11:24:49.334Z</time>
      </trkpt>
      <trkpt lat="46.06735" lon="-1.09287">
        <ele>54.233085</ele>
        <time>2022-12-21T11:24:52.312Z</time>
      </trkpt>
      <trkpt lat="46.06726" lon="-1.09288">
        <ele>54.191446</ele>
        <time>2022-12-21T11:24:55.338Z</time>
      </trkpt>
      <trkpt lat="46.06715" lon="-1.09289">
        <ele>54.139364</ele>
        <time>2022-12-21T11:24:59.310Z</time>
      </trkpt>
      <trkpt lat="46.06703" lon="-1.09289">
        <ele>54.084525</ele>
        <time>2022-12-21T11:25:03.335Z</time>
      </trkpt>
      <trkpt lat="46.06693" lon="-1.09288">
        <ele>54.04011</ele>
        <time>2022-12-21T11:25:06.334Z</time>
      </trkpt>
      <trkpt lat="46.06683" lon="-1.09288">
        <ele>53.993058</ele>
        <time>2022-12-21T11:25:09.335Z</time>
      </trkpt>
      <trkpt lat="46.06672" lon="-1.09289">
        <ele>53.945999</ele>
        <time>2022-12-21T11:25:12.330Z</time>
      </trkpt>
      <trkpt lat="46.06662" lon="-1.09289">
        <ele>53.89757</ele>
        <time>2022-12-21T11:25:15.336Z</time>
      </trkpt>
      <trkpt lat="46.06651" lon="-1.09288">
        <ele>53.847267</ele>
        <time>2022-12-21T11:25:18.319Z</time>
      </trkpt>
      <trkpt lat="46.0664" lon="-1.09289">
        <ele>53.797448</ele>
        <time>2022-12-21T11:25:21.337Z</time>
      </trkpt>
      <trkpt lat="46.06629" lon="-1.09289">
        <ele>53.747209</ele>
        <time>2022-12-21T11:25:24.317Z</time>
      </trkpt>
      <trkpt lat="46.0662" lon="-1.09289">
        <ele>53.760558</ele>
        <time>2022-12-21T11:25:27.333Z</time>
      </trkpt>
      <trkpt lat="46.06608" lon="-1.0929">
        <ele>53.785473</ele>
        <time>2022-12-21T11:25:31.333Z</time>
      </trkpt>
      <trkpt lat="46.06599" lon="-1.0929">
        <ele>53.804682</ele>
        <time>2022-12-21T11:25:34.333Z</time>
      </trkpt>
      <trkpt lat="46.06588" lon="-1.09291">
        <ele>53.827733</ele>
        <time>2022-12-21T11:25:38.337Z</time>
      </trkpt>
      <trkpt lat="46.06576" lon="-1.0929">
        <ele>53.851822</ele>
        <time>2022-12-21T11:25:42.329Z</time>
      </trkpt>
      <trkpt lat="46.06565" lon="-1.0929">
        <ele>53.87504</ele>
        <time>2022-12-21T11:25:46.309Z</time>
      </trkpt>
      <trkpt lat="46.06554" lon="-1.0929">
        <ele>53.898695</ele>
        <time>2022-12-21T11:25:50.316Z</time>
      </trkpt>
      <trkpt lat="46.06543" lon="-1.0929">
        <ele>53.921928</ele>
        <time>2022-12-21T11:25:54.330Z</time>
      </trkpt>
      <trkpt lat="46.06533" lon="-1.09291">
        <ele>53.942864</ele>
        <time>2022-12-21T11:25:58.327Z</time>
      </trkpt>
      <trkpt lat="46.06523" lon="-1.09292">
        <ele>53.965504</ele>
        <time>2022-12-21T11:26:02.322Z</time>
      </trkpt>
      <trkpt lat="46.06511" lon="-1.09294">
        <ele>53.990716</ele>
        <time>2022-12-21T11:26:06.335Z</time>
      </trkpt>
      <trkpt lat="46.06502" lon="-1.09294">
        <ele>54.009931</ele>
        <time>2022-12-21T11:26:09.330Z</time>
      </trkpt>
      <trkpt lat="46.0649" lon="-1.09294">
        <ele>54.034206</ele>
        <time>2022-12-21T11:26:13.342Z</time>
      </trkpt>
      <trkpt lat="46.06481" lon="-1.09293">
        <ele>54.053417</ele>
        <time>2022-12-21T11:26:16.335Z</time>
      </trkpt>
      <trkpt lat="46.06472" lon="-1.09294">
        <ele>54.072469</ele>
        <time>2022-12-21T11:26:19.326Z</time>
      </trkpt>
      <trkpt lat="46.06463" lon="-1.09295">
        <ele>54.092553</ele>
        <time>2022-12-21T11:26:22.321Z</time>
      </trkpt>
      <trkpt lat="46.06453" lon="-1.09296">
        <ele>54.113245</ele>
        <time>2022-12-21T11:26:25.321Z</time>
      </trkpt>
      <trkpt lat="46.06443" lon="-1.09296">
        <ele>54.109394</ele>
        <time>2022-12-21T11:26:28.312Z</time>
      </trkpt>
      <trkpt lat="46.06433" lon="-1.09297">
        <ele>54.08543</ele>
        <time>2022-12-21T11:26:31.327Z</time>
      </trkpt>
      <trkpt lat="46.06424" lon="-1.09298">
        <ele>54.062491</ele>
        <time>2022-12-21T11:26:34.312Z</time>
      </trkpt>
      <trkpt lat="46.06414" lon="-1.09297">
        <ele>54.039289</ele>
        <time>2022-12-21T11:26:37.335Z</time>
      </trkpt>
      <trkpt lat="46.06405" lon="-1.09297">
        <ele>54.017091</ele>
        <time>2022-12-21T11:26:40.315Z</time>
      </trkpt>
      <trkpt lat="46.06394" lon="-1.09297">
        <ele>53.990234</ele>
        <time>2022-12-21T11:26:44.319Z</time>
      </trkpt>
      <trkpt lat="46.06383" lon="-1.09297">
        <ele>53.964369</ele>
        <time>2022-12-21T11:26:48.334Z</time>
      </trkpt>
      <trkpt lat="46.06374" lon="-1.09297">
        <ele>53.941679</ele>
        <time>2022-12-21T11:26:51.333Z</time>
      </trkpt>
      <trkpt lat="46.06364" lon="-1.09296">
        <ele>53.917282</ele>
        <time>2022-12-21T11:26:54.331Z</time>
      </trkpt>
      <trkpt lat="46.06353" lon="-1.09295">
        <ele>53.889899</ele>
        <time>2022-12-21T11:26:58.331Z</time>
      </trkpt>
      <trkpt lat="46.06341" lon="-1.09296">
        <ele>53.861807</ele>
        <time>2022-12-21T11:27:02.327Z</time>
      </trkpt>
      <trkpt lat="46.0633" lon="-1.09298">
        <ele>53.833427</ele>
        <time>2022-12-21T11:27:06.327Z</time>
      </trkpt>
      <trkpt lat="46.06321" lon="-1.09299">
        <ele>53.810666</ele>
        <time>2022-12-21T11:27:09.335Z</time>
      </trkpt>
      <trkpt lat="46.06311" lon="-1.09297">
        <ele>53.78784</ele>
        <time>2022-12-21T11:27:12.332Z</time>
      </trkpt>
      <trkpt lat="46.06302" lon="-1.09296">
        <ele>53.764385</ele>
        <time>2022-12-21T11:27:15.318Z</time>
      </trkpt>
      <trkpt lat="46.06292" lon="-1.09298">
        <ele>53.740606</ele>
        <time>2022-12-21T11:27:18.332Z</time>
      </trkpt>
      <trkpt lat="46.06283" lon="-1.09298">
        <ele>53.718165</ele>
        <time>2022-12-21T11:27:21.332Z</time>
      </trkpt>
      <trkpt lat="46.06272" lon="-1.09298">
        <ele>53.691821</ele>
        <time>2022-12-21T11:27:25.326Z</time>
      </trkpt>
      <trkpt lat="46.06262" lon="-1.09298">
        <ele>53.579477</ele>
        <time>2022-12-21T11:27:29.314Z</time>
      </trkpt>
      <trkpt lat="46.06252" lon="-1.09298">
        <ele>53.441016</ele>
        <time>2022-12-21T11:27:33.308Z</time>
      </trkpt>
      <trkpt lat="46.06241" lon="-1.09298">
        <ele>53.282168</ele>
        <time>2022-12-21T11:27:38.329Z</time>
      </trkpt>
      <trkpt lat="46.06232" lon="-1.09299">
        <ele>53.142076</ele>
        <time>2022-12-21T11:27:42.330Z</time>
      </trkpt>
      <trkpt lat="46.06222" lon="-1.09296">
        <ele>53.00443</ele>
        <time>2022-12-21T11:27:47.316Z</time>
      </trkpt>
      <trkpt lat="46.06216" lon="-1.09284">
        <ele>52.854912</ele>
        <time>2022-12-21T11:27:53.318Z</time>
      </trkpt>
      <trkpt lat="46.0621" lon="-1.09274">
        <ele>52.722072</ele>
        <time>2022-12-21T11:27:57.313Z</time>
      </trkpt>
      <trkpt lat="46.06203" lon="-1.09263">
        <ele>52.565258</ele>
        <time>2022-12-21T11:28:02.332Z</time>
      </trkpt>
      <trkpt lat="46.06194" lon="-1.09256">
        <ele>52.422873</ele>
        <time>2022-12-21T11:28:06.332Z</time>
      </trkpt>
      <trkpt lat="46.06188" lon="-1.09246">
        <ele>52.287825</ele>
        <time>2022-12-21T11:28:09.309Z</time>
      </trkpt>
      <trkpt lat="46.06181" lon="-1.09237">
        <ele>52.149123</ele>
        <time>2022-12-21T11:28:12.333Z</time>
      </trkpt>
      <trkpt lat="46.06174" lon="-1.09228">
        <ele>52.013351</ele>
        <time>2022-12-21T11:28:15.335Z</time>
      </trkpt>
      <trkpt lat="46.06167" lon="-1.09219">
        <ele>51.878529</ele>
        <time>2022-12-21T11:28:18.333Z</time>
      </trkpt>
      <trkpt lat="46.06159" lon="-1.09206">
        <ele>51.706373</ele>
        <time>2022-12-21T11:28:22.310Z</time>
      </trkpt>
      <trkpt lat="46.06151" lon="-1.09198">
        <ele>51.568672</ele>
        <time>2022-12-21T11:28:25.316Z</time>
      </trkpt>
      <trkpt lat="46.06144" lon="-1.09189">
        <ele>51.425186</ele>
        <time>2022-12-21T11:28:28.327Z</time>
      </trkpt>
      <trkpt lat="46.06137" lon="-1.09179">
        <ele>51.282303</ele>
        <time>2022-12-21T11:28:31.334Z</time>
      </trkpt>
      <trkpt lat="46.0613" lon="-1.09166">
        <ele>51.121142</ele>
        <time>2022-12-21T11:28:35.326Z</time>
      </trkpt>
      <trkpt lat="46.06123" lon="-1.09156">
        <ele>51.100731</ele>
        <time>2022-12-21T11:28:39.330Z</time>
      </trkpt>
      <trkpt lat="46.06114" lon="-1.09145">
        <ele>51.169766</ele>
        <time>2022-12-21T11:28:43.336Z</time>
      </trkpt>
      <trkpt lat="46.06107" lon="-1.09136">
        <ele>51.22834</ele>
        <time>2022-12-21T11:28:46.319Z</time>
      </trkpt>
      <trkpt lat="46.06099" lon="-1.09125">
        <ele>51.289408</ele>
        <time>2022-12-21T11:28:49.337Z</time>
      </trkpt>
      <trkpt lat="46.06092" lon="-1.09117">
        <ele>51.343038</ele>
        <time>2022-12-21T11:28:52.336Z</time>
      </trkpt>
      <trkpt lat="46.06084" lon="-1.09107">
        <ele>51.407096</ele>
        <time>2022-12-21T11:28:56.335Z</time>
      </trkpt>
      <trkpt lat="46.06074" lon="-1.09097">
        <ele>51.478281</ele>
        <time>2022-12-21T11:29:00.336Z</time>
      </trkpt>
      <trkpt lat="46.06066" lon="-1.09089">
        <ele>51.537543</ele>
        <time>2022-12-21T11:29:03.333Z</time>
      </trkpt>
      <trkpt lat="46.06057" lon="-1.09082">
        <ele>51.5961</ele>
        <time>2022-12-21T11:29:06.336Z</time>
      </trkpt>
      <trkpt lat="46.06048" lon="-1.09076">
        <ele>51.655569</ele>
        <time>2022-12-21T11:29:09.336Z</time>
      </trkpt>
      <trkpt lat="46.0604" lon="-1.09069">
        <ele>51.713924</ele>
        <time>2022-12-21T11:29:12.334Z</time>
      </trkpt>
      <trkpt lat="46.06031" lon="-1.09062">
        <ele>51.772077</ele>
        <time>2022-12-21T11:29:15.332Z</time>
      </trkpt>
      <trkpt lat="46.06023" lon="-1.09056">
        <ele>51.825881</ele>
        <time>2022-12-21T11:29:18.321Z</time>
      </trkpt>
      <trkpt lat="46.06014" lon="-1.0905">
        <ele>51.880214</ele>
        <time>2022-12-21T11:29:22.313Z</time>
      </trkpt>
      <trkpt lat="46.06005" lon="-1.09046">
        <ele>51.937231</ele>
        <time>2022-12-21T11:29:26.330Z</time>
      </trkpt>
      <trkpt lat="46.05996" lon="-1.09041">
        <ele>51.993668</ele>
        <time>2022-12-21T11:29:30.330Z</time>
      </trkpt>
      <trkpt lat="46.05988" lon="-1.09037">
        <ele>52.047827</ele>
        <time>2022-12-21T11:29:34.337Z</time>
      </trkpt>
      <trkpt lat="46.05977" lon="-1.09033">
        <ele>52.111423</ele>
        <time>2022-12-21T11:29:39.310Z</time>
      </trkpt>
      <trkpt lat="46.05968" lon="-1.0903">
        <ele>52.320519</ele>
        <time>2022-12-21T11:29:43.333Z</time>
      </trkpt>
      <trkpt lat="46.05977" lon="-1.09029">
        <ele>52.579746</ele>
        <time>2022-12-21T11:30:13.319Z</time>
      </trkpt>
      <trkpt lat="46.05968" lon="-1.09022">
        <ele>52.867205</ele>
        <time>2022-12-21T11:30:26.319Z</time>
      </trkpt>
      <trkpt lat="46.05959" lon="-1.09013">
        <ele>53.166199</ele>
        <time>2022-12-21T11:30:31.333Z</time>
      </trkpt>
      <trkpt lat="46.0595" lon="-1.09005">
        <ele>53.458696</ele>
        <time>2022-12-21T11:30:36.332Z</time>
      </trkpt>
      <trkpt lat="46.0594" lon="-1.08998">
        <ele>53.769587</ele>
        <time>2022-12-21T11:30:42.313Z</time>
      </trkpt>
      <trkpt lat="46.05933" lon="-1.0899">
        <ele>54.026816</ele>
        <time>2022-12-21T11:30:46.311Z</time>
      </trkpt>
      <trkpt lat="46.05924" lon="-1.08985">
        <ele>54.288026</ele>
        <time>2022-12-21T11:30:51.334Z</time>
      </trkpt>
      <trkpt lat="46.05934" lon="-1.08992">
        <ele>54.593952</ele>
        <time>2022-12-21T11:31:20.313Z</time>
      </trkpt>
      <trkpt lat="46.05942" lon="-1.08999">
        <ele>54.85466</ele>
        <time>2022-12-21T11:31:24.317Z</time>
      </trkpt>
      <trkpt lat="46.05953" lon="-1.09001">
        <ele>55.151976</ele>
        <time>2022-12-21T11:31:30.313Z</time>
      </trkpt>
      <trkpt lat="46.05962" lon="-1.09005">
        <ele>55.431563</ele>
        <time>2022-12-21T11:31:35.332Z</time>
      </trkpt>
      <trkpt lat="46.05972" lon="-1.0901">
        <ele>55.710906</ele>
        <time>2022-12-21T11:31:41.318Z</time>
      </trkpt>
      <trkpt lat="46.05966" lon="-1.09">
        <ele>55.968718</ele>
        <time>2022-12-21T11:32:14.311Z</time>
      </trkpt>
      <trkpt lat="46.05961" lon="-1.08988">
        <ele>56.230797</ele>
        <time>2022-12-21T11:32:31.318Z</time>
      </trkpt>
      <trkpt lat="46.05969" lon="-1.08982">
        <ele>56.501584</ele>
        <time>2022-12-21T11:32:49.317Z</time>
      </trkpt>
      <trkpt lat="46.05977" lon="-1.08988">
        <ele>56.752689</ele>
        <time>2022-12-21T11:32:57.312Z</time>
      </trkpt>
      <trkpt lat="46.05986" lon="-1.08993">
        <ele>57.019029</ele>
        <time>2022-12-21T11:33:08.306Z</time>
      </trkpt>
      <trkpt lat="46.0598" lon="-1.08982">
        <ele>57.287855</ele>
        <time>2022-12-21T11:33:30.336Z</time>
      </trkpt>
      <trkpt lat="46.05976" lon="-1.08971">
        <ele>57.548352</ele>
        <time>2022-12-21T11:33:42.311Z</time>
      </trkpt>
      <trkpt lat="46.05966" lon="-1.08965">
        <ele>57.834794</ele>
        <time>2022-12-21T11:33:50.310Z</time>
      </trkpt>
      <trkpt lat="46.05957" lon="-1.08961">
        <ele>58.124957</ele>
        <time>2022-12-21T11:33:54.311Z</time>
      </trkpt>
      <trkpt lat="46.05946" lon="-1.08956">
        <ele>58.444239</ele>
        <time>2022-12-21T11:33:58.334Z</time>
      </trkpt>
      <trkpt lat="46.05936" lon="-1.08948">
        <ele>58.767281</ele>
        <time>2022-12-21T11:34:02.311Z</time>
      </trkpt>
      <trkpt lat="46.05929" lon="-1.08936">
        <ele>59.080428</ele>
        <time>2022-12-21T11:34:06.316Z</time>
      </trkpt>
      <trkpt lat="46.05923" lon="-1.08921">
        <ele>59.424294</ele>
        <time>2022-12-21T11:34:10.313Z</time>
      </trkpt>
      <trkpt lat="46.05919" lon="-1.08909">
        <ele>59.695344</ele>
        <time>2022-12-21T11:34:13.339Z</time>
      </trkpt>
      <trkpt lat="46.05914" lon="-1.08896">
        <ele>59.980776</ele>
        <time>2022-12-21T11:34:16.333Z</time>
      </trkpt>
      <trkpt lat="46.05909" lon="-1.08883">
        <ele>60.278337</ele>
        <time>2022-12-21T11:34:19.331Z</time>
      </trkpt>
      <trkpt lat="46.05905" lon="-1.0887">
        <ele>60.560134</ele>
        <time>2022-12-21T11:34:22.329Z</time>
      </trkpt>
      <trkpt lat="46.05901" lon="-1.08859">
        <ele>60.821165</ele>
        <time>2022-12-21T11:34:25.316Z</time>
      </trkpt>
      <trkpt lat="46.05897" lon="-1.08847">
        <ele>61.089716</ele>
        <time>2022-12-21T11:34:28.337Z</time>
      </trkpt>
      <trkpt lat="46.05892" lon="-1.08835">
        <ele>61.352362</ele>
        <time>2022-12-21T11:34:31.337Z</time>
      </trkpt>
      <trkpt lat="46.05887" lon="-1.08821">
        <ele>61.675702</ele>
        <time>2022-12-21T11:34:35.314Z</time>
      </trkpt>
      <trkpt lat="46.05882" lon="-1.08807">
        <ele>61.987879</ele>
        <time>2022-12-21T11:34:39.333Z</time>
      </trkpt>
      <trkpt lat="46.05877" lon="-1.08793">
        <ele>62.283926</ele>
        <time>2022-12-21T11:34:43.310Z</time>
      </trkpt>
      <trkpt lat="46.05872" lon="-1.08779">
        <ele>62.215383</ele>
        <time>2022-12-21T11:34:47.337Z</time>
      </trkpt>
      <trkpt lat="46.05867" lon="-1.08764">
        <ele>62.146202</ele>
        <time>2022-12-21T11:34:51.333Z</time>
      </trkpt>
      <trkpt lat="46.05861" lon="-1.0875">
        <ele>62.074545</ele>
        <time>2022-12-21T11:34:55.337Z</time>
      </trkpt>
      <trkpt lat="46.05857" lon="-1.08734">
        <ele>62.004348</ele>
        <time>2022-12-21T11:34:59.318Z</time>
      </trkpt>
      <trkpt lat="46.05854" lon="-1.08721">
        <ele>61.943069</ele>
        <time>2022-12-21T11:35:03.335Z</time>
      </trkpt>
      <trkpt lat="46.05852" lon="-1.08707">
        <ele>61.880212</ele>
        <time>2022-12-21T11:35:07.319Z</time>
      </trkpt>
      <trkpt lat="46.0585" lon="-1.08692">
        <ele>61.818277</ele>
        <time>2022-12-21T11:35:11.334Z</time>
      </trkpt>
      <trkpt lat="46.05846" lon="-1.08679">
        <ele>61.75597</ele>
        <time>2022-12-21T11:35:15.334Z</time>
      </trkpt>
      <trkpt lat="46.05835" lon="-1.08674">
        <ele>61.689167</ele>
        <time>2022-12-21T11:35:19.323Z</time>
      </trkpt>
      <trkpt lat="46.05826" lon="-1.08677">
        <ele>61.629034</ele>
        <time>2022-12-21T11:35:22.316Z</time>
      </trkpt>
      <trkpt lat="46.05816" lon="-1.08682">
        <ele>61.561641</ele>
        <time>2022-12-21T11:35:25.333Z</time>
      </trkpt>
      <trkpt lat="46.05804" lon="-1.08686">
        <ele>61.490084</ele>
        <time>2022-12-21T11:35:28.336Z</time>
      </trkpt>
      <trkpt lat="46.05792" lon="-1.08689">
        <ele>61.411585</ele>
        <time>2022-12-21T11:35:31.338Z</time>
      </trkpt>
      <trkpt lat="46.05779" lon="-1.08692">
        <ele>61.329208</ele>
        <time>2022-12-21T11:35:34.321Z</time>
      </trkpt>
      <trkpt lat="46.0577" lon="-1.08695">
        <ele>61.271679</ele>
        <time>2022-12-21T11:35:36.332Z</time>
      </trkpt>
      <trkpt lat="46.0576" lon="-1.08697">
        <ele>61.213406</ele>
        <time>2022-12-21T11:35:38.316Z</time>
      </trkpt>
      <trkpt lat="46.05751" lon="-1.08698">
        <ele>61.12568</ele>
        <time>2022-12-21T11:35:40.316Z</time>
      </trkpt>
      <trkpt lat="46.05737" lon="-1.08701">
        <ele>60.922659</ele>
        <time>2022-12-21T11:35:43.338Z</time>
      </trkpt>
      <trkpt lat="46.05728" lon="-1.08702">
        <ele>60.782761</ele>
        <time>2022-12-21T11:35:45.314Z</time>
      </trkpt>
      <trkpt lat="46.05714" lon="-1.08706">
        <ele>60.579577</ele>
        <time>2022-12-21T11:35:48.330Z</time>
      </trkpt>
      <trkpt lat="46.05705" lon="-1.08707">
        <ele>60.440111</ele>
        <time>2022-12-21T11:35:50.332Z</time>
      </trkpt>
      <trkpt lat="46.05695" lon="-1.08709">
        <ele>60.292261</ele>
        <time>2022-12-21T11:35:52.331Z</time>
      </trkpt>
      <trkpt lat="46.05686" lon="-1.08711">
        <ele>60.151183</ele>
        <time>2022-12-21T11:35:54.338Z</time>
      </trkpt>
      <trkpt lat="46.05676" lon="-1.08713">
        <ele>60.008006</ele>
        <time>2022-12-21T11:35:56.335Z</time>
      </trkpt>
      <trkpt lat="46.05667" lon="-1.08715">
        <ele>59.862895</ele>
        <time>2022-12-21T11:35:58.312Z</time>
      </trkpt>
      <trkpt lat="46.05656" lon="-1.08716">
        <ele>59.710398</ele>
        <time>2022-12-21T11:36:00.320Z</time>
      </trkpt>
      <trkpt lat="46.05646" lon="-1.08718">
        <ele>59.559487</ele>
        <time>2022-12-21T11:36:02.307Z</time>
      </trkpt>
      <trkpt lat="46.05633" lon="-1.0872">
        <ele>59.357188</ele>
        <time>2022-12-21T11:36:05.333Z</time>
      </trkpt>
      <trkpt lat="46.0562" lon="-1.08722">
        <ele>59.170144</ele>
        <time>2022-12-21T11:36:08.333Z</time>
      </trkpt>
      <trkpt lat="46.05609" lon="-1.08725">
        <ele>58.995661</ele>
        <time>2022-12-21T11:36:11.312Z</time>
      </trkpt>
      <trkpt lat="46.05597" lon="-1.08725">
        <ele>58.826111</ele>
        <time>2022-12-21T11:36:14.334Z</time>
      </trkpt>
      <trkpt lat="46.05588" lon="-1.08727">
        <ele>58.681113</ele>
        <time>2022-12-21T11:36:17.322Z</time>
      </trkpt>
      <trkpt lat="46.05577" lon="-1.08729">
        <ele>58.515311</ele>
        <time>2022-12-21T11:36:21.330Z</time>
      </trkpt>
      <trkpt lat="46.05568" lon="-1.0873">
        <ele>58.277786</ele>
        <time>2022-12-21T11:36:24.313Z</time>
      </trkpt>
      <trkpt lat="46.05557" lon="-1.08731">
        <ele>57.994882</ele>
        <time>2022-12-21T11:36:27.343Z</time>
      </trkpt>
      <trkpt lat="46.05547" lon="-1.08734">
        <ele>57.701124</ele>
        <time>2022-12-21T11:36:30.332Z</time>
      </trkpt>
      <trkpt lat="46.05536" lon="-1.08737">
        <ele>57.397108</ele>
        <time>2022-12-21T11:36:33.311Z</time>
      </trkpt>
      <trkpt lat="46.05525" lon="-1.08738">
        <ele>57.095373</ele>
        <time>2022-12-21T11:36:36.335Z</time>
      </trkpt>
      <trkpt lat="46.05514" lon="-1.0874">
        <ele>56.798341</ele>
        <time>2022-12-21T11:36:39.325Z</time>
      </trkpt>
      <trkpt lat="46.05504" lon="-1.08742">
        <ele>56.499352</ele>
        <time>2022-12-21T11:36:42.333Z</time>
      </trkpt>
      <trkpt lat="46.05493" lon="-1.08743">
        <ele>56.208016</ele>
        <time>2022-12-21T11:36:45.313Z</time>
      </trkpt>
      <trkpt lat="46.05482" lon="-1.08745">
        <ele>55.887348</ele>
        <time>2022-12-21T11:36:48.334Z</time>
      </trkpt>
      <trkpt lat="46.05469" lon="-1.08746">
        <ele>55.540776</ele>
        <time>2022-12-21T11:36:51.334Z</time>
      </trkpt>
      <trkpt lat="46.0546" lon="-1.08749">
        <ele>55.284979</ele>
        <time>2022-12-21T11:36:53.337Z</time>
      </trkpt>
      <trkpt lat="46.05447" lon="-1.08752">
        <ele>54.912864</ele>
        <time>2022-12-21T11:36:56.323Z</time>
      </trkpt>
      <trkpt lat="46.05435" lon="-1.08755">
        <ele>54.580705</ele>
        <time>2022-12-21T11:36:59.322Z</time>
      </trkpt>
      <trkpt lat="46.05423" lon="-1.08757">
        <ele>54.25758</ele>
        <time>2022-12-21T11:37:02.334Z</time>
      </trkpt>
      <trkpt lat="46.05411" lon="-1.0876">
        <ele>53.929258</ele>
        <time>2022-12-21T11:37:05.330Z</time>
      </trkpt>
      <trkpt lat="46.05399" lon="-1.08762">
        <ele>53.593652</ele>
        <time>2022-12-21T11:37:08.337Z</time>
      </trkpt>
      <trkpt lat="46.05387" lon="-1.08764">
        <ele>53.324281</ele>
        <time>2022-12-21T11:37:11.311Z</time>
      </trkpt>
      <trkpt lat="46.05376" lon="-1.08765">
        <ele>53.088322</ele>
        <time>2022-12-21T11:37:14.319Z</time>
      </trkpt>
      <trkpt lat="46.05366" lon="-1.08766">
        <ele>52.867515</ele>
        <time>2022-12-21T11:37:18.336Z</time>
      </trkpt>
      <trkpt lat="46.05356" lon="-1.08762">
        <ele>52.649633</ele>
        <time>2022-12-21T11:37:23.333Z</time>
      </trkpt>
      <trkpt lat="46.05353" lon="-1.08746">
        <ele>52.40351</ele>
        <time>2022-12-21T11:37:27.312Z</time>
      </trkpt>
      <trkpt lat="46.05352" lon="-1.0873">
        <ele>52.169872</ele>
        <time>2022-12-21T11:37:30.318Z</time>
      </trkpt>
      <trkpt lat="46.05352" lon="-1.08715">
        <ele>51.942256</ele>
        <time>2022-12-21T11:37:33.336Z</time>
      </trkpt>
      <trkpt lat="46.05352" lon="-1.087">
        <ele>51.730834</ele>
        <time>2022-12-21T11:37:36.333Z</time>
      </trkpt>
      <trkpt lat="46.05352" lon="-1.08684">
        <ele>51.492946</ele>
        <time>2022-12-21T11:37:40.329Z</time>
      </trkpt>
      <trkpt lat="46.0535" lon="-1.08668">
        <ele>51.251656</ele>
        <time>2022-12-21T11:37:44.329Z</time>
      </trkpt>
      <trkpt lat="46.05345" lon="-1.08656">
        <ele>51.04149</ele>
        <time>2022-12-21T11:37:47.318Z</time>
      </trkpt>
      <trkpt lat="46.0534" lon="-1.08641">
        <ele>50.805667</ele>
        <time>2022-12-21T11:37:50.329Z</time>
      </trkpt>
      <trkpt lat="46.05337" lon="-1.08625">
        <ele>50.558764</ele>
        <time>2022-12-21T11:37:53.335Z</time>
      </trkpt>
      <trkpt lat="46.05332" lon="-1.08609">
        <ele>50.305074</ele>
        <time>2022-12-21T11:37:56.310Z</time>
      </trkpt>
      <trkpt lat="46.0533" lon="-1.08592">
        <ele>50.049388</ele>
        <time>2022-12-21T11:37:59.313Z</time>
      </trkpt>
      <trkpt lat="46.05329" lon="-1.08575">
        <ele>49.793654</ele>
        <time>2022-12-21T11:38:02.334Z</time>
      </trkpt>
      <trkpt lat="46.05329" lon="-1.08559">
        <ele>49.597448</ele>
        <time>2022-12-21T11:38:05.335Z</time>
      </trkpt>
      <trkpt lat="46.05329" lon="-1.08545">
        <ele>49.429857</ele>
        <time>2022-12-21T11:38:08.334Z</time>
      </trkpt>
      <trkpt lat="46.05328" lon="-1.0853">
        <ele>49.257505</ele>
        <time>2022-12-21T11:38:11.330Z</time>
      </trkpt>
      <trkpt lat="46.05328" lon="-1.08516">
        <ele>49.082794</ele>
        <time>2022-12-21T11:38:14.338Z</time>
      </trkpt>
      <trkpt lat="46.05328" lon="-1.08499">
        <ele>48.88798</ele>
        <time>2022-12-21T11:38:17.334Z</time>
      </trkpt>
      <trkpt lat="46.05327" lon="-1.08483">
        <ele>48.701265</ele>
        <time>2022-12-21T11:38:20.317Z</time>
      </trkpt>
      <trkpt lat="46.05326" lon="-1.08468">
        <ele>48.519762</ele>
        <time>2022-12-21T11:38:23.309Z</time>
      </trkpt>
      <trkpt lat="46.05326" lon="-1.08454">
        <ele>48.349633</ele>
        <time>2022-12-21T11:38:26.309Z</time>
      </trkpt>
      <trkpt lat="46.05326" lon="-1.08438">
        <ele>48.167631</ele>
        <time>2022-12-21T11:38:30.317Z</time>
      </trkpt>
      <trkpt lat="46.05326" lon="-1.08423">
        <ele>47.990561</ele>
        <time>2022-12-21T11:38:33.321Z</time>
      </trkpt>
      <trkpt lat="46.05325" lon="-1.08408">
        <ele>47.809513</ele>
        <time>2022-12-21T11:38:36.331Z</time>
      </trkpt>
      <trkpt lat="46.05324" lon="-1.08393">
        <ele>47.633689</ele>
        <time>2022-12-21T11:38:39.334Z</time>
      </trkpt>
      <trkpt lat="46.05326" lon="-1.08379">
        <ele>47.464205</ele>
        <time>2022-12-21T11:38:42.316Z</time>
      </trkpt>
      <trkpt lat="46.05332" lon="-1.08367">
        <ele>47.284768</ele>
        <time>2022-12-21T11:38:45.314Z</time>
      </trkpt>
      <trkpt lat="46.0534" lon="-1.08354">
        <ele>47.089789</ele>
        <time>2022-12-21T11:38:48.330Z</time>
      </trkpt>
      <trkpt lat="46.05342" lon="-1.08336">
        <ele>46.874032</ele>
        <time>2022-12-21T11:38:51.312Z</time>
      </trkpt>
      <trkpt lat="46.05341" lon="-1.08317">
        <ele>46.686557</ele>
        <time>2022-12-21T11:38:54.312Z</time>
      </trkpt>
      <trkpt lat="46.05342" lon="-1.08299">
        <ele>46.73481</ele>
        <time>2022-12-21T11:38:57.330Z</time>
      </trkpt>
      <trkpt lat="46.05343" lon="-1.08281">
        <ele>46.783596</ele>
        <time>2022-12-21T11:39:00.334Z</time>
      </trkpt>
      <trkpt lat="46.05344" lon="-1.08264">
        <ele>46.828731</ele>
        <time>2022-12-21T11:39:03.326Z</time>
      </trkpt>
      <trkpt lat="46.05344" lon="-1.08248">
        <ele>46.871912</ele>
        <time>2022-12-21T11:39:06.335Z</time>
      </trkpt>
      <trkpt lat="46.05344" lon="-1.08231">
        <ele>46.916116</ele>
        <time>2022-12-21T11:39:09.336Z</time>
      </trkpt>
      <trkpt lat="46.05344" lon="-1.08215">
        <ele>46.960346</ele>
        <time>2022-12-21T11:39:12.334Z</time>
      </trkpt>
      <trkpt lat="46.05345" lon="-1.08198">
        <ele>47.00392</ele>
        <time>2022-12-21T11:39:15.338Z</time>
      </trkpt>
      <trkpt lat="46.05346" lon="-1.08182">
        <ele>47.047873</ele>
        <time>2022-12-21T11:39:18.338Z</time>
      </trkpt>
      <trkpt lat="46.05346" lon="-1.08165">
        <ele>47.093144</ele>
        <time>2022-12-21T11:39:21.336Z</time>
      </trkpt>
      <trkpt lat="46.05346" lon="-1.08147">
        <ele>47.140333</ele>
        <time>2022-12-21T11:39:24.336Z</time>
      </trkpt>
      <trkpt lat="46.05348" lon="-1.08129">
        <ele>47.187506</ele>
        <time>2022-12-21T11:39:27.333Z</time>
      </trkpt>
      <trkpt lat="46.05352" lon="-1.08112">
        <ele>47.235204</ele>
        <time>2022-12-21T11:39:30.314Z</time>
      </trkpt>
      <trkpt lat="46.05358" lon="-1.08096">
        <ele>47.283398</ele>
        <time>2022-12-21T11:39:33.334Z</time>
      </trkpt>
      <trkpt lat="46.05365" lon="-1.08082">
        <ele>47.331997</ele>
        <time>2022-12-21T11:39:36.318Z</time>
      </trkpt>
      <trkpt lat="46.05374" lon="-1.08069">
        <ele>47.38457</ele>
        <time>2022-12-21T11:39:39.332Z</time>
      </trkpt>
      <trkpt lat="46.05383" lon="-1.08056">
        <ele>47.454303</ele>
        <time>2022-12-21T11:39:42.333Z</time>
      </trkpt>
      <trkpt lat="46.05392" lon="-1.08044">
        <ele>47.522576</ele>
        <time>2022-12-21T11:39:45.331Z</time>
      </trkpt>
      <trkpt lat="46.05399" lon="-1.08034">
        <ele>47.582466</ele>
        <time>2022-12-21T11:39:48.341Z</time>
      </trkpt>
      <trkpt lat="46.05408" lon="-1.08022">
        <ele>47.648833</ele>
        <time>2022-12-21T11:39:51.321Z</time>
      </trkpt>
      <trkpt lat="46.05416" lon="-1.08009">
        <ele>47.716306</ele>
        <time>2022-12-21T11:39:54.335Z</time>
      </trkpt>
      <trkpt lat="46.05425" lon="-1.07996">
        <ele>47.787531</ele>
        <time>2022-12-21T11:39:57.336Z</time>
      </trkpt>
      <trkpt lat="46.05434" lon="-1.07984">
        <ele>47.85659</ele>
        <time>2022-12-21T11:40:00.333Z</time>
      </trkpt>
      <trkpt lat="46.05441" lon="-1.07972">
        <ele>47.918425</ele>
        <time>2022-12-21T11:40:03.337Z</time>
      </trkpt>
      <trkpt lat="46.05449" lon="-1.0796">
        <ele>47.983781</ele>
        <time>2022-12-21T11:40:06.335Z</time>
      </trkpt>
      <trkpt lat="46.05458" lon="-1.07947">
        <ele>48.054609</ele>
        <time>2022-12-21T11:40:09.337Z</time>
      </trkpt>
      <trkpt lat="46.05468" lon="-1.07934">
        <ele>48.128656</ele>
        <time>2022-12-21T11:40:12.334Z</time>
      </trkpt>
      <trkpt lat="46.05475" lon="-1.07924">
        <ele>48.183688</ele>
        <time>2022-12-21T11:40:14.332Z</time>
      </trkpt>
      <trkpt lat="46.05484" lon="-1.07911">
        <ele>48.256931</ele>
        <time>2022-12-21T11:40:17.325Z</time>
      </trkpt>
      <trkpt lat="46.05493" lon="-1.07899">
        <ele>48.324797</ele>
        <time>2022-12-21T11:40:20.334Z</time>
      </trkpt>
      <trkpt lat="46.055" lon="-1.07887">
        <ele>48.369955</ele>
        <time>2022-12-21T11:40:23.321Z</time>
      </trkpt>
      <trkpt lat="46.05509" lon="-1.07876">
        <ele>48.292932</ele>
        <time>2022-12-21T11:40:26.327Z</time>
      </trkpt>
      <trkpt lat="46.05518" lon="-1.07864">
        <ele>48.210416</ele>
        <time>2022-12-21T11:40:29.336Z</time>
      </trkpt>
      <trkpt lat="46.05527" lon="-1.07851">
        <ele>48.123455</ele>
        <time>2022-12-21T11:40:32.331Z</time>
      </trkpt>
      <trkpt lat="46.05536" lon="-1.07837">
        <ele>48.035512</ele>
        <time>2022-12-21T11:40:35.339Z</time>
      </trkpt>
      <trkpt lat="46.05545" lon="-1.07823">
        <ele>47.949136</ele>
        <time>2022-12-21T11:40:38.333Z</time>
      </trkpt>
      <trkpt lat="46.05555" lon="-1.0781">
        <ele>47.861372</ele>
        <time>2022-12-21T11:40:41.334Z</time>
      </trkpt>
      <trkpt lat="46.05563" lon="-1.07798">
        <ele>47.778743</ele>
        <time>2022-12-21T11:40:44.317Z</time>
      </trkpt>
      <trkpt lat="46.05572" lon="-1.07787">
        <ele>47.702297</ele>
        <time>2022-12-21T11:40:47.311Z</time>
      </trkpt>
      <trkpt lat="46.05581" lon="-1.07775">
        <ele>47.622011</ele>
        <time>2022-12-21T11:40:50.333Z</time>
      </trkpt>
      <trkpt lat="46.05587" lon="-1.07765">
        <ele>47.560429</ele>
        <time>2022-12-21T11:40:52.327Z</time>
      </trkpt>
      <trkpt lat="46.05593" lon="-1.07754">
        <ele>47.498381</ele>
        <time>2022-12-21T11:40:54.313Z</time>
      </trkpt>
      <trkpt lat="46.05602" lon="-1.07741">
        <ele>47.408674</ele>
        <time>2022-12-21T11:40:57.333Z</time>
      </trkpt>
      <trkpt lat="46.05608" lon="-1.07731">
        <ele>47.348476</ele>
        <time>2022-12-21T11:40:59.326Z</time>
      </trkpt>
      <trkpt lat="46.05617" lon="-1.07718">
        <ele>47.263892</ele>
        <time>2022-12-21T11:41:02.335Z</time>
      </trkpt>
      <trkpt lat="46.05627" lon="-1.07707">
        <ele>47.181491</ele>
        <time>2022-12-21T11:41:05.336Z</time>
      </trkpt>
      <trkpt lat="46.05636" lon="-1.07693">
        <ele>47.288194</ele>
        <time>2022-12-21T11:41:08.338Z</time>
      </trkpt>
      <trkpt lat="46.05645" lon="-1.07679">
        <ele>47.401383</ele>
        <time>2022-12-21T11:41:11.336Z</time>
      </trkpt>
      <trkpt lat="46.05651" lon="-1.07669">
        <ele>47.479604</ele>
        <time>2022-12-21T11:41:13.311Z</time>
      </trkpt>
      <trkpt lat="46.05658" lon="-1.07659">
        <ele>47.558228</ele>
        <time>2022-12-21T11:41:15.340Z</time>
      </trkpt>
      <trkpt lat="46.05666" lon="-1.07645">
        <ele>47.667533</ele>
        <time>2022-12-21T11:41:18.317Z</time>
      </trkpt>
      <trkpt lat="46.05672" lon="-1.07632">
        <ele>47.760502</ele>
        <time>2022-12-21T11:41:21.333Z</time>
      </trkpt>
      <trkpt lat="46.05679" lon="-1.07618">
        <ele>47.861661</ele>
        <time>2022-12-21T11:41:24.319Z</time>
      </trkpt>
      <trkpt lat="46.05687" lon="-1.07605">
        <ele>47.961871</ele>
        <time>2022-12-21T11:41:27.310Z</time>
      </trkpt>
      <trkpt lat="46.05695" lon="-1.07591">
        <ele>48.066182</ele>
        <time>2022-12-21T11:41:30.336Z</time>
      </trkpt>
      <trkpt lat="46.05704" lon="-1.07578">
        <ele>48.173847</ele>
        <time>2022-12-21T11:41:33.313Z</time>
      </trkpt>
      <trkpt lat="46.05712" lon="-1.07566">
        <ele>48.273428</ele>
        <time>2022-12-21T11:41:36.330Z</time>
      </trkpt>
      <trkpt lat="46.05721" lon="-1.07553">
        <ele>48.378477</ele>
        <time>2022-12-21T11:41:39.336Z</time>
      </trkpt>
      <trkpt lat="46.0573" lon="-1.0754">
        <ele>48.487073</ele>
        <time>2022-12-21T11:41:42.330Z</time>
      </trkpt>
      <trkpt lat="46.05736" lon="-1.07529">
        <ele>48.567573</ele>
        <time>2022-12-21T11:41:44.311Z</time>
      </trkpt>
      <trkpt lat="46.05745" lon="-1.07517">
        <ele>48.674226</ele>
        <time>2022-12-21T11:41:47.311Z</time>
      </trkpt>
      <trkpt lat="46.05753" lon="-1.07505">
        <ele>48.71895</ele>
        <time>2022-12-21T11:41:50.331Z</time>
      </trkpt>
      <trkpt lat="46.0576" lon="-1.07494">
        <ele>48.7439</ele>
        <time>2022-12-21T11:41:53.335Z</time>
      </trkpt>
      <trkpt lat="46.05767" lon="-1.07483">
        <ele>48.767803</ele>
        <time>2022-12-21T11:41:56.314Z</time>
      </trkpt>
      <trkpt lat="46.05774" lon="-1.07473">
        <ele>48.792554</ele>
        <time>2022-12-21T11:41:59.329Z</time>
      </trkpt>
      <trkpt lat="46.05782" lon="-1.07461">
        <ele>48.818875</ele>
        <time>2022-12-21T11:42:02.327Z</time>
      </trkpt>
      <trkpt lat="46.05791" lon="-1.0745">
        <ele>48.847304</ele>
        <time>2022-12-21T11:42:05.334Z</time>
      </trkpt>
      <trkpt lat="46.05801" lon="-1.07436">
        <ele>48.87955</ele>
        <time>2022-12-21T11:42:08.338Z</time>
      </trkpt>
      <trkpt lat="46.05808" lon="-1.07427">
        <ele>48.901036</ele>
        <time>2022-12-21T11:42:10.326Z</time>
      </trkpt>
      <trkpt lat="46.05814" lon="-1.07418">
        <ele>48.9228</ele>
        <time>2022-12-21T11:42:12.315Z</time>
      </trkpt>
      <trkpt lat="46.05824" lon="-1.07405">
        <ele>48.954083</ele>
        <time>2022-12-21T11:42:15.331Z</time>
      </trkpt>
      <trkpt lat="46.05832" lon="-1.07393">
        <ele>48.982066</ele>
        <time>2022-12-21T11:42:18.335Z</time>
      </trkpt>
      <trkpt lat="46.0584" lon="-1.0738">
        <ele>49.010476</ele>
        <time>2022-12-21T11:42:21.334Z</time>
      </trkpt>
      <trkpt lat="46.05849" lon="-1.07367">
        <ele>49.039614</ele>
        <time>2022-12-21T11:42:24.334Z</time>
      </trkpt>
      <trkpt lat="46.05856" lon="-1.07353">
        <ele>49.068936</ele>
        <time>2022-12-21T11:42:27.329Z</time>
      </trkpt>
      <trkpt lat="46.05861" lon="-1.07336">
        <ele>49.098346</ele>
        <time>2022-12-21T11:42:30.316Z</time>
      </trkpt>
      <trkpt lat="46.05864" lon="-1.07319">
        <ele>49.129088</ele>
        <time>2022-12-21T11:42:33.313Z</time>
      </trkpt>
      <trkpt lat="46.05866" lon="-1.07302">
        <ele>49.174968</ele>
        <time>2022-12-21T11:42:36.320Z</time>
      </trkpt>
      <trkpt lat="46.05866" lon="-1.07284">
        <ele>49.22108</ele>
        <time>2022-12-21T11:42:39.336Z</time>
      </trkpt>
      <trkpt lat="46.05865" lon="-1.07266">
        <ele>49.268823</ele>
        <time>2022-12-21T11:42:42.321Z</time>
      </trkpt>
      <trkpt lat="46.05864" lon="-1.07253">
        <ele>49.302865</ele>
        <time>2022-12-21T11:42:44.307Z</time>
      </trkpt>
      <trkpt lat="46.05863" lon="-1.07234">
        <ele>49.353224</ele>
        <time>2022-12-21T11:42:47.332Z</time>
      </trkpt>
      <trkpt lat="46.05863" lon="-1.07216">
        <ele>49.401512</ele>
        <time>2022-12-21T11:42:50.325Z</time>
      </trkpt>
      <trkpt lat="46.05861" lon="-1.07198">
        <ele>49.447485</ele>
        <time>2022-12-21T11:42:53.310Z</time>
      </trkpt>
      <trkpt lat="46.0586" lon="-1.0718">
        <ele>49.495228</ele>
        <time>2022-12-21T11:42:56.331Z</time>
      </trkpt>
      <trkpt lat="46.0586" lon="-1.07161">
        <ele>49.544823</ele>
        <time>2022-12-21T11:42:59.336Z</time>
      </trkpt>
      <trkpt lat="46.05859" lon="-1.07142">
        <ele>49.593855</ele>
        <time>2022-12-21T11:43:02.334Z</time>
      </trkpt>
      <trkpt lat="46.05859" lon="-1.07123">
        <ele>49.644952</ele>
        <time>2022-12-21T11:43:05.334Z</time>
      </trkpt>
      <trkpt lat="46.05858" lon="-1.0711">
        <ele>49.679297</ele>
        <time>2022-12-21T11:43:07.337Z</time>
      </trkpt>
      <trkpt lat="46.05857" lon="-1.0709">
        <ele>49.73025</ele>
        <time>2022-12-21T11:43:10.338Z</time>
      </trkpt>
      <trkpt lat="46.05857" lon="-1.07077">
        <ele>49.765642</ele>
        <time>2022-12-21T11:43:12.334Z</time>
      </trkpt>
      <trkpt lat="46.05856" lon="-1.07058">
        <ele>49.807548</ele>
        <time>2022-12-21T11:43:15.335Z</time>
      </trkpt>
      <trkpt lat="46.05856" lon="-1.0704">
        <ele>49.824759</ele>
        <time>2022-12-21T11:43:18.338Z</time>
      </trkpt>
      <trkpt lat="46.05855" lon="-1.07021">
        <ele>49.842394</ele>
        <time>2022-12-21T11:43:21.338Z</time>
      </trkpt>
      <trkpt lat="46.05854" lon="-1.07003">
        <ele>49.85895</ele>
        <time>2022-12-21T11:43:24.334Z</time>
      </trkpt>
      <trkpt lat="46.05853" lon="-1.06986">
        <ele>49.874902</ele>
        <time>2022-12-21T11:43:27.336Z</time>
      </trkpt>
      <trkpt lat="46.05852" lon="-1.0697">
        <ele>49.8898</ele>
        <time>2022-12-21T11:43:30.331Z</time>
      </trkpt>
      <trkpt lat="46.05851" lon="-1.06954">
        <ele>49.904687</ele>
        <time>2022-12-21T11:43:33.337Z</time>
      </trkpt>
      <trkpt lat="46.0585" lon="-1.06937">
        <ele>49.920994</ele>
        <time>2022-12-21T11:43:36.343Z</time>
      </trkpt>
      <trkpt lat="46.05848" lon="-1.06918">
        <ele>49.938562</ele>
        <time>2022-12-21T11:43:39.333Z</time>
      </trkpt>
      <trkpt lat="46.05846" lon="-1.06905">
        <ele>49.951161</ele>
        <time>2022-12-21T11:43:41.313Z</time>
      </trkpt>
      <trkpt lat="46.05843" lon="-1.06885">
        <ele>49.969377</ele>
        <time>2022-12-21T11:43:44.335Z</time>
      </trkpt>
      <trkpt lat="46.05841" lon="-1.06872">
        <ele>49.982094</ele>
        <time>2022-12-21T11:43:46.336Z</time>
      </trkpt>
      <trkpt lat="46.0584" lon="-1.06859">
        <ele>49.994447</ele>
        <time>2022-12-21T11:43:48.336Z</time>
      </trkpt>
      <trkpt lat="46.05837" lon="-1.06845">
        <ele>50.007709</ele>
        <time>2022-12-21T11:43:50.333Z</time>
      </trkpt>
      <trkpt lat="46.05835" lon="-1.06832">
        <ele>50.020192</ele>
        <time>2022-12-21T11:43:52.327Z</time>
      </trkpt>
      <trkpt lat="46.05833" lon="-1.06819">
        <ele>50.032937</ele>
        <time>2022-12-21T11:43:54.319Z</time>
      </trkpt>
      <trkpt lat="46.05831" lon="-1.06805">
        <ele>50.048136</ele>
        <time>2022-12-21T11:43:56.338Z</time>
      </trkpt>
      <trkpt lat="46.05828" lon="-1.06791">
        <ele>50.080044</ele>
        <time>2022-12-21T11:43:58.336Z</time>
      </trkpt>
      <trkpt lat="46.05826" lon="-1.06778">
        <ele>50.11044</ele>
        <time>2022-12-21T11:44:00.330Z</time>
      </trkpt>
      <trkpt lat="46.05823" lon="-1.06765">
        <ele>50.140967</ele>
        <time>2022-12-21T11:44:02.324Z</time>
      </trkpt>
      <trkpt lat="46.05821" lon="-1.06752">
        <ele>50.17102</ele>
        <time>2022-12-21T11:44:04.337Z</time>
      </trkpt>
      <trkpt lat="46.05818" lon="-1.06734">
        <ele>50.212455</ele>
        <time>2022-12-21T11:44:07.333Z</time>
      </trkpt>
      <trkpt lat="46.05814" lon="-1.06716">
        <ele>50.253729</ele>
        <time>2022-12-21T11:44:10.337Z</time>
      </trkpt>
      <trkpt lat="46.05811" lon="-1.06698">
        <ele>50.295813</ele>
        <time>2022-12-21T11:44:13.338Z</time>
      </trkpt>
      <trkpt lat="46.05808" lon="-1.06679">
        <ele>50.339494</ele>
        <time>2022-12-21T11:44:16.336Z</time>
      </trkpt>
      <trkpt lat="46.05804" lon="-1.0666">
        <ele>50.384555</ele>
        <time>2022-12-21T11:44:19.334Z</time>
      </trkpt>
      <trkpt lat="46.05802" lon="-1.06647">
        <ele>50.41369</ele>
        <time>2022-12-21T11:44:21.331Z</time>
      </trkpt>
      <trkpt lat="46.058" lon="-1.06634">
        <ele>50.443769</ele>
        <time>2022-12-21T11:44:23.333Z</time>
      </trkpt>
      <trkpt lat="46.05797" lon="-1.06616">
        <ele>50.485463</ele>
        <time>2022-12-21T11:44:26.327Z</time>
      </trkpt>
      <trkpt lat="46.05793" lon="-1.06597">
        <ele>50.528335</ele>
        <time>2022-12-21T11:44:29.334Z</time>
      </trkpt>
      <trkpt lat="46.05792" lon="-1.06584">
        <ele>50.55859</ele>
        <time>2022-12-21T11:44:31.330Z</time>
      </trkpt>
      <trkpt lat="46.0579" lon="-1.06571">
        <ele>50.58793</ele>
        <time>2022-12-21T11:44:33.335Z</time>
      </trkpt>
      <trkpt lat="46.05788" lon="-1.06558">
        <ele>50.618376</ele>
        <time>2022-12-21T11:44:35.333Z</time>
      </trkpt>
      <trkpt lat="46.05786" lon="-1.06544">
        <ele>50.588458</ele>
        <time>2022-12-21T11:44:37.332Z</time>
      </trkpt>
      <trkpt lat="46.05784" lon="-1.0653">
        <ele>50.544114</ele>
        <time>2022-12-21T11:44:39.335Z</time>
      </trkpt>
      <trkpt lat="46.05783" lon="-1.06517">
        <ele>50.501144</ele>
        <time>2022-12-21T11:44:41.337Z</time>
      </trkpt>
      <trkpt lat="46.05782" lon="-1.06503">
        <ele>50.457808</ele>
        <time>2022-12-21T11:44:43.339Z</time>
      </trkpt>
      <trkpt lat="46.05781" lon="-1.0649">
        <ele>50.416342</ele>
        <time>2022-12-21T11:44:45.336Z</time>
      </trkpt>
      <trkpt lat="46.05779" lon="-1.06471">
        <ele>50.358271</ele>
        <time>2022-12-21T11:44:48.336Z</time>
      </trkpt>
      <trkpt lat="46.05778" lon="-1.06454">
        <ele>50.302193</ele>
        <time>2022-12-21T11:44:51.332Z</time>
      </trkpt>
      <trkpt lat="46.05776" lon="-1.06435">
        <ele>50.243568</ele>
        <time>2022-12-21T11:44:54.331Z</time>
      </trkpt>
      <trkpt lat="46.05775" lon="-1.06422">
        <ele>50.202519</ele>
        <time>2022-12-21T11:44:56.324Z</time>
      </trkpt>
      <trkpt lat="46.05773" lon="-1.06408">
        <ele>50.157354</ele>
        <time>2022-12-21T11:44:58.341Z</time>
      </trkpt>
      <trkpt lat="46.05771" lon="-1.06394">
        <ele>50.113724</ele>
        <time>2022-12-21T11:45:00.340Z</time>
      </trkpt>
      <trkpt lat="46.05769" lon="-1.06375">
        <ele>50.052023</ele>
        <time>2022-12-21T11:45:03.338Z</time>
      </trkpt>
      <trkpt lat="46.05767" lon="-1.06361">
        <ele>50.007165</ele>
        <time>2022-12-21T11:45:05.322Z</time>
      </trkpt>
      <trkpt lat="46.05764" lon="-1.06347">
        <ele>49.961493</ele>
        <time>2022-12-21T11:45:07.336Z</time>
      </trkpt>
      <trkpt lat="46.05763" lon="-1.06334">
        <ele>49.920285</ele>
        <time>2022-12-21T11:45:09.319Z</time>
      </trkpt>
      <trkpt lat="46.05761" lon="-1.06316">
        <ele>49.864004</ele>
        <time>2022-12-21T11:45:12.336Z</time>
      </trkpt>
      <trkpt lat="46.05758" lon="-1.06301">
        <ele>49.81426</ele>
        <time>2022-12-21T11:45:15.335Z</time>
      </trkpt>
      <trkpt lat="46.05755" lon="-1.06286">
        <ele>49.868469</ele>
        <time>2022-12-21T11:45:18.336Z</time>
      </trkpt>
      <trkpt lat="46.05753" lon="-1.06269">
        <ele>49.933831</ele>
        <time>2022-12-21T11:45:21.328Z</time>
      </trkpt>
      <trkpt lat="46.05751" lon="-1.06252">
        <ele>50.002845</ele>
        <time>2022-12-21T11:45:24.318Z</time>
      </trkpt>
      <trkpt lat="46.05749" lon="-1.06236">
        <ele>50.067933</ele>
        <time>2022-12-21T11:45:27.336Z</time>
      </trkpt>
      <trkpt lat="46.05747" lon="-1.0622">
        <ele>50.129429</ele>
        <time>2022-12-21T11:45:30.317Z</time>
      </trkpt>
      <trkpt lat="46.05746" lon="-1.06207">
        <ele>50.180287</ele>
        <time>2022-12-21T11:45:33.336Z</time>
      </trkpt>
      <trkpt lat="46.05743" lon="-1.0619">
        <ele>50.249067</ele>
        <time>2022-12-21T11:45:37.320Z</time>
      </trkpt>
      <trkpt lat="46.05741" lon="-1.06175">
        <ele>50.31048</ele>
        <time>2022-12-21T11:45:40.338Z</time>
      </trkpt>
      <trkpt lat="46.0574" lon="-1.06158">
        <ele>50.375849</ele>
        <time>2022-12-21T11:45:43.342Z</time>
      </trkpt>
      <trkpt lat="46.0574" lon="-1.06143">
        <ele>50.434556</ele>
        <time>2022-12-21T11:45:46.338Z</time>
      </trkpt>
      <trkpt lat="46.05738" lon="-1.06128">
        <ele>50.49378</ele>
        <time>2022-12-21T11:45:49.330Z</time>
      </trkpt>
      <trkpt lat="46.05733" lon="-1.06112">
        <ele>50.561968</ele>
        <time>2022-12-21T11:45:52.322Z</time>
      </trkpt>
      <trkpt lat="46.0573" lon="-1.06095">
        <ele>50.633767</ele>
        <time>2022-12-21T11:45:55.336Z</time>
      </trkpt>
      <trkpt lat="46.05727" lon="-1.06077">
        <ele>50.703415</ele>
        <time>2022-12-21T11:45:58.340Z</time>
      </trkpt>
      <trkpt lat="46.05725" lon="-1.06059">
        <ele>50.77552</ele>
        <time>2022-12-21T11:46:01.339Z</time>
      </trkpt>
      <trkpt lat="46.05722" lon="-1.0604">
        <ele>50.833852</ele>
        <time>2022-12-21T11:46:04.336Z</time>
      </trkpt>
      <trkpt lat="46.05719" lon="-1.06021">
        <ele>50.859101</ele>
        <time>2022-12-21T11:46:07.328Z</time>
      </trkpt>
      <trkpt lat="46.05716" lon="-1.06003">
        <ele>50.883444</ele>
        <time>2022-12-21T11:46:10.332Z</time>
      </trkpt>
      <trkpt lat="46.05714" lon="-1.0599">
        <ele>50.901189</ele>
        <time>2022-12-21T11:46:12.313Z</time>
      </trkpt>
      <trkpt lat="46.05712" lon="-1.05977">
        <ele>50.918174</ele>
        <time>2022-12-21T11:46:14.337Z</time>
      </trkpt>
      <trkpt lat="46.0571" lon="-1.05964">
        <ele>50.935395</ele>
        <time>2022-12-21T11:46:16.337Z</time>
      </trkpt>
      <trkpt lat="46.05707" lon="-1.05945">
        <ele>50.960667</ele>
        <time>2022-12-21T11:46:19.337Z</time>
      </trkpt>
      <trkpt lat="46.05706" lon="-1.05932">
        <ele>50.977448</ele>
        <time>2022-12-21T11:46:21.325Z</time>
      </trkpt>
      <trkpt lat="46.05703" lon="-1.05913">
        <ele>51.002049</ele>
        <time>2022-12-21T11:46:24.323Z</time>
      </trkpt>
      <trkpt lat="46.05702" lon="-1.05896">
        <ele>51.0243</ele>
        <time>2022-12-21T11:46:27.336Z</time>
      </trkpt>
      <trkpt lat="46.05699" lon="-1.05878">
        <ele>51.048089</ele>
        <time>2022-12-21T11:46:30.338Z</time>
      </trkpt>
      <trkpt lat="46.05697" lon="-1.05861">
        <ele>51.071474</ele>
        <time>2022-12-21T11:46:33.338Z</time>
      </trkpt>
      <trkpt lat="46.05694" lon="-1.05848">
        <ele>51.08874</ele>
        <time>2022-12-21T11:46:35.335Z</time>
      </trkpt>
      <trkpt lat="46.05691" lon="-1.05831">
        <ele>51.110822</ele>
        <time>2022-12-21T11:46:38.337Z</time>
      </trkpt>
      <trkpt lat="46.05686" lon="-1.05816">
        <ele>51.132403</ele>
        <time>2022-12-21T11:46:41.329Z</time>
      </trkpt>
      <trkpt lat="46.05681" lon="-1.05802">
        <ele>51.153977</ele>
        <time>2022-12-21T11:46:44.315Z</time>
      </trkpt>
      <trkpt lat="46.05673" lon="-1.05787">
        <ele>51.109943</ele>
        <time>2022-12-21T11:46:47.312Z</time>
      </trkpt>
      <trkpt lat="46.05664" lon="-1.05773">
        <ele>51.036695</ele>
        <time>2022-12-21T11:46:50.332Z</time>
      </trkpt>
      <trkpt lat="46.05655" lon="-1.05759">
        <ele>50.963283</ele>
        <time>2022-12-21T11:46:53.334Z</time>
      </trkpt>
      <trkpt lat="46.05647" lon="-1.05746">
        <ele>50.891775</ele>
        <time>2022-12-21T11:46:56.332Z</time>
      </trkpt>
      <trkpt lat="46.0564" lon="-1.0573">
        <ele>50.820339</ele>
        <time>2022-12-21T11:46:59.316Z</time>
      </trkpt>
      <trkpt lat="46.05633" lon="-1.05714">
        <ele>50.746553</ele>
        <time>2022-12-21T11:47:02.324Z</time>
      </trkpt>
      <trkpt lat="46.05628" lon="-1.05703">
        <ele>50.695461</ele>
        <time>2022-12-21T11:47:04.320Z</time>
      </trkpt>
      <trkpt lat="46.05622" lon="-1.05689">
        <ele>50.631283</ele>
        <time>2022-12-21T11:47:07.337Z</time>
      </trkpt>
      <trkpt lat="46.05614" lon="-1.05679">
        <ele>50.573646</ele>
        <time>2022-12-21T11:47:10.315Z</time>
      </trkpt>
      <trkpt lat="46.05605" lon="-1.0567">
        <ele>50.512483</ele>
        <time>2022-12-21T11:47:13.335Z</time>
      </trkpt>
      <trkpt lat="46.05595" lon="-1.05661">
        <ele>50.447462</ele>
        <time>2022-12-21T11:47:16.314Z</time>
      </trkpt>
      <trkpt lat="46.05585" lon="-1.05653">
        <ele>50.3799</ele>
        <time>2022-12-21T11:47:19.337Z</time>
      </trkpt>
      <trkpt lat="46.05574" lon="-1.05646">
        <ele>50.313579</ele>
        <time>2022-12-21T11:47:22.337Z</time>
      </trkpt>
      <trkpt lat="46.05564" lon="-1.05638">
        <ele>50.250443</ele>
        <time>2022-12-21T11:47:25.335Z</time>
      </trkpt>
      <trkpt lat="46.05553" lon="-1.05631">
        <ele>50.183291</ele>
        <time>2022-12-21T11:47:28.334Z</time>
      </trkpt>
      <trkpt lat="46.05543" lon="-1.05623">
        <ele>50.184193</ele>
        <time>2022-12-21T11:47:31.337Z</time>
      </trkpt>
      <trkpt lat="46.05532" lon="-1.05614">
        <ele>50.240794</ele>
        <time>2022-12-21T11:47:34.330Z</time>
      </trkpt>
      <trkpt lat="46.05521" lon="-1.05606">
        <ele>50.297953</ele>
        <time>2022-12-21T11:47:37.330Z</time>
      </trkpt>
      <trkpt lat="46.0551" lon="-1.05597">
        <ele>50.355332</ele>
        <time>2022-12-21T11:47:40.316Z</time>
      </trkpt>
      <trkpt lat="46.05499" lon="-1.05588">
        <ele>50.413032</ele>
        <time>2022-12-21T11:47:43.337Z</time>
      </trkpt>
      <trkpt lat="46.05489" lon="-1.05579">
        <ele>50.469451</ele>
        <time>2022-12-21T11:47:46.329Z</time>
      </trkpt>
      <trkpt lat="46.05478" lon="-1.05569">
        <ele>50.525852</ele>
        <time>2022-12-21T11:47:49.332Z</time>
      </trkpt>
      <trkpt lat="46.05467" lon="-1.05561">
        <ele>50.585606</ele>
        <time>2022-12-21T11:47:52.338Z</time>
      </trkpt>
      <trkpt lat="46.05455" lon="-1.05552">
        <ele>50.646216</ele>
        <time>2022-12-21T11:47:55.336Z</time>
      </trkpt>
      <trkpt lat="46.05444" lon="-1.05542">
        <ele>50.708722</ele>
        <time>2022-12-21T11:47:58.340Z</time>
      </trkpt>
      <trkpt lat="46.05436" lon="-1.05535">
        <ele>50.750999</ele>
        <time>2022-12-21T11:48:00.336Z</time>
      </trkpt>
      <trkpt lat="46.05428" lon="-1.05529">
        <ele>50.793199</ele>
        <time>2022-12-21T11:48:02.338Z</time>
      </trkpt>
      <trkpt lat="46.0542" lon="-1.05522">
        <ele>50.834755</ele>
        <time>2022-12-21T11:48:04.335Z</time>
      </trkpt>
      <trkpt lat="46.05412" lon="-1.05516">
        <ele>50.876553</ele>
        <time>2022-12-21T11:48:06.337Z</time>
      </trkpt>
      <trkpt lat="46.05402" lon="-1.05507">
        <ele>50.929472</ele>
        <time>2022-12-21T11:48:09.333Z</time>
      </trkpt>
      <trkpt lat="46.05392" lon="-1.05499">
        <ele>50.986298</ele>
        <time>2022-12-21T11:48:12.335Z</time>
      </trkpt>
      <trkpt lat="46.0538" lon="-1.0549">
        <ele>51.085701</ele>
        <time>2022-12-21T11:48:15.333Z</time>
      </trkpt>
      <trkpt lat="46.05368" lon="-1.05482">
        <ele>51.187638</ele>
        <time>2022-12-21T11:48:18.330Z</time>
      </trkpt>
      <trkpt lat="46.05357" lon="-1.05472">
        <ele>51.287235</ele>
        <time>2022-12-21T11:48:21.327Z</time>
      </trkpt>
      <trkpt lat="46.05346" lon="-1.05462">
        <ele>51.386086</ele>
        <time>2022-12-21T11:48:24.335Z</time>
      </trkpt>
      <trkpt lat="46.05337" lon="-1.05453">
        <ele>51.474775</ele>
        <time>2022-12-21T11:48:27.335Z</time>
      </trkpt>
      <trkpt lat="46.05327" lon="-1.05447">
        <ele>51.554785</ele>
        <time>2022-12-21T11:48:30.334Z</time>
      </trkpt>
      <trkpt lat="46.05318" lon="-1.05439">
        <ele>51.633092</ele>
        <time>2022-12-21T11:48:33.313Z</time>
      </trkpt>
      <trkpt lat="46.05309" lon="-1.05432">
        <ele>51.71662</ele>
        <time>2022-12-21T11:48:36.335Z</time>
      </trkpt>
      <trkpt lat="46.05298" lon="-1.05425">
        <ele>51.80564</ele>
        <time>2022-12-21T11:48:39.332Z</time>
      </trkpt>
      <trkpt lat="46.05288" lon="-1.05417">
        <ele>51.898451</ele>
        <time>2022-12-21T11:48:42.335Z</time>
      </trkpt>
      <trkpt lat="46.05277" lon="-1.05408">
        <ele>51.991376</ele>
        <time>2022-12-21T11:48:45.337Z</time>
      </trkpt>
      <trkpt lat="46.05267" lon="-1.05399">
        <ele>52.085108</ele>
        <time>2022-12-21T11:48:48.335Z</time>
      </trkpt>
      <trkpt lat="46.05256" lon="-1.0539">
        <ele>52.179772</ele>
        <time>2022-12-21T11:48:51.338Z</time>
      </trkpt>
      <trkpt lat="46.05246" lon="-1.0538">
        <ele>52.274423</ele>
        <time>2022-12-21T11:48:54.322Z</time>
      </trkpt>
      <trkpt lat="46.05235" lon="-1.05371">
        <ele>52.361007</ele>
        <time>2022-12-21T11:48:57.335Z</time>
      </trkpt>
      <trkpt lat="46.05225" lon="-1.05363">
        <ele>52.307661</ele>
        <time>2022-12-21T11:49:00.337Z</time>
      </trkpt>
      <trkpt lat="46.05214" lon="-1.05355">
        <ele>52.251913</ele>
        <time>2022-12-21T11:49:03.333Z</time>
      </trkpt>
      <trkpt lat="46.05203" lon="-1.05346">
        <ele>52.194578</ele>
        <time>2022-12-21T11:49:06.335Z</time>
      </trkpt>
      <trkpt lat="46.05192" lon="-1.05336">
        <ele>52.134664</ele>
        <time>2022-12-21T11:49:09.333Z</time>
      </trkpt>
      <trkpt lat="46.05181" lon="-1.05327">
        <ele>52.076321</ele>
        <time>2022-12-21T11:49:12.338Z</time>
      </trkpt>
      <trkpt lat="46.0517" lon="-1.05318">
        <ele>52.020999</ele>
        <time>2022-12-21T11:49:15.338Z</time>
      </trkpt>
      <trkpt lat="46.05161" lon="-1.0531">
        <ele>51.973273</ele>
        <time>2022-12-21T11:49:18.336Z</time>
      </trkpt>
      <trkpt lat="46.05151" lon="-1.05303">
        <ele>51.922473</ele>
        <time>2022-12-21T11:49:21.334Z</time>
      </trkpt>
      <trkpt lat="46.05142" lon="-1.05295">
        <ele>51.871974</ele>
        <time>2022-12-21T11:49:24.336Z</time>
      </trkpt>
      <trkpt lat="46.05131" lon="-1.05287">
        <ele>51.820013</ele>
        <time>2022-12-21T11:49:27.337Z</time>
      </trkpt>
      <trkpt lat="46.05121" lon="-1.05279">
        <ele>51.76652</ele>
        <time>2022-12-21T11:49:30.330Z</time>
      </trkpt>
      <trkpt lat="46.05111" lon="-1.05271">
        <ele>51.711634</ele>
        <time>2022-12-21T11:49:33.340Z</time>
      </trkpt>
      <trkpt lat="46.051" lon="-1.05262">
        <ele>51.65604</ele>
        <time>2022-12-21T11:49:36.337Z</time>
      </trkpt>
      <trkpt lat="46.05089" lon="-1.05253">
        <ele>51.600292</ele>
        <time>2022-12-21T11:49:39.331Z</time>
      </trkpt>
      <trkpt lat="46.05078" lon="-1.05244">
        <ele>51.542125</ele>
        <time>2022-12-21T11:49:42.335Z</time>
      </trkpt>
      <trkpt lat="46.05067" lon="-1.05236">
        <ele>51.476215</ele>
        <time>2022-12-21T11:49:45.318Z</time>
      </trkpt>
      <trkpt lat="46.05057" lon="-1.05227">
        <ele>51.416541</ele>
        <time>2022-12-21T11:49:48.333Z</time>
      </trkpt>
      <trkpt lat="46.05047" lon="-1.0522">
        <ele>51.357838</ele>
        <time>2022-12-21T11:49:51.333Z</time>
      </trkpt>
      <trkpt lat="46.05038" lon="-1.05212">
        <ele>51.30361</ele>
        <time>2022-12-21T11:49:54.338Z</time>
      </trkpt>
      <trkpt lat="46.05029" lon="-1.05205">
        <ele>51.245478</ele>
        <time>2022-12-21T11:49:57.337Z</time>
      </trkpt>
      <trkpt lat="46.05018" lon="-1.05196">
        <ele>51.183719</ele>
        <time>2022-12-21T11:50:00.311Z</time>
      </trkpt>
      <trkpt lat="46.05008" lon="-1.05188">
        <ele>51.121602</ele>
        <time>2022-12-21T11:50:03.338Z</time>
      </trkpt>
      <trkpt lat="46.04997" lon="-1.05179">
        <ele>51.053629</ele>
        <time>2022-12-21T11:50:06.330Z</time>
      </trkpt>
      <trkpt lat="46.04985" lon="-1.0517">
        <ele>50.986869</ele>
        <time>2022-12-21T11:50:09.337Z</time>
      </trkpt>
      <trkpt lat="46.04975" lon="-1.05162">
        <ele>50.922927</ele>
        <time>2022-12-21T11:50:12.338Z</time>
      </trkpt>
      <trkpt lat="46.04964" lon="-1.05153">
        <ele>50.8587</ele>
        <time>2022-12-21T11:50:15.331Z</time>
      </trkpt>
      <trkpt lat="46.04953" lon="-1.05145">
        <ele>50.791822</ele>
        <time>2022-12-21T11:50:18.333Z</time>
      </trkpt>
      <trkpt lat="46.04942" lon="-1.05137">
        <ele>50.730929</ele>
        <time>2022-12-21T11:50:21.331Z</time>
      </trkpt>
      <trkpt lat="46.04933" lon="-1.05129">
        <ele>50.672152</ele>
        <time>2022-12-21T11:50:24.317Z</time>
      </trkpt>
      <trkpt lat="46.04925" lon="-1.0512">
        <ele>50.621407</ele>
        <time>2022-12-21T11:50:27.313Z</time>
      </trkpt>
      <trkpt lat="46.04917" lon="-1.05112">
        <ele>50.532652</ele>
        <time>2022-12-21T11:50:30.336Z</time>
      </trkpt>
      <trkpt lat="46.04908" lon="-1.05102">
        <ele>50.41578</ele>
        <time>2022-12-21T11:50:33.339Z</time>
      </trkpt>
      <trkpt lat="46.049" lon="-1.0509">
        <ele>50.293595</ele>
        <time>2022-12-21T11:50:36.336Z</time>
      </trkpt>
      <trkpt lat="46.04891" lon="-1.05078">
        <ele>50.166857</ele>
        <time>2022-12-21T11:50:39.337Z</time>
      </trkpt>
      <trkpt lat="46.04883" lon="-1.05065">
        <ele>50.038267</ele>
        <time>2022-12-21T11:50:42.334Z</time>
      </trkpt>
      <trkpt lat="46.04874" lon="-1.05054">
        <ele>49.917078</ele>
        <time>2022-12-21T11:50:45.323Z</time>
      </trkpt>
      <trkpt lat="46.04866" lon="-1.05045">
        <ele>49.80418</ele>
        <time>2022-12-21T11:50:48.315Z</time>
      </trkpt>
      <trkpt lat="46.04857" lon="-1.05036">
        <ele>49.691173</ele>
        <time>2022-12-21T11:50:51.335Z</time>
      </trkpt>
      <trkpt lat="46.04847" lon="-1.05028">
        <ele>49.576708</ele>
        <time>2022-12-21T11:50:54.329Z</time>
      </trkpt>
      <trkpt lat="46.04837" lon="-1.0502">
        <ele>49.44896</ele>
        <time>2022-12-21T11:50:57.336Z</time>
      </trkpt>
      <trkpt lat="46.04826" lon="-1.05012">
        <ele>49.325944</ele>
        <time>2022-12-21T11:51:00.327Z</time>
      </trkpt>
      <trkpt lat="46.04816" lon="-1.05003">
        <ele>49.198919</ele>
        <time>2022-12-21T11:51:03.338Z</time>
      </trkpt>
      <trkpt lat="46.04805" lon="-1.04994">
        <ele>49.067534</ele>
        <time>2022-12-21T11:51:06.335Z</time>
      </trkpt>
      <trkpt lat="46.04794" lon="-1.04983">
        <ele>48.92789</ele>
        <time>2022-12-21T11:51:09.335Z</time>
      </trkpt>
      <trkpt lat="46.04784" lon="-1.04975">
        <ele>48.807391</ele>
        <time>2022-12-21T11:51:12.336Z</time>
      </trkpt>
      <trkpt lat="46.04774" lon="-1.04967">
        <ele>48.729262</ele>
        <time>2022-12-21T11:51:15.328Z</time>
      </trkpt>
      <trkpt lat="46.04766" lon="-1.0496">
        <ele>48.775199</ele>
        <time>2022-12-21T11:51:18.337Z</time>
      </trkpt>
      <trkpt lat="46.04758" lon="-1.04953">
        <ele>48.824339</ele>
        <time>2022-12-21T11:51:21.336Z</time>
      </trkpt>
      <trkpt lat="46.04749" lon="-1.04945">
        <ele>48.873479</ele>
        <time>2022-12-21T11:51:24.330Z</time>
      </trkpt>
      <trkpt lat="46.04742" lon="-1.04938">
        <ele>48.920301</ele>
        <time>2022-12-21T11:51:27.334Z</time>
      </trkpt>
      <trkpt lat="46.04732" lon="-1.0493">
        <ele>48.975708</ele>
        <time>2022-12-21T11:51:32.332Z</time>
      </trkpt>
      <trkpt lat="46.04721" lon="-1.04922">
        <ele>49.035652</ele>
        <time>2022-12-21T11:51:36.311Z</time>
      </trkpt>
      <trkpt lat="46.04712" lon="-1.04916">
        <ele>49.086304</ele>
        <time>2022-12-21T11:51:39.331Z</time>
      </trkpt>
      <trkpt lat="46.04702" lon="-1.04908">
        <ele>49.142048</ele>
        <time>2022-12-21T11:51:42.334Z</time>
      </trkpt>
      <trkpt lat="46.04692" lon="-1.049">
        <ele>49.199005</ele>
        <time>2022-12-21T11:51:45.330Z</time>
      </trkpt>
      <trkpt lat="46.04682" lon="-1.04892">
        <ele>49.25622</ele>
        <time>2022-12-21T11:51:48.334Z</time>
      </trkpt>
      <trkpt lat="46.04672" lon="-1.04883">
        <ele>49.317329</ele>
        <time>2022-12-21T11:51:51.332Z</time>
      </trkpt>
      <trkpt lat="46.04662" lon="-1.04876">
        <ele>49.371568</ele>
        <time>2022-12-21T11:51:54.332Z</time>
      </trkpt>
      <trkpt lat="46.04653" lon="-1.04868">
        <ele>49.423914</ele>
        <time>2022-12-21T11:51:57.332Z</time>
      </trkpt>
      <trkpt lat="46.04644" lon="-1.0486">
        <ele>49.475442</ele>
        <time>2022-12-21T11:52:00.322Z</time>
      </trkpt>
      <trkpt lat="46.04634" lon="-1.04853">
        <ele>49.530879</ele>
        <time>2022-12-21T11:52:03.332Z</time>
      </trkpt>
      <trkpt lat="46.04624" lon="-1.04845">
        <ele>49.586486</ele>
        <time>2022-12-21T11:52:06.341Z</time>
      </trkpt>
      <trkpt lat="46.04614" lon="-1.04837">
        <ele>49.622086</ele>
        <time>2022-12-21T11:52:09.330Z</time>
      </trkpt>
      <trkpt lat="46.04604" lon="-1.04828">
        <ele>49.641436</ele>
        <time>2022-12-21T11:52:12.334Z</time>
      </trkpt>
      <trkpt lat="46.04594" lon="-1.04821">
        <ele>49.65873</ele>
        <time>2022-12-21T11:52:15.325Z</time>
      </trkpt>
      <trkpt lat="46.04585" lon="-1.04814">
        <ele>49.674996</ele>
        <time>2022-12-21T11:52:18.318Z</time>
      </trkpt>
      <trkpt lat="46.04576" lon="-1.04806">
        <ele>49.69214</ele>
        <time>2022-12-21T11:52:21.313Z</time>
      </trkpt>
      <trkpt lat="46.04567" lon="-1.04799">
        <ele>49.709279</ele>
        <time>2022-12-21T11:52:24.308Z</time>
      </trkpt>
      <trkpt lat="46.04557" lon="-1.04791">
        <ele>49.727052</ele>
        <time>2022-12-21T11:52:27.335Z</time>
      </trkpt>
      <trkpt lat="46.04548" lon="-1.04784">
        <ele>49.743837</ele>
        <time>2022-12-21T11:52:30.335Z</time>
      </trkpt>
      <trkpt lat="46.0454" lon="-1.04777">
        <ele>49.758777</ele>
        <time>2022-12-21T11:52:33.337Z</time>
      </trkpt>
      <trkpt lat="46.04529" lon="-1.04769">
        <ele>49.77794</ele>
        <time>2022-12-21T11:52:37.334Z</time>
      </trkpt>
      <trkpt lat="46.0452" lon="-1.04762">
        <ele>49.794502</ele>
        <time>2022-12-21T11:52:40.337Z</time>
      </trkpt>
      <trkpt lat="46.04512" lon="-1.04753">
        <ele>49.811276</ele>
        <time>2022-12-21T11:52:43.337Z</time>
      </trkpt>
      <trkpt lat="46.04503" lon="-1.04746">
        <ele>49.827091</ele>
        <time>2022-12-21T11:52:46.324Z</time>
      </trkpt>
      <trkpt lat="46.04495" lon="-1.04739">
        <ele>49.842048</ele>
        <time>2022-12-21T11:52:49.322Z</time>
      </trkpt>
      <trkpt lat="46.04487" lon="-1.04731">
        <ele>49.857905</ele>
        <time>2022-12-21T11:52:52.336Z</time>
      </trkpt>
      <trkpt lat="46.04478" lon="-1.04723">
        <ele>49.87501</ele>
        <time>2022-12-21T11:52:56.332Z</time>
      </trkpt>
      <trkpt lat="46.04469" lon="-1.04715">
        <ele>49.892352</ele>
        <time>2022-12-21T11:53:01.333Z</time>
      </trkpt>
      <trkpt lat="46.0446" lon="-1.04709">
        <ele>49.898412</ele>
        <time>2022-12-21T11:53:06.335Z</time>
      </trkpt>
      <trkpt lat="46.04455" lon="-1.04698">
        <ele>49.89539</ele>
        <time>2022-12-21T11:53:14.319Z</time>
      </trkpt>
      <trkpt lat="46.04457" lon="-1.04698">
        <ele>49.894708</ele>
        <time>2022-12-21T11:54:18.234Z</time>
      </trkpt>
      <trkpt lat="46.04444" lon="-1.04693">
        <ele>49.890388</ele>
        <time>2022-12-21T12:15:38.342Z</time>
      </trkpt>
      <trkpt lat="46.04435" lon="-1.04687">
        <ele>49.887295</ele>
        <time>2022-12-21T12:15:42.343Z</time>
      </trkpt>
      <trkpt lat="46.04427" lon="-1.04681">
        <ele>49.884326</ele>
        <time>2022-12-21T12:15:46.326Z</time>
      </trkpt>
      <trkpt lat="46.04418" lon="-1.04677">
        <ele>49.881097</ele>
        <time>2022-12-21T12:15:49.326Z</time>
      </trkpt>
      <trkpt lat="46.04409" lon="-1.04671">
        <ele>49.878082</ele>
        <time>2022-12-21T12:15:52.337Z</time>
      </trkpt>
      <trkpt lat="46.044" lon="-1.04664">
        <ele>49.874919</ele>
        <time>2022-12-21T12:15:55.344Z</time>
      </trkpt>
      <trkpt lat="46.04391" lon="-1.04655">
        <ele>49.871132</ele>
        <time>2022-12-21T12:15:59.340Z</time>
      </trkpt>
      <trkpt lat="46.04383" lon="-1.04648">
        <ele>49.868135</ele>
        <time>2022-12-21T12:16:02.341Z</time>
      </trkpt>
      <trkpt lat="46.04375" lon="-1.0464">
        <ele>49.865011</ele>
        <time>2022-12-21T12:16:05.339Z</time>
      </trkpt>
      <trkpt lat="46.04366" lon="-1.04633">
        <ele>49.861877</ele>
        <time>2022-12-21T12:16:08.339Z</time>
      </trkpt>
      <trkpt lat="46.04357" lon="-1.04629">
        <ele>49.858838</ele>
        <time>2022-12-21T12:16:11.322Z</time>
      </trkpt>
      <trkpt lat="46.04349" lon="-1.04623">
        <ele>49.855919</ele>
        <time>2022-12-21T12:16:14.331Z</time>
      </trkpt>
      <trkpt lat="46.04338" lon="-1.04625">
        <ele>49.852485</ele>
        <time>2022-12-21T12:16:18.332Z</time>
      </trkpt>
      <trkpt lat="46.04329" lon="-1.04628">
        <ele>49.849502</ele>
        <time>2022-12-21T12:16:21.327Z</time>
      </trkpt>
      <trkpt lat="46.0432" lon="-1.04632">
        <ele>49.846341</ele>
        <time>2022-12-21T12:16:24.321Z</time>
      </trkpt>
      <trkpt lat="46.04311" lon="-1.04637">
        <ele>49.843218</ele>
        <time>2022-12-21T12:16:27.338Z</time>
      </trkpt>
      <trkpt lat="46.04302" lon="-1.04643">
        <ele>49.776843</ele>
        <time>2022-12-21T12:16:30.343Z</time>
      </trkpt>
      <trkpt lat="46.04294" lon="-1.04649">
        <ele>49.686312</ele>
        <time>2022-12-21T12:16:33.341Z</time>
      </trkpt>
      <trkpt lat="46.04285" lon="-1.04655">
        <ele>49.591923</ele>
        <time>2022-12-21T12:16:36.339Z</time>
      </trkpt>
      <trkpt lat="46.04276" lon="-1.0466">
        <ele>49.495823</ele>
        <time>2022-12-21T12:16:39.342Z</time>
      </trkpt>
      <trkpt lat="46.04267" lon="-1.04666">
        <ele>49.400808</ele>
        <time>2022-12-21T12:16:42.344Z</time>
      </trkpt>
      <trkpt lat="46.04257" lon="-1.0467">
        <ele>49.306084</ele>
        <time>2022-12-21T12:16:45.333Z</time>
      </trkpt>
      <trkpt lat="46.04248" lon="-1.04672">
        <ele>49.213831</ele>
        <time>2022-12-21T12:16:48.330Z</time>
      </trkpt>
      <trkpt lat="46.04239" lon="-1.04668">
        <ele>49.118187</ele>
        <time>2022-12-21T12:16:51.339Z</time>
      </trkpt>
      <trkpt lat="46.04231" lon="-1.04658">
        <ele>49.020987</ele>
        <time>2022-12-21T12:16:54.333Z</time>
      </trkpt>
      <trkpt lat="46.04227" lon="-1.04644">
        <ele>48.916978</ele>
        <time>2022-12-21T12:16:57.322Z</time>
      </trkpt>
      <trkpt lat="46.04224" lon="-1.04629">
        <ele>48.810748</ele>
        <time>2022-12-21T12:17:01.317Z</time>
      </trkpt>
      <trkpt lat="46.04219" lon="-1.04612">
        <ele>48.686568</ele>
        <time>2022-12-21T12:17:05.323Z</time>
      </trkpt>
      <trkpt lat="46.04218" lon="-1.04594">
        <ele>48.568026</ele>
        <time>2022-12-21T12:17:08.339Z</time>
      </trkpt>
      <trkpt lat="46.04218" lon="-1.04578">
        <ele>48.457282</ele>
        <time>2022-12-21T12:17:11.332Z</time>
      </trkpt>
      <trkpt lat="46.04219" lon="-1.04562">
        <ele>48.3468</ele>
        <time>2022-12-21T12:17:14.342Z</time>
      </trkpt>
      <trkpt lat="46.0422" lon="-1.04546">
        <ele>48.239254</ele>
        <time>2022-12-21T12:17:17.340Z</time>
      </trkpt>
      <trkpt lat="46.04222" lon="-1.04532">
        <ele>48.143019</ele>
        <time>2022-12-21T12:17:20.340Z</time>
      </trkpt>
      <trkpt lat="46.04222" lon="-1.04515">
        <ele>48.06429</ele>
        <time>2022-12-21T12:17:24.324Z</time>
      </trkpt>
      <trkpt lat="46.04224" lon="-1.04499">
        <ele>48.009906</ele>
        <time>2022-12-21T12:17:28.317Z</time>
      </trkpt>
      <trkpt lat="46.04226" lon="-1.04484">
        <ele>47.958613</ele>
        <time>2022-12-21T12:17:31.339Z</time>
      </trkpt>
      <trkpt lat="46.04227" lon="-1.04467">
        <ele>47.904089</ele>
        <time>2022-12-21T12:17:34.342Z</time>
      </trkpt>
      <trkpt lat="46.04228" lon="-1.04451">
        <ele>47.852861</ele>
        <time>2022-12-21T12:17:37.317Z</time>
      </trkpt>
      <trkpt lat="46.0423" lon="-1.04438">
        <ele>47.807437</ele>
        <time>2022-12-21T12:17:40.341Z</time>
      </trkpt>
      <trkpt lat="46.04231" lon="-1.04421">
        <ele>47.753054</ele>
        <time>2022-12-21T12:17:43.344Z</time>
      </trkpt>
      <trkpt lat="46.04233" lon="-1.04405">
        <ele>47.699028</ele>
        <time>2022-12-21T12:17:46.321Z</time>
      </trkpt>
      <trkpt lat="46.04235" lon="-1.0439">
        <ele>47.649344</ele>
        <time>2022-12-21T12:17:49.341Z</time>
      </trkpt>
      <trkpt lat="46.04236" lon="-1.04375">
        <ele>47.60071</ele>
        <time>2022-12-21T12:17:52.340Z</time>
      </trkpt>
      <trkpt lat="46.04237" lon="-1.0436">
        <ele>47.549857</ele>
        <time>2022-12-21T12:17:55.350Z</time>
      </trkpt>
      <trkpt lat="46.04239" lon="-1.04343">
        <ele>47.494608</ele>
        <time>2022-12-21T12:17:58.343Z</time>
      </trkpt>
      <trkpt lat="46.04241" lon="-1.04328">
        <ele>47.444886</ele>
        <time>2022-12-21T12:18:01.329Z</time>
      </trkpt>
      <trkpt lat="46.04243" lon="-1.04315">
        <ele>47.401207</ele>
        <time>2022-12-21T12:18:04.340Z</time>
      </trkpt>
      <trkpt lat="46.04244" lon="-1.04298">
        <ele>47.344872</ele>
        <time>2022-12-21T12:18:08.332Z</time>
      </trkpt>
      <trkpt lat="46.04244" lon="-1.04283">
        <ele>47.29787</ele>
        <time>2022-12-21T12:18:11.351Z</time>
      </trkpt>
      <trkpt lat="46.04244" lon="-1.04267">
        <ele>47.251634</ele>
        <time>2022-12-21T12:18:14.339Z</time>
      </trkpt>
      <trkpt lat="46.04244" lon="-1.0425">
        <ele>47.331689</ele>
        <time>2022-12-21T12:18:17.357Z</time>
      </trkpt>
      <trkpt lat="46.04246" lon="-1.04235">
        <ele>47.405273</ele>
        <time>2022-12-21T12:18:20.340Z</time>
      </trkpt>
      <trkpt lat="46.04248" lon="-1.04219">
        <ele>47.482958</ele>
        <time>2022-12-21T12:18:23.342Z</time>
      </trkpt>
      <trkpt lat="46.0425" lon="-1.04202">
        <ele>47.563542</ele>
        <time>2022-12-21T12:18:26.321Z</time>
      </trkpt>
      <trkpt lat="46.04251" lon="-1.04186">
        <ele>47.640067</ele>
        <time>2022-12-21T12:18:29.342Z</time>
      </trkpt>
      <trkpt lat="46.04253" lon="-1.0417">
        <ele>47.718316</ele>
        <time>2022-12-21T12:18:32.339Z</time>
      </trkpt>
      <trkpt lat="46.04255" lon="-1.04153">
        <ele>47.799946</ele>
        <time>2022-12-21T12:18:35.322Z</time>
      </trkpt>
      <trkpt lat="46.04257" lon="-1.04137">
        <ele>47.877844</ele>
        <time>2022-12-21T12:18:38.339Z</time>
      </trkpt>
      <trkpt lat="46.04259" lon="-1.04121">
        <ele>47.954109</ele>
        <time>2022-12-21T12:18:41.343Z</time>
      </trkpt>
      <trkpt lat="46.0426" lon="-1.04104">
        <ele>48.035708</ele>
        <time>2022-12-21T12:18:44.340Z</time>
      </trkpt>
      <trkpt lat="46.04262" lon="-1.04084">
        <ele>48.127368</ele>
        <time>2022-12-21T12:18:47.342Z</time>
      </trkpt>
      <trkpt lat="46.04264" lon="-1.04067">
        <ele>48.212996</ele>
        <time>2022-12-21T12:18:50.341Z</time>
      </trkpt>
      <trkpt lat="46.04265" lon="-1.0405">
        <ele>48.292636</ele>
        <time>2022-12-21T12:18:53.334Z</time>
      </trkpt>
      <trkpt lat="46.04266" lon="-1.04033">
        <ele>48.373824</ele>
        <time>2022-12-21T12:18:56.343Z</time>
      </trkpt>
      <trkpt lat="46.04267" lon="-1.04017">
        <ele>48.448806</ele>
        <time>2022-12-21T12:18:59.319Z</time>
      </trkpt>
      <trkpt lat="46.04269" lon="-1.04003">
        <ele>48.506628</ele>
        <time>2022-12-21T12:19:02.344Z</time>
      </trkpt>
      <trkpt lat="46.0427" lon="-1.03987">
        <ele>48.570505</ele>
        <time>2022-12-21T12:19:06.343Z</time>
      </trkpt>
      <trkpt lat="46.04268" lon="-1.03974">
        <ele>48.621596</ele>
        <time>2022-12-21T12:19:09.322Z</time>
      </trkpt>
      <trkpt lat="46.04259" lon="-1.03966">
        <ele>48.675181</ele>
        <time>2022-12-21T12:19:12.324Z</time>
      </trkpt>
      <trkpt lat="46.0425" lon="-1.03971">
        <ele>48.729263</ele>
        <time>2022-12-21T12:19:15.326Z</time>
      </trkpt>
      <trkpt lat="46.04241" lon="-1.03977">
        <ele>48.787003</ele>
        <time>2022-12-21T12:19:18.340Z</time>
      </trkpt>
      <trkpt lat="46.04231" lon="-1.03984">
        <ele>48.845569</ele>
        <time>2022-12-21T12:19:21.328Z</time>
      </trkpt>
      <trkpt lat="46.04221" lon="-1.03991">
        <ele>48.905943</ele>
        <time>2022-12-21T12:19:24.342Z</time>
      </trkpt>
      <trkpt lat="46.04212" lon="-1.03999">
        <ele>48.964906</ele>
        <time>2022-12-21T12:19:27.340Z</time>
      </trkpt>
      <trkpt lat="46.04203" lon="-1.04008">
        <ele>49.026207</ele>
        <time>2022-12-21T12:19:30.341Z</time>
      </trkpt>
      <trkpt lat="46.04193" lon="-1.04017">
        <ele>49.090358</ele>
        <time>2022-12-21T12:19:33.339Z</time>
      </trkpt>
      <trkpt lat="46.04183" lon="-1.04027">
        <ele>49.15477</ele>
        <time>2022-12-21T12:19:36.339Z</time>
      </trkpt>
      <trkpt lat="46.04174" lon="-1.04037">
        <ele>49.217409</ele>
        <time>2022-12-21T12:19:39.342Z</time>
      </trkpt>
      <trkpt lat="46.04165" lon="-1.04047">
        <ele>49.278715</ele>
        <time>2022-12-21T12:19:42.340Z</time>
      </trkpt>
      <trkpt lat="46.04156" lon="-1.04057">
        <ele>49.341878</ele>
        <time>2022-12-21T12:19:45.334Z</time>
      </trkpt>
      <trkpt lat="46.04147" lon="-1.04067">
        <ele>49.40633</ele>
        <time>2022-12-21T12:19:48.337Z</time>
      </trkpt>
      <trkpt lat="46.04138" lon="-1.04077">
        <ele>49.468375</ele>
        <time>2022-12-21T12:19:51.328Z</time>
      </trkpt>
      <trkpt lat="46.0413" lon="-1.04086">
        <ele>49.578514</ele>
        <time>2022-12-21T12:19:54.343Z</time>
      </trkpt>
      <trkpt lat="46.04121" lon="-1.04096">
        <ele>49.695669</ele>
        <time>2022-12-21T12:19:57.332Z</time>
      </trkpt>
      <trkpt lat="46.04112" lon="-1.04106">
        <ele>49.818562</ele>
        <time>2022-12-21T12:20:00.345Z</time>
      </trkpt>
      <trkpt lat="46.04102" lon="-1.04116">
        <ele>49.941447</ele>
        <time>2022-12-21T12:20:03.346Z</time>
      </trkpt>
      <trkpt lat="46.04094" lon="-1.04125">
        <ele>50.057942</ele>
        <time>2022-12-21T12:20:06.338Z</time>
      </trkpt>
      <trkpt lat="46.04084" lon="-1.04134">
        <ele>50.174444</ele>
        <time>2022-12-21T12:20:09.345Z</time>
      </trkpt>
      <trkpt lat="46.04076" lon="-1.04143">
        <ele>50.28756</ele>
        <time>2022-12-21T12:20:12.347Z</time>
      </trkpt>
      <trkpt lat="46.04067" lon="-1.04152">
        <ele>50.394663</ele>
        <time>2022-12-21T12:20:15.338Z</time>
      </trkpt>
      <trkpt lat="46.04059" lon="-1.04161">
        <ele>50.504326</ele>
        <time>2022-12-21T12:20:18.338Z</time>
      </trkpt>
      <trkpt lat="46.0405" lon="-1.0417">
        <ele>50.619138</ele>
        <time>2022-12-21T12:20:21.343Z</time>
      </trkpt>
      <trkpt lat="46.04042" lon="-1.0418">
        <ele>50.73395</ele>
        <time>2022-12-21T12:20:24.320Z</time>
      </trkpt>
      <trkpt lat="46.04034" lon="-1.04187">
        <ele>50.831112</ele>
        <time>2022-12-21T12:20:27.344Z</time>
      </trkpt>
      <trkpt lat="46.04025" lon="-1.04195">
        <ele>50.94464</ele>
        <time>2022-12-21T12:20:31.328Z</time>
      </trkpt>
      <trkpt lat="46.04017" lon="-1.04203">
        <ele>51.044739</ele>
        <time>2022-12-21T12:20:34.326Z</time>
      </trkpt>
      <trkpt lat="46.04009" lon="-1.04211">
        <ele>51.149718</ele>
        <time>2022-12-21T12:20:37.347Z</time>
      </trkpt>
      <trkpt lat="46.04" lon="-1.04219">
        <ele>51.255709</ele>
        <time>2022-12-21T12:20:40.341Z</time>
      </trkpt>
      <trkpt lat="46.03992" lon="-1.04227">
        <ele>51.34818</ele>
        <time>2022-12-21T12:20:43.339Z</time>
      </trkpt>
      <trkpt lat="46.03984" lon="-1.04234">
        <ele>51.291588</ele>
        <time>2022-12-21T12:20:46.342Z</time>
      </trkpt>
      <trkpt lat="46.03977" lon="-1.04242">
        <ele>51.234975</ele>
        <time>2022-12-21T12:20:49.329Z</time>
      </trkpt>
      <trkpt lat="46.03969" lon="-1.0425">
        <ele>51.179605</ele>
        <time>2022-12-21T12:20:52.339Z</time>
      </trkpt>
      <trkpt lat="46.03961" lon="-1.04256">
        <ele>51.12449</ele>
        <time>2022-12-21T12:20:55.330Z</time>
      </trkpt>
      <trkpt lat="46.03953" lon="-1.04264">
        <ele>51.067166</ele>
        <time>2022-12-21T12:20:58.332Z</time>
      </trkpt>
      <trkpt lat="46.03945" lon="-1.04272">
        <ele>51.00809</ele>
        <time>2022-12-21T12:21:01.343Z</time>
      </trkpt>
      <trkpt lat="46.03937" lon="-1.04281">
        <ele>50.94711</ele>
        <time>2022-12-21T12:21:04.342Z</time>
      </trkpt>
      <trkpt lat="46.03929" lon="-1.04289">
        <ele>50.886365</ele>
        <time>2022-12-21T12:21:07.321Z</time>
      </trkpt>
      <trkpt lat="46.0392" lon="-1.04298">
        <ele>50.824407</ele>
        <time>2022-12-21T12:21:10.343Z</time>
      </trkpt>
      <trkpt lat="46.03912" lon="-1.04306">
        <ele>50.762578</ele>
        <time>2022-12-21T12:21:13.339Z</time>
      </trkpt>
      <trkpt lat="46.03904" lon="-1.04314">
        <ele>50.702575</ele>
        <time>2022-12-21T12:21:16.340Z</time>
      </trkpt>
      <trkpt lat="46.03896" lon="-1.04321">
        <ele>50.647922</ele>
        <time>2022-12-21T12:21:19.346Z</time>
      </trkpt>
      <trkpt lat="46.03888" lon="-1.0433">
        <ele>50.589625</ele>
        <time>2022-12-21T12:21:22.324Z</time>
      </trkpt>
      <trkpt lat="46.03879" lon="-1.04337">
        <ele>50.52951</ele>
        <time>2022-12-21T12:21:25.335Z</time>
      </trkpt>
      <trkpt lat="46.03871" lon="-1.04345">
        <ele>50.469258</ele>
        <time>2022-12-21T12:21:28.345Z</time>
      </trkpt>
      <trkpt lat="46.03863" lon="-1.04354">
        <ele>50.407533</ele>
        <time>2022-12-21T12:21:31.344Z</time>
      </trkpt>
      <trkpt lat="46.03855" lon="-1.04363">
        <ele>50.344111</ele>
        <time>2022-12-21T12:21:34.340Z</time>
      </trkpt>
      <trkpt lat="46.03846" lon="-1.04372">
        <ele>50.280932</ele>
        <time>2022-12-21T12:21:37.343Z</time>
      </trkpt>
      <trkpt lat="46.03837" lon="-1.04381">
        <ele>50.37676</ele>
        <time>2022-12-21T12:21:40.341Z</time>
      </trkpt>
      <trkpt lat="46.03828" lon="-1.0439">
        <ele>50.503249</ele>
        <time>2022-12-21T12:21:43.338Z</time>
      </trkpt>
      <trkpt lat="46.0382" lon="-1.044">
        <ele>50.632569</ele>
        <time>2022-12-21T12:21:46.330Z</time>
      </trkpt>
      <trkpt lat="46.03811" lon="-1.0441">
        <ele>50.763304</ele>
        <time>2022-12-21T12:21:49.337Z</time>
      </trkpt>
      <trkpt lat="46.03802" lon="-1.0442">
        <ele>50.891976</ele>
        <time>2022-12-21T12:21:52.327Z</time>
      </trkpt>
      <trkpt lat="46.03794" lon="-1.0443">
        <ele>51.019238</ele>
        <time>2022-12-21T12:21:55.338Z</time>
      </trkpt>
      <trkpt lat="46.03785" lon="-1.04439">
        <ele>51.144313</ele>
        <time>2022-12-21T12:21:58.334Z</time>
      </trkpt>
      <trkpt lat="46.03776" lon="-1.04449">
        <ele>51.273369</ele>
        <time>2022-12-21T12:22:01.336Z</time>
      </trkpt>
      <trkpt lat="46.03767" lon="-1.0446">
        <ele>51.40961</ele>
        <time>2022-12-21T12:22:04.342Z</time>
      </trkpt>
      <trkpt lat="46.03758" lon="-1.04471">
        <ele>51.547262</ele>
        <time>2022-12-21T12:22:07.339Z</time>
      </trkpt>
      <trkpt lat="46.03749" lon="-1.04482">
        <ele>51.685613</ele>
        <time>2022-12-21T12:22:10.356Z</time>
      </trkpt>
      <trkpt lat="46.0374" lon="-1.04492">
        <ele>51.816734</ele>
        <time>2022-12-21T12:22:13.345Z</time>
      </trkpt>
      <trkpt lat="46.03732" lon="-1.04502">
        <ele>51.944777</ele>
        <time>2022-12-21T12:22:16.331Z</time>
      </trkpt>
      <trkpt lat="46.03723" lon="-1.04511">
        <ele>52.07455</ele>
        <time>2022-12-21T12:22:19.340Z</time>
      </trkpt>
      <trkpt lat="46.03713" lon="-1.04521">
        <ele>52.211045</ele>
        <time>2022-12-21T12:22:22.334Z</time>
      </trkpt>
      <trkpt lat="46.03703" lon="-1.0453">
        <ele>52.351787</ele>
        <time>2022-12-21T12:22:25.318Z</time>
      </trkpt>
      <trkpt lat="46.03694" lon="-1.04538">
        <ele>52.325756</ele>
        <time>2022-12-21T12:22:28.337Z</time>
      </trkpt>
      <trkpt lat="46.03684" lon="-1.04546">
        <ele>52.287533</ele>
        <time>2022-12-21T12:22:31.339Z</time>
      </trkpt>
      <trkpt lat="46.03675" lon="-1.04552">
        <ele>52.249488</ele>
        <time>2022-12-21T12:22:34.333Z</time>
      </trkpt>
      <trkpt lat="46.03666" lon="-1.04559">
        <ele>52.211443</ele>
        <time>2022-12-21T12:22:37.342Z</time>
      </trkpt>
      <trkpt lat="46.03656" lon="-1.04566">
        <ele>52.171635</ele>
        <time>2022-12-21T12:22:40.324Z</time>
      </trkpt>
      <trkpt lat="46.03646" lon="-1.04572">
        <ele>52.130613</ele>
        <time>2022-12-21T12:22:43.345Z</time>
      </trkpt>
      <trkpt lat="46.03636" lon="-1.04579">
        <ele>52.089406</ele>
        <time>2022-12-21T12:22:46.350Z</time>
      </trkpt>
      <trkpt lat="46.03626" lon="-1.04585">
        <ele>52.049892</ele>
        <time>2022-12-21T12:22:49.340Z</time>
      </trkpt>
      <trkpt lat="46.03616" lon="-1.0459">
        <ele>52.011222</ele>
        <time>2022-12-21T12:22:52.343Z</time>
      </trkpt>
      <trkpt lat="46.03606" lon="-1.04594">
        <ele>51.973276</ele>
        <time>2022-12-21T12:22:55.340Z</time>
      </trkpt>
      <trkpt lat="46.03596" lon="-1.04598">
        <ele>51.934903</ele>
        <time>2022-12-21T12:22:58.342Z</time>
      </trkpt>
      <trkpt lat="46.03585" lon="-1.04601">
        <ele>51.89541</ele>
        <time>2022-12-21T12:23:01.333Z</time>
      </trkpt>
      <trkpt lat="46.03575" lon="-1.04606">
        <ele>51.856032</ele>
        <time>2022-12-21T12:23:04.341Z</time>
      </trkpt>
      <trkpt lat="46.03565" lon="-1.04611">
        <ele>51.816459</ele>
        <time>2022-12-21T12:23:07.342Z</time>
      </trkpt>
      <trkpt lat="46.03554" lon="-1.04615">
        <ele>51.775956</ele>
        <time>2022-12-21T12:23:10.339Z</time>
      </trkpt>
      <trkpt lat="46.03543" lon="-1.04618">
        <ele>51.734974</ele>
        <time>2022-12-21T12:23:13.344Z</time>
      </trkpt>
      <trkpt lat="46.03533" lon="-1.04623">
        <ele>51.696962</ele>
        <time>2022-12-21T12:23:16.340Z</time>
      </trkpt>
      <trkpt lat="46.03523" lon="-1.04628">
        <ele>51.666516</ele>
        <time>2022-12-21T12:23:19.351Z</time>
      </trkpt>
      <trkpt lat="46.03512" lon="-1.04632">
        <ele>51.636296</ele>
        <time>2022-12-21T12:23:22.339Z</time>
      </trkpt>
      <trkpt lat="46.03502" lon="-1.04636">
        <ele>51.607374</ele>
        <time>2022-12-21T12:23:25.343Z</time>
      </trkpt>
      <trkpt lat="46.03493" lon="-1.0464">
        <ele>51.581216</ele>
        <time>2022-12-21T12:23:28.323Z</time>
      </trkpt>
      <trkpt lat="46.03483" lon="-1.04644">
        <ele>51.550455</ele>
        <time>2022-12-21T12:23:32.339Z</time>
      </trkpt>
      <trkpt lat="46.03474" lon="-1.04647">
        <ele>51.524729</ele>
        <time>2022-12-21T12:23:35.336Z</time>
      </trkpt>
      <trkpt lat="46.03463" lon="-1.04652">
        <ele>51.491359</ele>
        <time>2022-12-21T12:23:39.347Z</time>
      </trkpt>
      <trkpt lat="46.03453" lon="-1.04655">
        <ele>51.464034</ele>
        <time>2022-12-21T12:23:42.328Z</time>
      </trkpt>
      <trkpt lat="46.03444" lon="-1.04658">
        <ele>51.436944</ele>
        <time>2022-12-21T12:23:45.342Z</time>
      </trkpt>
      <trkpt lat="46.03435" lon="-1.04663">
        <ele>51.409371</ele>
        <time>2022-12-21T12:23:48.349Z</time>
      </trkpt>
      <trkpt lat="46.03425" lon="-1.04667">
        <ele>51.380558</ele>
        <time>2022-12-21T12:23:51.354Z</time>
      </trkpt>
      <trkpt lat="46.03415" lon="-1.04671">
        <ele>51.350174</ele>
        <time>2022-12-21T12:23:54.322Z</time>
      </trkpt>
      <trkpt lat="46.03404" lon="-1.04675">
        <ele>51.319939</ele>
        <time>2022-12-21T12:23:57.330Z</time>
      </trkpt>
      <trkpt lat="46.03394" lon="-1.0468">
        <ele>51.289281</ele>
        <time>2022-12-21T12:24:00.340Z</time>
      </trkpt>
      <trkpt lat="46.03383" lon="-1.04684">
        <ele>51.256515</ele>
        <time>2022-12-21T12:24:03.340Z</time>
      </trkpt>
      <trkpt lat="46.03371" lon="-1.04689">
        <ele>51.223967</ele>
        <time>2022-12-21T12:24:06.334Z</time>
      </trkpt>
      <trkpt lat="46.03361" lon="-1.04693">
        <ele>51.190208</ele>
        <time>2022-12-21T12:24:09.351Z</time>
      </trkpt>
      <trkpt lat="46.03352" lon="-1.04696">
        <ele>51.115198</ele>
        <time>2022-12-21T12:24:12.336Z</time>
      </trkpt>
      <trkpt lat="46.03342" lon="-1.04699">
        <ele>51.028115</ele>
        <time>2022-12-21T12:24:16.341Z</time>
      </trkpt>
      <trkpt lat="46.03331" lon="-1.04704">
        <ele>50.934122</ele>
        <time>2022-12-21T12:24:20.320Z</time>
      </trkpt>
      <trkpt lat="46.03322" lon="-1.04708">
        <ele>50.861</ele>
        <time>2022-12-21T12:24:23.336Z</time>
      </trkpt>
      <trkpt lat="46.03314" lon="-1.04712">
        <ele>50.786559</ele>
        <time>2022-12-21T12:24:26.321Z</time>
      </trkpt>
      <trkpt lat="46.03304" lon="-1.04716">
        <ele>50.707166</ele>
        <time>2022-12-21T12:24:29.337Z</time>
      </trkpt>
      <trkpt lat="46.03295" lon="-1.0472">
        <ele>50.628673</ele>
        <time>2022-12-21T12:24:32.329Z</time>
      </trkpt>
      <trkpt lat="46.03285" lon="-1.04725">
        <ele>50.544388</ele>
        <time>2022-12-21T12:24:35.321Z</time>
      </trkpt>
      <trkpt lat="46.03275" lon="-1.04729">
        <ele>50.459667</ele>
        <time>2022-12-21T12:24:38.337Z</time>
      </trkpt>
      <trkpt lat="46.03265" lon="-1.04733">
        <ele>50.372862</ele>
        <time>2022-12-21T12:24:41.326Z</time>
      </trkpt>
      <trkpt lat="46.03256" lon="-1.04735">
        <ele>50.295284</ele>
        <time>2022-12-21T12:24:44.339Z</time>
      </trkpt>
      <trkpt lat="46.03247" lon="-1.04739">
        <ele>50.219341</ele>
        <time>2022-12-21T12:24:47.337Z</time>
      </trkpt>
      <trkpt lat="46.03238" lon="-1.04743">
        <ele>50.140479</ele>
        <time>2022-12-21T12:24:50.341Z</time>
      </trkpt>
      <trkpt lat="46.03228" lon="-1.04747">
        <ele>50.056086</ele>
        <time>2022-12-21T12:24:53.343Z</time>
      </trkpt>
      <trkpt lat="46.03218" lon="-1.04753">
        <ele>49.969147</ele>
        <time>2022-12-21T12:24:56.337Z</time>
      </trkpt>
      <trkpt lat="46.03207" lon="-1.04756">
        <ele>49.88141</ele>
        <time>2022-12-21T12:24:59.342Z</time>
      </trkpt>
      <trkpt lat="46.03198" lon="-1.0476">
        <ele>49.801419</ele>
        <time>2022-12-21T12:25:02.335Z</time>
      </trkpt>
      <trkpt lat="46.03186" lon="-1.04765">
        <ele>49.725211</ele>
        <time>2022-12-21T12:25:06.340Z</time>
      </trkpt>
      <trkpt lat="46.03175" lon="-1.0477">
        <ele>49.728728</ele>
        <time>2022-12-21T12:25:10.338Z</time>
      </trkpt>
      <trkpt lat="46.03167" lon="-1.04774">
        <ele>49.731376</ele>
        <time>2022-12-21T12:25:13.341Z</time>
      </trkpt>
      <trkpt lat="46.03157" lon="-1.04777">
        <ele>49.734175</ele>
        <time>2022-12-21T12:25:16.340Z</time>
      </trkpt>
      <trkpt lat="46.03148" lon="-1.04781">
        <ele>49.736942</ele>
        <time>2022-12-21T12:25:19.342Z</time>
      </trkpt>
      <trkpt lat="46.03137" lon="-1.04785">
        <ele>49.740323</ele>
        <time>2022-12-21T12:25:23.344Z</time>
      </trkpt>
      <trkpt lat="46.03127" lon="-1.04786">
        <ele>49.743329</ele>
        <time>2022-12-21T12:25:27.332Z</time>
      </trkpt>
      <trkpt lat="46.03117" lon="-1.04791">
        <ele>49.746301</ele>
        <time>2022-12-21T12:25:31.324Z</time>
      </trkpt>
      <trkpt lat="46.03106" lon="-1.04795">
        <ele>49.749724</ele>
        <time>2022-12-21T12:25:35.330Z</time>
      </trkpt>
      <trkpt lat="46.03097" lon="-1.04798">
        <ele>49.75252</ele>
        <time>2022-12-21T12:25:38.320Z</time>
      </trkpt>
      <trkpt lat="46.03087" lon="-1.04801">
        <ele>49.755405</ele>
        <time>2022-12-21T12:25:41.332Z</time>
      </trkpt>
      <trkpt lat="46.03077" lon="-1.04803">
        <ele>49.758488</ele>
        <time>2022-12-21T12:25:44.322Z</time>
      </trkpt>
      <trkpt lat="46.03066" lon="-1.04805">
        <ele>49.761547</ele>
        <time>2022-12-21T12:25:47.344Z</time>
      </trkpt>
      <trkpt lat="46.03057" lon="-1.04807">
        <ele>49.764357</ele>
        <time>2022-12-21T12:25:50.338Z</time>
      </trkpt>
      <trkpt lat="46.03047" lon="-1.04809">
        <ele>49.767212</ele>
        <time>2022-12-21T12:25:53.352Z</time>
      </trkpt>
      <trkpt lat="46.03037" lon="-1.04811">
        <ele>49.770216</ele>
        <time>2022-12-21T12:25:56.327Z</time>
      </trkpt>
      <trkpt lat="46.03027" lon="-1.04813">
        <ele>49.773291</ele>
        <time>2022-12-21T12:25:59.321Z</time>
      </trkpt>
      <trkpt lat="46.03016" lon="-1.04816">
        <ele>49.776444</ele>
        <time>2022-12-21T12:26:02.327Z</time>
      </trkpt>
      <trkpt lat="46.03006" lon="-1.04817">
        <ele>49.783454</ele>
        <time>2022-12-21T12:26:05.334Z</time>
      </trkpt>
      <trkpt lat="46.02996" lon="-1.04817">
        <ele>49.79293</ele>
        <time>2022-12-21T12:26:09.323Z</time>
      </trkpt>
      <trkpt lat="46.02985" lon="-1.04818">
        <ele>49.802686</ele>
        <time>2022-12-21T12:26:13.345Z</time>
      </trkpt>
      <trkpt lat="46.02976" lon="-1.04819">
        <ele>49.810867</ele>
        <time>2022-12-21T12:26:16.344Z</time>
      </trkpt>
      <trkpt lat="46.02966" lon="-1.0482">
        <ele>49.819303</ele>
        <time>2022-12-21T12:26:19.342Z</time>
      </trkpt>
      <trkpt lat="46.02957" lon="-1.04821">
        <ele>49.827618</ele>
        <time>2022-12-21T12:26:22.339Z</time>
      </trkpt>
      <trkpt lat="46.02947" lon="-1.04821">
        <ele>49.836476</ele>
        <time>2022-12-21T12:26:25.333Z</time>
      </trkpt>
      <trkpt lat="46.02937" lon="-1.04821">
        <ele>49.84578</ele>
        <time>2022-12-21T12:26:28.339Z</time>
      </trkpt>
      <trkpt lat="46.02927" lon="-1.0482">
        <ele>49.854721</ele>
        <time>2022-12-21T12:26:31.340Z</time>
      </trkpt>
      <trkpt lat="46.02915" lon="-1.0482">
        <ele>49.865373</ele>
        <time>2022-12-21T12:26:35.334Z</time>
      </trkpt>
      <trkpt lat="46.02906" lon="-1.0482">
        <ele>49.873701</ele>
        <time>2022-12-21T12:26:38.328Z</time>
      </trkpt>
      <trkpt lat="46.02895" lon="-1.0482">
        <ele>49.88309</ele>
        <time>2022-12-21T12:26:41.344Z</time>
      </trkpt>
      <trkpt lat="46.02885" lon="-1.04818">
        <ele>49.892351</ele>
        <time>2022-12-21T12:26:44.340Z</time>
      </trkpt>
      <trkpt lat="46.02874" lon="-1.04817">
        <ele>49.901761</ele>
        <time>2022-12-21T12:26:47.329Z</time>
      </trkpt>
      <trkpt lat="46.02864" lon="-1.04817">
        <ele>49.911237</ele>
        <time>2022-12-21T12:26:50.340Z</time>
      </trkpt>
      <trkpt lat="46.02853" lon="-1.04815">
        <ele>49.920867</ele>
        <time>2022-12-21T12:26:53.319Z</time>
      </trkpt>
      <trkpt lat="46.02843" lon="-1.04814">
        <ele>49.92995</ele>
        <time>2022-12-21T12:26:56.327Z</time>
      </trkpt>
      <trkpt lat="46.02833" lon="-1.04812">
        <ele>49.932032</ele>
        <time>2022-12-21T12:26:59.337Z</time>
      </trkpt>
      <trkpt lat="46.02823" lon="-1.0481">
        <ele>49.870131</ele>
        <time>2022-12-21T12:27:02.323Z</time>
      </trkpt>
      <trkpt lat="46.02813" lon="-1.04808">
        <ele>49.807389</ele>
        <time>2022-12-21T12:27:05.330Z</time>
      </trkpt>
      <trkpt lat="46.02802" lon="-1.04806">
        <ele>49.741015</ele>
        <time>2022-12-21T12:27:08.341Z</time>
      </trkpt>
      <trkpt lat="46.02792" lon="-1.04803">
        <ele>49.676015</ele>
        <time>2022-12-21T12:27:11.342Z</time>
      </trkpt>
      <trkpt lat="46.02782" lon="-1.04801">
        <ele>49.612847</ele>
        <time>2022-12-21T12:27:14.334Z</time>
      </trkpt>
      <trkpt lat="46.02773" lon="-1.04796">
        <ele>49.550679</ele>
        <time>2022-12-21T12:27:17.322Z</time>
      </trkpt>
      <trkpt lat="46.02763" lon="-1.04793">
        <ele>49.486468</ele>
        <time>2022-12-21T12:27:20.341Z</time>
      </trkpt>
      <trkpt lat="46.02753" lon="-1.0479">
        <ele>49.425047</ele>
        <time>2022-12-21T12:27:23.341Z</time>
      </trkpt>
      <trkpt lat="46.02743" lon="-1.04788">
        <ele>49.36592</ele>
        <time>2022-12-21T12:27:26.343Z</time>
      </trkpt>
      <trkpt lat="46.02734" lon="-1.04785">
        <ele>49.305191</ele>
        <time>2022-12-21T12:27:29.342Z</time>
      </trkpt>
      <trkpt lat="46.02724" lon="-1.04783">
        <ele>49.240543</ele>
        <time>2022-12-21T12:27:32.335Z</time>
      </trkpt>
      <trkpt lat="46.02714" lon="-1.04779">
        <ele>49.177041</ele>
        <time>2022-12-21T12:27:35.340Z</time>
      </trkpt>
      <trkpt lat="46.02703" lon="-1.04776">
        <ele>49.110743</ele>
        <time>2022-12-21T12:27:38.342Z</time>
      </trkpt>
      <trkpt lat="46.02693" lon="-1.04773">
        <ele>49.044281</ele>
        <time>2022-12-21T12:27:41.338Z</time>
      </trkpt>
      <trkpt lat="46.02682" lon="-1.0477">
        <ele>48.974245</ele>
        <time>2022-12-21T12:27:45.343Z</time>
      </trkpt>
      <trkpt lat="46.02672" lon="-1.04766">
        <ele>48.914674</ele>
        <time>2022-12-21T12:27:49.338Z</time>
      </trkpt>
      <trkpt lat="46.02662" lon="-1.04763">
        <ele>48.846128</ele>
        <time>2022-12-21T12:27:53.322Z</time>
      </trkpt>
      <trkpt lat="46.02653" lon="-1.0476">
        <ele>48.814964</ele>
        <time>2022-12-21T12:27:56.340Z</time>
      </trkpt>
      <trkpt lat="46.02643" lon="-1.04757">
        <ele>48.803482</ele>
        <time>2022-12-21T12:27:59.343Z</time>
      </trkpt>
      <trkpt lat="46.02635" lon="-1.04754">
        <ele>48.792271</ele>
        <time>2022-12-21T12:28:02.337Z</time>
      </trkpt>
      <trkpt lat="46.02625" lon="-1.04751">
        <ele>48.780702</ele>
        <time>2022-12-21T12:28:05.344Z</time>
      </trkpt>
      <trkpt lat="46.02616" lon="-1.04749">
        <ele>48.768893</ele>
        <time>2022-12-21T12:28:08.342Z</time>
      </trkpt>
      <trkpt lat="46.02604" lon="-1.04744">
        <ele>48.754084</ele>
        <time>2022-12-21T12:28:12.324Z</time>
      </trkpt>
      <trkpt lat="46.02594" lon="-1.04741">
        <ele>48.741777</ele>
        <time>2022-12-21T12:28:15.344Z</time>
      </trkpt>
      <trkpt lat="46.02585" lon="-1.04739">
        <ele>48.729799</ele>
        <time>2022-12-21T12:28:18.341Z</time>
      </trkpt>
      <trkpt lat="46.02574" lon="-1.04736">
        <ele>48.717132</ele>
        <time>2022-12-21T12:28:21.343Z</time>
      </trkpt>
      <trkpt lat="46.02564" lon="-1.04733">
        <ele>48.703833</ele>
        <time>2022-12-21T12:28:24.321Z</time>
      </trkpt>
      <trkpt lat="46.02553" lon="-1.04729">
        <ele>48.690452</ele>
        <time>2022-12-21T12:28:27.338Z</time>
      </trkpt>
      <trkpt lat="46.02542" lon="-1.04725">
        <ele>48.676233</ele>
        <time>2022-12-21T12:28:30.345Z</time>
      </trkpt>
      <trkpt lat="46.02531" lon="-1.04721">
        <ele>48.662538</ele>
        <time>2022-12-21T12:28:33.340Z</time>
      </trkpt>
      <trkpt lat="46.0252" lon="-1.04717">
        <ele>48.64922</ele>
        <time>2022-12-21T12:28:36.329Z</time>
      </trkpt>
      <trkpt lat="46.02509" lon="-1.04715">
        <ele>48.634943</ele>
        <time>2022-12-21T12:28:39.340Z</time>
      </trkpt>
      <trkpt lat="46.02497" lon="-1.04711">
        <ele>48.620037</ele>
        <time>2022-12-21T12:28:42.340Z</time>
      </trkpt>
      <trkpt lat="46.02486" lon="-1.04707">
        <ele>48.605728</ele>
        <time>2022-12-21T12:28:45.346Z</time>
      </trkpt>
      <trkpt lat="46.02474" lon="-1.04703">
        <ele>48.622069</ele>
        <time>2022-12-21T12:28:48.345Z</time>
      </trkpt>
      <trkpt lat="46.02464" lon="-1.04701">
        <ele>48.648544</ele>
        <time>2022-12-21T12:28:51.350Z</time>
      </trkpt>
      <trkpt lat="46.02454" lon="-1.04697">
        <ele>48.675385</ele>
        <time>2022-12-21T12:28:54.344Z</time>
      </trkpt>
      <trkpt lat="46.02443" lon="-1.04694">
        <ele>48.703898</ele>
        <time>2022-12-21T12:28:57.342Z</time>
      </trkpt>
      <trkpt lat="46.02433" lon="-1.0469">
        <ele>48.73323</ele>
        <time>2022-12-21T12:29:00.330Z</time>
      </trkpt>
      <trkpt lat="46.02422" lon="-1.04688">
        <ele>48.761258</ele>
        <time>2022-12-21T12:29:03.352Z</time>
      </trkpt>
      <trkpt lat="46.02411" lon="-1.04684">
        <ele>48.791042</ele>
        <time>2022-12-21T12:29:06.341Z</time>
      </trkpt>
      <trkpt lat="46.02399" lon="-1.04681">
        <ele>48.82104</ele>
        <time>2022-12-21T12:29:09.352Z</time>
      </trkpt>
      <trkpt lat="46.02388" lon="-1.04678">
        <ele>48.851853</ele>
        <time>2022-12-21T12:29:12.329Z</time>
      </trkpt>
      <trkpt lat="46.02377" lon="-1.04675">
        <ele>48.879493</ele>
        <time>2022-12-21T12:29:15.343Z</time>
      </trkpt>
      <trkpt lat="46.02366" lon="-1.04671">
        <ele>48.90919</ele>
        <time>2022-12-21T12:29:19.346Z</time>
      </trkpt>
      <trkpt lat="46.02358" lon="-1.04667">
        <ele>48.932538</ele>
        <time>2022-12-21T12:29:22.322Z</time>
      </trkpt>
      <trkpt lat="46.02347" lon="-1.04664">
        <ele>48.96022</ele>
        <time>2022-12-21T12:29:25.343Z</time>
      </trkpt>
      <trkpt lat="46.02336" lon="-1.04662">
        <ele>48.989664</ele>
        <time>2022-12-21T12:29:28.340Z</time>
      </trkpt>
      <trkpt lat="46.02325" lon="-1.04658">
        <ele>49.018649</ele>
        <time>2022-12-21T12:29:31.343Z</time>
      </trkpt>
      <trkpt lat="46.02313" lon="-1.04655">
        <ele>49.05068</ele>
        <time>2022-12-21T12:29:34.317Z</time>
      </trkpt>
      <trkpt lat="46.02301" lon="-1.0465">
        <ele>49.089655</ele>
        <time>2022-12-21T12:29:37.343Z</time>
      </trkpt>
      <trkpt lat="46.02289" lon="-1.04647">
        <ele>49.134737</ele>
        <time>2022-12-21T12:29:40.341Z</time>
      </trkpt>
      <trkpt lat="46.02279" lon="-1.04643">
        <ele>49.173863</ele>
        <time>2022-12-21T12:29:43.349Z</time>
      </trkpt>
      <trkpt lat="46.02269" lon="-1.0464">
        <ele>49.209734</ele>
        <time>2022-12-21T12:29:46.322Z</time>
      </trkpt>
      <trkpt lat="46.02258" lon="-1.04636">
        <ele>49.251138</ele>
        <time>2022-12-21T12:29:50.339Z</time>
      </trkpt>
      <trkpt lat="46.02249" lon="-1.04633">
        <ele>49.287089</ele>
        <time>2022-12-21T12:29:54.324Z</time>
      </trkpt>
      <trkpt lat="46.02238" lon="-1.0463">
        <ele>49.326989</ele>
        <time>2022-12-21T12:29:58.331Z</time>
      </trkpt>
      <trkpt lat="46.02227" lon="-1.04626">
        <ele>49.371293</ele>
        <time>2022-12-21T12:30:02.324Z</time>
      </trkpt>
      <trkpt lat="46.02217" lon="-1.04623">
        <ele>49.407768</ele>
        <time>2022-12-21T12:30:05.344Z</time>
      </trkpt>
      <trkpt lat="46.02208" lon="-1.0462">
        <ele>49.443406</ele>
        <time>2022-12-21T12:30:08.343Z</time>
      </trkpt>
      <trkpt lat="46.02198" lon="-1.04617">
        <ele>49.478165</ele>
        <time>2022-12-21T12:30:11.342Z</time>
      </trkpt>
      <trkpt lat="46.02187" lon="-1.04614">
        <ele>49.52169</ele>
        <time>2022-12-21T12:30:14.329Z</time>
      </trkpt>
      <trkpt lat="46.02175" lon="-1.0461">
        <ele>49.565377</ele>
        <time>2022-12-21T12:30:17.353Z</time>
      </trkpt>
      <trkpt lat="46.02165" lon="-1.04607">
        <ele>49.606781</ele>
        <time>2022-12-21T12:30:20.341Z</time>
      </trkpt>
      <trkpt lat="46.02154" lon="-1.04603">
        <ele>49.646332</ele>
        <time>2022-12-21T12:30:23.348Z</time>
      </trkpt>
      <trkpt lat="46.02145" lon="-1.04598">
        <ele>49.682706</ele>
        <time>2022-12-21T12:30:26.342Z</time>
      </trkpt>
      <trkpt lat="46.02136" lon="-1.04593">
        <ele>49.717531</ele>
        <time>2022-12-21T12:30:29.341Z</time>
      </trkpt>
      <trkpt lat="46.02128" lon="-1.04588">
        <ele>49.782319</ele>
        <time>2022-12-21T12:30:32.340Z</time>
      </trkpt>
      <trkpt lat="46.02119" lon="-1.04581">
        <ele>49.877736</ele>
        <time>2022-12-21T12:30:35.317Z</time>
      </trkpt>
      <trkpt lat="46.02111" lon="-1.04575">
        <ele>49.970637</ele>
        <time>2022-12-21T12:30:38.339Z</time>
      </trkpt>
      <trkpt lat="46.02101" lon="-1.04567">
        <ele>50.085485</ele>
        <time>2022-12-21T12:30:42.342Z</time>
      </trkpt>
      <trkpt lat="46.0209" lon="-1.04561">
        <ele>50.202358</ele>
        <time>2022-12-21T12:30:46.330Z</time>
      </trkpt>
      <trkpt lat="46.02079" lon="-1.04562">
        <ele>50.311167</ele>
        <time>2022-12-21T12:30:50.326Z</time>
      </trkpt>
      <trkpt lat="46.02074" lon="-1.04575">
        <ele>50.418202</ele>
        <time>2022-12-21T12:30:55.322Z</time>
      </trkpt>
      <trkpt lat="46.02073" lon="-1.04589">
        <ele>50.511764</ele>
        <time>2022-12-21T12:30:59.341Z</time>
      </trkpt>
      <trkpt lat="46.02073" lon="-1.04603">
        <ele>50.615023</ele>
        <time>2022-12-21T12:31:03.340Z</time>
      </trkpt>
      <trkpt lat="46.02071" lon="-1.04617">
        <ele>50.713531</ele>
        <time>2022-12-21T12:31:07.337Z</time>
      </trkpt>
      <trkpt lat="46.02069" lon="-1.0463">
        <ele>50.803501</ele>
        <time>2022-12-21T12:31:11.325Z</time>
      </trkpt>
      <trkpt lat="46.02063" lon="-1.04642">
        <ele>50.904757</ele>
        <time>2022-12-21T12:31:15.342Z</time>
      </trkpt>
      <trkpt lat="46.02055" lon="-1.0465">
        <ele>51.001886</ele>
        <time>2022-12-21T12:31:19.340Z</time>
      </trkpt>
      <trkpt lat="46.02046" lon="-1.04655">
        <ele>51.095174</ele>
        <time>2022-12-21T12:31:24.333Z</time>
      </trkpt>
      <trkpt lat="46.02038" lon="-1.04662">
        <ele>51.192162</ele>
        <time>2022-12-21T12:31:29.328Z</time>
      </trkpt>
      <trkpt lat="46.02035" lon="-1.04676">
        <ele>51.294217</ele>
        <time>2022-12-21T12:31:34.334Z</time>
      </trkpt>
      <trkpt lat="46.02035" lon="-1.04691">
        <ele>51.395562</ele>
        <time>2022-12-21T12:31:38.327Z</time>
      </trkpt>
      <trkpt lat="46.02037" lon="-1.04707">
        <ele>51.507123</ele>
        <time>2022-12-21T12:31:42.341Z</time>
      </trkpt>
      <trkpt lat="46.02038" lon="-1.0472">
        <ele>51.607179</ele>
        <time>2022-12-21T12:31:45.353Z</time>
      </trkpt>
      <trkpt lat="46.02039" lon="-1.04733">
        <ele>51.709626</ele>
        <time>2022-12-21T12:31:48.344Z</time>
      </trkpt>
      <trkpt lat="46.0204" lon="-1.04747">
        <ele>51.82422</ele>
        <time>2022-12-21T12:31:51.343Z</time>
      </trkpt>
      <trkpt lat="46.0204" lon="-1.04762">
        <ele>51.942873</ele>
        <time>2022-12-21T12:31:54.339Z</time>
      </trkpt>
      <trkpt lat="46.02033" lon="-1.04774">
        <ele>52.065636</ele>
        <time>2022-12-21T12:31:57.330Z</time>
      </trkpt>
      <trkpt lat="46.02024" lon="-1.0478">
        <ele>52.172446</ele>
        <time>2022-12-21T12:32:00.328Z</time>
      </trkpt>
      <trkpt lat="46.02013" lon="-1.04783">
        <ele>52.296934</ele>
        <time>2022-12-21T12:32:05.327Z</time>
      </trkpt>
      <trkpt lat="46.02004" lon="-1.04784">
        <ele>52.400897</ele>
        <time>2022-12-21T12:32:09.340Z</time>
      </trkpt>
      <trkpt lat="46.01994" lon="-1.04785">
        <ele>52.524573</ele>
        <time>2022-12-21T12:32:13.321Z</time>
      </trkpt>
      <trkpt lat="46.01982" lon="-1.04786">
        <ele>52.653298</ele>
        <time>2022-12-21T12:32:17.343Z</time>
      </trkpt>
      <trkpt lat="46.01973" lon="-1.04783">
        <ele>52.759407</ele>
        <time>2022-12-21T12:32:20.321Z</time>
      </trkpt>
      <trkpt lat="46.01964" lon="-1.04781">
        <ele>52.862855</ele>
        <time>2022-12-21T12:32:23.320Z</time>
      </trkpt>
      <trkpt lat="46.01953" lon="-1.04778">
        <ele>52.986466</ele>
        <time>2022-12-21T12:32:27.337Z</time>
      </trkpt>
      <trkpt lat="46.01943" lon="-1.04775">
        <ele>53.108255</ele>
        <time>2022-12-21T12:32:31.320Z</time>
      </trkpt>
      <trkpt lat="46.01932" lon="-1.04772">
        <ele>53.231963</ele>
        <time>2022-12-21T12:32:35.341Z</time>
      </trkpt>
      <trkpt lat="46.01922" lon="-1.04769">
        <ele>53.350949</ele>
        <time>2022-12-21T12:32:39.341Z</time>
      </trkpt>
      <trkpt lat="46.01911" lon="-1.04766">
        <ele>53.477785</ele>
        <time>2022-12-21T12:32:43.340Z</time>
      </trkpt>
      <trkpt lat="46.019" lon="-1.04763">
        <ele>53.600255</ele>
        <time>2022-12-21T12:32:48.324Z</time>
      </trkpt>
      <trkpt lat="46.01889" lon="-1.04763">
        <ele>53.688922</ele>
        <time>2022-12-21T12:32:52.322Z</time>
      </trkpt>
      <trkpt lat="46.01878" lon="-1.04764">
        <ele>53.781011</ele>
        <time>2022-12-21T12:32:56.341Z</time>
      </trkpt>
      <trkpt lat="46.01867" lon="-1.04766">
        <ele>53.873445</ele>
        <time>2022-12-21T12:33:00.323Z</time>
      </trkpt>
      <trkpt lat="46.01856" lon="-1.04768">
        <ele>53.965546</ele>
        <time>2022-12-21T12:33:04.322Z</time>
      </trkpt>
      <trkpt lat="46.01845" lon="-1.04772">
        <ele>54.057002</ele>
        <time>2022-12-21T12:33:08.341Z</time>
      </trkpt>
      <trkpt lat="46.01836" lon="-1.04776">
        <ele>54.134787</ele>
        <time>2022-12-21T12:33:12.340Z</time>
      </trkpt>
      <trkpt lat="46.01827" lon="-1.04781">
        <ele>54.218998</ele>
        <time>2022-12-21T12:33:16.343Z</time>
      </trkpt>
      <trkpt lat="46.01818" lon="-1.04788">
        <ele>54.305486</ele>
        <time>2022-12-21T12:33:20.350Z</time>
      </trkpt>
      <trkpt lat="46.01809" lon="-1.04795">
        <ele>54.390702</ele>
        <time>2022-12-21T12:33:24.341Z</time>
      </trkpt>
      <trkpt lat="46.018" lon="-1.04802">
        <ele>54.473727</ele>
        <time>2022-12-21T12:33:28.335Z</time>
      </trkpt>
      <trkpt lat="46.01792" lon="-1.0481">
        <ele>54.553748</ele>
        <time>2022-12-21T12:33:32.335Z</time>
      </trkpt>
      <trkpt lat="46.01784" lon="-1.04816">
        <ele>54.629702</ele>
        <time>2022-12-21T12:33:36.329Z</time>
      </trkpt>
      <trkpt lat="46.01774" lon="-1.04824">
        <ele>54.721758</ele>
        <time>2022-12-21T12:33:41.320Z</time>
      </trkpt>
      <trkpt lat="46.01766" lon="-1.04831">
        <ele>54.800234</ele>
        <time>2022-12-21T12:33:45.341Z</time>
      </trkpt>
      <trkpt lat="46.01758" lon="-1.04839">
        <ele>54.87763</ele>
        <time>2022-12-21T12:33:49.365Z</time>
      </trkpt>
      <trkpt lat="46.0175" lon="-1.04845">
        <ele>54.954185</ele>
        <time>2022-12-21T12:33:53.314Z</time>
      </trkpt>
      <trkpt lat="46.01742" lon="-1.04853">
        <ele>55.037494</ele>
        <time>2022-12-21T12:33:57.318Z</time>
      </trkpt>
      <trkpt lat="46.01733" lon="-1.04861">
        <ele>55.051944</ele>
        <time>2022-12-21T12:34:01.330Z</time>
      </trkpt>
      <trkpt lat="46.01724" lon="-1.04868">
        <ele>55.024725</ele>
        <time>2022-12-21T12:34:05.330Z</time>
      </trkpt>
      <trkpt lat="46.01714" lon="-1.04876">
        <ele>54.996442</ele>
        <time>2022-12-21T12:34:09.339Z</time>
      </trkpt>
      <trkpt lat="46.01704" lon="-1.04883">
        <ele>54.967541</ele>
        <time>2022-12-21T12:34:13.331Z</time>
      </trkpt>
      <trkpt lat="46.01696" lon="-1.0489">
        <ele>54.944217</ele>
        <time>2022-12-21T12:34:17.341Z</time>
      </trkpt>
      <trkpt lat="46.01688" lon="-1.04894">
        <ele>54.92123</ele>
        <time>2022-12-21T12:34:22.331Z</time>
      </trkpt>
      <trkpt lat="46.01679" lon="-1.04901">
        <ele>54.895233</ele>
        <time>2022-12-21T12:34:26.328Z</time>
      </trkpt>
      <trkpt lat="46.01671" lon="-1.04906">
        <ele>54.872008</ele>
        <time>2022-12-21T12:34:29.343Z</time>
      </trkpt>
      <trkpt lat="46.01662" lon="-1.04911">
        <ele>54.848589</ele>
        <time>2022-12-21T12:34:32.340Z</time>
      </trkpt>
      <trkpt lat="46.01651" lon="-1.04919">
        <ele>54.818072</ele>
        <time>2022-12-21T12:34:36.327Z</time>
      </trkpt>
      <trkpt lat="46.01642" lon="-1.04924">
        <ele>54.793534</ele>
        <time>2022-12-21T12:34:39.352Z</time>
      </trkpt>
      <trkpt lat="46.01633" lon="-1.04926">
        <ele>54.768469</ele>
        <time>2022-12-21T12:34:42.330Z</time>
      </trkpt>
      <trkpt lat="46.01623" lon="-1.04922">
        <ele>54.743152</ele>
        <time>2022-12-21T12:34:45.330Z</time>
      </trkpt>
      <trkpt lat="46.01613" lon="-1.04912">
        <ele>54.712422</ele>
        <time>2022-12-21T12:34:49.316Z</time>
      </trkpt>
      <trkpt lat="46.01604" lon="-1.04907">
        <ele>54.687787</ele>
        <time>2022-12-21T12:34:52.340Z</time>
      </trkpt>
      <trkpt lat="46.01595" lon="-1.04903">
        <ele>54.662074</ele>
        <time>2022-12-21T12:34:55.331Z</time>
      </trkpt>
      <trkpt lat="46.01585" lon="-1.049">
        <ele>54.636041</ele>
        <time>2022-12-21T12:34:58.333Z</time>
      </trkpt>
      <trkpt lat="46.01575" lon="-1.04897">
        <ele>54.610626</ele>
        <time>2022-12-21T12:35:01.340Z</time>
      </trkpt>
      <trkpt lat="46.01566" lon="-1.04894">
        <ele>54.586919</ele>
        <time>2022-12-21T12:35:04.341Z</time>
      </trkpt>
      <trkpt lat="46.01557" lon="-1.04892">
        <ele>54.564036</ele>
        <time>2022-12-21T12:35:07.340Z</time>
      </trkpt>
      <trkpt lat="46.01548" lon="-1.0489">
        <ele>54.541531</ele>
        <time>2022-12-21T12:35:10.356Z</time>
      </trkpt>
      <trkpt lat="46.01539" lon="-1.04888">
        <ele>54.518555</ele>
        <time>2022-12-21T12:35:13.342Z</time>
      </trkpt>
      <trkpt lat="46.0153" lon="-1.04886">
        <ele>54.495056</ele>
        <time>2022-12-21T12:35:16.329Z</time>
      </trkpt>
      <trkpt lat="46.01521" lon="-1.04885">
        <ele>54.472076</ele>
        <time>2022-12-21T12:35:19.341Z</time>
      </trkpt>
      <trkpt lat="46.01511" lon="-1.04882">
        <ele>54.448451</ele>
        <time>2022-12-21T12:35:22.340Z</time>
      </trkpt>
      <trkpt lat="46.01502" lon="-1.04883">
        <ele>54.425133</ele>
        <time>2022-12-21T12:35:25.323Z</time>
      </trkpt>
      <trkpt lat="46.0149" lon="-1.04885">
        <ele>54.395868</ele>
        <time>2022-12-21T12:35:29.339Z</time>
      </trkpt>
      <trkpt lat="46.01479" lon="-1.04889">
        <ele>54.366384</ele>
        <time>2022-12-21T12:35:33.342Z</time>
      </trkpt>
      <trkpt lat="46.0147" lon="-1.04894">
        <ele>54.343506</ele>
        <time>2022-12-21T12:35:36.343Z</time>
      </trkpt>
      <trkpt lat="46.01462" lon="-1.04899">
        <ele>54.320619</ele>
        <time>2022-12-21T12:35:39.351Z</time>
      </trkpt>
      <trkpt lat="46.01453" lon="-1.04904">
        <ele>54.296502</ele>
        <time>2022-12-21T12:35:42.339Z</time>
      </trkpt>
      <trkpt lat="46.01443" lon="-1.0491">
        <ele>54.269141</ele>
        <time>2022-12-21T12:35:46.317Z</time>
      </trkpt>
      <trkpt lat="46.01432" lon="-1.04917">
        <ele>54.239932</ele>
        <time>2022-12-21T12:35:50.352Z</time>
      </trkpt>
      <trkpt lat="46.01423" lon="-1.04921">
        <ele>54.214808</ele>
        <time>2022-12-21T12:35:53.343Z</time>
      </trkpt>
      <trkpt lat="46.01413" lon="-1.04925">
        <ele>54.190238</ele>
        <time>2022-12-21T12:35:56.350Z</time>
      </trkpt>
      <trkpt lat="46.01404" lon="-1.04929">
        <ele>54.164725</ele>
        <time>2022-12-21T12:35:59.333Z</time>
      </trkpt>
      <trkpt lat="46.01393" lon="-1.0493">
        <ele>53.999769</ele>
        <time>2022-12-21T12:36:02.338Z</time>
      </trkpt>
      <trkpt lat="46.01382" lon="-1.0493">
        <ele>53.790767</ele>
        <time>2022-12-21T12:36:05.343Z</time>
      </trkpt>
      <trkpt lat="46.01372" lon="-1.04929">
        <ele>53.589604</ele>
        <time>2022-12-21T12:36:08.321Z</time>
      </trkpt>
      <trkpt lat="46.01362" lon="-1.04927">
        <ele>53.384211</ele>
        <time>2022-12-21T12:36:11.346Z</time>
      </trkpt>
      <trkpt lat="46.01352" lon="-1.04925">
        <ele>53.178256</ele>
        <time>2022-12-21T12:36:14.323Z</time>
      </trkpt>
      <trkpt lat="46.01342" lon="-1.04921">
        <ele>52.970234</ele>
        <time>2022-12-21T12:36:17.339Z</time>
      </trkpt>
      <trkpt lat="46.01331" lon="-1.04917">
        <ele>52.750988</ele>
        <time>2022-12-21T12:36:20.339Z</time>
      </trkpt>
      <trkpt lat="46.0132" lon="-1.04912">
        <ele>52.51961</ele>
        <time>2022-12-21T12:36:23.340Z</time>
      </trkpt>
      <trkpt lat="46.01309" lon="-1.04908">
        <ele>52.296692</ele>
        <time>2022-12-21T12:36:26.340Z</time>
      </trkpt>
      <trkpt lat="46.01299" lon="-1.04903">
        <ele>52.08755</ele>
        <time>2022-12-21T12:36:29.340Z</time>
      </trkpt>
      <trkpt lat="46.01289" lon="-1.04899">
        <ele>51.888668</ele>
        <time>2022-12-21T12:36:32.341Z</time>
      </trkpt>
      <trkpt lat="46.01279" lon="-1.04894">
        <ele>51.679138</ele>
        <time>2022-12-21T12:36:35.345Z</time>
      </trkpt>
      <trkpt lat="46.01269" lon="-1.04889">
        <ele>51.463826</ele>
        <time>2022-12-21T12:36:38.326Z</time>
      </trkpt>
      <trkpt lat="46.01258" lon="-1.04883">
        <ele>51.235388</ele>
        <time>2022-12-21T12:36:41.340Z</time>
      </trkpt>
      <trkpt lat="46.01247" lon="-1.04878">
        <ele>50.999383</ele>
        <time>2022-12-21T12:36:44.326Z</time>
      </trkpt>
      <trkpt lat="46.01236" lon="-1.04873">
        <ele>50.762302</ele>
        <time>2022-12-21T12:36:47.341Z</time>
      </trkpt>
      <trkpt lat="46.01224" lon="-1.04867">
        <ele>50.544654</ele>
        <time>2022-12-21T12:36:50.343Z</time>
      </trkpt>
      <trkpt lat="46.01212" lon="-1.04862">
        <ele>50.401104</ele>
        <time>2022-12-21T12:36:53.326Z</time>
      </trkpt>
      <trkpt lat="46.01201" lon="-1.04856">
        <ele>50.260439</ele>
        <time>2022-12-21T12:36:56.351Z</time>
      </trkpt>
      <trkpt lat="46.0119" lon="-1.04851">
        <ele>50.124936</ele>
        <time>2022-12-21T12:36:59.347Z</time>
      </trkpt>
      <trkpt lat="46.0118" lon="-1.04846">
        <ele>50.006278</ele>
        <time>2022-12-21T12:37:02.349Z</time>
      </trkpt>
      <trkpt lat="46.01169" lon="-1.0484">
        <ele>49.873732</ele>
        <time>2022-12-21T12:37:06.343Z</time>
      </trkpt>
      <trkpt lat="46.01158" lon="-1.04835">
        <ele>49.743116</ele>
        <time>2022-12-21T12:37:10.345Z</time>
      </trkpt>
      <trkpt lat="46.0115" lon="-1.04829">
        <ele>49.634435</ele>
        <time>2022-12-21T12:37:13.340Z</time>
      </trkpt>
      <trkpt lat="46.01142" lon="-1.0482">
        <ele>49.520615</ele>
        <time>2022-12-21T12:37:16.329Z</time>
      </trkpt>
      <trkpt lat="46.01138" lon="-1.04807">
        <ele>49.400783</ele>
        <time>2022-12-21T12:37:19.331Z</time>
      </trkpt>
      <trkpt lat="46.01134" lon="-1.04792">
        <ele>49.273552</ele>
        <time>2022-12-21T12:37:22.349Z</time>
      </trkpt>
      <trkpt lat="46.01133" lon="-1.04776">
        <ele>49.140426</ele>
        <time>2022-12-21T12:37:25.331Z</time>
      </trkpt>
      <trkpt lat="46.01131" lon="-1.04759">
        <ele>49.007521</ele>
        <time>2022-12-21T12:37:28.322Z</time>
      </trkpt>
      <trkpt lat="46.01128" lon="-1.04742">
        <ele>48.869233</ele>
        <time>2022-12-21T12:37:31.333Z</time>
      </trkpt>
      <trkpt lat="46.01126" lon="-1.04726">
        <ele>48.734317</ele>
        <time>2022-12-21T12:37:34.337Z</time>
      </trkpt>
      <trkpt lat="46.01122" lon="-1.04709">
        <ele>48.596772</ele>
        <time>2022-12-21T12:37:37.323Z</time>
      </trkpt>
      <trkpt lat="46.0112" lon="-1.04695">
        <ele>48.495579</ele>
        <time>2022-12-21T12:37:40.342Z</time>
      </trkpt>
      <trkpt lat="46.01117" lon="-1.04682">
        <ele>48.467401</ele>
        <time>2022-12-21T12:37:43.337Z</time>
      </trkpt>
      <trkpt lat="46.01114" lon="-1.04666">
        <ele>48.432285</ele>
        <time>2022-12-21T12:37:47.339Z</time>
      </trkpt>
      <trkpt lat="46.01111" lon="-1.04652">
        <ele>48.402291</ele>
        <time>2022-12-21T12:37:50.345Z</time>
      </trkpt>
      <trkpt lat="46.01107" lon="-1.04638">
        <ele>48.371514</ele>
        <time>2022-12-21T12:37:53.330Z</time>
      </trkpt>
      <trkpt lat="46.01098" lon="-1.04631">
        <ele>48.341434</ele>
        <time>2022-12-21T12:37:56.331Z</time>
      </trkpt>
      <trkpt lat="46.01088" lon="-1.04633">
        <ele>48.311626</ele>
        <time>2022-12-21T12:37:59.324Z</time>
      </trkpt>
      <trkpt lat="46.01079" lon="-1.04637">
        <ele>48.281119</ele>
        <time>2022-12-21T12:38:02.329Z</time>
      </trkpt>
      <trkpt lat="46.0107" lon="-1.04645">
        <ele>48.250097</ele>
        <time>2022-12-21T12:38:05.339Z</time>
      </trkpt>
      <trkpt lat="46.01062" lon="-1.04653">
        <ele>48.219879</ele>
        <time>2022-12-21T12:38:08.351Z</time>
      </trkpt>
      <trkpt lat="46.01053" lon="-1.04663">
        <ele>48.187918</ele>
        <time>2022-12-21T12:38:11.343Z</time>
      </trkpt>
      <trkpt lat="46.01044" lon="-1.04673">
        <ele>48.15441</ele>
        <time>2022-12-21T12:38:14.343Z</time>
      </trkpt>
      <trkpt lat="46.01035" lon="-1.04682">
        <ele>48.120156</ele>
        <time>2022-12-21T12:38:17.350Z</time>
      </trkpt>
      <trkpt lat="46.01025" lon="-1.04689">
        <ele>48.085848</ele>
        <time>2022-12-21T12:38:20.334Z</time>
      </trkpt>
      <trkpt lat="46.01014" lon="-1.04696">
        <ele>48.050073</ele>
        <time>2022-12-21T12:38:23.338Z</time>
      </trkpt>
      <trkpt lat="46.01003" lon="-1.04703">
        <ele>48.014412</ele>
        <time>2022-12-21T12:38:26.341Z</time>
      </trkpt>
      <trkpt lat="46.00992" lon="-1.04709">
        <ele>47.98046</ele>
        <time>2022-12-21T12:38:29.354Z</time>
      </trkpt>
      <trkpt lat="46.00982" lon="-1.04714">
        <ele>47.993694</ele>
        <time>2022-12-21T12:38:32.341Z</time>
      </trkpt>
      <trkpt lat="46.00971" lon="-1.04718">
        <ele>48.060051</ele>
        <time>2022-12-21T12:38:35.330Z</time>
      </trkpt>
      <trkpt lat="46.0096" lon="-1.04718">
        <ele>48.128483</ele>
        <time>2022-12-21T12:38:38.321Z</time>
      </trkpt>
      <trkpt lat="46.0095" lon="-1.04718">
        <ele>48.187919</ele>
        <time>2022-12-21T12:38:41.352Z</time>
      </trkpt>
      <trkpt lat="46.0094" lon="-1.04715">
        <ele>48.24982</ele>
        <time>2022-12-21T12:38:45.332Z</time>
      </trkpt>
      <trkpt lat="46.0093" lon="-1.04709">
        <ele>48.312954</ele>
        <time>2022-12-21T12:38:49.329Z</time>
      </trkpt>
      <trkpt lat="46.0092" lon="-1.04702">
        <ele>48.380777</ele>
        <time>2022-12-21T12:38:53.321Z</time>
      </trkpt>
      <trkpt lat="46.00911" lon="-1.04697">
        <ele>48.437115</ele>
        <time>2022-12-21T12:38:56.327Z</time>
      </trkpt>
      <trkpt lat="46.00902" lon="-1.04692">
        <ele>48.496848</ele>
        <time>2022-12-21T12:38:59.343Z</time>
      </trkpt>
      <trkpt lat="46.00892" lon="-1.04687">
        <ele>48.555873</ele>
        <time>2022-12-21T12:39:02.349Z</time>
      </trkpt>
      <trkpt lat="46.00883" lon="-1.04682">
        <ele>48.616935</ele>
        <time>2022-12-21T12:39:05.341Z</time>
      </trkpt>
      <trkpt lat="46.00874" lon="-1.04677">
        <ele>48.676136</ele>
        <time>2022-12-21T12:39:08.347Z</time>
      </trkpt>
      <trkpt lat="46.00864" lon="-1.04673">
        <ele>48.739277</ele>
        <time>2022-12-21T12:39:11.337Z</time>
      </trkpt>
      <trkpt lat="46.00853" lon="-1.04667">
        <ele>48.806487</ele>
        <time>2022-12-21T12:39:14.340Z</time>
      </trkpt>
      <trkpt lat="46.00843" lon="-1.04662">
        <ele>48.871155</ele>
        <time>2022-12-21T12:39:17.343Z</time>
      </trkpt>
      <trkpt lat="46.00833" lon="-1.04656">
        <ele>48.934849</ele>
        <time>2022-12-21T12:39:20.342Z</time>
      </trkpt>
      <trkpt lat="46.00823" lon="-1.04651">
        <ele>48.999391</ele>
        <time>2022-12-21T12:39:23.344Z</time>
      </trkpt>
      <trkpt lat="46.00813" lon="-1.04646">
        <ele>49.029356</ele>
        <time>2022-12-21T12:39:26.346Z</time>
      </trkpt>
      <trkpt lat="46.00803" lon="-1.0464">
        <ele>48.993189</ele>
        <time>2022-12-21T12:39:29.342Z</time>
      </trkpt>
      <trkpt lat="46.00792" lon="-1.04635">
        <ele>48.955027</ele>
        <time>2022-12-21T12:39:32.340Z</time>
      </trkpt>
      <trkpt lat="46.00781" lon="-1.0463">
        <ele>48.916466</ele>
        <time>2022-12-21T12:39:35.341Z</time>
      </trkpt>
      <trkpt lat="46.00771" lon="-1.04624">
        <ele>48.87774</ele>
        <time>2022-12-21T12:39:38.343Z</time>
      </trkpt>
      <trkpt lat="46.0076" lon="-1.04619">
        <ele>48.841245</ele>
        <time>2022-12-21T12:39:41.326Z</time>
      </trkpt>
      <trkpt lat="46.0075" lon="-1.04613">
        <ele>48.803621</ele>
        <time>2022-12-21T12:39:44.342Z</time>
      </trkpt>
      <trkpt lat="46.00739" lon="-1.04608">
        <ele>48.764661</ele>
        <time>2022-12-21T12:39:47.353Z</time>
      </trkpt>
      <trkpt lat="46.0073" lon="-1.04602">
        <ele>48.730085</ele>
        <time>2022-12-21T12:39:50.340Z</time>
      </trkpt>
      <trkpt lat="46.00721" lon="-1.04597">
        <ele>48.698709</ele>
        <time>2022-12-21T12:39:53.330Z</time>
      </trkpt>
      <trkpt lat="46.00713" lon="-1.04593">
        <ele>48.667412</ele>
        <time>2022-12-21T12:39:56.348Z</time>
      </trkpt>
      <trkpt lat="46.00703" lon="-1.04588">
        <ele>48.634037</ele>
        <time>2022-12-21T12:39:59.343Z</time>
      </trkpt>
      <trkpt lat="46.00693" lon="-1.04582">
        <ele>48.59787</ele>
        <time>2022-12-21T12:40:02.342Z</time>
      </trkpt>
      <trkpt lat="46.00683" lon="-1.04577">
        <ele>48.558989</ele>
        <time>2022-12-21T12:40:05.318Z</time>
      </trkpt>
      <trkpt lat="46.00671" lon="-1.04572">
        <ele>48.51912</ele>
        <time>2022-12-21T12:40:08.340Z</time>
      </trkpt>
      <trkpt lat="46.00661" lon="-1.04566">
        <ele>48.479659</ele>
        <time>2022-12-21T12:40:11.341Z</time>
      </trkpt>
      <trkpt lat="46.00651" lon="-1.04561">
        <ele>48.445393</ele>
        <time>2022-12-21T12:40:14.331Z</time>
      </trkpt>
      <trkpt lat="46.00641" lon="-1.04555">
        <ele>48.434096</ele>
        <time>2022-12-21T12:40:18.328Z</time>
      </trkpt>
      <trkpt lat="46.00631" lon="-1.0455">
        <ele>48.437845</ele>
        <time>2022-12-21T12:40:23.332Z</time>
      </trkpt>
      <trkpt lat="46.00622" lon="-1.04545">
        <ele>48.441015</ele>
        <time>2022-12-21T12:40:26.325Z</time>
      </trkpt>
      <trkpt lat="46.00613" lon="-1.0454">
        <ele>48.444306</ele>
        <time>2022-12-21T12:40:29.351Z</time>
      </trkpt>
      <trkpt lat="46.00604" lon="-1.04535">
        <ele>48.447476</ele>
        <time>2022-12-21T12:40:32.352Z</time>
      </trkpt>
      <trkpt lat="46.00595" lon="-1.0453">
        <ele>48.450731</ele>
        <time>2022-12-21T12:40:35.345Z</time>
      </trkpt>
      <trkpt lat="46.00586" lon="-1.04525">
        <ele>48.453885</ele>
        <time>2022-12-21T12:40:38.325Z</time>
      </trkpt>
      <trkpt lat="46.00576" lon="-1.04521">
        <ele>48.457277</ele>
        <time>2022-12-21T12:40:41.344Z</time>
      </trkpt>
      <trkpt lat="46.00566" lon="-1.04516">
        <ele>48.460809</ele>
        <time>2022-12-21T12:40:44.343Z</time>
      </trkpt>
      <trkpt lat="46.00556" lon="-1.04511">
        <ele>48.464414</ele>
        <time>2022-12-21T12:40:47.316Z</time>
      </trkpt>
      <trkpt lat="46.00546" lon="-1.04506">
        <ele>48.467881</ele>
        <time>2022-12-21T12:40:50.339Z</time>
      </trkpt>
      <trkpt lat="46.00536" lon="-1.045">
        <ele>48.471632</ele>
        <time>2022-12-21T12:40:53.342Z</time>
      </trkpt>
      <trkpt lat="46.00525" lon="-1.04494">
        <ele>48.475483</ele>
        <time>2022-12-21T12:40:56.342Z</time>
      </trkpt>
      <trkpt lat="46.00513" lon="-1.04488">
        <ele>48.479635</ele>
        <time>2022-12-21T12:40:59.342Z</time>
      </trkpt>
      <trkpt lat="46.00501" lon="-1.04482">
        <ele>48.483808</ele>
        <time>2022-12-21T12:41:02.342Z</time>
      </trkpt>
      <trkpt lat="46.00489" lon="-1.04475">
        <ele>48.488061</ele>
        <time>2022-12-21T12:41:05.344Z</time>
      </trkpt>
      <trkpt lat="46.00478" lon="-1.0447">
        <ele>48.494133</ele>
        <time>2022-12-21T12:41:08.326Z</time>
      </trkpt>
      <trkpt lat="46.00468" lon="-1.04464">
        <ele>48.528101</ele>
        <time>2022-12-21T12:41:11.343Z</time>
      </trkpt>
      <trkpt lat="46.00457" lon="-1.04458">
        <ele>48.567011</ele>
        <time>2022-12-21T12:41:15.345Z</time>
      </trkpt>
      <trkpt lat="46.00448" lon="-1.04454">
        <ele>48.599125</ele>
        <time>2022-12-21T12:41:18.345Z</time>
      </trkpt>
      <trkpt lat="46.00439" lon="-1.04449">
        <ele>48.630396</ele>
        <time>2022-12-21T12:41:21.342Z</time>
      </trkpt>
      <trkpt lat="46.0043" lon="-1.04444">
        <ele>48.661827</ele>
        <time>2022-12-21T12:41:24.340Z</time>
      </trkpt>
      <trkpt lat="46.00421" lon="-1.04439">
        <ele>48.693874</ele>
        <time>2022-12-21T12:41:27.340Z</time>
      </trkpt>
      <trkpt lat="46.00412" lon="-1.04434">
        <ele>48.725091</ele>
        <time>2022-12-21T12:41:30.342Z</time>
      </trkpt>
      <trkpt lat="46.00403" lon="-1.0443">
        <ele>48.754995</ele>
        <time>2022-12-21T12:41:33.340Z</time>
      </trkpt>
      <trkpt lat="46.00394" lon="-1.04424">
        <ele>48.788832</ele>
        <time>2022-12-21T12:41:37.322Z</time>
      </trkpt>
      <trkpt lat="46.00384" lon="-1.04419">
        <ele>48.822109</ele>
        <time>2022-12-21T12:41:41.330Z</time>
      </trkpt>
      <trkpt lat="46.00373" lon="-1.04413">
        <ele>48.860655</ele>
        <time>2022-12-21T12:41:45.342Z</time>
      </trkpt>
      <trkpt lat="46.00364" lon="-1.0441">
        <ele>48.890874</ele>
        <time>2022-12-21T12:41:48.342Z</time>
      </trkpt>
      <trkpt lat="46.00355" lon="-1.04405">
        <ele>48.922617</ele>
        <time>2022-12-21T12:41:51.342Z</time>
      </trkpt>
      <trkpt lat="46.00346" lon="-1.044">
        <ele>48.954748</ele>
        <time>2022-12-21T12:41:54.340Z</time>
      </trkpt>
      <trkpt lat="46.00337" lon="-1.04395">
        <ele>48.986053</ele>
        <time>2022-12-21T12:41:57.344Z</time>
      </trkpt>
      <trkpt lat="46.00329" lon="-1.0439">
        <ele>49.016186</ele>
        <time>2022-12-21T12:42:00.342Z</time>
      </trkpt>
      <trkpt lat="46.0032" lon="-1.04385">
        <ele>49.048458</ele>
        <time>2022-12-21T12:42:03.351Z</time>
      </trkpt>
      <trkpt lat="46.00311" lon="-1.0438">
        <ele>49.079763</ele>
        <time>2022-12-21T12:42:06.343Z</time>
      </trkpt>
      <trkpt lat="46.00302" lon="-1.04375">
        <ele>49.04404</ele>
        <time>2022-12-21T12:42:09.344Z</time>
      </trkpt>
      <trkpt lat="46.00291" lon="-1.0437">
        <ele>48.994348</ele>
        <time>2022-12-21T12:42:13.351Z</time>
      </trkpt>
      <trkpt lat="46.00281" lon="-1.04365">
        <ele>48.951908</ele>
        <time>2022-12-21T12:42:16.341Z</time>
      </trkpt>
      <trkpt lat="46.00272" lon="-1.04359">
        <ele>48.907997</ele>
        <time>2022-12-21T12:42:19.343Z</time>
      </trkpt>
      <trkpt lat="46.00262" lon="-1.04354">
        <ele>48.862345</ele>
        <time>2022-12-21T12:42:22.343Z</time>
      </trkpt>
      <trkpt lat="46.00252" lon="-1.04349">
        <ele>48.816889</ele>
        <time>2022-12-21T12:42:25.332Z</time>
      </trkpt>
      <trkpt lat="46.00243" lon="-1.04343">
        <ele>48.772071</ele>
        <time>2022-12-21T12:42:28.345Z</time>
      </trkpt>
      <trkpt lat="46.00232" lon="-1.04338">
        <ele>48.726587</ele>
        <time>2022-12-21T12:42:31.346Z</time>
      </trkpt>
      <trkpt lat="46.00222" lon="-1.04333">
        <ele>48.679819</ele>
        <time>2022-12-21T12:42:34.341Z</time>
      </trkpt>
      <trkpt lat="46.00212" lon="-1.04328">
        <ele>48.635165</ele>
        <time>2022-12-21T12:42:37.340Z</time>
      </trkpt>
      <trkpt lat="46.00202" lon="-1.04322">
        <ele>48.585672</ele>
        <time>2022-12-21T12:42:41.340Z</time>
      </trkpt>
      <trkpt lat="46.00193" lon="-1.04318">
        <ele>48.547086</ele>
        <time>2022-12-21T12:42:45.356Z</time>
      </trkpt>
      <trkpt lat="46.00183" lon="-1.04314">
        <ele>48.499801</ele>
        <time>2022-12-21T12:42:49.333Z</time>
      </trkpt>
      <trkpt lat="46.00174" lon="-1.04308">
        <ele>48.457584</ele>
        <time>2022-12-21T12:42:52.342Z</time>
      </trkpt>
      <trkpt lat="46.00165" lon="-1.04304">
        <ele>48.416961</ele>
        <time>2022-12-21T12:42:55.334Z</time>
      </trkpt>
      <trkpt lat="46.00156" lon="-1.04298">
        <ele>48.375528</ele>
        <time>2022-12-21T12:42:58.333Z</time>
      </trkpt>
      <trkpt lat="46.00145" lon="-1.04292">
        <ele>48.324621</ele>
        <time>2022-12-21T12:43:02.356Z</time>
      </trkpt>
      <trkpt lat="46.00136" lon="-1.04288">
        <ele>48.34959</ele>
        <time>2022-12-21T12:43:05.324Z</time>
      </trkpt>
      <trkpt lat="46.00127" lon="-1.04284">
        <ele>48.413971</ele>
        <time>2022-12-21T12:43:08.341Z</time>
      </trkpt>
      <trkpt lat="46.00118" lon="-1.04278">
        <ele>48.479287</ele>
        <time>2022-12-21T12:43:11.341Z</time>
      </trkpt>
      <trkpt lat="46.00108" lon="-1.04273">
        <ele>48.553563</ele>
        <time>2022-12-21T12:43:15.347Z</time>
      </trkpt>
      <trkpt lat="46.00099" lon="-1.04267">
        <ele>48.624619</ele>
        <time>2022-12-21T12:43:20.331Z</time>
      </trkpt>
      <trkpt lat="46.00088" lon="-1.04262">
        <ele>48.701001</ele>
        <time>2022-12-21T12:43:25.350Z</time>
      </trkpt>
      <trkpt lat="46.0008" lon="-1.04258">
        <ele>48.763542</ele>
        <time>2022-12-21T12:43:29.349Z</time>
      </trkpt>
      <trkpt lat="46.00069" lon="-1.04251">
        <ele>48.841862</ele>
        <time>2022-12-21T12:43:34.353Z</time>
      </trkpt>
      <trkpt lat="46.00061" lon="-1.04247">
        <ele>48.904317</ele>
        <time>2022-12-21T12:43:38.330Z</time>
      </trkpt>
      <trkpt lat="46.00051" lon="-1.04243">
        <ele>48.973748</ele>
        <time>2022-12-21T12:43:42.342Z</time>
      </trkpt>
      <trkpt lat="46.00042" lon="-1.04237">
        <ele>49.042357</ele>
        <time>2022-12-21T12:43:46.329Z</time>
      </trkpt>
      <trkpt lat="46.00033" lon="-1.04234">
        <ele>49.105172</ele>
        <time>2022-12-21T12:43:50.325Z</time>
      </trkpt>
      <trkpt lat="46.00024" lon="-1.04228">
        <ele>49.173973</ele>
        <time>2022-12-21T12:43:54.329Z</time>
      </trkpt>
      <trkpt lat="46.00015" lon="-1.04223">
        <ele>49.241026</ele>
        <time>2022-12-21T12:43:58.322Z</time>
      </trkpt>
      <trkpt lat="46.00006" lon="-1.04219">
        <ele>49.30736</ele>
        <time>2022-12-21T12:44:02.339Z</time>
      </trkpt>
      <trkpt lat="45.99997" lon="-1.04214">
        <ele>49.373695</ele>
        <time>2022-12-21T12:44:07.342Z</time>
      </trkpt>
      <trkpt lat="45.99987" lon="-1.04209">
        <ele>49.445054</ele>
        <time>2022-12-21T12:44:12.327Z</time>
      </trkpt>
      <trkpt lat="45.99978" lon="-1.04203">
        <ele>49.514461</ele>
        <time>2022-12-21T12:44:17.322Z</time>
      </trkpt>
      <trkpt lat="45.99967" lon="-1.04197">
        <ele>49.539424</ele>
        <time>2022-12-21T12:44:22.329Z</time>
      </trkpt>
      <trkpt lat="45.99958" lon="-1.04193">
        <ele>49.523233</ele>
        <time>2022-12-21T12:44:26.344Z</time>
      </trkpt>
      <trkpt lat="45.99949" lon="-1.04188">
        <ele>49.507119</ele>
        <time>2022-12-21T12:44:30.344Z</time>
      </trkpt>
      <trkpt lat="45.99932" lon="-1.04176">
        <ele>49.476209</ele>
        <time>2022-12-21T12:47:30.346Z</time>
      </trkpt>
      <trkpt lat="45.99922" lon="-1.04171">
        <ele>49.459708</ele>
        <time>2022-12-21T12:47:34.344Z</time>
      </trkpt>
      <trkpt lat="45.99913" lon="-1.04167">
        <ele>49.444479</ele>
        <time>2022-12-21T12:47:37.339Z</time>
      </trkpt>
      <trkpt lat="45.99904" lon="-1.04161">
        <ele>49.427332</ele>
        <time>2022-12-21T12:47:40.342Z</time>
      </trkpt>
      <trkpt lat="45.99894" lon="-1.04157">
        <ele>49.410063</ele>
        <time>2022-12-21T12:47:43.339Z</time>
      </trkpt>
      <trkpt lat="45.99884" lon="-1.04152">
        <ele>49.393214</ele>
        <time>2022-12-21T12:47:46.341Z</time>
      </trkpt>
      <trkpt lat="45.99875" lon="-1.04147">
        <ele>49.377835</ele>
        <time>2022-12-21T12:47:49.344Z</time>
      </trkpt>
      <trkpt lat="45.99865" lon="-1.04142">
        <ele>49.359355</ele>
        <time>2022-12-21T12:47:53.338Z</time>
      </trkpt>
      <trkpt lat="45.99853" lon="-1.04136">
        <ele>49.33961</ele>
        <time>2022-12-21T12:47:57.343Z</time>
      </trkpt>
      <trkpt lat="45.99845" lon="-1.0413">
        <ele>49.323812</ele>
        <time>2022-12-21T12:48:00.350Z</time>
      </trkpt>
      <trkpt lat="45.99836" lon="-1.04125">
        <ele>49.30849</ele>
        <time>2022-12-21T12:48:03.344Z</time>
      </trkpt>
      <trkpt lat="45.99826" lon="-1.04121">
        <ele>49.291693</ele>
        <time>2022-12-21T12:48:06.344Z</time>
      </trkpt>
      <trkpt lat="45.99816" lon="-1.04116">
        <ele>49.274604</ele>
        <time>2022-12-21T12:48:09.345Z</time>
      </trkpt>
      <trkpt lat="45.99807" lon="-1.04112">
        <ele>49.258103</ele>
        <time>2022-12-21T12:48:12.332Z</time>
      </trkpt>
      <trkpt lat="45.99798" lon="-1.04107">
        <ele>49.275704</ele>
        <time>2022-12-21T12:48:15.344Z</time>
      </trkpt>
      <trkpt lat="45.99788" lon="-1.04101">
        <ele>49.305559</ele>
        <time>2022-12-21T12:48:18.342Z</time>
      </trkpt>
      <trkpt lat="45.99779" lon="-1.04096">
        <ele>49.332508</ele>
        <time>2022-12-21T12:48:21.325Z</time>
      </trkpt>
      <trkpt lat="45.99771" lon="-1.04092">
        <ele>49.358584</ele>
        <time>2022-12-21T12:48:24.339Z</time>
      </trkpt>
      <trkpt lat="45.99762" lon="-1.04087">
        <ele>49.386075</ele>
        <time>2022-12-21T12:48:27.351Z</time>
      </trkpt>
      <trkpt lat="45.99752" lon="-1.04083">
        <ele>49.414654</ele>
        <time>2022-12-21T12:48:30.344Z</time>
      </trkpt>
      <trkpt lat="45.99743" lon="-1.04077">
        <ele>49.443032</ele>
        <time>2022-12-21T12:48:33.345Z</time>
      </trkpt>
      <trkpt lat="45.99733" lon="-1.04072">
        <ele>49.472807</ele>
        <time>2022-12-21T12:48:36.343Z</time>
      </trkpt>
      <trkpt lat="45.99722" lon="-1.04068">
        <ele>49.505173</ele>
        <time>2022-12-21T12:48:39.343Z</time>
      </trkpt>
      <trkpt lat="45.99712" lon="-1.04063">
        <ele>49.536782</ele>
        <time>2022-12-21T12:48:42.339Z</time>
      </trkpt>
      <trkpt lat="45.99702" lon="-1.04058">
        <ele>49.565282</ele>
        <time>2022-12-21T12:48:45.339Z</time>
      </trkpt>
      <trkpt lat="45.99694" lon="-1.04051">
        <ele>49.594075</ele>
        <time>2022-12-21T12:48:48.341Z</time>
      </trkpt>
      <trkpt lat="45.99685" lon="-1.04044">
        <ele>49.623062</ele>
        <time>2022-12-21T12:48:51.341Z</time>
      </trkpt>
      <trkpt lat="45.99676" lon="-1.04035">
        <ele>49.653049</ele>
        <time>2022-12-21T12:48:54.341Z</time>
      </trkpt>
      <trkpt lat="45.99668" lon="-1.04027">
        <ele>49.682481</ele>
        <time>2022-12-21T12:48:57.341Z</time>
      </trkpt>
      <trkpt lat="45.9966" lon="-1.04018">
        <ele>49.710043</ele>
        <time>2022-12-21T12:49:00.341Z</time>
      </trkpt>
      <trkpt lat="45.99651" lon="-1.04008">
        <ele>49.742903</ele>
        <time>2022-12-21T12:49:04.341Z</time>
      </trkpt>
      <trkpt lat="45.99643" lon="-1.04">
        <ele>49.774968</ele>
        <time>2022-12-21T12:49:08.339Z</time>
      </trkpt>
      <trkpt lat="45.99633" lon="-1.03994">
        <ele>49.971882</ele>
        <time>2022-12-21T12:49:13.340Z</time>
      </trkpt>
      <trkpt lat="45.99623" lon="-1.03988">
        <ele>50.165871</ele>
        <time>2022-12-21T12:49:17.318Z</time>
      </trkpt>
      <trkpt lat="45.99617" lon="-1.03979">
        <ele>50.332931</ele>
        <time>2022-12-21T12:49:20.344Z</time>
      </trkpt>
      <trkpt lat="45.9961" lon="-1.03967">
        <ele>50.530549</ele>
        <time>2022-12-21T12:49:24.344Z</time>
      </trkpt>
      <trkpt lat="45.99604" lon="-1.03952">
        <ele>50.735549</ele>
        <time>2022-12-21T12:49:28.340Z</time>
      </trkpt>
      <trkpt lat="45.996" lon="-1.03938">
        <ele>50.930644</ele>
        <time>2022-12-21T12:49:32.345Z</time>
      </trkpt>
      <trkpt lat="45.99594" lon="-1.03926">
        <ele>51.111848</ele>
        <time>2022-12-21T12:49:36.346Z</time>
      </trkpt>
      <trkpt lat="45.99589" lon="-1.03912">
        <ele>51.309449</ele>
        <time>2022-12-21T12:49:40.358Z</time>
      </trkpt>
      <trkpt lat="45.99584" lon="-1.03896">
        <ele>51.520043</ele>
        <time>2022-12-21T12:49:44.344Z</time>
      </trkpt>
      <trkpt lat="45.99578" lon="-1.03883">
        <ele>51.721262</ele>
        <time>2022-12-21T12:49:48.347Z</time>
      </trkpt>
      <trkpt lat="45.99573" lon="-1.03869">
        <ele>51.928638</ele>
        <time>2022-12-21T12:49:52.350Z</time>
      </trkpt>
      <trkpt lat="45.99568" lon="-1.03857">
        <ele>52.099408</ele>
        <time>2022-12-21T12:49:55.343Z</time>
      </trkpt>
      <trkpt lat="45.99563" lon="-1.03845">
        <ele>52.268488</ele>
        <time>2022-12-21T12:49:58.340Z</time>
      </trkpt>
      <trkpt lat="45.99559" lon="-1.03833">
        <ele>52.438715</ele>
        <time>2022-12-21T12:50:01.343Z</time>
      </trkpt>
      <trkpt lat="45.99554" lon="-1.0382">
        <ele>52.616384</ele>
        <time>2022-12-21T12:50:04.341Z</time>
      </trkpt>
      <trkpt lat="45.99549" lon="-1.03808">
        <ele>52.7953</ele>
        <time>2022-12-21T12:50:07.354Z</time>
      </trkpt>
      <trkpt lat="45.99544" lon="-1.03795">
        <ele>52.977772</ele>
        <time>2022-12-21T12:50:10.350Z</time>
      </trkpt>
      <trkpt lat="45.99539" lon="-1.03781">
        <ele>52.893513</ele>
        <time>2022-12-21T12:50:13.339Z</time>
      </trkpt>
      <trkpt lat="45.99534" lon="-1.03766">
        <ele>52.754763</ele>
        <time>2022-12-21T12:50:16.336Z</time>
      </trkpt>
      <trkpt lat="45.9953" lon="-1.03751">
        <ele>52.623528</ele>
        <time>2022-12-21T12:50:19.343Z</time>
      </trkpt>
      <trkpt lat="45.99526" lon="-1.03738">
        <ele>52.498734</ele>
        <time>2022-12-21T12:50:22.339Z</time>
      </trkpt>
      <trkpt lat="45.99522" lon="-1.03723">
        <ele>52.374178</ele>
        <time>2022-12-21T12:50:25.341Z</time>
      </trkpt>
      <trkpt lat="45.99519" lon="-1.03708">
        <ele>52.238277</ele>
        <time>2022-12-21T12:50:28.332Z</time>
      </trkpt>
      <trkpt lat="45.99515" lon="-1.03692">
        <ele>52.098765</ele>
        <time>2022-12-21T12:50:31.346Z</time>
      </trkpt>
      <trkpt lat="45.99513" lon="-1.03675">
        <ele>51.957069</ele>
        <time>2022-12-21T12:50:34.339Z</time>
      </trkpt>
      <trkpt lat="45.9951" lon="-1.03657">
        <ele>51.808372</ele>
        <time>2022-12-21T12:50:37.344Z</time>
      </trkpt>
      <trkpt lat="45.99507" lon="-1.03639">
        <ele>51.652452</ele>
        <time>2022-12-21T12:50:40.350Z</time>
      </trkpt>
      <trkpt lat="45.99504" lon="-1.03619">
        <ele>51.488135</ele>
        <time>2022-12-21T12:50:43.343Z</time>
      </trkpt>
      <trkpt lat="45.99502" lon="-1.03606">
        <ele>51.371706</ele>
        <time>2022-12-21T12:50:45.330Z</time>
      </trkpt>
      <trkpt lat="45.99498" lon="-1.03591">
        <ele>51.243212</ele>
        <time>2022-12-21T12:50:47.345Z</time>
      </trkpt>
      <trkpt lat="45.99495" lon="-1.03577">
        <ele>51.12063</ele>
        <time>2022-12-21T12:50:49.343Z</time>
      </trkpt>
      <trkpt lat="45.99491" lon="-1.03564">
        <ele>51.001551</ele>
        <time>2022-12-21T12:50:51.343Z</time>
      </trkpt>
      <trkpt lat="45.99486" lon="-1.0355">
        <ele>50.876763</ele>
        <time>2022-12-21T12:50:53.344Z</time>
      </trkpt>
      <trkpt lat="45.99482" lon="-1.03536">
        <ele>50.706316</ele>
        <time>2022-12-21T12:50:55.344Z</time>
      </trkpt>
      <trkpt lat="45.99476" lon="-1.03523">
        <ele>50.528339</ele>
        <time>2022-12-21T12:50:57.341Z</time>
      </trkpt>
      <trkpt lat="45.99469" lon="-1.0351">
        <ele>50.351347</ele>
        <time>2022-12-21T12:50:59.351Z</time>
      </trkpt>
      <trkpt lat="45.99462" lon="-1.03498">
        <ele>50.18031</ele>
        <time>2022-12-21T12:51:01.348Z</time>
      </trkpt>
      <trkpt lat="45.99455" lon="-1.03488">
        <ele>50.015173</ele>
        <time>2022-12-21T12:51:03.356Z</time>
      </trkpt>
      <trkpt lat="45.99448" lon="-1.03478">
        <ele>49.851038</ele>
        <time>2022-12-21T12:51:05.337Z</time>
      </trkpt>
      <trkpt lat="45.99442" lon="-1.03468">
        <ele>49.706345</ele>
        <time>2022-12-21T12:51:07.342Z</time>
      </trkpt>
      <trkpt lat="45.99433" lon="-1.03454">
        <ele>49.496039</ele>
        <time>2022-12-21T12:51:10.343Z</time>
      </trkpt>
      <trkpt lat="45.99425" lon="-1.03442">
        <ele>49.302788</ele>
        <time>2022-12-21T12:51:13.351Z</time>
      </trkpt>
      <trkpt lat="45.99418" lon="-1.03431">
        <ele>49.136456</ele>
        <time>2022-12-21T12:51:16.344Z</time>
      </trkpt>
      <trkpt lat="45.99411" lon="-1.0342">
        <ele>48.972668</ele>
        <time>2022-12-21T12:51:19.353Z</time>
      </trkpt>
      <trkpt lat="45.99404" lon="-1.03407">
        <ele>48.787497</ele>
        <time>2022-12-21T12:51:22.345Z</time>
      </trkpt>
      <trkpt lat="45.99397" lon="-1.03395">
        <ele>48.610197</ele>
        <time>2022-12-21T12:51:25.353Z</time>
      </trkpt>
      <trkpt lat="45.99391" lon="-1.03381">
        <ele>48.428605</ele>
        <time>2022-12-21T12:51:28.350Z</time>
      </trkpt>
      <trkpt lat="45.99385" lon="-1.03369">
        <ele>48.260817</ele>
        <time>2022-12-21T12:51:31.343Z</time>
      </trkpt>
      <trkpt lat="45.99379" lon="-1.03359">
        <ele>48.104442</ele>
        <time>2022-12-21T12:51:34.343Z</time>
      </trkpt>
      <trkpt lat="45.99371" lon="-1.03347">
        <ele>47.948692</ele>
        <time>2022-12-21T12:51:38.348Z</time>
      </trkpt>
      <trkpt lat="45.99366" lon="-1.03332">
        <ele>47.864399</ele>
        <time>2022-12-21T12:51:42.342Z</time>
      </trkpt>
      <trkpt lat="45.99361" lon="-1.0332">
        <ele>47.79385</ele>
        <time>2022-12-21T12:51:45.345Z</time>
      </trkpt>
      <trkpt lat="45.99356" lon="-1.03306">
        <ele>47.716254</ele>
        <time>2022-12-21T12:51:48.341Z</time>
      </trkpt>
      <trkpt lat="45.99351" lon="-1.03291">
        <ele>47.637787</ele>
        <time>2022-12-21T12:51:51.331Z</time>
      </trkpt>
      <trkpt lat="45.99348" lon="-1.03275">
        <ele>47.558588</ele>
        <time>2022-12-21T12:51:54.343Z</time>
      </trkpt>
      <trkpt lat="45.99344" lon="-1.0326">
        <ele>47.479102</ele>
        <time>2022-12-21T12:51:57.350Z</time>
      </trkpt>
      <trkpt lat="45.99342" lon="-1.03245">
        <ele>47.404996</ele>
        <time>2022-12-21T12:52:00.342Z</time>
      </trkpt>
      <trkpt lat="45.99341" lon="-1.03228">
        <ele>47.322037</ele>
        <time>2022-12-21T12:52:04.344Z</time>
      </trkpt>
      <trkpt lat="45.99339" lon="-1.03214">
        <ele>47.250241</ele>
        <time>2022-12-21T12:52:07.351Z</time>
      </trkpt>
      <trkpt lat="45.99337" lon="-1.03199">
        <ele>47.175922</ele>
        <time>2022-12-21T12:52:10.346Z</time>
      </trkpt>
      <trkpt lat="45.99336" lon="-1.03184">
        <ele>47.102241</ele>
        <time>2022-12-21T12:52:13.343Z</time>
      </trkpt>
      <trkpt lat="45.99334" lon="-1.03169">
        <ele>47.029122</ele>
        <time>2022-12-21T12:52:16.340Z</time>
      </trkpt>
      <trkpt lat="45.99332" lon="-1.03153">
        <ele>46.952153</ele>
        <time>2022-12-21T12:52:19.355Z</time>
      </trkpt>
      <trkpt lat="45.9933" lon="-1.03137">
        <ele>46.871473</ele>
        <time>2022-12-21T12:52:22.341Z</time>
      </trkpt>
      <trkpt lat="45.9933" lon="-1.03121">
        <ele>46.795275</ele>
        <time>2022-12-21T12:52:25.342Z</time>
      </trkpt>
      <trkpt lat="45.99329" lon="-1.03107">
        <ele>46.724543</ele>
        <time>2022-12-21T12:52:28.351Z</time>
      </trkpt>
      <trkpt lat="45.99328" lon="-1.03092">
        <ele>46.745475</ele>
        <time>2022-12-21T12:52:31.346Z</time>
      </trkpt>
      <trkpt lat="45.99327" lon="-1.03076">
        <ele>46.828613</ele>
        <time>2022-12-21T12:52:34.341Z</time>
      </trkpt>
      <trkpt lat="45.99325" lon="-1.03058">
        <ele>46.918002</ele>
        <time>2022-12-21T12:52:37.341Z</time>
      </trkpt>
      <trkpt lat="45.99323" lon="-1.03039">
        <ele>47.014034</ele>
        <time>2022-12-21T12:52:40.345Z</time>
      </trkpt>
      <trkpt lat="45.99321" lon="-1.0302">
        <ele>47.11094</ele>
        <time>2022-12-21T12:52:43.349Z</time>
      </trkpt>
      <trkpt lat="45.9932" lon="-1.03007">
        <ele>47.17835</ele>
        <time>2022-12-21T12:52:45.340Z</time>
      </trkpt>
      <trkpt lat="45.99318" lon="-1.02993">
        <ele>47.246862</ele>
        <time>2022-12-21T12:52:47.346Z</time>
      </trkpt>
      <trkpt lat="45.99318" lon="-1.02974">
        <ele>47.342645</ele>
        <time>2022-12-21T12:52:50.331Z</time>
      </trkpt>
      <trkpt lat="45.99317" lon="-1.02955">
        <ele>47.437632</ele>
        <time>2022-12-21T12:52:53.341Z</time>
      </trkpt>
      <trkpt lat="45.99315" lon="-1.02936">
        <ele>47.532463</ele>
        <time>2022-12-21T12:52:56.343Z</time>
      </trkpt>
      <trkpt lat="45.99313" lon="-1.02918">
        <ele>47.626674</ele>
        <time>2022-12-21T12:52:59.349Z</time>
      </trkpt>
      <trkpt lat="45.99311" lon="-1.02901">
        <ele>47.713202</ele>
        <time>2022-12-21T12:53:02.347Z</time>
      </trkpt>
      <trkpt lat="45.9931" lon="-1.02886">
        <ele>47.790738</ele>
        <time>2022-12-21T12:53:05.357Z</time>
      </trkpt>
      <trkpt lat="45.99307" lon="-1.02871">
        <ele>47.867725</ele>
        <time>2022-12-21T12:53:08.349Z</time>
      </trkpt>
      <trkpt lat="45.99303" lon="-1.02855">
        <ele>47.951039</ele>
        <time>2022-12-21T12:53:11.341Z</time>
      </trkpt>
      <trkpt lat="45.99298" lon="-1.0284">
        <ele>48.05201</ele>
        <time>2022-12-21T12:53:14.341Z</time>
      </trkpt>
      <trkpt lat="45.99292" lon="-1.02827">
        <ele>48.16563</ele>
        <time>2022-12-21T12:53:17.341Z</time>
      </trkpt>
      <trkpt lat="45.99285" lon="-1.02814">
        <ele>48.278681</ele>
        <time>2022-12-21T12:53:20.336Z</time>
      </trkpt>
      <trkpt lat="45.99278" lon="-1.02801">
        <ele>48.39533</ele>
        <time>2022-12-21T12:53:23.350Z</time>
      </trkpt>
      <trkpt lat="45.99271" lon="-1.02788">
        <ele>48.507204</ele>
        <time>2022-12-21T12:53:26.352Z</time>
      </trkpt>
      <trkpt lat="45.99264" lon="-1.02775">
        <ele>48.625305</ele>
        <time>2022-12-21T12:53:30.341Z</time>
      </trkpt>
      <trkpt lat="45.99256" lon="-1.02762">
        <ele>48.750524</ele>
        <time>2022-12-21T12:53:34.352Z</time>
      </trkpt>
      <trkpt lat="45.99249" lon="-1.02752">
        <ele>48.851864</ele>
        <time>2022-12-21T12:53:37.344Z</time>
      </trkpt>
      <trkpt lat="45.9924" lon="-1.02742">
        <ele>48.964157</ele>
        <time>2022-12-21T12:53:41.347Z</time>
      </trkpt>
      <trkpt lat="45.9923" lon="-1.02744">
        <ele>49.068544</ele>
        <time>2022-12-21T12:53:45.343Z</time>
      </trkpt>
      <trkpt lat="45.99222" lon="-1.02754">
        <ele>49.177482</ele>
        <time>2022-12-21T12:53:49.326Z</time>
      </trkpt>
      <trkpt lat="45.99216" lon="-1.02765">
        <ele>49.273811</ele>
        <time>2022-12-21T12:53:52.345Z</time>
      </trkpt>
      <trkpt lat="45.99209" lon="-1.02776">
        <ele>49.380131</ele>
        <time>2022-12-21T12:53:55.350Z</time>
      </trkpt>
      <trkpt lat="45.99202" lon="-1.02786">
        <ele>49.481815</ele>
        <time>2022-12-21T12:53:58.350Z</time>
      </trkpt>
      <trkpt lat="45.99193" lon="-1.02798">
        <ele>49.604504</ele>
        <time>2022-12-21T12:54:02.347Z</time>
      </trkpt>
      <trkpt lat="45.99186" lon="-1.02807">
        <ele>49.701084</ele>
        <time>2022-12-21T12:54:05.346Z</time>
      </trkpt>
      <trkpt lat="45.99179" lon="-1.02815">
        <ele>49.799773</ele>
        <time>2022-12-21T12:54:08.342Z</time>
      </trkpt>
      <trkpt lat="45.9917" lon="-1.02824">
        <ele>49.757843</ele>
        <time>2022-12-21T12:54:11.352Z</time>
      </trkpt>
      <trkpt lat="45.99162" lon="-1.0283">
        <ele>49.655311</ele>
        <time>2022-12-21T12:54:14.346Z</time>
      </trkpt>
      <trkpt lat="45.99153" lon="-1.02836">
        <ele>49.554785</ele>
        <time>2022-12-21T12:54:17.338Z</time>
      </trkpt>
      <trkpt lat="45.99143" lon="-1.02842">
        <ele>49.439917</ele>
        <time>2022-12-21T12:54:20.345Z</time>
      </trkpt>
      <trkpt lat="45.99132" lon="-1.02848">
        <ele>49.309624</ele>
        <time>2022-12-21T12:54:23.345Z</time>
      </trkpt>
      <trkpt lat="45.99124" lon="-1.02853">
        <ele>49.212994</ele>
        <time>2022-12-21T12:54:25.334Z</time>
      </trkpt>
      <trkpt lat="45.99113" lon="-1.02858">
        <ele>49.099256</ele>
        <time>2022-12-21T12:54:27.343Z</time>
      </trkpt>
      <trkpt lat="45.99104" lon="-1.02862">
        <ele>48.991385</ele>
        <time>2022-12-21T12:54:29.343Z</time>
      </trkpt>
      <trkpt lat="45.99094" lon="-1.02867">
        <ele>48.880922</ele>
        <time>2022-12-21T12:54:31.343Z</time>
      </trkpt>
      <trkpt lat="45.99085" lon="-1.02872">
        <ele>48.778595</ele>
        <time>2022-12-21T12:54:33.344Z</time>
      </trkpt>
      <trkpt lat="45.99076" lon="-1.02876">
        <ele>48.679261</ele>
        <time>2022-12-21T12:54:35.338Z</time>
      </trkpt>
      <trkpt lat="45.99064" lon="-1.02881">
        <ele>48.53889</ele>
        <time>2022-12-21T12:54:38.346Z</time>
      </trkpt>
      <trkpt lat="45.99051" lon="-1.02886">
        <ele>48.405652</ele>
        <time>2022-12-21T12:54:41.341Z</time>
      </trkpt>
      <trkpt lat="45.9904" lon="-1.0289">
        <ele>48.280195</ele>
        <time>2022-12-21T12:54:44.347Z</time>
      </trkpt>
      <trkpt lat="45.99028" lon="-1.02894">
        <ele>48.147836</ele>
        <time>2022-12-21T12:54:47.350Z</time>
      </trkpt>
      <trkpt lat="45.99014" lon="-1.02899">
        <ele>47.999403</ele>
        <time>2022-12-21T12:54:50.348Z</time>
      </trkpt>
      <trkpt lat="45.99005" lon="-1.02904">
        <ele>47.895927</ele>
        <time>2022-12-21T12:54:52.342Z</time>
      </trkpt>
      <trkpt lat="45.98992" lon="-1.02909">
        <ele>47.762833</ele>
        <time>2022-12-21T12:54:55.352Z</time>
      </trkpt>
      <trkpt lat="45.98983" lon="-1.02911">
        <ele>47.669197</ele>
        <time>2022-12-21T12:54:57.351Z</time>
      </trkpt>
      <trkpt lat="45.98974" lon="-1.02914">
        <ele>47.578058</ele>
        <time>2022-12-21T12:54:59.344Z</time>
      </trkpt>
      <trkpt lat="45.98966" lon="-1.02919">
        <ele>47.488545</ele>
        <time>2022-12-21T12:55:01.356Z</time>
      </trkpt>
      <trkpt lat="45.98954" lon="-1.02925">
        <ele>47.362107</ele>
        <time>2022-12-21T12:55:04.345Z</time>
      </trkpt>
      <trkpt lat="45.98942" lon="-1.02932">
        <ele>47.2366</ele>
        <time>2022-12-21T12:55:07.341Z</time>
      </trkpt>
      <trkpt lat="45.9893" lon="-1.0294">
        <ele>47.10669</ele>
        <time>2022-12-21T12:55:10.344Z</time>
      </trkpt>
      <trkpt lat="45.98922" lon="-1.02946">
        <ele>47.017297</ele>
        <time>2022-12-21T12:55:12.353Z</time>
      </trkpt>
      <trkpt lat="45.98912" lon="-1.02955">
        <ele>46.899147</ele>
        <time>2022-12-21T12:55:15.346Z</time>
      </trkpt>
      <trkpt lat="45.98904" lon="-1.02964">
        <ele>46.799152</ele>
        <time>2022-12-21T12:55:18.349Z</time>
      </trkpt>
      <trkpt lat="45.98896" lon="-1.02971">
        <ele>46.705571</ele>
        <time>2022-12-21T12:55:21.355Z</time>
      </trkpt>
      <trkpt lat="45.98888" lon="-1.0298">
        <ele>46.60436</ele>
        <time>2022-12-21T12:55:24.350Z</time>
      </trkpt>
      <trkpt lat="45.98879" lon="-1.0299">
        <ele>46.495024</ele>
        <time>2022-12-21T12:55:27.342Z</time>
      </trkpt>
      <trkpt lat="45.98872" lon="-1.02997">
        <ele>46.403094</ele>
        <time>2022-12-21T12:55:30.342Z</time>
      </trkpt>
      <trkpt lat="45.98864" lon="-1.03007">
        <ele>46.300151</ele>
        <time>2022-12-21T12:55:34.322Z</time>
      </trkpt>
      <trkpt lat="45.98855" lon="-1.03017">
        <ele>46.188398</ele>
        <time>2022-12-21T12:55:38.342Z</time>
      </trkpt>
      <trkpt lat="45.98847" lon="-1.03025">
        <ele>46.206097</ele>
        <time>2022-12-21T12:55:42.326Z</time>
      </trkpt>
      <trkpt lat="45.98837" lon="-1.03034">
        <ele>46.443209</ele>
        <time>2022-12-21T12:55:46.344Z</time>
      </trkpt>
      <trkpt lat="45.98828" lon="-1.03045">
        <ele>46.693651</ele>
        <time>2022-12-21T12:55:50.326Z</time>
      </trkpt>
      <trkpt lat="45.9882" lon="-1.03053">
        <ele>46.889485</ele>
        <time>2022-12-21T12:55:53.351Z</time>
      </trkpt>
      <trkpt lat="45.98811" lon="-1.03061">
        <ele>47.106427</ele>
        <time>2022-12-21T12:55:56.351Z</time>
      </trkpt>
      <trkpt lat="45.98803" lon="-1.03068">
        <ele>47.30994</ele>
        <time>2022-12-21T12:55:59.351Z</time>
      </trkpt>
      <trkpt lat="45.98795" lon="-1.03075">
        <ele>47.500876</ele>
        <time>2022-12-21T12:56:02.354Z</time>
      </trkpt>
      <trkpt lat="45.98787" lon="-1.03083">
        <ele>47.699215</ele>
        <time>2022-12-21T12:56:05.345Z</time>
      </trkpt>
      <trkpt lat="45.98779" lon="-1.03091">
        <ele>47.90094</ele>
        <time>2022-12-21T12:56:08.334Z</time>
      </trkpt>
      <trkpt lat="45.98769" lon="-1.03099">
        <ele>48.143222</ele>
        <time>2022-12-21T12:56:12.354Z</time>
      </trkpt>
      <trkpt lat="45.9876" lon="-1.03107">
        <ele>48.353226</ele>
        <time>2022-12-21T12:56:16.402Z</time>
      </trkpt>
      <trkpt lat="45.98751" lon="-1.03115">
        <ele>48.579831</ele>
        <time>2022-12-21T12:56:21.344Z</time>
      </trkpt>
      <trkpt lat="45.98742" lon="-1.03123">
        <ele>48.800216</ele>
        <time>2022-12-21T12:56:26.341Z</time>
      </trkpt>
      <trkpt lat="45.98733" lon="-1.03132">
        <ele>49.022333</ele>
        <time>2022-12-21T12:56:31.350Z</time>
      </trkpt>
      <trkpt lat="45.98726" lon="-1.03141">
        <ele>49.220909</ele>
        <time>2022-12-21T12:56:36.341Z</time>
      </trkpt>
      <trkpt lat="45.98718" lon="-1.03147">
        <ele>49.407716</ele>
        <time>2022-12-21T12:56:40.334Z</time>
      </trkpt>
      <trkpt lat="45.98709" lon="-1.03153">
        <ele>49.605896</ele>
        <time>2022-12-21T12:56:45.405Z</time>
      </trkpt>
      <trkpt lat="45.98701" lon="-1.03161">
        <ele>49.813716</ele>
        <time>2022-12-21T12:56:50.349Z</time>
      </trkpt>
      <trkpt lat="45.98692" lon="-1.03166">
        <ele>49.665279</ele>
        <time>2022-12-21T12:56:55.343Z</time>
      </trkpt>
      <trkpt lat="45.98684" lon="-1.03158">
        <ele>49.412879</ele>
        <time>2022-12-21T12:57:01.342Z</time>
      </trkpt>
      <trkpt lat="45.98684" lon="-1.03143">
        <ele>49.137235</ele>
        <time>2022-12-21T12:57:06.344Z</time>
      </trkpt>
      <trkpt lat="45.98684" lon="-1.03126">
        <ele>48.834579</ele>
        <time>2022-12-21T12:57:10.335Z</time>
      </trkpt>
      <trkpt lat="45.98682" lon="-1.0311">
        <ele>48.555033</ele>
        <time>2022-12-21T12:57:13.353Z</time>
      </trkpt>
      <trkpt lat="45.98678" lon="-1.03094">
        <ele>48.256036</ele>
        <time>2022-12-21T12:57:16.348Z</time>
      </trkpt>
      <trkpt lat="45.98673" lon="-1.03079">
        <ele>47.95308</ele>
        <time>2022-12-21T12:57:19.353Z</time>
      </trkpt>
      <trkpt lat="45.98668" lon="-1.03061">
        <ele>47.626294</ele>
        <time>2022-12-21T12:57:22.354Z</time>
      </trkpt>
      <trkpt lat="45.98665" lon="-1.03049">
        <ele>47.394224</ele>
        <time>2022-12-21T12:57:24.344Z</time>
      </trkpt>
      <trkpt lat="45.9866" lon="-1.03037">
        <ele>47.143075</ele>
        <time>2022-12-21T12:57:26.404Z</time>
      </trkpt>
      <trkpt lat="45.98656" lon="-1.03024">
        <ele>46.893526</ele>
        <time>2022-12-21T12:57:28.322Z</time>
      </trkpt>
      <trkpt lat="45.98652" lon="-1.03012">
        <ele>46.646142</ele>
        <time>2022-12-21T12:57:30.334Z</time>
      </trkpt>
      <trkpt lat="45.98649" lon="-1.02999">
        <ele>46.402921</ele>
        <time>2022-12-21T12:57:32.353Z</time>
      </trkpt>
      <trkpt lat="45.98644" lon="-1.02987">
        <ele>46.171516</ele>
        <time>2022-12-21T12:57:34.348Z</time>
      </trkpt>
      <trkpt lat="45.9864" lon="-1.02974">
        <ele>45.917119</ele>
        <time>2022-12-21T12:57:36.349Z</time>
      </trkpt>
      <trkpt lat="45.98636" lon="-1.02961">
        <ele>45.654118</ele>
        <time>2022-12-21T12:57:38.352Z</time>
      </trkpt>
      <trkpt lat="45.98631" lon="-1.02946">
        <ele>45.368014</ele>
        <time>2022-12-21T12:57:40.347Z</time>
      </trkpt>
      <trkpt lat="45.98626" lon="-1.02931">
        <ele>45.240049</ele>
        <time>2022-12-21T12:57:42.350Z</time>
      </trkpt>
      <trkpt lat="45.98622" lon="-1.02915">
        <ele>45.223882</ele>
        <time>2022-12-21T12:57:44.338Z</time>
      </trkpt>
      <trkpt lat="45.98617" lon="-1.02899">
        <ele>45.207555</ele>
        <time>2022-12-21T12:57:46.355Z</time>
      </trkpt>
      <trkpt lat="45.98614" lon="-1.02885">
        <ele>45.19332</ele>
        <time>2022-12-21T12:57:48.344Z</time>
      </trkpt>
      <trkpt lat="45.9861" lon="-1.02873">
        <ele>45.180827</ele>
        <time>2022-12-21T12:57:50.344Z</time>
      </trkpt>
      <trkpt lat="45.98605" lon="-1.02856">
        <ele>45.163412</ele>
        <time>2022-12-21T12:57:53.350Z</time>
      </trkpt>
      <trkpt lat="45.986" lon="-1.0284">
        <ele>45.14702</ele>
        <time>2022-12-21T12:57:56.351Z</time>
      </trkpt>
      <trkpt lat="45.98596" lon="-1.02826">
        <ele>45.13305</ele>
        <time>2022-12-21T12:57:59.345Z</time>
      </trkpt>
      <trkpt lat="45.98592" lon="-1.02814">
        <ele>45.120688</ele>
        <time>2022-12-21T12:58:02.352Z</time>
      </trkpt>
      <trkpt lat="45.98587" lon="-1.02801">
        <ele>45.106659</ele>
        <time>2022-12-21T12:58:05.329Z</time>
      </trkpt>
      <trkpt lat="45.98582" lon="-1.02787">
        <ele>45.092517</ele>
        <time>2022-12-21T12:58:08.353Z</time>
      </trkpt>
      <trkpt lat="45.98578" lon="-1.02773">
        <ele>45.077698</ele>
        <time>2022-12-21T12:58:12.408Z</time>
      </trkpt>
      <trkpt lat="45.98574" lon="-1.02759">
        <ele>45.063843</ele>
        <time>2022-12-21T12:58:16.348Z</time>
      </trkpt>
      <trkpt lat="45.9857" lon="-1.02748">
        <ele>45.051355</ele>
        <time>2022-12-21T12:58:19.341Z</time>
      </trkpt>
      <trkpt lat="45.98565" lon="-1.02735">
        <ele>45.038113</ele>
        <time>2022-12-21T12:58:22.345Z</time>
      </trkpt>
      <trkpt lat="45.98561" lon="-1.02722">
        <ele>45.024596</ele>
        <time>2022-12-21T12:58:25.335Z</time>
      </trkpt>
      <trkpt lat="45.98557" lon="-1.02708">
        <ele>45.010485</ele>
        <time>2022-12-21T12:58:28.355Z</time>
      </trkpt>
      <trkpt lat="45.98551" lon="-1.02694">
        <ele>45.011185</ele>
        <time>2022-12-21T12:58:31.353Z</time>
      </trkpt>
      <trkpt lat="45.98546" lon="-1.0268">
        <ele>45.01787</ele>
        <time>2022-12-21T12:58:34.342Z</time>
      </trkpt>
      <trkpt lat="45.9854" lon="-1.02665">
        <ele>45.024624</ele>
        <time>2022-12-21T12:58:37.345Z</time>
      </trkpt>
      <trkpt lat="45.98535" lon="-1.02649">
        <ele>45.031377</ele>
        <time>2022-12-21T12:58:40.340Z</time>
      </trkpt>
      <trkpt lat="45.98529" lon="-1.02634">
        <ele>45.038367</ele>
        <time>2022-12-21T12:58:43.343Z</time>
      </trkpt>
      <trkpt lat="45.98523" lon="-1.02618">
        <ele>45.045268</ele>
        <time>2022-12-21T12:58:46.347Z</time>
      </trkpt>
      <trkpt lat="45.98517" lon="-1.02603">
        <ele>45.052293</ele>
        <time>2022-12-21T12:58:49.352Z</time>
      </trkpt>
      <trkpt lat="45.98511" lon="-1.02587">
        <ele>45.059433</ele>
        <time>2022-12-21T12:58:52.406Z</time>
      </trkpt>
      <trkpt lat="45.98505" lon="-1.02571">
        <ele>45.066651</ele>
        <time>2022-12-21T12:58:55.352Z</time>
      </trkpt>
      <trkpt lat="45.98499" lon="-1.02556">
        <ele>45.073357</ele>
        <time>2022-12-21T12:58:58.403Z</time>
      </trkpt>
      <trkpt lat="45.98494" lon="-1.02541">
        <ele>45.080066</ele>
        <time>2022-12-21T12:59:01.352Z</time>
      </trkpt>
      <trkpt lat="45.98488" lon="-1.02524">
        <ele>45.087356</ele>
        <time>2022-12-21T12:59:04.407Z</time>
      </trkpt>
      <trkpt lat="45.98482" lon="-1.02507">
        <ele>45.094853</ele>
        <time>2022-12-21T12:59:07.344Z</time>
      </trkpt>
      <trkpt lat="45.98477" lon="-1.02491">
        <ele>45.102114</ele>
        <time>2022-12-21T12:59:10.388Z</time>
      </trkpt>
      <trkpt lat="45.98471" lon="-1.02476">
        <ele>45.108759</ele>
        <time>2022-12-21T12:59:13.342Z</time>
      </trkpt>
      <trkpt lat="45.98466" lon="-1.02461">
        <ele>45.084338</ele>
        <time>2022-12-21T12:59:16.380Z</time>
      </trkpt>
      <trkpt lat="45.9846" lon="-1.02445">
        <ele>45.058967</ele>
        <time>2022-12-21T12:59:19.325Z</time>
      </trkpt>
      <trkpt lat="45.98454" lon="-1.02429">
        <ele>45.032182</ele>
        <time>2022-12-21T12:59:22.403Z</time>
      </trkpt>
      <trkpt lat="45.98448" lon="-1.02412">
        <ele>45.005111</ele>
        <time>2022-12-21T12:59:25.322Z</time>
      </trkpt>
      <trkpt lat="45.98442" lon="-1.02396">
        <ele>44.9781</ele>
        <time>2022-12-21T12:59:28.350Z</time>
      </trkpt>
      <trkpt lat="45.98436" lon="-1.0238">
        <ele>44.951973</ele>
        <time>2022-12-21T12:59:31.343Z</time>
      </trkpt>
      <trkpt lat="45.9843" lon="-1.02365">
        <ele>44.927239</ele>
        <time>2022-12-21T12:59:34.349Z</time>
      </trkpt>
      <trkpt lat="45.98425" lon="-1.02351">
        <ele>44.903888</ele>
        <time>2022-12-21T12:59:37.341Z</time>
      </trkpt>
      <trkpt lat="45.9842" lon="-1.02335">
        <ele>44.879284</ele>
        <time>2022-12-21T12:59:40.352Z</time>
      </trkpt>
      <trkpt lat="45.98414" lon="-1.02321">
        <ele>44.85551</ele>
        <time>2022-12-21T12:59:43.342Z</time>
      </trkpt>
      <trkpt lat="45.98409" lon="-1.02306">
        <ele>44.831774</ele>
        <time>2022-12-21T12:59:46.342Z</time>
      </trkpt>
      <trkpt lat="45.98404" lon="-1.02293">
        <ele>44.80963</ele>
        <time>2022-12-21T12:59:49.340Z</time>
      </trkpt>
      <trkpt lat="45.98399" lon="-1.0228">
        <ele>44.787114</ele>
        <time>2022-12-21T12:59:52.393Z</time>
      </trkpt>
      <trkpt lat="45.98393" lon="-1.02264">
        <ele>44.762252</ele>
        <time>2022-12-21T12:59:55.331Z</time>
      </trkpt>
      <trkpt lat="45.98387" lon="-1.02248">
        <ele>44.735886</ele>
        <time>2022-12-21T12:59:58.401Z</time>
      </trkpt>
      <trkpt lat="45.98382" lon="-1.02232">
        <ele>44.695105</ele>
        <time>2022-12-21T13:00:01.341Z</time>
      </trkpt>
      <trkpt lat="45.98376" lon="-1.02216">
        <ele>44.654348</ele>
        <time>2022-12-21T13:00:04.398Z</time>
      </trkpt>
      <trkpt lat="45.9837" lon="-1.02199">
        <ele>44.612479</ele>
        <time>2022-12-21T13:00:07.351Z</time>
      </trkpt>
      <trkpt lat="45.98364" lon="-1.02183">
        <ele>44.570652</ele>
        <time>2022-12-21T13:00:10.353Z</time>
      </trkpt>
      <trkpt lat="45.98358" lon="-1.02166">
        <ele>44.527116</ele>
        <time>2022-12-21T13:00:13.352Z</time>
      </trkpt>
      <trkpt lat="45.98352" lon="-1.02149">
        <ele>44.483876</ele>
        <time>2022-12-21T13:00:16.333Z</time>
      </trkpt>
      <trkpt lat="45.98345" lon="-1.02133">
        <ele>44.441761</ele>
        <time>2022-12-21T13:00:19.346Z</time>
      </trkpt>
      <trkpt lat="45.9834" lon="-1.02116">
        <ele>44.398522</ele>
        <time>2022-12-21T13:00:22.354Z</time>
      </trkpt>
      <trkpt lat="45.98334" lon="-1.02101">
        <ele>44.359267</ele>
        <time>2022-12-21T13:00:25.322Z</time>
      </trkpt>
      <trkpt lat="45.98329" lon="-1.02088">
        <ele>44.325413</ele>
        <time>2022-12-21T13:00:28.350Z</time>
      </trkpt>
      <trkpt lat="45.98325" lon="-1.02075">
        <ele>44.293515</ele>
        <time>2022-12-21T13:00:31.343Z</time>
      </trkpt>
      <trkpt lat="45.9832" lon="-1.02062">
        <ele>44.258704</ele>
        <time>2022-12-21T13:00:34.353Z</time>
      </trkpt>
      <trkpt lat="45.98315" lon="-1.02049">
        <ele>44.225252</ele>
        <time>2022-12-21T13:00:37.353Z</time>
      </trkpt>
      <trkpt lat="45.9831" lon="-1.02034">
        <ele>44.188929</ele>
        <time>2022-12-21T13:00:40.339Z</time>
      </trkpt>
      <trkpt lat="45.98305" lon="-1.02019">
        <ele>44.15069</ele>
        <time>2022-12-21T13:00:43.345Z</time>
      </trkpt>
      <trkpt lat="45.98299" lon="-1.02005">
        <ele>44.22001</ele>
        <time>2022-12-21T13:00:46.356Z</time>
      </trkpt>
      <trkpt lat="45.98293" lon="-1.01989">
        <ele>44.304995</ele>
        <time>2022-12-21T13:00:49.393Z</time>
      </trkpt>
      <trkpt lat="45.98288" lon="-1.01974">
        <ele>44.391948</ele>
        <time>2022-12-21T13:00:52.344Z</time>
      </trkpt>
      <trkpt lat="45.98282" lon="-1.01958">
        <ele>44.480653</ele>
        <time>2022-12-21T13:00:55.407Z</time>
      </trkpt>
      <trkpt lat="45.98276" lon="-1.01942">
        <ele>44.567606</ele>
        <time>2022-12-21T13:00:58.336Z</time>
      </trkpt>
      <trkpt lat="45.98271" lon="-1.01926">
        <ele>44.655231</ele>
        <time>2022-12-21T13:01:01.409Z</time>
      </trkpt>
      <trkpt lat="45.98265" lon="-1.0191">
        <ele>44.745797</ele>
        <time>2022-12-21T13:01:04.350Z</time>
      </trkpt>
      <trkpt lat="45.98259" lon="-1.01894">
        <ele>44.836704</ele>
        <time>2022-12-21T13:01:07.399Z</time>
      </trkpt>
      <trkpt lat="45.98253" lon="-1.01877">
        <ele>44.928723</ele>
        <time>2022-12-21T13:01:10.348Z</time>
      </trkpt>
      <trkpt lat="45.98248" lon="-1.01862">
        <ele>45.011553</ele>
        <time>2022-12-21T13:01:13.345Z</time>
      </trkpt>
      <trkpt lat="45.98243" lon="-1.01849">
        <ele>45.084516</ele>
        <time>2022-12-21T13:01:16.347Z</time>
      </trkpt>
      <trkpt lat="45.98237" lon="-1.01834">
        <ele>45.16994</ele>
        <time>2022-12-21T13:01:20.354Z</time>
      </trkpt>
      <trkpt lat="45.98232" lon="-1.01822">
        <ele>45.239887</ele>
        <time>2022-12-21T13:01:23.347Z</time>
      </trkpt>
      <trkpt lat="45.98228" lon="-1.01808">
        <ele>45.313311</ele>
        <time>2022-12-21T13:01:26.334Z</time>
      </trkpt>
      <trkpt lat="45.98222" lon="-1.01795">
        <ele>45.387671</ele>
        <time>2022-12-21T13:01:29.353Z</time>
      </trkpt>
      <trkpt lat="45.98218" lon="-1.01781">
        <ele>45.434961</ele>
        <time>2022-12-21T13:01:32.357Z</time>
      </trkpt>
      <trkpt lat="45.98212" lon="-1.01766">
        <ele>45.458665</ele>
        <time>2022-12-21T13:01:35.353Z</time>
      </trkpt>
      <trkpt lat="45.98207" lon="-1.01752">
        <ele>45.480996</ele>
        <time>2022-12-21T13:01:38.344Z</time>
      </trkpt>
      <trkpt lat="45.98201" lon="-1.01737">
        <ele>45.504056</ele>
        <time>2022-12-21T13:01:41.343Z</time>
      </trkpt>
      <trkpt lat="45.98196" lon="-1.01722">
        <ele>45.528256</ele>
        <time>2022-12-21T13:01:44.344Z</time>
      </trkpt>
      <trkpt lat="45.9819" lon="-1.01706">
        <ele>45.552771</ele>
        <time>2022-12-21T13:01:47.349Z</time>
      </trkpt>
      <trkpt lat="45.98185" lon="-1.0169">
        <ele>45.577258</ele>
        <time>2022-12-21T13:01:50.350Z</time>
      </trkpt>
      <trkpt lat="45.98179" lon="-1.01675">
        <ele>45.602016</ele>
        <time>2022-12-21T13:01:53.348Z</time>
      </trkpt>
      <trkpt lat="45.98173" lon="-1.01658">
        <ele>45.628064</ele>
        <time>2022-12-21T13:01:56.350Z</time>
      </trkpt>
      <trkpt lat="45.98167" lon="-1.01641">
        <ele>45.653561</ele>
        <time>2022-12-21T13:01:59.347Z</time>
      </trkpt>
      <trkpt lat="45.98161" lon="-1.01626">
        <ele>45.678101</ele>
        <time>2022-12-21T13:02:02.351Z</time>
      </trkpt>
      <trkpt lat="45.98157" lon="-1.01612">
        <ele>45.699899</ele>
        <time>2022-12-21T13:02:05.354Z</time>
      </trkpt>
      <trkpt lat="45.98152" lon="-1.01599">
        <ele>45.719232</ele>
        <time>2022-12-21T13:02:08.350Z</time>
      </trkpt>
      <trkpt lat="45.98147" lon="-1.01587">
        <ele>45.739683</ele>
        <time>2022-12-21T13:02:11.354Z</time>
      </trkpt>
      <trkpt lat="45.98142" lon="-1.01573">
        <ele>45.761653</ele>
        <time>2022-12-21T13:02:14.355Z</time>
      </trkpt>
      <trkpt lat="45.98137" lon="-1.01558">
        <ele>45.777155</ele>
        <time>2022-12-21T13:02:17.331Z</time>
      </trkpt>
      <trkpt lat="45.98132" lon="-1.01542">
        <ele>45.720572</ele>
        <time>2022-12-21T13:02:20.330Z</time>
      </trkpt>
      <trkpt lat="45.98127" lon="-1.01526">
        <ele>45.661981</ele>
        <time>2022-12-21T13:02:23.351Z</time>
      </trkpt>
      <trkpt lat="45.98121" lon="-1.0151">
        <ele>45.604399</ele>
        <time>2022-12-21T13:02:26.336Z</time>
      </trkpt>
      <trkpt lat="45.98116" lon="-1.01494">
        <ele>45.545728</ele>
        <time>2022-12-21T13:02:29.341Z</time>
      </trkpt>
      <trkpt lat="45.98112" lon="-1.01477">
        <ele>45.486593</ele>
        <time>2022-12-21T13:02:32.351Z</time>
      </trkpt>
      <trkpt lat="45.98107" lon="-1.01459">
        <ele>45.42471</ele>
        <time>2022-12-21T13:02:35.342Z</time>
      </trkpt>
      <trkpt lat="45.98103" lon="-1.01443">
        <ele>45.366419</ele>
        <time>2022-12-21T13:02:38.352Z</time>
      </trkpt>
      <trkpt lat="45.98099" lon="-1.01427">
        <ele>45.311228</ele>
        <time>2022-12-21T13:02:41.330Z</time>
      </trkpt>
      <trkpt lat="45.98095" lon="-1.01412">
        <ele>45.259296</ele>
        <time>2022-12-21T13:02:44.422Z</time>
      </trkpt>
      <trkpt lat="45.98093" lon="-1.01398">
        <ele>45.213125</ele>
        <time>2022-12-21T13:02:47.350Z</time>
      </trkpt>
      <trkpt lat="45.98089" lon="-1.01382">
        <ele>45.156532</ele>
        <time>2022-12-21T13:02:51.360Z</time>
      </trkpt>
      <trkpt lat="45.98087" lon="-1.01368">
        <ele>45.108677</ele>
        <time>2022-12-21T13:02:54.341Z</time>
      </trkpt>
      <trkpt lat="45.98084" lon="-1.01354">
        <ele>45.061308</ele>
        <time>2022-12-21T13:02:57.353Z</time>
      </trkpt>
      <trkpt lat="45.98081" lon="-1.01339">
        <ele>45.012158</ele>
        <time>2022-12-21T13:03:00.353Z</time>
      </trkpt>
      <trkpt lat="45.98078" lon="-1.01322">
        <ele>44.953594</ele>
        <time>2022-12-21T13:03:03.342Z</time>
      </trkpt>
      <trkpt lat="45.98075" lon="-1.01304">
        <ele>44.98404</ele>
        <time>2022-12-21T13:03:06.339Z</time>
      </trkpt>
      <trkpt lat="45.98071" lon="-1.01285">
        <ele>45.059963</ele>
        <time>2022-12-21T13:03:09.343Z</time>
      </trkpt>
      <trkpt lat="45.98069" lon="-1.01267">
        <ele>45.134165</ele>
        <time>2022-12-21T13:03:12.355Z</time>
      </trkpt>
      <trkpt lat="45.98066" lon="-1.0125">
        <ele>45.203899</ele>
        <time>2022-12-21T13:03:15.352Z</time>
      </trkpt>
      <trkpt lat="45.98064" lon="-1.01235">
        <ele>45.267316</ele>
        <time>2022-12-21T13:03:18.353Z</time>
      </trkpt>
      <trkpt lat="45.98062" lon="-1.01219">
        <ele>45.333173</ele>
        <time>2022-12-21T13:03:21.350Z</time>
      </trkpt>
      <trkpt lat="45.98059" lon="-1.01202">
        <ele>45.40374</ele>
        <time>2022-12-21T13:03:24.351Z</time>
      </trkpt>
      <trkpt lat="45.98057" lon="-1.01184">
        <ele>45.476343</ele>
        <time>2022-12-21T13:03:27.353Z</time>
      </trkpt>
      <trkpt lat="45.98055" lon="-1.01165">
        <ele>45.551716</ele>
        <time>2022-12-21T13:03:30.353Z</time>
      </trkpt>
      <trkpt lat="45.98053" lon="-1.01146">
        <ele>45.628672</ele>
        <time>2022-12-21T13:03:33.356Z</time>
      </trkpt>
      <trkpt lat="45.98052" lon="-1.01133">
        <ele>45.681662</ele>
        <time>2022-12-21T13:03:35.347Z</time>
      </trkpt>
      <trkpt lat="45.98051" lon="-1.01114">
        <ele>45.759742</ele>
        <time>2022-12-21T13:03:38.351Z</time>
      </trkpt>
      <trkpt lat="45.98049" lon="-1.01095">
        <ele>45.835953</ele>
        <time>2022-12-21T13:03:41.346Z</time>
      </trkpt>
      <trkpt lat="45.98048" lon="-1.01082">
        <ele>45.889075</ele>
        <time>2022-12-21T13:03:43.328Z</time>
      </trkpt>
      <trkpt lat="45.98047" lon="-1.01064">
        <ele>45.962839</ele>
        <time>2022-12-21T13:03:46.345Z</time>
      </trkpt>
      <trkpt lat="45.98046" lon="-1.01046">
        <ele>45.779988</ele>
        <time>2022-12-21T13:03:49.357Z</time>
      </trkpt>
      <trkpt lat="45.98045" lon="-1.01031">
        <ele>45.580384</ele>
        <time>2022-12-21T13:03:52.356Z</time>
      </trkpt>
      <trkpt lat="45.98045" lon="-1.01015">
        <ele>45.374161</ele>
        <time>2022-12-21T13:03:55.350Z</time>
      </trkpt>
      <trkpt lat="45.98044" lon="-1.00998">
        <ele>45.151135</ele>
        <time>2022-12-21T13:03:58.350Z</time>
      </trkpt>
      <trkpt lat="45.98043" lon="-1.0098">
        <ele>44.917106</ele>
        <time>2022-12-21T13:04:01.355Z</time>
      </trkpt>
      <trkpt lat="45.98042" lon="-1.00961">
        <ele>44.674377</ele>
        <time>2022-12-21T13:04:04.348Z</time>
      </trkpt>
      <trkpt lat="45.98042" lon="-1.00942">
        <ele>44.435733</ele>
        <time>2022-12-21T13:04:07.353Z</time>
      </trkpt>
      <trkpt lat="45.98041" lon="-1.00922">
        <ele>44.179302</ele>
        <time>2022-12-21T13:04:10.343Z</time>
      </trkpt>
      <trkpt lat="45.9804" lon="-1.00904">
        <ele>43.937041</ele>
        <time>2022-12-21T13:04:13.352Z</time>
      </trkpt>
      <trkpt lat="45.98039" lon="-1.00885">
        <ele>43.696746</ele>
        <time>2022-12-21T13:04:16.355Z</time>
      </trkpt>
      <trkpt lat="45.98038" lon="-1.00865">
        <ele>43.444177</ele>
        <time>2022-12-21T13:04:19.342Z</time>
      </trkpt>
      <trkpt lat="45.98037" lon="-1.00848">
        <ele>43.214269</ele>
        <time>2022-12-21T13:04:22.346Z</time>
      </trkpt>
      <trkpt lat="45.98036" lon="-1.0083">
        <ele>42.991057</ele>
        <time>2022-12-21T13:04:25.321Z</time>
      </trkpt>
      <trkpt lat="45.98035" lon="-1.00814">
        <ele>42.78456</ele>
        <time>2022-12-21T13:04:28.331Z</time>
      </trkpt>
      <trkpt lat="45.98035" lon="-1.00797">
        <ele>42.643822</ele>
        <time>2022-12-21T13:04:31.352Z</time>
      </trkpt>
      <trkpt lat="45.98034" lon="-1.00779">
        <ele>42.658714</ele>
        <time>2022-12-21T13:04:34.349Z</time>
      </trkpt>
      <trkpt lat="45.98033" lon="-1.00761">
        <ele>42.673743</ele>
        <time>2022-12-21T13:04:37.342Z</time>
      </trkpt>
      <trkpt lat="45.98032" lon="-1.00742">
        <ele>42.689091</ele>
        <time>2022-12-21T13:04:40.353Z</time>
      </trkpt>
      <trkpt lat="45.98032" lon="-1.00723">
        <ele>42.70503</ele>
        <time>2022-12-21T13:04:43.341Z</time>
      </trkpt>
      <trkpt lat="45.98031" lon="-1.0071">
        <ele>42.715896</ele>
        <time>2022-12-21T13:04:45.341Z</time>
      </trkpt>
      <trkpt lat="45.9803" lon="-1.00697">
        <ele>42.726949</ele>
        <time>2022-12-21T13:04:47.344Z</time>
      </trkpt>
      <trkpt lat="45.98029" lon="-1.00683">
        <ele>42.738178</ele>
        <time>2022-12-21T13:04:49.351Z</time>
      </trkpt>
      <trkpt lat="45.98027" lon="-1.00671">
        <ele>42.748874</ele>
        <time>2022-12-21T13:04:51.356Z</time>
      </trkpt>
      <trkpt lat="45.98026" lon="-1.00653">
        <ele>42.763294</ele>
        <time>2022-12-21T13:04:54.348Z</time>
      </trkpt>
      <trkpt lat="45.98025" lon="-1.00639">
        <ele>42.775624</ele>
        <time>2022-12-21T13:04:57.350Z</time>
      </trkpt>
      <trkpt lat="45.98023" lon="-1.00623">
        <ele>42.788792</ele>
        <time>2022-12-21T13:05:00.348Z</time>
      </trkpt>
      <trkpt lat="45.98022" lon="-1.00606">
        <ele>42.80287</ele>
        <time>2022-12-21T13:05:03.343Z</time>
      </trkpt>
      <trkpt lat="45.98022" lon="-1.00588">
        <ele>42.81779</ele>
        <time>2022-12-21T13:05:06.345Z</time>
      </trkpt>
      <trkpt lat="45.98021" lon="-1.0057">
        <ele>42.833023</ele>
        <time>2022-12-21T13:05:09.351Z</time>
      </trkpt>
      <trkpt lat="45.9802" lon="-1.0055">
        <ele>42.848978</ele>
        <time>2022-12-21T13:05:12.349Z</time>
      </trkpt>
      <trkpt lat="45.98019" lon="-1.00537">
        <ele>42.871375</ele>
        <time>2022-12-21T13:05:14.356Z</time>
      </trkpt>
      <trkpt lat="45.98019" lon="-1.00524">
        <ele>42.900719</ele>
        <time>2022-12-21T13:05:16.384Z</time>
      </trkpt>
      <trkpt lat="45.98017" lon="-1.00506">
        <ele>42.940527</ele>
        <time>2022-12-21T13:05:19.354Z</time>
      </trkpt>
      <trkpt lat="45.98017" lon="-1.00489">
        <ele>42.977977</ele>
        <time>2022-12-21T13:05:22.410Z</time>
      </trkpt>
      <trkpt lat="45.98016" lon="-1.00472">
        <ele>43.01419</ele>
        <time>2022-12-21T13:05:25.350Z</time>
      </trkpt>
      <trkpt lat="45.98016" lon="-1.00456">
        <ele>43.049071</ele>
        <time>2022-12-21T13:05:28.392Z</time>
      </trkpt>
      <trkpt lat="45.98015" lon="-1.00441">
        <ele>43.081548</ele>
        <time>2022-12-21T13:05:31.353Z</time>
      </trkpt>
      <trkpt lat="45.98013" lon="-1.00426">
        <ele>43.11617</ele>
        <time>2022-12-21T13:05:34.399Z</time>
      </trkpt>
      <trkpt lat="45.98013" lon="-1.00411">
        <ele>43.149284</ele>
        <time>2022-12-21T13:05:37.345Z</time>
      </trkpt>
      <trkpt lat="45.98014" lon="-1.00396">
        <ele>43.18242</ele>
        <time>2022-12-21T13:05:40.346Z</time>
      </trkpt>
      <trkpt lat="45.98015" lon="-1.00379">
        <ele>43.218378</ele>
        <time>2022-12-21T13:05:43.347Z</time>
      </trkpt>
      <trkpt lat="45.98017" lon="-1.00364">
        <ele>43.253394</ele>
        <time>2022-12-21T13:05:46.354Z</time>
      </trkpt>
      <trkpt lat="45.98018" lon="-1.00349">
        <ele>43.285011</ele>
        <time>2022-12-21T13:05:49.351Z</time>
      </trkpt>
      <trkpt lat="45.9802" lon="-1.00335">
        <ele>43.317587</ele>
        <time>2022-12-21T13:05:52.350Z</time>
      </trkpt>
      <trkpt lat="45.98021" lon="-1.0032">
        <ele>43.348945</ele>
        <time>2022-12-21T13:05:55.352Z</time>
      </trkpt>
      <trkpt lat="45.98022" lon="-1.00307">
        <ele>43.377955</ele>
        <time>2022-12-21T13:05:58.349Z</time>
      </trkpt>
      <trkpt lat="45.98022" lon="-1.00291">
        <ele>43.414081</ele>
        <time>2022-12-21T13:06:02.357Z</time>
      </trkpt>
      <trkpt lat="45.98021" lon="-1.00277">
        <ele>43.325425</ele>
        <time>2022-12-21T13:06:05.401Z</time>
      </trkpt>
      <trkpt lat="45.9802" lon="-1.00263">
        <ele>43.208549</ele>
        <time>2022-12-21T13:06:08.356Z</time>
      </trkpt>
      <trkpt lat="45.98019" lon="-1.00249">
        <ele>43.082319</ele>
        <time>2022-12-21T13:06:11.429Z</time>
      </trkpt>
      <trkpt lat="45.98018" lon="-1.00233">
        <ele>42.944136</ele>
        <time>2022-12-21T13:06:14.355Z</time>
      </trkpt>
      <trkpt lat="45.98018" lon="-1.00216">
        <ele>42.799121</ele>
        <time>2022-12-21T13:06:17.434Z</time>
      </trkpt>
      <trkpt lat="45.98017" lon="-1.00198">
        <ele>42.651865</ele>
        <time>2022-12-21T13:06:20.347Z</time>
      </trkpt>
      <trkpt lat="45.98016" lon="-1.00182">
        <ele>42.512879</ele>
        <time>2022-12-21T13:06:23.406Z</time>
      </trkpt>
      <trkpt lat="45.98015" lon="-1.00167">
        <ele>42.382592</ele>
        <time>2022-12-21T13:06:26.330Z</time>
      </trkpt>
      <trkpt lat="45.9801" lon="-1.00154">
        <ele>42.258004</ele>
        <time>2022-12-21T13:06:29.332Z</time>
      </trkpt>
      <trkpt lat="45.98004" lon="-1.0014">
        <ele>42.114459</ele>
        <time>2022-12-21T13:06:33.353Z</time>
      </trkpt>
      <trkpt lat="45.98002" lon="-1.00126">
        <ele>41.995111</ele>
        <time>2022-12-21T13:06:36.352Z</time>
      </trkpt>
      <trkpt lat="45.98001" lon="-1.00112">
        <ele>41.868926</ele>
        <time>2022-12-21T13:06:39.353Z</time>
      </trkpt>
      <trkpt lat="45.97999" lon="-1.00096">
        <ele>41.735823</ele>
        <time>2022-12-21T13:06:42.342Z</time>
      </trkpt>
      <trkpt lat="45.97998" lon="-1.00079">
        <ele>41.592416</ele>
        <time>2022-12-21T13:06:45.355Z</time>
      </trkpt>
      <trkpt lat="45.97996" lon="-1.00062">
        <ele>41.444968</ele>
        <time>2022-12-21T13:06:48.347Z</time>
      </trkpt>
      <trkpt lat="45.97994" lon="-1.00047">
        <ele>41.307824</ele>
        <time>2022-12-21T13:06:51.352Z</time>
      </trkpt>
      <trkpt lat="45.97991" lon="-1.00033">
        <ele>41.20597</ele>
        <time>2022-12-21T13:06:54.357Z</time>
      </trkpt>
      <trkpt lat="45.97988" lon="-1.0002">
        <ele>41.168173</ele>
        <time>2022-12-21T13:06:57.349Z</time>
      </trkpt>
      <trkpt lat="45.97983" lon="-1.00007">
        <ele>41.128009</ele>
        <time>2022-12-21T13:07:00.352Z</time>
      </trkpt>
      <trkpt lat="45.97977" lon="-0.99994">
        <ele>41.085301</ele>
        <time>2022-12-21T13:07:03.350Z</time>
      </trkpt>
      <trkpt lat="45.9797" lon="-0.9998">
        <ele>41.04105</ele>
        <time>2022-12-21T13:07:06.355Z</time>
      </trkpt>
      <trkpt lat="45.97964" lon="-0.99966">
        <ele>40.995853</ele>
        <time>2022-12-21T13:07:09.356Z</time>
      </trkpt>
      <trkpt lat="45.97958" lon="-0.99951">
        <ele>40.950454</ele>
        <time>2022-12-21T13:07:12.361Z</time>
      </trkpt>
      <trkpt lat="45.97951" lon="-0.99937">
        <ele>40.903576</ele>
        <time>2022-12-21T13:07:15.349Z</time>
      </trkpt>
      <trkpt lat="45.97945" lon="-0.99922">
        <ele>40.858081</ele>
        <time>2022-12-21T13:07:18.357Z</time>
      </trkpt>
      <trkpt lat="45.97939" lon="-0.99908">
        <ele>40.812655</ele>
        <time>2022-12-21T13:07:21.357Z</time>
      </trkpt>
      <trkpt lat="45.97933" lon="-0.99893">
        <ele>40.767278</ele>
        <time>2022-12-21T13:07:24.352Z</time>
      </trkpt>
      <trkpt lat="45.97926" lon="-0.99879">
        <ele>40.719939</ele>
        <time>2022-12-21T13:07:27.352Z</time>
      </trkpt>
      <trkpt lat="45.9792" lon="-0.99863">
        <ele>40.67112</ele>
        <time>2022-12-21T13:07:30.348Z</time>
      </trkpt>
      <trkpt lat="45.97913" lon="-0.99847">
        <ele>40.622012</ele>
        <time>2022-12-21T13:07:33.345Z</time>
      </trkpt>
      <trkpt lat="45.97907" lon="-0.99834">
        <ele>40.578645</ele>
        <time>2022-12-21T13:07:36.350Z</time>
      </trkpt>
      <trkpt lat="45.97901" lon="-0.99822">
        <ele>40.541003</ele>
        <time>2022-12-21T13:07:39.344Z</time>
      </trkpt>
      <trkpt lat="45.97896" lon="-0.99811">
        <ele>40.538219</ele>
        <time>2022-12-21T13:07:42.339Z</time>
      </trkpt>
      <trkpt lat="45.97891" lon="-0.99799">
        <ele>40.591698</ele>
        <time>2022-12-21T13:07:45.348Z</time>
      </trkpt>
      <trkpt lat="45.97886" lon="-0.99787">
        <ele>40.646533</ele>
        <time>2022-12-21T13:07:48.350Z</time>
      </trkpt>
      <trkpt lat="45.97881" lon="-0.99774">
        <ele>40.702459</ele>
        <time>2022-12-21T13:07:51.355Z</time>
      </trkpt>
      <trkpt lat="45.97875" lon="-0.99761">
        <ele>40.760316</ele>
        <time>2022-12-21T13:07:54.356Z</time>
      </trkpt>
      <trkpt lat="45.97869" lon="-0.99747">
        <ele>40.821019</ele>
        <time>2022-12-21T13:07:57.435Z</time>
      </trkpt>
      <trkpt lat="45.97863" lon="-0.99733">
        <ele>40.884385</ele>
        <time>2022-12-21T13:08:00.354Z</time>
      </trkpt>
      <trkpt lat="45.97856" lon="-0.9972">
        <ele>40.946207</ele>
        <time>2022-12-21T13:08:03.395Z</time>
      </trkpt>
      <trkpt lat="45.9785" lon="-0.99707">
        <ele>41.004937</ele>
        <time>2022-12-21T13:08:06.357Z</time>
      </trkpt>
      <trkpt lat="45.97843" lon="-0.99694">
        <ele>41.064356</ele>
        <time>2022-12-21T13:08:09.391Z</time>
      </trkpt>
      <trkpt lat="45.97836" lon="-0.99683">
        <ele>41.124423</ele>
        <time>2022-12-21T13:08:12.353Z</time>
      </trkpt>
      <trkpt lat="45.97828" lon="-0.99672">
        <ele>41.184372</ele>
        <time>2022-12-21T13:08:15.414Z</time>
      </trkpt>
      <trkpt lat="45.97821" lon="-0.99661">
        <ele>41.239412</ele>
        <time>2022-12-21T13:08:18.346Z</time>
      </trkpt>
      <trkpt lat="45.97814" lon="-0.9965">
        <ele>41.293545</ele>
        <time>2022-12-21T13:08:21.351Z</time>
      </trkpt>
      <trkpt lat="45.97806" lon="-0.99639">
        <ele>41.353925</ele>
        <time>2022-12-21T13:08:24.356Z</time>
      </trkpt>
      <trkpt lat="45.97798" lon="-0.99627">
        <ele>41.418421</ele>
        <time>2022-12-21T13:08:27.352Z</time>
      </trkpt>
      <trkpt lat="45.9779" lon="-0.99614">
        <ele>41.481463</ele>
        <time>2022-12-21T13:08:30.352Z</time>
      </trkpt>
      <trkpt lat="45.97782" lon="-0.99601">
        <ele>41.558681</ele>
        <time>2022-12-21T13:08:33.351Z</time>
      </trkpt>
      <trkpt lat="45.97774" lon="-0.99588">
        <ele>41.639683</ele>
        <time>2022-12-21T13:08:36.353Z</time>
      </trkpt>
      <trkpt lat="45.97766" lon="-0.99576">
        <ele>41.719971</ele>
        <time>2022-12-21T13:08:39.356Z</time>
      </trkpt>
      <trkpt lat="45.97758" lon="-0.99563">
        <ele>41.800269</ele>
        <time>2022-12-21T13:08:42.355Z</time>
      </trkpt>
      <trkpt lat="45.9775" lon="-0.9955">
        <ele>41.881899</ele>
        <time>2022-12-21T13:08:45.353Z</time>
      </trkpt>
      <trkpt lat="45.97742" lon="-0.99537">
        <ele>41.962409</ele>
        <time>2022-12-21T13:08:48.349Z</time>
      </trkpt>
      <trkpt lat="45.97735" lon="-0.99524">
        <ele>42.042969</ele>
        <time>2022-12-21T13:08:51.344Z</time>
      </trkpt>
      <trkpt lat="45.97726" lon="-0.99512">
        <ele>42.12367</ele>
        <time>2022-12-21T13:08:54.351Z</time>
      </trkpt>
      <trkpt lat="45.97718" lon="-0.995">
        <ele>42.204894</ele>
        <time>2022-12-21T13:08:57.354Z</time>
      </trkpt>
      <trkpt lat="45.9771" lon="-0.99487">
        <ele>42.28581</ele>
        <time>2022-12-21T13:09:00.361Z</time>
      </trkpt>
      <trkpt lat="45.97702" lon="-0.99474">
        <ele>42.365863</ele>
        <time>2022-12-21T13:09:03.343Z</time>
      </trkpt>
      <trkpt lat="45.97695" lon="-0.99463">
        <ele>42.436625</ele>
        <time>2022-12-21T13:09:06.351Z</time>
      </trkpt>
      <trkpt lat="45.97688" lon="-0.99453">
        <ele>42.502062</ele>
        <time>2022-12-21T13:09:09.355Z</time>
      </trkpt>
      <trkpt lat="45.97681" lon="-0.99442">
        <ele>42.57443</ele>
        <time>2022-12-21T13:09:12.352Z</time>
      </trkpt>
      <trkpt lat="45.97673" lon="-0.9943">
        <ele>42.649092</ele>
        <time>2022-12-21T13:09:15.358Z</time>
      </trkpt>
      <trkpt lat="45.97665" lon="-0.99418">
        <ele>42.698441</ele>
        <time>2022-12-21T13:09:18.355Z</time>
      </trkpt>
      <trkpt lat="45.97657" lon="-0.99406">
        <ele>42.660556</ele>
        <time>2022-12-21T13:09:21.353Z</time>
      </trkpt>
      <trkpt lat="45.97649" lon="-0.99394">
        <ele>42.622873</ele>
        <time>2022-12-21T13:09:24.354Z</time>
      </trkpt>
      <trkpt lat="45.97642" lon="-0.99382">
        <ele>42.586321</ele>
        <time>2022-12-21T13:09:27.349Z</time>
      </trkpt>
      <trkpt lat="45.97634" lon="-0.9937">
        <ele>42.54936</ele>
        <time>2022-12-21T13:09:30.350Z</time>
      </trkpt>
      <trkpt lat="45.97627" lon="-0.99359">
        <ele>42.513305</ele>
        <time>2022-12-21T13:09:33.349Z</time>
      </trkpt>
      <trkpt lat="45.97619" lon="-0.99348">
        <ele>42.477759</ele>
        <time>2022-12-21T13:09:36.398Z</time>
      </trkpt>
      <trkpt lat="45.97611" lon="-0.99336">
        <ele>42.441928</ele>
        <time>2022-12-21T13:09:39.357Z</time>
      </trkpt>
      <trkpt lat="45.97605" lon="-0.99326">
        <ele>42.410874</ele>
        <time>2022-12-21T13:09:42.405Z</time>
      </trkpt>
      <trkpt lat="45.97599" lon="-0.99316">
        <ele>42.380301</ele>
        <time>2022-12-21T13:09:45.354Z</time>
      </trkpt>
      <trkpt lat="45.97592" lon="-0.99304">
        <ele>42.34624</ele>
        <time>2022-12-21T13:09:48.411Z</time>
      </trkpt>
      <trkpt lat="45.97585" lon="-0.99292">
        <ele>42.309621</ele>
        <time>2022-12-21T13:09:51.353Z</time>
      </trkpt>
      <trkpt lat="45.97577" lon="-0.9928">
        <ele>42.272004</ele>
        <time>2022-12-21T13:09:54.391Z</time>
      </trkpt>
      <trkpt lat="45.97569" lon="-0.99268">
        <ele>42.233444</ele>
        <time>2022-12-21T13:09:57.346Z</time>
      </trkpt>
      <trkpt lat="45.97561" lon="-0.99255">
        <ele>42.195294</ele>
        <time>2022-12-21T13:10:00.402Z</time>
      </trkpt>
      <trkpt lat="45.97553" lon="-0.99244">
        <ele>42.158644</ele>
        <time>2022-12-21T13:10:03.354Z</time>
      </trkpt>
      <trkpt lat="45.97545" lon="-0.99232">
        <ele>42.121479</ele>
        <time>2022-12-21T13:10:06.400Z</time>
      </trkpt>
      <trkpt lat="45.97538" lon="-0.9922">
        <ele>42.206537</ele>
        <time>2022-12-21T13:10:09.349Z</time>
      </trkpt>
      <trkpt lat="45.9753" lon="-0.99207">
        <ele>42.300696</ele>
        <time>2022-12-21T13:10:12.412Z</time>
      </trkpt>
      <trkpt lat="45.97522" lon="-0.99194">
        <ele>42.397524</ele>
        <time>2022-12-21T13:10:15.355Z</time>
      </trkpt>
      <trkpt lat="45.97514" lon="-0.99181">
        <ele>42.493981</ele>
        <time>2022-12-21T13:10:18.408Z</time>
      </trkpt>
      <trkpt lat="45.97506" lon="-0.99168">
        <ele>42.589394</ele>
        <time>2022-12-21T13:10:21.353Z</time>
      </trkpt>
      <trkpt lat="45.97497" lon="-0.99155">
        <ele>42.685568</ele>
        <time>2022-12-21T13:10:24.403Z</time>
      </trkpt>
      <trkpt lat="45.9749" lon="-0.99143">
        <ele>42.779312</ele>
        <time>2022-12-21T13:10:27.359Z</time>
      </trkpt>
      <trkpt lat="45.97482" lon="-0.9913">
        <ele>42.872531</ele>
        <time>2022-12-21T13:10:30.353Z</time>
      </trkpt>
      <trkpt lat="45.97474" lon="-0.99117">
        <ele>42.964291</ele>
        <time>2022-12-21T13:10:33.353Z</time>
      </trkpt>
      <trkpt lat="45.97466" lon="-0.99106">
        <ele>43.056027</ele>
        <time>2022-12-21T13:10:36.344Z</time>
      </trkpt>
      <trkpt lat="45.97459" lon="-0.99092">
        <ele>43.149766</ele>
        <time>2022-12-21T13:10:39.350Z</time>
      </trkpt>
      <trkpt lat="45.97451" lon="-0.9908">
        <ele>43.243244</ele>
        <time>2022-12-21T13:10:42.345Z</time>
      </trkpt>
      <trkpt lat="45.97443" lon="-0.99068">
        <ele>43.335752</ele>
        <time>2022-12-21T13:10:45.354Z</time>
      </trkpt>
      <trkpt lat="45.97436" lon="-0.99056">
        <ele>43.421249</ele>
        <time>2022-12-21T13:10:48.350Z</time>
      </trkpt>
      <trkpt lat="45.97429" lon="-0.99046">
        <ele>43.498202</ele>
        <time>2022-12-21T13:10:51.353Z</time>
      </trkpt>
      <trkpt lat="45.97423" lon="-0.99036">
        <ele>43.567877</ele>
        <time>2022-12-21T13:10:54.354Z</time>
      </trkpt>
      <trkpt lat="45.97416" lon="-0.99025">
        <ele>43.634233</ele>
        <time>2022-12-21T13:10:57.405Z</time>
      </trkpt>
      <trkpt lat="45.9741" lon="-0.99015">
        <ele>43.697717</ele>
        <time>2022-12-21T13:11:00.354Z</time>
      </trkpt>
      <trkpt lat="45.97403" lon="-0.99003">
        <ele>43.769843</ele>
        <time>2022-12-21T13:11:03.383Z</time>
      </trkpt>
      <trkpt lat="45.97396" lon="-0.98992">
        <ele>43.83796</ele>
        <time>2022-12-21T13:11:06.348Z</time>
      </trkpt>
      <trkpt lat="45.97389" lon="-0.98981">
        <ele>43.907412</ele>
        <time>2022-12-21T13:11:09.404Z</time>
      </trkpt>
      <trkpt lat="45.97382" lon="-0.98969">
        <ele>43.977502</ele>
        <time>2022-12-21T13:11:12.344Z</time>
      </trkpt>
      <trkpt lat="45.97375" lon="-0.98958">
        <ele>44.048227</ele>
        <time>2022-12-21T13:11:15.412Z</time>
      </trkpt>
      <trkpt lat="45.97367" lon="-0.98947">
        <ele>44.119037</ele>
        <time>2022-12-21T13:11:18.365Z</time>
      </trkpt>
      <trkpt lat="45.9736" lon="-0.98935">
        <ele>44.190763</ele>
        <time>2022-12-21T13:11:21.409Z</time>
      </trkpt>
      <trkpt lat="45.97352" lon="-0.98924">
        <ele>44.263609</ele>
        <time>2022-12-21T13:11:24.355Z</time>
      </trkpt>
      <trkpt lat="45.97346" lon="-0.98912">
        <ele>44.328659</ele>
        <time>2022-12-21T13:11:27.405Z</time>
      </trkpt>
      <trkpt lat="45.97338" lon="-0.98902">
        <ele>44.401069</ele>
        <time>2022-12-21T13:11:31.355Z</time>
      </trkpt>
      <trkpt lat="45.97331" lon="-0.98892">
        <ele>44.468235</ele>
        <time>2022-12-21T13:11:35.344Z</time>
      </trkpt>
      <trkpt lat="45.97322" lon="-0.98883">
        <ele>44.536661</ele>
        <time>2022-12-21T13:11:39.390Z</time>
      </trkpt>
      <trkpt lat="45.97312" lon="-0.98878">
        <ele>44.609351</ele>
        <time>2022-12-21T13:11:43.350Z</time>
      </trkpt>
      <trkpt lat="45.97302" lon="-0.98873">
        <ele>44.675034</ele>
        <time>2022-12-21T13:11:47.353Z</time>
      </trkpt>
      <trkpt lat="45.97294" lon="-0.98865">
        <ele>44.760828</ele>
        <time>2022-12-21T13:11:51.384Z</time>
      </trkpt>
      <trkpt lat="45.97286" lon="-0.98853">
        <ele>44.996972</ele>
        <time>2022-12-21T13:11:55.348Z</time>
      </trkpt>
      <trkpt lat="45.9728" lon="-0.98843">
        <ele>45.18775</ele>
        <time>2022-12-21T13:11:58.355Z</time>
      </trkpt>
      <trkpt lat="45.97274" lon="-0.98833">
        <ele>45.391975</ele>
        <time>2022-12-21T13:12:01.356Z</time>
      </trkpt>
      <trkpt lat="45.97267" lon="-0.98821">
        <ele>45.611271</ele>
        <time>2022-12-21T13:12:04.354Z</time>
      </trkpt>
      <trkpt lat="45.9726" lon="-0.9881">
        <ele>45.817674</ele>
        <time>2022-12-21T13:12:07.353Z</time>
      </trkpt>
      <trkpt lat="45.97253" lon="-0.98797">
        <ele>46.057563</ele>
        <time>2022-12-21T13:12:11.353Z</time>
      </trkpt>
      <trkpt lat="45.97247" lon="-0.98783">
        <ele>46.304442</ele>
        <time>2022-12-21T13:12:15.346Z</time>
      </trkpt>
      <trkpt lat="45.97241" lon="-0.98772">
        <ele>46.498857</ele>
        <time>2022-12-21T13:12:18.352Z</time>
      </trkpt>
      <trkpt lat="45.97235" lon="-0.9876">
        <ele>46.71121</ele>
        <time>2022-12-21T13:12:21.353Z</time>
      </trkpt>
      <trkpt lat="45.97228" lon="-0.98748">
        <ele>46.945494</ele>
        <time>2022-12-21T13:12:25.383Z</time>
      </trkpt>
      <trkpt lat="45.97221" lon="-0.98738">
        <ele>47.160324</ele>
        <time>2022-12-21T13:12:29.352Z</time>
      </trkpt>
      <trkpt lat="45.97213" lon="-0.98729">
        <ele>47.366284</ele>
        <time>2022-12-21T13:12:33.400Z</time>
      </trkpt>
      <trkpt lat="45.97204" lon="-0.98719">
        <ele>47.608115</ele>
        <time>2022-12-21T13:12:37.356Z</time>
      </trkpt>
      <trkpt lat="45.97197" lon="-0.98711">
        <ele>47.799112</ele>
        <time>2022-12-21T13:12:40.358Z</time>
      </trkpt>
      <trkpt lat="45.9719" lon="-0.98702">
        <ele>47.989883</ele>
        <time>2022-12-21T13:12:43.343Z</time>
      </trkpt>
      <trkpt lat="45.9718" lon="-0.98693">
        <ele>48.229938</ele>
        <time>2022-12-21T13:12:47.352Z</time>
      </trkpt>
      <trkpt lat="45.97171" lon="-0.98682">
        <ele>48.481063</ele>
        <time>2022-12-21T13:12:51.352Z</time>
      </trkpt>
      <trkpt lat="45.97163" lon="-0.98673">
        <ele>48.592007</ele>
        <time>2022-12-21T13:12:54.355Z</time>
      </trkpt>
      <trkpt lat="45.97154" lon="-0.98664">
        <ele>48.721037</ele>
        <time>2022-12-21T13:12:58.357Z</time>
      </trkpt>
      <trkpt lat="45.97146" lon="-0.98656">
        <ele>48.821767</ele>
        <time>2022-12-21T13:13:01.403Z</time>
      </trkpt>
      <trkpt lat="45.97137" lon="-0.98645">
        <ele>48.951472</ele>
        <time>2022-12-21T13:13:05.344Z</time>
      </trkpt>
      <trkpt lat="45.97129" lon="-0.98636">
        <ele>49.060222</ele>
        <time>2022-12-21T13:13:08.350Z</time>
      </trkpt>
      <trkpt lat="45.97121" lon="-0.98627">
        <ele>49.169422</ele>
        <time>2022-12-21T13:13:11.355Z</time>
      </trkpt>
      <trkpt lat="45.97113" lon="-0.98619">
        <ele>49.280381</ele>
        <time>2022-12-21T13:13:14.362Z</time>
      </trkpt>
      <trkpt lat="45.97105" lon="-0.98609">
        <ele>49.391371</ele>
        <time>2022-12-21T13:13:17.352Z</time>
      </trkpt>
      <trkpt lat="45.97097" lon="-0.98601">
        <ele>49.497925</ele>
        <time>2022-12-21T13:13:20.354Z</time>
      </trkpt>
      <trkpt lat="45.97089" lon="-0.9859">
        <ele>49.616393</ele>
        <time>2022-12-21T13:13:24.406Z</time>
      </trkpt>
      <trkpt lat="45.97081" lon="-0.98581">
        <ele>49.728779</ele>
        <time>2022-12-21T13:13:29.355Z</time>
      </trkpt>
      <trkpt lat="45.97074" lon="-0.98573">
        <ele>49.829139</ele>
        <time>2022-12-21T13:13:33.344Z</time>
      </trkpt>
      <trkpt lat="45.97066" lon="-0.98566">
        <ele>49.931837</ele>
        <time>2022-12-21T13:13:37.333Z</time>
      </trkpt>
      <trkpt lat="45.97057" lon="-0.98558">
        <ele>50.04238</ele>
        <time>2022-12-21T13:13:41.408Z</time>
      </trkpt>
      <trkpt lat="45.97048" lon="-0.98547">
        <ele>50.169808</ele>
        <time>2022-12-21T13:13:45.352Z</time>
      </trkpt>
      <trkpt lat="45.97041" lon="-0.98538">
        <ele>50.272484</ele>
        <time>2022-12-21T13:13:48.350Z</time>
      </trkpt>
      <trkpt lat="45.97032" lon="-0.98528">
        <ele>50.400214</ele>
        <time>2022-12-21T13:13:52.353Z</time>
      </trkpt>
      <trkpt lat="45.97024" lon="-0.98521">
        <ele>50.474916</ele>
        <time>2022-12-21T13:13:55.352Z</time>
      </trkpt>
      <trkpt lat="45.97016" lon="-0.98513">
        <ele>50.520967</ele>
        <time>2022-12-21T13:13:58.404Z</time>
      </trkpt>
      <trkpt lat="45.97006" lon="-0.98504">
        <ele>50.578827</ele>
        <time>2022-12-21T13:14:02.355Z</time>
      </trkpt>
      <trkpt lat="45.96997" lon="-0.98496">
        <ele>50.631518</ele>
        <time>2022-12-21T13:14:06.357Z</time>
      </trkpt>
      <trkpt lat="45.96989" lon="-0.98489">
        <ele>50.67798</ele>
        <time>2022-12-21T13:14:09.352Z</time>
      </trkpt>
      <trkpt lat="45.9698" lon="-0.9848">
        <ele>50.730165</ele>
        <time>2022-12-21T13:14:13.351Z</time>
      </trkpt>
      <trkpt lat="45.96971" lon="-0.98472">
        <ele>50.779785</ele>
        <time>2022-12-21T13:14:17.350Z</time>
      </trkpt>
      <trkpt lat="45.96964" lon="-0.98464">
        <ele>50.825029</ele>
        <time>2022-12-21T13:14:21.350Z</time>
      </trkpt>
      <trkpt lat="45.96956" lon="-0.98454">
        <ele>50.87843</ele>
        <time>2022-12-21T13:14:25.339Z</time>
      </trkpt>
      <trkpt lat="45.96946" lon="-0.98445">
        <ele>50.933164</ele>
        <time>2022-12-21T13:14:30.347Z</time>
      </trkpt>
      <trkpt lat="45.96938" lon="-0.98438">
        <ele>50.979232</ele>
        <time>2022-12-21T13:14:34.408Z</time>
      </trkpt>
      <trkpt lat="45.96928" lon="-0.98428">
        <ele>51.039965</ele>
        <time>2022-12-21T13:14:38.356Z</time>
      </trkpt>
      <trkpt lat="45.9692" lon="-0.98416">
        <ele>51.095693</ele>
        <time>2022-12-21T13:14:42.355Z</time>
      </trkpt>
      <trkpt lat="45.96913" lon="-0.98407">
        <ele>51.140615</ele>
        <time>2022-12-21T13:14:46.358Z</time>
      </trkpt>
      <trkpt lat="45.96906" lon="-0.98397">
        <ele>51.188681</ele>
        <time>2022-12-21T13:14:50.349Z</time>
      </trkpt>
      <trkpt lat="45.969" lon="-0.98387">
        <ele>51.235014</ele>
        <time>2022-12-21T13:14:54.345Z</time>
      </trkpt>
      <trkpt lat="45.96892" lon="-0.98375">
        <ele>51.291298</ele>
        <time>2022-12-21T13:14:58.334Z</time>
      </trkpt>
      <trkpt lat="45.96886" lon="-0.98364">
        <ele>51.365724</ele>
        <time>2022-12-21T13:15:02.354Z</time>
      </trkpt>
      <trkpt lat="45.96878" lon="-0.98354">
        <ele>51.595536</ele>
        <time>2022-12-21T13:15:06.355Z</time>
      </trkpt>
      <trkpt lat="45.96871" lon="-0.98343">
        <ele>51.819866</ele>
        <time>2022-12-21T13:15:10.353Z</time>
      </trkpt>
      <trkpt lat="45.96865" lon="-0.98333">
        <ele>52.028354</ele>
        <time>2022-12-21T13:15:15.410Z</time>
      </trkpt>
      <trkpt lat="45.96862" lon="-0.98327">
        <ele>52.133161</ele>
        <time>2022-12-21T13:15:44.651Z</time>
      </trkpt>
      <trkpt lat="45.96858" lon="-0.98315">
        <ele>52.340824</ele>
        <time>2022-12-21T13:17:39.334Z</time>
      </trkpt>
      <trkpt lat="45.96848" lon="-0.98311">
        <ele>52.562408</ele>
        <time>2022-12-21T13:17:44.351Z</time>
      </trkpt>
      <trkpt lat="45.96838" lon="-0.98315">
        <ele>52.789011</ele>
        <time>2022-12-21T13:17:50.336Z</time>
      </trkpt>
      <trkpt lat="45.96829" lon="-0.98319">
        <ele>52.987774</ele>
        <time>2022-12-21T13:17:54.327Z</time>
      </trkpt>
      <trkpt lat="45.9682" lon="-0.98324">
        <ele>53.19259</ele>
        <time>2022-12-21T13:17:58.341Z</time>
      </trkpt>
      <trkpt lat="45.96812" lon="-0.98328">
        <ele>53.388364</ele>
        <time>2022-12-21T13:18:02.348Z</time>
      </trkpt>
      <trkpt lat="45.96801" lon="-0.98332">
        <ele>53.622968</ele>
        <time>2022-12-21T13:18:07.332Z</time>
      </trkpt>
      <trkpt lat="45.96792" lon="-0.98337">
        <ele>53.836483</ele>
        <time>2022-12-21T13:18:11.332Z</time>
      </trkpt>
      <trkpt lat="45.96782" lon="-0.98342">
        <ele>54.069898</ele>
        <time>2022-12-21T13:18:15.334Z</time>
      </trkpt>
      <trkpt lat="45.96772" lon="-0.98346">
        <ele>54.2916</ele>
        <time>2022-12-21T13:18:19.333Z</time>
      </trkpt>
      <trkpt lat="45.96762" lon="-0.98349">
        <ele>54.513696</ele>
        <time>2022-12-21T13:18:23.335Z</time>
      </trkpt>
      <trkpt lat="45.96752" lon="-0.98353">
        <ele>54.733626</ele>
        <time>2022-12-21T13:18:27.340Z</time>
      </trkpt>
      <trkpt lat="45.96741" lon="-0.98356">
        <ele>54.9807</ele>
        <time>2022-12-21T13:18:31.332Z</time>
      </trkpt>
      <trkpt lat="45.9673" lon="-0.98359">
        <ele>55.226194</ele>
        <time>2022-12-21T13:18:35.331Z</time>
      </trkpt>
      <trkpt lat="45.96719" lon="-0.98362">
        <ele>55.266578</ele>
        <time>2022-12-21T13:18:39.327Z</time>
      </trkpt>
      <trkpt lat="45.96709" lon="-0.98364">
        <ele>55.29757</ele>
        <time>2022-12-21T13:18:43.330Z</time>
      </trkpt>
      <trkpt lat="45.96699" lon="-0.98369">
        <ele>55.328234</ele>
        <time>2022-12-21T13:18:47.333Z</time>
      </trkpt>
      <trkpt lat="45.9669" lon="-0.98375">
        <ele>55.358329</ele>
        <time>2022-12-21T13:18:51.361Z</time>
      </trkpt>
      <trkpt lat="45.96681" lon="-0.98371">
        <ele>55.385363</ele>
        <time>2022-12-21T13:18:55.342Z</time>
      </trkpt>
      <trkpt lat="45.96673" lon="-0.98364">
        <ele>55.413166</ele>
        <time>2022-12-21T13:18:59.334Z</time>
      </trkpt>
      <trkpt lat="45.96663" lon="-0.98361">
        <ele>55.443884</ele>
        <time>2022-12-21T13:19:03.349Z</time>
      </trkpt>
      <trkpt lat="45.96653" lon="-0.98359">
        <ele>55.47341</ele>
        <time>2022-12-21T13:19:07.346Z</time>
      </trkpt>
      <trkpt lat="45.96643" lon="-0.98359">
        <ele>55.50314</ele>
        <time>2022-12-21T13:19:11.340Z</time>
      </trkpt>
      <trkpt lat="45.96633" lon="-0.98361">
        <ele>55.531892</ele>
        <time>2022-12-21T13:19:15.357Z</time>
      </trkpt>
      <trkpt lat="45.96623" lon="-0.98364">
        <ele>55.561032</ele>
        <time>2022-12-21T13:19:19.336Z</time>
      </trkpt>
      <trkpt lat="45.96613" lon="-0.98369">
        <ele>55.593047</ele>
        <time>2022-12-21T13:19:23.325Z</time>
      </trkpt>
      <trkpt lat="45.96602" lon="-0.98375">
        <ele>55.62625</ele>
        <time>2022-12-21T13:19:27.336Z</time>
      </trkpt>
      <trkpt lat="45.96593" lon="-0.98382">
        <ele>55.658529</ele>
        <time>2022-12-21T13:19:31.335Z</time>
      </trkpt>
      <trkpt lat="45.96583" lon="-0.98388">
        <ele>55.689576</ele>
        <time>2022-12-21T13:19:35.348Z</time>
      </trkpt>
      <trkpt lat="45.96575" lon="-0.98394">
        <ele>55.716217</ele>
        <time>2022-12-21T13:19:38.345Z</time>
      </trkpt>
      <trkpt lat="45.96566" lon="-0.98401">
        <ele>55.745679</ele>
        <time>2022-12-21T13:19:41.343Z</time>
      </trkpt>
      <trkpt lat="45.96557" lon="-0.98409">
        <ele>55.732383</ele>
        <time>2022-12-21T13:19:44.341Z</time>
      </trkpt>
      <trkpt lat="45.96547" lon="-0.98417">
        <ele>55.643875</ele>
        <time>2022-12-21T13:19:47.345Z</time>
      </trkpt>
      <trkpt lat="45.96537" lon="-0.98425">
        <ele>55.55376</ele>
        <time>2022-12-21T13:19:50.360Z</time>
      </trkpt>
      <trkpt lat="45.96528" lon="-0.98435">
        <ele>55.461183</ele>
        <time>2022-12-21T13:19:53.328Z</time>
      </trkpt>
      <trkpt lat="45.96518" lon="-0.98446">
        <ele>55.364663</ele>
        <time>2022-12-21T13:19:56.350Z</time>
      </trkpt>
      <trkpt lat="45.96509" lon="-0.98457">
        <ele>55.269977</ele>
        <time>2022-12-21T13:19:59.339Z</time>
      </trkpt>
      <trkpt lat="45.965" lon="-0.98469">
        <ele>55.177081</ele>
        <time>2022-12-21T13:20:02.337Z</time>
      </trkpt>
      <trkpt lat="45.96493" lon="-0.98481">
        <ele>55.090727</ele>
        <time>2022-12-21T13:20:05.365Z</time>
      </trkpt>
      <trkpt lat="45.96486" lon="-0.98492">
        <ele>55.00793</ele>
        <time>2022-12-21T13:20:08.343Z</time>
      </trkpt>
      <trkpt lat="45.96479" lon="-0.98504">
        <ele>54.922389</ele>
        <time>2022-12-21T13:20:11.349Z</time>
      </trkpt>
      <trkpt lat="45.96472" lon="-0.98515">
        <ele>54.838826</ele>
        <time>2022-12-21T13:20:14.360Z</time>
      </trkpt>
      <trkpt lat="45.96465" lon="-0.98527">
        <ele>54.755672</ele>
        <time>2022-12-21T13:20:17.338Z</time>
      </trkpt>
      <trkpt lat="45.96458" lon="-0.98539">
        <ele>54.668132</ele>
        <time>2022-12-21T13:20:20.342Z</time>
      </trkpt>
      <trkpt lat="45.96449" lon="-0.9855">
        <ele>54.577482</ele>
        <time>2022-12-21T13:20:23.335Z</time>
      </trkpt>
      <trkpt lat="45.96439" lon="-0.98559">
        <ele>54.484576</ele>
        <time>2022-12-21T13:20:26.340Z</time>
      </trkpt>
      <trkpt lat="45.96428" lon="-0.98567">
        <ele>54.386715</ele>
        <time>2022-12-21T13:20:29.346Z</time>
      </trkpt>
      <trkpt lat="45.96416" lon="-0.98573">
        <ele>54.090504</ele>
        <time>2022-12-21T13:20:32.360Z</time>
      </trkpt>
      <trkpt lat="45.96403" lon="-0.98577">
        <ele>53.694624</ele>
        <time>2022-12-21T13:20:35.358Z</time>
      </trkpt>
      <trkpt lat="45.96391" lon="-0.98582">
        <ele>53.304691</ele>
        <time>2022-12-21T13:20:38.340Z</time>
      </trkpt>
      <trkpt lat="45.96379" lon="-0.98585">
        <ele>52.941378</ele>
        <time>2022-12-21T13:20:41.334Z</time>
      </trkpt>
      <trkpt lat="45.96368" lon="-0.98587">
        <ele>52.591197</ele>
        <time>2022-12-21T13:20:44.349Z</time>
      </trkpt>
      <trkpt lat="45.96357" lon="-0.9859">
        <ele>52.246686</ele>
        <time>2022-12-21T13:20:47.339Z</time>
      </trkpt>
      <trkpt lat="45.96346" lon="-0.98593">
        <ele>51.910425</ele>
        <time>2022-12-21T13:20:50.340Z</time>
      </trkpt>
      <trkpt lat="45.96334" lon="-0.98596">
        <ele>51.535766</ele>
        <time>2022-12-21T13:20:53.342Z</time>
      </trkpt>
      <trkpt lat="45.9632" lon="-0.98599">
        <ele>51.123874</ele>
        <time>2022-12-21T13:20:56.350Z</time>
      </trkpt>
      <trkpt lat="45.96307" lon="-0.98602">
        <ele>50.715663</ele>
        <time>2022-12-21T13:20:59.363Z</time>
      </trkpt>
      <trkpt lat="45.96298" lon="-0.98604">
        <ele>50.43923</ele>
        <time>2022-12-21T13:21:01.344Z</time>
      </trkpt>
      <trkpt lat="45.96285" lon="-0.98608">
        <ele>50.025506</ele>
        <time>2022-12-21T13:21:04.358Z</time>
      </trkpt>
      <trkpt lat="45.96275" lon="-0.98611">
        <ele>49.729471</ele>
        <time>2022-12-21T13:21:06.352Z</time>
      </trkpt>
      <trkpt lat="45.96262" lon="-0.98613">
        <ele>49.307298</ele>
        <time>2022-12-21T13:21:09.362Z</time>
      </trkpt>
      <trkpt lat="45.96252" lon="-0.98616">
        <ele>49.006975</ele>
        <time>2022-12-21T13:21:11.345Z</time>
      </trkpt>
      <trkpt lat="45.96243" lon="-0.98619">
        <ele>48.815911</ele>
        <time>2022-12-21T13:21:13.330Z</time>
      </trkpt>
      <trkpt lat="45.96234" lon="-0.98622">
        <ele>48.735496</ele>
        <time>2022-12-21T13:21:15.348Z</time>
      </trkpt>
      <trkpt lat="45.96224" lon="-0.98625">
        <ele>48.65127</ele>
        <time>2022-12-21T13:21:17.327Z</time>
      </trkpt>
      <trkpt lat="45.96214" lon="-0.98628">
        <ele>48.566592</ele>
        <time>2022-12-21T13:21:19.340Z</time>
      </trkpt>
      <trkpt lat="45.96204" lon="-0.98631">
        <ele>48.481085</ele>
        <time>2022-12-21T13:21:21.341Z</time>
      </trkpt>
      <trkpt lat="45.96194" lon="-0.98633">
        <ele>48.395913</ele>
        <time>2022-12-21T13:21:23.338Z</time>
      </trkpt>
      <trkpt lat="45.96184" lon="-0.98635">
        <ele>48.308788</ele>
        <time>2022-12-21T13:21:25.350Z</time>
      </trkpt>
      <trkpt lat="45.96174" lon="-0.98637">
        <ele>48.222724</ele>
        <time>2022-12-21T13:21:27.337Z</time>
      </trkpt>
      <trkpt lat="45.96164" lon="-0.98638">
        <ele>48.139315</ele>
        <time>2022-12-21T13:21:29.363Z</time>
      </trkpt>
      <trkpt lat="45.96155" lon="-0.98639">
        <ele>48.062188</ele>
        <time>2022-12-21T13:21:31.337Z</time>
      </trkpt>
      <trkpt lat="45.96146" lon="-0.9864">
        <ele>47.985906</ele>
        <time>2022-12-21T13:21:33.344Z</time>
      </trkpt>
      <trkpt lat="45.96135" lon="-0.9864">
        <ele>47.89105</ele>
        <time>2022-12-21T13:21:36.349Z</time>
      </trkpt>
      <trkpt lat="45.96125" lon="-0.98642">
        <ele>47.805756</ele>
        <time>2022-12-21T13:21:39.352Z</time>
      </trkpt>
      <trkpt lat="45.96116" lon="-0.98643">
        <ele>47.72532</ele>
        <time>2022-12-21T13:21:42.351Z</time>
      </trkpt>
      <trkpt lat="45.96105" lon="-0.98643">
        <ele>47.633069</ele>
        <time>2022-12-21T13:21:45.345Z</time>
      </trkpt>
      <trkpt lat="45.96094" lon="-0.98642">
        <ele>47.539821</ele>
        <time>2022-12-21T13:21:48.339Z</time>
      </trkpt>
      <trkpt lat="45.96083" lon="-0.98641">
        <ele>47.452362</ele>
        <time>2022-12-21T13:21:51.357Z</time>
      </trkpt>
      <trkpt lat="45.96072" lon="-0.9864">
        <ele>47.359924</ele>
        <time>2022-12-21T13:21:54.358Z</time>
      </trkpt>
      <trkpt lat="45.96062" lon="-0.98637">
        <ele>47.278338</ele>
        <time>2022-12-21T13:21:57.356Z</time>
      </trkpt>
      <trkpt lat="45.96053" lon="-0.98633">
        <ele>47.209105</ele>
        <time>2022-12-21T13:22:00.356Z</time>
      </trkpt>
      <trkpt lat="45.96044" lon="-0.98622">
        <ele>47.125547</ele>
        <time>2022-12-21T13:22:04.334Z</time>
      </trkpt>
      <trkpt lat="45.96036" lon="-0.98609">
        <ele>47.041234</ele>
        <time>2022-12-21T13:22:08.331Z</time>
      </trkpt>
      <trkpt lat="45.96027" lon="-0.98598">
        <ele>46.955844</ele>
        <time>2022-12-21T13:22:12.329Z</time>
      </trkpt>
      <trkpt lat="45.96015" lon="-0.98593">
        <ele>46.869594</ele>
        <time>2022-12-21T13:22:16.329Z</time>
      </trkpt>
      <trkpt lat="45.96006" lon="-0.98586">
        <ele>46.794732</ele>
        <time>2022-12-21T13:22:20.344Z</time>
      </trkpt>
      <trkpt lat="45.96001" lon="-0.98573">
        <ele>46.717672</ele>
        <time>2022-12-21T13:22:24.334Z</time>
      </trkpt>
      <trkpt lat="45.95996" lon="-0.98558">
        <ele>46.634612</ele>
        <time>2022-12-21T13:22:28.351Z</time>
      </trkpt>
      <trkpt lat="45.95991" lon="-0.98546">
        <ele>46.567303</ele>
        <time>2022-12-21T13:22:31.359Z</time>
      </trkpt>
      <trkpt lat="45.95987" lon="-0.98532">
        <ele>46.48936</ele>
        <time>2022-12-21T13:22:34.332Z</time>
      </trkpt>
      <trkpt lat="45.95983" lon="-0.98517">
        <ele>46.40917</ele>
        <time>2022-12-21T13:22:37.352Z</time>
      </trkpt>
      <trkpt lat="45.95978" lon="-0.98502">
        <ele>46.328957</ele>
        <time>2022-12-21T13:22:40.337Z</time>
      </trkpt>
      <trkpt lat="45.95973" lon="-0.98488">
        <ele>46.249786</ele>
        <time>2022-12-21T13:22:43.337Z</time>
      </trkpt>
      <trkpt lat="45.95969" lon="-0.98473">
        <ele>46.169873</ele>
        <time>2022-12-21T13:22:46.336Z</time>
      </trkpt>
      <trkpt lat="45.95965" lon="-0.9846">
        <ele>46.098396</ele>
        <time>2022-12-21T13:22:49.358Z</time>
      </trkpt>
      <trkpt lat="45.95961" lon="-0.98447">
        <ele>46.041821</ele>
        <time>2022-12-21T13:22:52.337Z</time>
      </trkpt>
      <trkpt lat="45.95957" lon="-0.98435">
        <ele>46.040161</ele>
        <time>2022-12-21T13:22:55.336Z</time>
      </trkpt>
      <trkpt lat="45.95953" lon="-0.9842">
        <ele>46.038055</ele>
        <time>2022-12-21T13:22:59.330Z</time>
      </trkpt>
      <trkpt lat="45.95948" lon="-0.98405">
        <ele>46.036008</ele>
        <time>2022-12-21T13:23:03.334Z</time>
      </trkpt>
      <trkpt lat="45.95944" lon="-0.98394">
        <ele>46.034343</ele>
        <time>2022-12-21T13:23:06.337Z</time>
      </trkpt>
      <trkpt lat="45.95939" lon="-0.98381">
        <ele>46.032415</ele>
        <time>2022-12-21T13:23:09.341Z</time>
      </trkpt>
      <trkpt lat="45.95931" lon="-0.98365">
        <ele>46.030055</ele>
        <time>2022-12-21T13:23:12.341Z</time>
      </trkpt>
      <trkpt lat="45.95926" lon="-0.98354">
        <ele>46.028362</ele>
        <time>2022-12-21T13:23:14.359Z</time>
      </trkpt>
      <trkpt lat="45.95921" lon="-0.98343">
        <ele>46.026639</ele>
        <time>2022-12-21T13:23:16.344Z</time>
      </trkpt>
      <trkpt lat="45.95915" lon="-0.98332">
        <ele>46.024862</ele>
        <time>2022-12-21T13:23:18.360Z</time>
      </trkpt>
      <trkpt lat="45.9591" lon="-0.98321">
        <ele>46.023169</ele>
        <time>2022-12-21T13:23:20.352Z</time>
      </trkpt>
      <trkpt lat="45.95901" lon="-0.98307">
        <ele>46.020769</ele>
        <time>2022-12-21T13:23:23.334Z</time>
      </trkpt>
      <trkpt lat="45.95892" lon="-0.98294">
        <ele>46.018521</ele>
        <time>2022-12-21T13:23:26.351Z</time>
      </trkpt>
      <trkpt lat="45.95884" lon="-0.98281">
        <ele>46.016289</ele>
        <time>2022-12-21T13:23:29.343Z</time>
      </trkpt>
      <trkpt lat="45.95877" lon="-0.98267">
        <ele>46.014019</ele>
        <time>2022-12-21T13:23:32.361Z</time>
      </trkpt>
      <trkpt lat="45.95869" lon="-0.98251">
        <ele>46.011513</ele>
        <time>2022-12-21T13:23:35.358Z</time>
      </trkpt>
      <trkpt lat="45.95864" lon="-0.9824">
        <ele>46.00982</ele>
        <time>2022-12-21T13:23:37.339Z</time>
      </trkpt>
      <trkpt lat="45.95859" lon="-0.98228">
        <ele>45.989552</ele>
        <time>2022-12-21T13:23:39.341Z</time>
      </trkpt>
      <trkpt lat="45.95854" lon="-0.98217">
        <ele>45.959302</ele>
        <time>2022-12-21T13:23:41.340Z</time>
      </trkpt>
      <trkpt lat="45.9585" lon="-0.98205">
        <ele>45.929241</ele>
        <time>2022-12-21T13:23:43.359Z</time>
      </trkpt>
      <trkpt lat="45.95845" lon="-0.98193">
        <ele>45.90002</ele>
        <time>2022-12-21T13:23:45.342Z</time>
      </trkpt>
      <trkpt lat="45.95841" lon="-0.98176">
        <ele>45.85945</ele>
        <time>2022-12-21T13:23:48.344Z</time>
      </trkpt>
      <trkpt lat="45.95839" lon="-0.9816">
        <ele>45.821854</ele>
        <time>2022-12-21T13:23:51.354Z</time>
      </trkpt>
      <trkpt lat="45.95837" lon="-0.98144">
        <ele>45.785817</ele>
        <time>2022-12-21T13:23:54.336Z</time>
      </trkpt>
      <trkpt lat="45.95837" lon="-0.98127">
        <ele>45.748782</ele>
        <time>2022-12-21T13:23:57.333Z</time>
      </trkpt>
      <trkpt lat="45.95839" lon="-0.9811">
        <ele>45.710871</ele>
        <time>2022-12-21T13:24:00.331Z</time>
      </trkpt>
      <trkpt lat="45.95842" lon="-0.98093">
        <ele>45.670346</ele>
        <time>2022-12-21T13:24:03.347Z</time>
      </trkpt>
      <trkpt lat="45.95845" lon="-0.98077">
        <ele>45.632606</ele>
        <time>2022-12-21T13:24:06.358Z</time>
      </trkpt>
      <trkpt lat="45.95848" lon="-0.98061">
        <ele>45.596994</ele>
        <time>2022-12-21T13:24:09.359Z</time>
      </trkpt>
      <trkpt lat="45.95851" lon="-0.98046">
        <ele>45.562519</ele>
        <time>2022-12-21T13:24:12.357Z</time>
      </trkpt>
      <trkpt lat="45.95854" lon="-0.9803">
        <ele>45.525344</ele>
        <time>2022-12-21T13:24:15.358Z</time>
      </trkpt>
      <trkpt lat="45.95857" lon="-0.98015">
        <ele>45.490581</ele>
        <time>2022-12-21T13:24:18.359Z</time>
      </trkpt>
      <trkpt lat="45.9586" lon="-0.98003">
        <ele>45.460962</ele>
        <time>2022-12-21T13:24:21.348Z</time>
      </trkpt>
      <trkpt lat="45.95861" lon="-0.9799">
        <ele>45.431983</ele>
        <time>2022-12-21T13:24:24.342Z</time>
      </trkpt>
      <trkpt lat="45.95864" lon="-0.97977">
        <ele>45.423435</ele>
        <time>2022-12-21T13:24:27.337Z</time>
      </trkpt>
      <trkpt lat="45.95865" lon="-0.97964">
        <ele>45.415049</ele>
        <time>2022-12-21T13:24:30.328Z</time>
      </trkpt>
      <trkpt lat="45.95862" lon="-0.97951">
        <ele>45.40607</ele>
        <time>2022-12-21T13:24:34.328Z</time>
      </trkpt>
      <trkpt lat="45.95856" lon="-0.97942">
        <ele>45.39776</ele>
        <time>2022-12-21T13:24:38.331Z</time>
      </trkpt>
      <trkpt lat="45.95849" lon="-0.97933">
        <ele>45.389121</ele>
        <time>2022-12-21T13:24:42.336Z</time>
      </trkpt>
      <trkpt lat="45.95843" lon="-0.97922">
        <ele>45.380314</ele>
        <time>2022-12-21T13:24:47.336Z</time>
      </trkpt>
      <trkpt lat="45.95835" lon="-0.97912">
        <ele>45.370834</ele>
        <time>2022-12-21T13:24:53.344Z</time>
      </trkpt>
      <trkpt lat="45.95826" lon="-0.97914">
        <ele>45.362476</ele>
        <time>2022-12-21T13:24:57.333Z</time>
      </trkpt>
      <trkpt lat="45.95814" lon="-0.97914">
        <ele>45.351333</ele>
        <time>2022-12-21T13:25:01.344Z</time>
      </trkpt>
      <trkpt lat="45.95805" lon="-0.9791">
        <ele>45.342446</ele>
        <time>2022-12-21T13:25:04.346Z</time>
      </trkpt>
      <trkpt lat="45.95796" lon="-0.97901">
        <ele>45.332723</ele>
        <time>2022-12-21T13:25:07.334Z</time>
      </trkpt>
      <trkpt lat="45.9579" lon="-0.97889">
        <ele>45.323307</ele>
        <time>2022-12-21T13:25:10.343Z</time>
      </trkpt>
      <trkpt lat="45.95786" lon="-0.97875">
        <ele>45.313509</ele>
        <time>2022-12-21T13:25:13.359Z</time>
      </trkpt>
      <trkpt lat="45.95786" lon="-0.97859">
        <ele>45.303389</ele>
        <time>2022-12-21T13:25:16.360Z</time>
      </trkpt>
      <trkpt lat="45.9579" lon="-0.97844">
        <ele>45.29299</ele>
        <time>2022-12-21T13:25:19.354Z</time>
      </trkpt>
      <trkpt lat="45.95796" lon="-0.9783">
        <ele>45.282369</ele>
        <time>2022-12-21T13:25:22.346Z</time>
      </trkpt>
      <trkpt lat="45.95805" lon="-0.97821">
        <ele>45.272534</ele>
        <time>2022-12-21T13:25:25.357Z</time>
      </trkpt>
      <trkpt lat="45.95814" lon="-0.97816">
        <ele>45.315175</ele>
        <time>2022-12-21T13:25:28.341Z</time>
      </trkpt>
      <trkpt lat="45.95826" lon="-0.97814">
        <ele>45.454352</ele>
        <time>2022-12-21T13:25:31.365Z</time>
      </trkpt>
      <trkpt lat="45.95836" lon="-0.97819">
        <ele>45.585778</ele>
        <time>2022-12-21T13:25:34.335Z</time>
      </trkpt>
      <trkpt lat="45.95844" lon="-0.9783">
        <ele>45.712122</ele>
        <time>2022-12-21T13:25:37.352Z</time>
      </trkpt>
      <trkpt lat="45.9585" lon="-0.97841">
        <ele>45.828185</ele>
        <time>2022-12-21T13:25:40.339Z</time>
      </trkpt>
      <trkpt lat="45.95856" lon="-0.97853">
        <ele>45.95578</ele>
        <time>2022-12-21T13:25:43.338Z</time>
      </trkpt>
      <trkpt lat="45.95864" lon="-0.97863">
        <ele>46.082962</ele>
        <time>2022-12-21T13:25:46.341Z</time>
      </trkpt>
      <trkpt lat="45.95873" lon="-0.9787">
        <ele>46.209991</ele>
        <time>2022-12-21T13:25:49.336Z</time>
      </trkpt>
      <trkpt lat="45.95884" lon="-0.97874">
        <ele>46.348096</ele>
        <time>2022-12-21T13:25:52.356Z</time>
      </trkpt>
      <trkpt lat="45.95897" lon="-0.97876">
        <ele>46.499407</ele>
        <time>2022-12-21T13:25:55.336Z</time>
      </trkpt>
      <trkpt lat="45.95909" lon="-0.97878">
        <ele>46.649543</ele>
        <time>2022-12-21T13:25:58.362Z</time>
      </trkpt>
      <trkpt lat="45.95921" lon="-0.97877">
        <ele>46.785919</ele>
        <time>2022-12-21T13:26:01.357Z</time>
      </trkpt>
      <trkpt lat="45.95932" lon="-0.97878">
        <ele>46.928376</ele>
        <time>2022-12-21T13:26:04.351Z</time>
      </trkpt>
      <trkpt lat="45.95944" lon="-0.97878">
        <ele>47.073196</ele>
        <time>2022-12-21T13:26:07.344Z</time>
      </trkpt>
      <trkpt lat="45.95956" lon="-0.97879">
        <ele>47.21822</ele>
        <time>2022-12-21T13:26:10.359Z</time>
      </trkpt>
      <trkpt lat="45.95969" lon="-0.9788">
        <ele>47.369148</ele>
        <time>2022-12-21T13:26:13.344Z</time>
      </trkpt>
      <trkpt lat="45.95981" lon="-0.9788">
        <ele>47.388866</ele>
        <time>2022-12-21T13:26:16.345Z</time>
      </trkpt>
      <trkpt lat="45.95992" lon="-0.97876">
        <ele>47.309074</ele>
        <time>2022-12-21T13:26:19.337Z</time>
      </trkpt>
      <trkpt lat="45.96" lon="-0.97869">
        <ele>47.238165</ele>
        <time>2022-12-21T13:26:22.340Z</time>
      </trkpt>
      <trkpt lat="45.96007" lon="-0.97856">
        <ele>47.154674</ele>
        <time>2022-12-21T13:26:26.336Z</time>
      </trkpt>
      <trkpt lat="45.96008" lon="-0.9784">
        <ele>47.076308</ele>
        <time>2022-12-21T13:26:30.346Z</time>
      </trkpt>
      <trkpt lat="45.9601" lon="-0.97826">
        <ele>47.003242</ele>
        <time>2022-12-21T13:26:34.342Z</time>
      </trkpt>
      <trkpt lat="45.96012" lon="-0.97813">
        <ele>46.937657</ele>
        <time>2022-12-21T13:26:37.360Z</time>
      </trkpt>
      <trkpt lat="45.96014" lon="-0.97796">
        <ele>46.848126</ele>
        <time>2022-12-21T13:26:41.335Z</time>
      </trkpt>
      <trkpt lat="45.96015" lon="-0.97782">
        <ele>46.779492</ele>
        <time>2022-12-21T13:26:44.353Z</time>
      </trkpt>
      <trkpt lat="45.96017" lon="-0.97768">
        <ele>46.705131</ele>
        <time>2022-12-21T13:26:47.359Z</time>
      </trkpt>
      <trkpt lat="45.96017" lon="-0.97753">
        <ele>46.631595</ele>
        <time>2022-12-21T13:26:50.337Z</time>
      </trkpt>
      <trkpt lat="45.9601" lon="-0.97741">
        <ele>46.551203</ele>
        <time>2022-12-21T13:26:54.359Z</time>
      </trkpt>
      <trkpt lat="45.95999" lon="-0.97737">
        <ele>46.467655</ele>
        <time>2022-12-21T13:26:57.341Z</time>
      </trkpt>
      <trkpt lat="45.95987" lon="-0.97734">
        <ele>46.379942</ele>
        <time>2022-12-21T13:27:00.331Z</time>
      </trkpt>
      <trkpt lat="45.95975" lon="-0.97732">
        <ele>46.294379</ele>
        <time>2022-12-21T13:27:03.346Z</time>
      </trkpt>
      <trkpt lat="45.95964" lon="-0.97728">
        <ele>46.212593</ele>
        <time>2022-12-21T13:27:06.328Z</time>
      </trkpt>
      <trkpt lat="45.95953" lon="-0.97727">
        <ele>46.131878</ele>
        <time>2022-12-21T13:27:09.336Z</time>
      </trkpt>
      <trkpt lat="45.95943" lon="-0.97726">
        <ele>46.069789</ele>
        <time>2022-12-21T13:27:12.342Z</time>
      </trkpt>
      <trkpt lat="45.95933" lon="-0.97723">
        <ele>46.012542</ele>
        <time>2022-12-21T13:27:15.341Z</time>
      </trkpt>
      <trkpt lat="45.95924" lon="-0.97717">
        <ele>45.952997</ele>
        <time>2022-12-21T13:27:18.341Z</time>
      </trkpt>
      <trkpt lat="45.95914" lon="-0.97712">
        <ele>45.891971</ele>
        <time>2022-12-21T13:27:21.332Z</time>
      </trkpt>
      <trkpt lat="45.95904" lon="-0.97713">
        <ele>45.833562</ele>
        <time>2022-12-21T13:27:24.337Z</time>
      </trkpt>
      <trkpt lat="45.95896" lon="-0.97716">
        <ele>45.780408</ele>
        <time>2022-12-21T13:27:27.359Z</time>
      </trkpt>
      <trkpt lat="45.95888" lon="-0.97725">
        <ele>45.724329</ele>
        <time>2022-12-21T13:27:31.334Z</time>
      </trkpt>
      <trkpt lat="45.95888" lon="-0.97741">
        <ele>45.660335</ele>
        <time>2022-12-21T13:27:36.353Z</time>
      </trkpt>
      <trkpt lat="45.95889" lon="-0.97756">
        <ele>45.596205</ele>
        <time>2022-12-21T13:27:40.337Z</time>
      </trkpt>
      <trkpt lat="45.95894" lon="-0.97767">
        <ele>45.541355</ele>
        <time>2022-12-21T13:27:43.340Z</time>
      </trkpt>
      <trkpt lat="45.95899" lon="-0.97781">
        <ele>45.477019</ele>
        <time>2022-12-21T13:27:46.350Z</time>
      </trkpt>
      <trkpt lat="45.95903" lon="-0.97795">
        <ele>45.41526</ele>
        <time>2022-12-21T13:27:49.341Z</time>
      </trkpt>
      <trkpt lat="45.95903" lon="-0.9781">
        <ele>45.357432</ele>
        <time>2022-12-21T13:27:52.331Z</time>
      </trkpt>
      <trkpt lat="45.95894" lon="-0.97817">
        <ele>45.295282</ele>
        <time>2022-12-21T13:27:57.341Z</time>
      </trkpt>
      <trkpt lat="45.95885" lon="-0.97818">
        <ele>45.239774</ele>
        <time>2022-12-21T13:28:03.334Z</time>
      </trkpt>
      <trkpt lat="45.9589" lon="-0.97807">
        <ele>45.182574</ele>
        <time>2022-12-21T13:28:32.336Z</time>
      </trkpt>
      <trkpt lat="45.95891" lon="-0.97805">
        <ele>45.175507</ele>
        <time>2022-12-21T13:28:48.051Z</time>
      </trkpt>
      <trkpt lat="45.95892" lon="-0.97805">
        <ele>45.17197</ele>
        <time>2022-12-21T14:01:51.243Z</time>
      </trkpt>
      <trkpt lat="45.95885" lon="-0.97816">
        <ele>45.114196</ele>
        <time>2022-12-21T14:03:32.344Z</time>
      </trkpt>
      <trkpt lat="45.95875" lon="-0.97817">
        <ele>45.042209</ele>
        <time>2022-12-21T14:03:38.337Z</time>
      </trkpt>
      <trkpt lat="45.9587" lon="-0.97805">
        <ele>44.961193</ele>
        <time>2022-12-21T14:03:42.346Z</time>
      </trkpt>
      <trkpt lat="45.95865" lon="-0.97792">
        <ele>44.877501</ele>
        <time>2022-12-21T14:03:47.341Z</time>
      </trkpt>
      <trkpt lat="45.95862" lon="-0.97779">
        <ele>44.802229</ele>
        <time>2022-12-21T14:03:53.343Z</time>
      </trkpt>
      <trkpt lat="45.95867" lon="-0.97766">
        <ele>44.718155</ele>
        <time>2022-12-21T14:03:57.334Z</time>
      </trkpt>
      <trkpt lat="45.95872" lon="-0.97753">
        <ele>44.636728</ele>
        <time>2022-12-21T14:04:01.345Z</time>
      </trkpt>
      <trkpt lat="45.95877" lon="-0.97743">
        <ele>44.562922</ele>
        <time>2022-12-21T14:04:06.339Z</time>
      </trkpt>
      <trkpt lat="45.9587" lon="-0.9773">
        <ele>44.475106</ele>
        <time>2022-12-21T14:04:13.345Z</time>
      </trkpt>
      <trkpt lat="45.9586" lon="-0.97729">
        <ele>44.393307</ele>
        <time>2022-12-21T14:04:17.341Z</time>
      </trkpt>
      <trkpt lat="45.95853" lon="-0.97739">
        <ele>44.309199</ele>
        <time>2022-12-21T14:04:21.332Z</time>
      </trkpt>
      <trkpt lat="45.95849" lon="-0.97752">
        <ele>44.231895</ele>
        <time>2022-12-21T14:04:24.335Z</time>
      </trkpt>
      <trkpt lat="45.95846" lon="-0.97766">
        <ele>44.146697</ele>
        <time>2022-12-21T14:04:27.342Z</time>
      </trkpt>
      <trkpt lat="45.95843" lon="-0.9778">
        <ele>44.064479</ele>
        <time>2022-12-21T14:04:30.331Z</time>
      </trkpt>
      <trkpt lat="45.95841" lon="-0.97793">
        <ele>43.988294</ele>
        <time>2022-12-21T14:04:33.339Z</time>
      </trkpt>
      <trkpt lat="45.95839" lon="-0.97809">
        <ele>43.894582</ele>
        <time>2022-12-21T14:04:37.344Z</time>
      </trkpt>
      <trkpt lat="45.95843" lon="-0.97825">
        <ele>43.804044</ele>
        <time>2022-12-21T14:04:41.339Z</time>
      </trkpt>
      <trkpt lat="45.95848" lon="-0.97835">
        <ele>43.728835</ele>
        <time>2022-12-21T14:04:44.336Z</time>
      </trkpt>
      <trkpt lat="45.95853" lon="-0.97849">
        <ele>43.642492</ele>
        <time>2022-12-21T14:04:47.347Z</time>
      </trkpt>
      <trkpt lat="45.95855" lon="-0.97865">
        <ele>43.620208</ele>
        <time>2022-12-21T14:04:50.362Z</time>
      </trkpt>
      <trkpt lat="45.95854" lon="-0.97879">
        <ele>43.631775</ele>
        <time>2022-12-21T14:04:53.346Z</time>
      </trkpt>
      <trkpt lat="45.95849" lon="-0.97891">
        <ele>43.642479</ele>
        <time>2022-12-21T14:04:56.340Z</time>
      </trkpt>
      <trkpt lat="45.95844" lon="-0.97903">
        <ele>43.653734</ele>
        <time>2022-12-21T14:04:59.361Z</time>
      </trkpt>
      <trkpt lat="45.95835" lon="-0.9791">
        <ele>43.66554</ele>
        <time>2022-12-21T14:05:02.345Z</time>
      </trkpt>
      <trkpt lat="45.95824" lon="-0.97913">
        <ele>43.677574</ele>
        <time>2022-12-21T14:05:05.361Z</time>
      </trkpt>
      <trkpt lat="45.95814" lon="-0.97913">
        <ele>43.689245</ele>
        <time>2022-12-21T14:05:08.363Z</time>
      </trkpt>
      <trkpt lat="45.95804" lon="-0.97907">
        <ele>43.700938</ele>
        <time>2022-12-21T14:05:11.363Z</time>
      </trkpt>
      <trkpt lat="45.95796" lon="-0.97897">
        <ele>43.713293</ele>
        <time>2022-12-21T14:05:14.352Z</time>
      </trkpt>
      <trkpt lat="45.9579" lon="-0.97884">
        <ele>43.72572</ele>
        <time>2022-12-21T14:05:17.332Z</time>
      </trkpt>
      <trkpt lat="45.95783" lon="-0.97872">
        <ele>43.738205</ele>
        <time>2022-12-21T14:05:20.331Z</time>
      </trkpt>
      <trkpt lat="45.95774" lon="-0.97861">
        <ele>43.751335</ele>
        <time>2022-12-21T14:05:23.359Z</time>
      </trkpt>
      <trkpt lat="45.95765" lon="-0.97855">
        <ele>43.762847</ele>
        <time>2022-12-21T14:05:26.346Z</time>
      </trkpt>
      <trkpt lat="45.95755" lon="-0.97852">
        <ele>43.774042</ele>
        <time>2022-12-21T14:05:29.346Z</time>
      </trkpt>
      <trkpt lat="45.95766" lon="-0.97844">
        <ele>43.787188</ele>
        <time>2022-12-21T14:05:58.357Z</time>
      </trkpt>
      <trkpt lat="45.95777" lon="-0.97842">
        <ele>43.800366</ele>
        <time>2022-12-21T14:06:02.339Z</time>
      </trkpt>
      <trkpt lat="45.95787" lon="-0.97837">
        <ele>43.811835</ele>
        <time>2022-12-21T14:06:05.340Z</time>
      </trkpt>
      <trkpt lat="45.95796" lon="-0.97827">
        <ele>43.789567</ele>
        <time>2022-12-21T14:06:08.344Z</time>
      </trkpt>
      <trkpt lat="45.95805" lon="-0.97819">
        <ele>43.750308</ele>
        <time>2022-12-21T14:06:11.345Z</time>
      </trkpt>
      <trkpt lat="45.95815" lon="-0.97815">
        <ele>43.711792</ele>
        <time>2022-12-21T14:06:14.336Z</time>
      </trkpt>
      <trkpt lat="45.95826" lon="-0.97815">
        <ele>43.673821</ele>
        <time>2022-12-21T14:06:17.342Z</time>
      </trkpt>
      <trkpt lat="45.95836" lon="-0.9782">
        <ele>43.63835</ele>
        <time>2022-12-21T14:06:20.349Z</time>
      </trkpt>
      <trkpt lat="45.95845" lon="-0.97829">
        <ele>43.600253</ele>
        <time>2022-12-21T14:06:23.342Z</time>
      </trkpt>
      <trkpt lat="45.95852" lon="-0.97841">
        <ele>43.561254</ele>
        <time>2022-12-21T14:06:26.353Z</time>
      </trkpt>
      <trkpt lat="45.95856" lon="-0.97854">
        <ele>43.526597</ele>
        <time>2022-12-21T14:06:29.335Z</time>
      </trkpt>
      <trkpt lat="45.95855" lon="-0.97868">
        <ele>43.492628</ele>
        <time>2022-12-21T14:06:32.349Z</time>
      </trkpt>
      <trkpt lat="45.95852" lon="-0.97883">
        <ele>43.455007</ele>
        <time>2022-12-21T14:06:35.362Z</time>
      </trkpt>
      <trkpt lat="45.95845" lon="-0.97898">
        <ele>43.41005</ele>
        <time>2022-12-21T14:06:38.361Z</time>
      </trkpt>
      <trkpt lat="45.95835" lon="-0.97909">
        <ele>43.364963</ele>
        <time>2022-12-21T14:06:41.360Z</time>
      </trkpt>
      <trkpt lat="45.95822" lon="-0.97913">
        <ele>43.319504</ele>
        <time>2022-12-21T14:06:44.361Z</time>
      </trkpt>
      <trkpt lat="45.9581" lon="-0.97914">
        <ele>43.27692</ele>
        <time>2022-12-21T14:06:47.362Z</time>
      </trkpt>
      <trkpt lat="45.95798" lon="-0.97921">
        <ele>43.230756</ele>
        <time>2022-12-21T14:06:50.345Z</time>
      </trkpt>
      <trkpt lat="45.95789" lon="-0.97928">
        <ele>43.196572</ele>
        <time>2022-12-21T14:06:52.364Z</time>
      </trkpt>
      <trkpt lat="45.95779" lon="-0.9794">
        <ele>43.292819</ele>
        <time>2022-12-21T14:06:55.338Z</time>
      </trkpt>
      <trkpt lat="45.95769" lon="-0.9795">
        <ele>43.430834</ele>
        <time>2022-12-21T14:06:58.343Z</time>
      </trkpt>
      <trkpt lat="45.9576" lon="-0.9796">
        <ele>43.559478</ele>
        <time>2022-12-21T14:07:01.346Z</time>
      </trkpt>
      <trkpt lat="45.95751" lon="-0.97973">
        <ele>43.696222</ele>
        <time>2022-12-21T14:07:04.360Z</time>
      </trkpt>
      <trkpt lat="45.95744" lon="-0.97985">
        <ele>43.824454</ele>
        <time>2022-12-21T14:07:07.345Z</time>
      </trkpt>
      <trkpt lat="45.95736" lon="-0.97996">
        <ele>43.947836</ele>
        <time>2022-12-21T14:07:10.358Z</time>
      </trkpt>
      <trkpt lat="45.95728" lon="-0.98008">
        <ele>44.076837</ele>
        <time>2022-12-21T14:07:13.358Z</time>
      </trkpt>
      <trkpt lat="45.95721" lon="-0.98019">
        <ele>44.203727</ele>
        <time>2022-12-21T14:07:16.361Z</time>
      </trkpt>
      <trkpt lat="45.95713" lon="-0.98032">
        <ele>44.334647</ele>
        <time>2022-12-21T14:07:19.338Z</time>
      </trkpt>
      <trkpt lat="45.95704" lon="-0.98042">
        <ele>44.462421</ele>
        <time>2022-12-21T14:07:22.350Z</time>
      </trkpt>
      <trkpt lat="45.95695" lon="-0.98052">
        <ele>44.593701</ele>
        <time>2022-12-21T14:07:25.344Z</time>
      </trkpt>
      <trkpt lat="45.95686" lon="-0.98063">
        <ele>44.725867</ele>
        <time>2022-12-21T14:07:28.362Z</time>
      </trkpt>
      <trkpt lat="45.95676" lon="-0.98073">
        <ele>44.860298</ele>
        <time>2022-12-21T14:07:31.359Z</time>
      </trkpt>
      <trkpt lat="45.95667" lon="-0.98084">
        <ele>44.991578</ele>
        <time>2022-12-21T14:07:34.345Z</time>
      </trkpt>
      <trkpt lat="45.95658" lon="-0.98094">
        <ele>45.120998</ele>
        <time>2022-12-21T14:07:37.337Z</time>
      </trkpt>
      <trkpt lat="45.95649" lon="-0.98104">
        <ele>45.220935</ele>
        <time>2022-12-21T14:07:40.344Z</time>
      </trkpt>
      <trkpt lat="45.9564" lon="-0.98115">
        <ele>45.241871</ele>
        <time>2022-12-21T14:07:43.363Z</time>
      </trkpt>
      <trkpt lat="45.9563" lon="-0.98125">
        <ele>45.263666</ele>
        <time>2022-12-21T14:07:46.338Z</time>
      </trkpt>
      <trkpt lat="45.9562" lon="-0.98136">
        <ele>45.284982</ele>
        <time>2022-12-21T14:07:49.339Z</time>
      </trkpt>
      <trkpt lat="45.95611" lon="-0.98146">
        <ele>45.305414</ele>
        <time>2022-12-21T14:07:52.345Z</time>
      </trkpt>
      <trkpt lat="45.95602" lon="-0.98157">
        <ele>45.325933</ele>
        <time>2022-12-21T14:07:55.346Z</time>
      </trkpt>
      <trkpt lat="45.95593" lon="-0.98167">
        <ele>45.346862</ele>
        <time>2022-12-21T14:07:58.363Z</time>
      </trkpt>
      <trkpt lat="45.95583" lon="-0.98177">
        <ele>45.368217</ele>
        <time>2022-12-21T14:08:01.342Z</time>
      </trkpt>
      <trkpt lat="45.95574" lon="-0.98187">
        <ele>45.388498</ele>
        <time>2022-12-21T14:08:04.361Z</time>
      </trkpt>
      <trkpt lat="45.95564" lon="-0.98196">
        <ele>45.408349</ele>
        <time>2022-12-21T14:08:07.362Z</time>
      </trkpt>
      <trkpt lat="45.95556" lon="-0.98206">
        <ele>45.427934</ele>
        <time>2022-12-21T14:08:10.345Z</time>
      </trkpt>
      <trkpt lat="45.95547" lon="-0.98215">
        <ele>45.44757</ele>
        <time>2022-12-21T14:08:13.342Z</time>
      </trkpt>
      <trkpt lat="45.95538" lon="-0.98225">
        <ele>45.466706</ele>
        <time>2022-12-21T14:08:16.361Z</time>
      </trkpt>
      <trkpt lat="45.95529" lon="-0.98233">
        <ele>45.485635</ele>
        <time>2022-12-21T14:08:19.339Z</time>
      </trkpt>
      <trkpt lat="45.9552" lon="-0.98242">
        <ele>45.504984</ele>
        <time>2022-12-21T14:08:22.343Z</time>
      </trkpt>
      <trkpt lat="45.95511" lon="-0.98252">
        <ele>45.524691</ele>
        <time>2022-12-21T14:08:25.361Z</time>
      </trkpt>
      <trkpt lat="45.95501" lon="-0.98261">
        <ele>45.573839</ele>
        <time>2022-12-21T14:08:28.350Z</time>
      </trkpt>
      <trkpt lat="45.95491" lon="-0.98271">
        <ele>45.641477</ele>
        <time>2022-12-21T14:08:31.362Z</time>
      </trkpt>
      <trkpt lat="45.95482" lon="-0.9828">
        <ele>45.706413</ele>
        <time>2022-12-21T14:08:34.347Z</time>
      </trkpt>
      <trkpt lat="45.95473" lon="-0.98289">
        <ele>45.770135</ele>
        <time>2022-12-21T14:08:37.343Z</time>
      </trkpt>
      <trkpt lat="45.95463" lon="-0.98299">
        <ele>45.833632</ele>
        <time>2022-12-21T14:08:40.347Z</time>
      </trkpt>
      <trkpt lat="45.95454" lon="-0.98308">
        <ele>45.897841</ele>
        <time>2022-12-21T14:08:43.347Z</time>
      </trkpt>
      <trkpt lat="45.95444" lon="-0.98317">
        <ele>45.96352</ele>
        <time>2022-12-21T14:08:46.338Z</time>
      </trkpt>
      <trkpt lat="45.95434" lon="-0.98326">
        <ele>46.02958</ele>
        <time>2022-12-21T14:08:49.343Z</time>
      </trkpt>
      <trkpt lat="45.95425" lon="-0.98335">
        <ele>46.09553</ele>
        <time>2022-12-21T14:08:52.342Z</time>
      </trkpt>
      <trkpt lat="45.95415" lon="-0.98344">
        <ele>46.161373</ele>
        <time>2022-12-21T14:08:55.340Z</time>
      </trkpt>
      <trkpt lat="45.95405" lon="-0.98353">
        <ele>46.22631</ele>
        <time>2022-12-21T14:08:58.352Z</time>
      </trkpt>
      <trkpt lat="45.95396" lon="-0.98361">
        <ele>46.288964</ele>
        <time>2022-12-21T14:09:01.359Z</time>
      </trkpt>
      <trkpt lat="45.95387" lon="-0.9837">
        <ele>46.349723</ele>
        <time>2022-12-21T14:09:04.339Z</time>
      </trkpt>
      <trkpt lat="45.95378" lon="-0.98378">
        <ele>46.410785</ele>
        <time>2022-12-21T14:09:07.339Z</time>
      </trkpt>
      <trkpt lat="45.95368" lon="-0.98386">
        <ele>46.473368</ele>
        <time>2022-12-21T14:09:10.335Z</time>
      </trkpt>
      <trkpt lat="45.9536" lon="-0.98395">
        <ele>46.534348</ele>
        <time>2022-12-21T14:09:13.336Z</time>
      </trkpt>
      <trkpt lat="45.95351" lon="-0.98403">
        <ele>46.489625</ele>
        <time>2022-12-21T14:09:16.354Z</time>
      </trkpt>
      <trkpt lat="45.95341" lon="-0.98411">
        <ele>46.398896</ele>
        <time>2022-12-21T14:09:19.352Z</time>
      </trkpt>
      <trkpt lat="45.95332" lon="-0.98419">
        <ele>46.309758</ele>
        <time>2022-12-21T14:09:22.360Z</time>
      </trkpt>
      <trkpt lat="45.95322" lon="-0.98427">
        <ele>46.215883</ele>
        <time>2022-12-21T14:09:25.336Z</time>
      </trkpt>
      <trkpt lat="45.95312" lon="-0.98436">
        <ele>46.120122</ele>
        <time>2022-12-21T14:09:28.360Z</time>
      </trkpt>
      <trkpt lat="45.95302" lon="-0.98444">
        <ele>46.026536</ele>
        <time>2022-12-21T14:09:31.362Z</time>
      </trkpt>
      <trkpt lat="45.95293" lon="-0.98452">
        <ele>45.934671</ele>
        <time>2022-12-21T14:09:34.342Z</time>
      </trkpt>
      <trkpt lat="45.95283" lon="-0.9846">
        <ele>45.844098</ele>
        <time>2022-12-21T14:09:37.356Z</time>
      </trkpt>
      <trkpt lat="45.95275" lon="-0.98467">
        <ele>45.764288</ele>
        <time>2022-12-21T14:09:40.361Z</time>
      </trkpt>
      <trkpt lat="45.95265" lon="-0.98475">
        <ele>45.671418</ele>
        <time>2022-12-21T14:09:44.364Z</time>
      </trkpt>
      <trkpt lat="45.95257" lon="-0.98481">
        <ele>45.594503</ele>
        <time>2022-12-21T14:09:47.340Z</time>
      </trkpt>
      <trkpt lat="45.95248" lon="-0.98488">
        <ele>45.507226</ele>
        <time>2022-12-21T14:09:50.340Z</time>
      </trkpt>
      <trkpt lat="45.95238" lon="-0.98496">
        <ele>45.413484</ele>
        <time>2022-12-21T14:09:53.346Z</time>
      </trkpt>
      <trkpt lat="45.95227" lon="-0.98504">
        <ele>45.316561</ele>
        <time>2022-12-21T14:09:56.335Z</time>
      </trkpt>
      <trkpt lat="45.95217" lon="-0.98513">
        <ele>45.215351</ele>
        <time>2022-12-21T14:09:59.346Z</time>
      </trkpt>
      <trkpt lat="45.95206" lon="-0.98521">
        <ele>45.111687</ele>
        <time>2022-12-21T14:10:02.343Z</time>
      </trkpt>
      <trkpt lat="45.95195" lon="-0.9853">
        <ele>45.012905</ele>
        <time>2022-12-21T14:10:05.344Z</time>
      </trkpt>
      <trkpt lat="45.95183" lon="-0.98538">
        <ele>44.917694</ele>
        <time>2022-12-21T14:10:08.334Z</time>
      </trkpt>
      <trkpt lat="45.95172" lon="-0.98547">
        <ele>44.821038</ele>
        <time>2022-12-21T14:10:11.363Z</time>
      </trkpt>
      <trkpt lat="45.95161" lon="-0.98555">
        <ele>44.728942</ele>
        <time>2022-12-21T14:10:14.331Z</time>
      </trkpt>
      <trkpt lat="45.95151" lon="-0.98563">
        <ele>44.636846</ele>
        <time>2022-12-21T14:10:17.347Z</time>
      </trkpt>
      <trkpt lat="45.9514" lon="-0.9857">
        <ele>44.546632</ele>
        <time>2022-12-21T14:10:20.332Z</time>
      </trkpt>
      <trkpt lat="45.9513" lon="-0.98579">
        <ele>44.458255</ele>
        <time>2022-12-21T14:10:23.360Z</time>
      </trkpt>
      <trkpt lat="45.95119" lon="-0.98587">
        <ele>44.368465</ele>
        <time>2022-12-21T14:10:26.360Z</time>
      </trkpt>
      <trkpt lat="45.95108" lon="-0.98594">
        <ele>44.278434</ele>
        <time>2022-12-21T14:10:29.342Z</time>
      </trkpt>
      <trkpt lat="45.95097" lon="-0.98603">
        <ele>44.182511</ele>
        <time>2022-12-21T14:10:32.346Z</time>
      </trkpt>
      <trkpt lat="45.95087" lon="-0.98609">
        <ele>44.099068</ele>
        <time>2022-12-21T14:10:35.359Z</time>
      </trkpt>
      <trkpt lat="45.95078" lon="-0.98616">
        <ele>44.020862</ele>
        <time>2022-12-21T14:10:38.343Z</time>
      </trkpt>
      <trkpt lat="45.95067" lon="-0.98623">
        <ele>43.933361</ele>
        <time>2022-12-21T14:10:41.342Z</time>
      </trkpt>
      <trkpt lat="45.95056" lon="-0.98631">
        <ele>43.839972</ele>
        <time>2022-12-21T14:10:44.354Z</time>
      </trkpt>
      <trkpt lat="45.95044" lon="-0.98639">
        <ele>43.740881</ele>
        <time>2022-12-21T14:10:47.361Z</time>
      </trkpt>
      <trkpt lat="45.95032" lon="-0.98646">
        <ele>43.759004</ele>
        <time>2022-12-21T14:10:50.340Z</time>
      </trkpt>
      <trkpt lat="45.9502" lon="-0.98654">
        <ele>43.840843</ele>
        <time>2022-12-21T14:10:53.343Z</time>
      </trkpt>
      <trkpt lat="45.95011" lon="-0.9866">
        <ele>43.895834</ele>
        <time>2022-12-21T14:10:55.360Z</time>
      </trkpt>
      <trkpt lat="45.94999" lon="-0.98668">
        <ele>43.977496</ele>
        <time>2022-12-21T14:10:58.354Z</time>
      </trkpt>
      <trkpt lat="45.9499" lon="-0.98673">
        <ele>44.035251</ele>
        <time>2022-12-21T14:11:00.337Z</time>
      </trkpt>
      <trkpt lat="45.94981" lon="-0.98679">
        <ele>44.092789</ele>
        <time>2022-12-21T14:11:02.337Z</time>
      </trkpt>
      <trkpt lat="45.94973" lon="-0.98685">
        <ele>44.150878</ele>
        <time>2022-12-21T14:11:04.339Z</time>
      </trkpt>
      <trkpt lat="45.94964" lon="-0.9869">
        <ele>44.205496</ele>
        <time>2022-12-21T14:11:06.343Z</time>
      </trkpt>
      <trkpt lat="45.94953" lon="-0.98698">
        <ele>44.280977</ele>
        <time>2022-12-21T14:11:09.339Z</time>
      </trkpt>
      <trkpt lat="45.94943" lon="-0.98704">
        <ele>44.348324</ele>
        <time>2022-12-21T14:11:12.345Z</time>
      </trkpt>
      <trkpt lat="45.94933" lon="-0.9871">
        <ele>44.415966</ele>
        <time>2022-12-21T14:11:15.340Z</time>
      </trkpt>
      <trkpt lat="45.94922" lon="-0.98717">
        <ele>44.487277</ele>
        <time>2022-12-21T14:11:18.353Z</time>
      </trkpt>
      <trkpt lat="45.94911" lon="-0.98724">
        <ele>44.556674</ele>
        <time>2022-12-21T14:11:21.340Z</time>
      </trkpt>
      <trkpt lat="45.949" lon="-0.9873">
        <ele>44.628304</ele>
        <time>2022-12-21T14:11:24.341Z</time>
      </trkpt>
      <trkpt lat="45.94889" lon="-0.98737">
        <ele>44.701927</ele>
        <time>2022-12-21T14:11:27.350Z</time>
      </trkpt>
      <trkpt lat="45.94878" lon="-0.98743">
        <ele>44.77565</ele>
        <time>2022-12-21T14:11:30.349Z</time>
      </trkpt>
      <trkpt lat="45.94866" lon="-0.9875">
        <ele>44.743452</ele>
        <time>2022-12-21T14:11:33.354Z</time>
      </trkpt>
      <trkpt lat="45.94855" lon="-0.98756">
        <ele>44.6872</ele>
        <time>2022-12-21T14:11:36.359Z</time>
      </trkpt>
      <trkpt lat="45.94846" lon="-0.98761">
        <ele>44.640128</ele>
        <time>2022-12-21T14:11:39.339Z</time>
      </trkpt>
      <trkpt lat="45.94836" lon="-0.98765">
        <ele>44.589361</ele>
        <time>2022-12-21T14:11:42.359Z</time>
      </trkpt>
      <trkpt lat="45.94825" lon="-0.98771">
        <ele>44.535954</ele>
        <time>2022-12-21T14:11:45.348Z</time>
      </trkpt>
      <trkpt lat="45.94814" lon="-0.98777">
        <ele>44.480602</ele>
        <time>2022-12-21T14:11:48.346Z</time>
      </trkpt>
      <trkpt lat="45.94802" lon="-0.98783">
        <ele>44.419369</ele>
        <time>2022-12-21T14:11:51.346Z</time>
      </trkpt>
      <trkpt lat="45.94791" lon="-0.98788">
        <ele>44.361978</ele>
        <time>2022-12-21T14:11:54.338Z</time>
      </trkpt>
      <trkpt lat="45.9478" lon="-0.98794">
        <ele>44.305713</ele>
        <time>2022-12-21T14:11:57.337Z</time>
      </trkpt>
      <trkpt lat="45.94769" lon="-0.98799">
        <ele>44.250009</ele>
        <time>2022-12-21T14:12:00.356Z</time>
      </trkpt>
      <trkpt lat="45.94758" lon="-0.98804">
        <ele>44.193075</ele>
        <time>2022-12-21T14:12:03.344Z</time>
      </trkpt>
      <trkpt lat="45.94747" lon="-0.9881">
        <ele>44.136607</ele>
        <time>2022-12-21T14:12:06.362Z</time>
      </trkpt>
      <trkpt lat="45.94737" lon="-0.98815">
        <ele>44.083882</ele>
        <time>2022-12-21T14:12:09.361Z</time>
      </trkpt>
      <trkpt lat="45.94726" lon="-0.9882">
        <ele>44.032177</ele>
        <time>2022-12-21T14:12:12.344Z</time>
      </trkpt>
      <trkpt lat="45.94718" lon="-0.98831">
        <ele>43.977805</ele>
        <time>2022-12-21T14:12:15.344Z</time>
      </trkpt>
      <trkpt lat="45.94709" lon="-0.98842">
        <ele>43.907163</ele>
        <time>2022-12-21T14:12:18.357Z</time>
      </trkpt>
      <trkpt lat="45.94697" lon="-0.98841">
        <ele>43.727563</ele>
        <time>2022-12-21T14:12:21.347Z</time>
      </trkpt>
      <trkpt lat="45.94685" lon="-0.98839">
        <ele>43.54373</ele>
        <time>2022-12-21T14:12:24.363Z</time>
      </trkpt>
      <trkpt lat="45.94673" lon="-0.98841">
        <ele>43.353801</ele>
        <time>2022-12-21T14:12:27.361Z</time>
      </trkpt>
      <trkpt lat="45.94661" lon="-0.98846">
        <ele>43.164451</ele>
        <time>2022-12-21T14:12:30.330Z</time>
      </trkpt>
      <trkpt lat="45.94649" lon="-0.98853">
        <ele>42.974861</ele>
        <time>2022-12-21T14:12:33.340Z</time>
      </trkpt>
      <trkpt lat="45.94637" lon="-0.98858">
        <ele>42.78611</ele>
        <time>2022-12-21T14:12:36.346Z</time>
      </trkpt>
      <trkpt lat="45.94626" lon="-0.98863">
        <ele>42.596746</ele>
        <time>2022-12-21T14:12:39.336Z</time>
      </trkpt>
      <trkpt lat="45.94613" lon="-0.98868">
        <ele>42.400625</ele>
        <time>2022-12-21T14:12:42.342Z</time>
      </trkpt>
      <trkpt lat="45.94601" lon="-0.98873">
        <ele>42.199783</ele>
        <time>2022-12-21T14:12:45.340Z</time>
      </trkpt>
      <trkpt lat="45.94588" lon="-0.98878">
        <ele>41.998942</ele>
        <time>2022-12-21T14:12:48.331Z</time>
      </trkpt>
      <trkpt lat="45.94577" lon="-0.98883">
        <ele>41.816075</ele>
        <time>2022-12-21T14:12:51.343Z</time>
      </trkpt>
      <trkpt lat="45.94565" lon="-0.98887">
        <ele>41.636449</ele>
        <time>2022-12-21T14:12:54.329Z</time>
      </trkpt>
      <trkpt lat="45.94553" lon="-0.98892">
        <ele>41.442377</ele>
        <time>2022-12-21T14:12:57.338Z</time>
      </trkpt>
      <trkpt lat="45.94541" lon="-0.98897">
        <ele>41.243584</ele>
        <time>2022-12-21T14:13:00.342Z</time>
      </trkpt>
      <trkpt lat="45.94528" lon="-0.98902">
        <ele>41.171044</ele>
        <time>2022-12-21T14:13:03.327Z</time>
      </trkpt>
      <trkpt lat="45.94519" lon="-0.98906">
        <ele>41.177228</ele>
        <time>2022-12-21T14:13:05.337Z</time>
      </trkpt>
      <trkpt lat="45.9451" lon="-0.98909">
        <ele>41.183625</ele>
        <time>2022-12-21T14:13:07.334Z</time>
      </trkpt>
      <trkpt lat="45.94498" lon="-0.98915">
        <ele>41.192596</ele>
        <time>2022-12-21T14:13:10.336Z</time>
      </trkpt>
      <trkpt lat="45.94485" lon="-0.98919">
        <ele>41.201768</ele>
        <time>2022-12-21T14:13:13.356Z</time>
      </trkpt>
      <trkpt lat="45.94472" lon="-0.98924">
        <ele>41.210892</ele>
        <time>2022-12-21T14:13:16.344Z</time>
      </trkpt>
      <trkpt lat="45.94459" lon="-0.98928">
        <ele>41.21985</ele>
        <time>2022-12-21T14:13:19.352Z</time>
      </trkpt>
      <trkpt lat="45.94448" lon="-0.98931">
        <ele>41.228071</ele>
        <time>2022-12-21T14:13:22.346Z</time>
      </trkpt>
      <trkpt lat="45.94438" lon="-0.98933">
        <ele>41.234862</ele>
        <time>2022-12-21T14:13:25.350Z</time>
      </trkpt>
      <trkpt lat="45.94428" lon="-0.98935">
        <ele>41.241734</ele>
        <time>2022-12-21T14:13:28.347Z</time>
      </trkpt>
      <trkpt lat="45.94416" lon="-0.98936">
        <ele>41.250143</ele>
        <time>2022-12-21T14:13:31.361Z</time>
      </trkpt>
      <trkpt lat="45.94403" lon="-0.98937">
        <ele>41.259021</ele>
        <time>2022-12-21T14:13:34.362Z</time>
      </trkpt>
      <trkpt lat="45.94394" lon="-0.98937">
        <ele>41.265208</ele>
        <time>2022-12-21T14:13:36.336Z</time>
      </trkpt>
      <trkpt lat="45.9438" lon="-0.98936">
        <ele>41.274358</ele>
        <time>2022-12-21T14:13:39.343Z</time>
      </trkpt>
      <trkpt lat="45.94367" lon="-0.98934">
        <ele>41.283498</ele>
        <time>2022-12-21T14:13:42.355Z</time>
      </trkpt>
      <trkpt lat="45.94354" lon="-0.9893">
        <ele>41.271787</ele>
        <time>2022-12-21T14:13:45.361Z</time>
      </trkpt>
      <trkpt lat="45.94345" lon="-0.98927">
        <ele>41.238811</ele>
        <time>2022-12-21T14:13:47.343Z</time>
      </trkpt>
      <trkpt lat="45.94336" lon="-0.98925">
        <ele>41.207893</ele>
        <time>2022-12-21T14:13:49.351Z</time>
      </trkpt>
      <trkpt lat="45.94327" lon="-0.98921">
        <ele>41.176624</ele>
        <time>2022-12-21T14:13:51.349Z</time>
      </trkpt>
      <trkpt lat="45.94314" lon="-0.98916">
        <ele>41.130538</ele>
        <time>2022-12-21T14:13:54.343Z</time>
      </trkpt>
      <trkpt lat="45.94303" lon="-0.98909">
        <ele>41.088134</ele>
        <time>2022-12-21T14:13:57.346Z</time>
      </trkpt>
      <trkpt lat="45.94292" lon="-0.98903">
        <ele>41.04763</ele>
        <time>2022-12-21T14:14:00.372Z</time>
      </trkpt>
      <trkpt lat="45.94283" lon="-0.98897">
        <ele>41.012722</ele>
        <time>2022-12-21T14:14:03.341Z</time>
      </trkpt>
      <trkpt lat="45.94272" lon="-0.98889">
        <ele>40.973597</ele>
        <time>2022-12-21T14:14:06.369Z</time>
      </trkpt>
      <trkpt lat="45.94261" lon="-0.9888">
        <ele>40.928457</ele>
        <time>2022-12-21T14:14:09.361Z</time>
      </trkpt>
      <trkpt lat="45.94253" lon="-0.98874">
        <ele>40.896336</ele>
        <time>2022-12-21T14:14:11.341Z</time>
      </trkpt>
      <trkpt lat="45.94241" lon="-0.98863">
        <ele>40.85039</ele>
        <time>2022-12-21T14:14:14.361Z</time>
      </trkpt>
      <trkpt lat="45.9423" lon="-0.98852">
        <ele>40.804372</ele>
        <time>2022-12-21T14:14:17.338Z</time>
      </trkpt>
      <trkpt lat="45.9422" lon="-0.98841">
        <ele>40.760299</ele>
        <time>2022-12-21T14:14:20.328Z</time>
      </trkpt>
      <trkpt lat="45.9421" lon="-0.98831">
        <ele>40.719701</ele>
        <time>2022-12-21T14:14:23.365Z</time>
      </trkpt>
      <trkpt lat="45.94201" lon="-0.98822">
        <ele>40.680078</ele>
        <time>2022-12-21T14:14:26.363Z</time>
      </trkpt>
      <trkpt lat="45.94191" lon="-0.98812">
        <ele>40.638624</ele>
        <time>2022-12-21T14:14:29.343Z</time>
      </trkpt>
      <trkpt lat="45.94181" lon="-0.98801">
        <ele>40.594922</ele>
        <time>2022-12-21T14:14:32.350Z</time>
      </trkpt>
      <trkpt lat="45.94171" lon="-0.98791">
        <ele>40.54891</ele>
        <time>2022-12-21T14:14:35.366Z</time>
      </trkpt>
      <trkpt lat="45.9416" lon="-0.98781">
        <ele>40.504417</ele>
        <time>2022-12-21T14:14:38.347Z</time>
      </trkpt>
      <trkpt lat="45.9415" lon="-0.98771">
        <ele>40.46084</ele>
        <time>2022-12-21T14:14:41.347Z</time>
      </trkpt>
      <trkpt lat="45.9414" lon="-0.98762">
        <ele>40.419711</ele>
        <time>2022-12-21T14:14:44.365Z</time>
      </trkpt>
      <trkpt lat="45.94129" lon="-0.98751">
        <ele>40.373228</ele>
        <time>2022-12-21T14:14:47.358Z</time>
      </trkpt>
      <trkpt lat="45.94121" lon="-0.98744">
        <ele>40.338978</ele>
        <time>2022-12-21T14:14:49.341Z</time>
      </trkpt>
      <trkpt lat="45.94113" lon="-0.98736">
        <ele>40.303361</ele>
        <time>2022-12-21T14:14:51.360Z</time>
      </trkpt>
      <trkpt lat="45.94102" lon="-0.98726">
        <ele>40.258072</ele>
        <time>2022-12-21T14:14:54.353Z</time>
      </trkpt>
      <trkpt lat="45.94094" lon="-0.98719">
        <ele>40.225412</ele>
        <time>2022-12-21T14:14:56.346Z</time>
      </trkpt>
      <trkpt lat="45.94083" lon="-0.98709">
        <ele>40.179669</ele>
        <time>2022-12-21T14:14:59.362Z</time>
      </trkpt>
      <trkpt lat="45.94072" lon="-0.98699">
        <ele>40.132812</ele>
        <time>2022-12-21T14:15:02.346Z</time>
      </trkpt>
      <trkpt lat="45.9406" lon="-0.9869">
        <ele>40.086168</ele>
        <time>2022-12-21T14:15:05.360Z</time>
      </trkpt>
      <trkpt lat="45.94052" lon="-0.98684">
        <ele>40.053789</ele>
        <time>2022-12-21T14:15:07.360Z</time>
      </trkpt>
      <trkpt lat="45.94044" lon="-0.98678">
        <ele>40.048425</ele>
        <time>2022-12-21T14:15:09.342Z</time>
      </trkpt>
      <trkpt lat="45.94033" lon="-0.98669">
        <ele>40.083306</ele>
        <time>2022-12-21T14:15:12.361Z</time>
      </trkpt>
      <trkpt lat="45.94023" lon="-0.98661">
        <ele>40.115024</ele>
        <time>2022-12-21T14:15:15.356Z</time>
      </trkpt>
      <trkpt lat="45.94013" lon="-0.98654">
        <ele>40.144702</ele>
        <time>2022-12-21T14:15:18.341Z</time>
      </trkpt>
      <trkpt lat="45.94004" lon="-0.98647">
        <ele>40.173018</ele>
        <time>2022-12-21T14:15:21.359Z</time>
      </trkpt>
      <trkpt lat="45.93996" lon="-0.9864">
        <ele>40.200475</ele>
        <time>2022-12-21T14:15:24.342Z</time>
      </trkpt>
      <trkpt lat="45.93986" lon="-0.98632">
        <ele>40.231236</ele>
        <time>2022-12-21T14:15:27.350Z</time>
      </trkpt>
      <trkpt lat="45.93976" lon="-0.98623">
        <ele>40.264486</ele>
        <time>2022-12-21T14:15:30.343Z</time>
      </trkpt>
      <trkpt lat="45.93965" lon="-0.98615">
        <ele>40.296875</ele>
        <time>2022-12-21T14:15:33.330Z</time>
      </trkpt>
      <trkpt lat="45.93955" lon="-0.98607">
        <ele>40.328742</ele>
        <time>2022-12-21T14:15:36.367Z</time>
      </trkpt>
      <trkpt lat="45.93946" lon="-0.98598">
        <ele>40.359327</ele>
        <time>2022-12-21T14:15:39.332Z</time>
      </trkpt>
      <trkpt lat="45.93937" lon="-0.98592">
        <ele>40.388321</ele>
        <time>2022-12-21T14:15:42.359Z</time>
      </trkpt>
      <trkpt lat="45.93928" lon="-0.98585">
        <ele>40.415727</ele>
        <time>2022-12-21T14:15:45.361Z</time>
      </trkpt>
      <trkpt lat="45.93918" lon="-0.98577">
        <ele>40.447258</ele>
        <time>2022-12-21T14:15:49.366Z</time>
      </trkpt>
      <trkpt lat="45.9391" lon="-0.9857">
        <ele>40.472317</ele>
        <time>2022-12-21T14:15:53.363Z</time>
      </trkpt>
      <trkpt lat="45.93902" lon="-0.98563">
        <ele>40.498238</ele>
        <time>2022-12-21T14:15:57.336Z</time>
      </trkpt>
      <trkpt lat="45.93894" lon="-0.98558">
        <ele>40.52399</ele>
        <time>2022-12-21T14:16:01.345Z</time>
      </trkpt>
      <trkpt lat="45.93886" lon="-0.9855">
        <ele>40.579981</ele>
        <time>2022-12-21T14:16:05.345Z</time>
      </trkpt>
      <trkpt lat="45.93877" lon="-0.98541">
        <ele>40.662468</ele>
        <time>2022-12-21T14:16:09.344Z</time>
      </trkpt>
      <trkpt lat="45.93869" lon="-0.98528">
        <ele>40.754543</ele>
        <time>2022-12-21T14:16:13.334Z</time>
      </trkpt>
      <trkpt lat="45.93862" lon="-0.9852">
        <ele>40.824452</ele>
        <time>2022-12-21T14:16:16.331Z</time>
      </trkpt>
      <trkpt lat="45.93855" lon="-0.98509">
        <ele>40.907933</ele>
        <time>2022-12-21T14:16:20.337Z</time>
      </trkpt>
      <trkpt lat="45.93846" lon="-0.98498">
        <ele>40.995144</ele>
        <time>2022-12-21T14:16:24.338Z</time>
      </trkpt>
      <trkpt lat="45.93839" lon="-0.98487">
        <ele>41.075327</ele>
        <time>2022-12-21T14:16:28.343Z</time>
      </trkpt>
      <trkpt lat="45.93831" lon="-0.98479">
        <ele>41.155237</ele>
        <time>2022-12-21T14:16:33.332Z</time>
      </trkpt>
      <trkpt lat="45.93822" lon="-0.98471">
        <ele>41.233907</ele>
        <time>2022-12-21T14:16:38.350Z</time>
      </trkpt>
      <trkpt lat="45.93814" lon="-0.98463">
        <ele>41.308118</ele>
        <time>2022-12-21T14:16:42.332Z</time>
      </trkpt>
      <trkpt lat="45.93803" lon="-0.98459">
        <ele>41.39981</ele>
        <time>2022-12-21T14:16:46.336Z</time>
      </trkpt>
      <trkpt lat="45.93793" lon="-0.98456">
        <ele>41.474149</ele>
        <time>2022-12-21T14:16:49.347Z</time>
      </trkpt>
      <trkpt lat="45.93783" lon="-0.98455">
        <ele>41.551816</ele>
        <time>2022-12-21T14:16:52.335Z</time>
      </trkpt>
      <trkpt lat="45.93774" lon="-0.98455">
        <ele>41.625384</ele>
        <time>2022-12-21T14:16:55.328Z</time>
      </trkpt>
      <trkpt lat="45.93764" lon="-0.98456">
        <ele>41.699455</ele>
        <time>2022-12-21T14:16:58.346Z</time>
      </trkpt>
      <trkpt lat="45.93755" lon="-0.98459">
        <ele>41.773387</ele>
        <time>2022-12-21T14:17:01.346Z</time>
      </trkpt>
      <trkpt lat="45.93746" lon="-0.98459">
        <ele>41.845425</ele>
        <time>2022-12-21T14:17:04.338Z</time>
      </trkpt>
      <trkpt lat="45.93736" lon="-0.98459">
        <ele>41.918226</ele>
        <time>2022-12-21T14:17:07.346Z</time>
      </trkpt>
      <trkpt lat="45.93727" lon="-0.98461">
        <ele>41.994746</ele>
        <time>2022-12-21T14:17:10.338Z</time>
      </trkpt>
      <trkpt lat="45.93717" lon="-0.98469">
        <ele>42.095885</ele>
        <time>2022-12-21T14:17:14.336Z</time>
      </trkpt>
      <trkpt lat="45.93709" lon="-0.98476">
        <ele>42.174882</ele>
        <time>2022-12-21T14:17:17.337Z</time>
      </trkpt>
      <trkpt lat="45.93701" lon="-0.98483">
        <ele>42.256269</ele>
        <time>2022-12-21T14:17:20.332Z</time>
      </trkpt>
      <trkpt lat="45.9369" lon="-0.98486">
        <ele>42.352912</ele>
        <time>2022-12-21T14:17:24.360Z</time>
      </trkpt>
      <trkpt lat="45.93679" lon="-0.98484">
        <ele>42.443231</ele>
        <time>2022-12-21T14:17:28.336Z</time>
      </trkpt>
      <trkpt lat="45.93669" lon="-0.9848">
        <ele>42.535356</ele>
        <time>2022-12-21T14:17:32.342Z</time>
      </trkpt>
      <trkpt lat="45.93661" lon="-0.98471">
        <ele>42.619627</ele>
        <time>2022-12-21T14:17:36.366Z</time>
      </trkpt>
      <trkpt lat="45.93651" lon="-0.98464">
        <ele>42.715626</ele>
        <time>2022-12-21T14:17:40.358Z</time>
      </trkpt>
      <trkpt lat="45.93639" lon="-0.98465">
        <ele>42.816446</ele>
        <time>2022-12-21T14:17:44.348Z</time>
      </trkpt>
      <trkpt lat="45.93628" lon="-0.98468">
        <ele>42.911586</ele>
        <time>2022-12-21T14:17:48.360Z</time>
      </trkpt>
      <trkpt lat="45.93619" lon="-0.9847">
        <ele>42.991673</ele>
        <time>2022-12-21T14:17:52.362Z</time>
      </trkpt>
      <trkpt lat="45.93609" lon="-0.98472">
        <ele>43.075223</ele>
        <time>2022-12-21T14:17:57.335Z</time>
      </trkpt>
      <trkpt lat="45.936" lon="-0.98472">
        <ele>43.158881</ele>
        <time>2022-12-21T14:18:01.350Z</time>
      </trkpt>
      <trkpt lat="45.9359" lon="-0.98471">
        <ele>43.243506</ele>
        <time>2022-12-21T14:18:05.362Z</time>
      </trkpt>
      <trkpt lat="45.9358" lon="-0.9847">
        <ele>43.325747</ele>
        <time>2022-12-21T14:18:09.341Z</time>
      </trkpt>
      <trkpt lat="45.93571" lon="-0.9847">
        <ele>43.40342</ele>
        <time>2022-12-21T14:18:12.340Z</time>
      </trkpt>
      <trkpt lat="45.93561" lon="-0.98471">
        <ele>43.454704</ele>
        <time>2022-12-21T14:18:15.344Z</time>
      </trkpt>
      <trkpt lat="45.9355" lon="-0.98471">
        <ele>43.433223</ele>
        <time>2022-12-21T14:18:18.344Z</time>
      </trkpt>
      <trkpt lat="45.93539" lon="-0.98471">
        <ele>43.411549</ele>
        <time>2022-12-21T14:18:21.334Z</time>
      </trkpt>
      <trkpt lat="45.93528" lon="-0.9847">
        <ele>43.39079</ele>
        <time>2022-12-21T14:18:24.334Z</time>
      </trkpt>
      <trkpt lat="45.93517" lon="-0.98467">
        <ele>43.368601</ele>
        <time>2022-12-21T14:18:27.347Z</time>
      </trkpt>
      <trkpt lat="45.93505" lon="-0.98465">
        <ele>43.34636</ele>
        <time>2022-12-21T14:18:30.341Z</time>
      </trkpt>
      <trkpt lat="45.93494" lon="-0.98462">
        <ele>43.324426</ele>
        <time>2022-12-21T14:18:33.340Z</time>
      </trkpt>
      <trkpt lat="45.93482" lon="-0.9846">
        <ele>43.301877</ele>
        <time>2022-12-21T14:18:36.337Z</time>
      </trkpt>
      <trkpt lat="45.93471" lon="-0.98457">
        <ele>43.279828</ele>
        <time>2022-12-21T14:18:39.336Z</time>
      </trkpt>
      <trkpt lat="45.9346" lon="-0.98453">
        <ele>43.257242</ele>
        <time>2022-12-21T14:18:42.335Z</time>
      </trkpt>
      <trkpt lat="45.93448" lon="-0.98449">
        <ele>43.233623</ele>
        <time>2022-12-21T14:18:45.345Z</time>
      </trkpt>
      <trkpt lat="45.93436" lon="-0.98444">
        <ele>43.209632</ele>
        <time>2022-12-21T14:18:48.337Z</time>
      </trkpt>
      <trkpt lat="45.93424" lon="-0.98439">
        <ele>43.185339</ele>
        <time>2022-12-21T14:18:51.345Z</time>
      </trkpt>
      <trkpt lat="45.93412" lon="-0.98433">
        <ele>43.160754</ele>
        <time>2022-12-21T14:18:54.335Z</time>
      </trkpt>
      <trkpt lat="45.934" lon="-0.98426">
        <ele>43.135842</ele>
        <time>2022-12-21T14:18:57.349Z</time>
      </trkpt>
      <trkpt lat="45.93388" lon="-0.9842">
        <ele>43.115168</ele>
        <time>2022-12-21T14:19:00.335Z</time>
      </trkpt>
      <trkpt lat="45.93377" lon="-0.98413">
        <ele>43.150152</ele>
        <time>2022-12-21T14:19:03.339Z</time>
      </trkpt>
      <trkpt lat="45.93366" lon="-0.98405">
        <ele>43.185871</ele>
        <time>2022-12-21T14:19:06.337Z</time>
      </trkpt>
      <trkpt lat="45.93354" lon="-0.98398">
        <ele>43.221334</ele>
        <time>2022-12-21T14:19:09.344Z</time>
      </trkpt>
      <trkpt lat="45.93343" lon="-0.98388">
        <ele>43.258177</ele>
        <time>2022-12-21T14:19:12.344Z</time>
      </trkpt>
      <trkpt lat="45.93332" lon="-0.98379">
        <ele>43.293553</ele>
        <time>2022-12-21T14:19:15.387Z</time>
      </trkpt>
      <trkpt lat="45.93322" lon="-0.98371">
        <ele>43.325268</ele>
        <time>2022-12-21T14:19:18.357Z</time>
      </trkpt>
      <trkpt lat="45.93313" lon="-0.98362">
        <ele>43.357611</ele>
        <time>2022-12-21T14:19:21.340Z</time>
      </trkpt>
      <trkpt lat="45.93303" lon="-0.98352">
        <ele>43.391545</ele>
        <time>2022-12-21T14:19:24.356Z</time>
      </trkpt>
      <trkpt lat="45.93293" lon="-0.98342">
        <ele>43.426154</ele>
        <time>2022-12-21T14:19:27.345Z</time>
      </trkpt>
      <trkpt lat="45.93282" lon="-0.98331">
        <ele>43.462359</ele>
        <time>2022-12-21T14:19:30.340Z</time>
      </trkpt>
      <trkpt lat="45.93272" lon="-0.98321">
        <ele>43.498567</ele>
        <time>2022-12-21T14:19:33.362Z</time>
      </trkpt>
      <trkpt lat="45.93261" lon="-0.98311">
        <ele>43.534583</ele>
        <time>2022-12-21T14:19:36.361Z</time>
      </trkpt>
      <trkpt lat="45.93251" lon="-0.98299">
        <ele>43.571609</ele>
        <time>2022-12-21T14:19:39.361Z</time>
      </trkpt>
      <trkpt lat="45.9324" lon="-0.98289">
        <ele>43.609201</ele>
        <time>2022-12-21T14:19:42.333Z</time>
      </trkpt>
      <trkpt lat="45.9323" lon="-0.98279">
        <ele>43.622706</ele>
        <time>2022-12-21T14:19:45.342Z</time>
      </trkpt>
      <trkpt lat="45.9322" lon="-0.98268">
        <ele>43.625623</ele>
        <time>2022-12-21T14:19:48.353Z</time>
      </trkpt>
      <trkpt lat="45.9321" lon="-0.98258">
        <ele>43.628661</ele>
        <time>2022-12-21T14:19:51.340Z</time>
      </trkpt>
      <trkpt lat="45.932" lon="-0.98247">
        <ele>43.631688</ele>
        <time>2022-12-21T14:19:54.343Z</time>
      </trkpt>
      <trkpt lat="45.9319" lon="-0.98237">
        <ele>43.634785</ele>
        <time>2022-12-21T14:19:57.363Z</time>
      </trkpt>
      <trkpt lat="45.93179" lon="-0.98226">
        <ele>43.637973</ele>
        <time>2022-12-21T14:20:00.356Z</time>
      </trkpt>
      <trkpt lat="45.93169" lon="-0.98216">
        <ele>43.64115</ele>
        <time>2022-12-21T14:20:03.344Z</time>
      </trkpt>
      <trkpt lat="45.93158" lon="-0.98205">
        <ele>43.644237</ele>
        <time>2022-12-21T14:20:06.360Z</time>
      </trkpt>
      <trkpt lat="45.93148" lon="-0.98195">
        <ele>43.647279</ele>
        <time>2022-12-21T14:20:09.350Z</time>
      </trkpt>
      <trkpt lat="45.93138" lon="-0.98185">
        <ele>43.650396</ele>
        <time>2022-12-21T14:20:12.357Z</time>
      </trkpt>
      <trkpt lat="45.93127" lon="-0.98174">
        <ele>43.653453</ele>
        <time>2022-12-21T14:20:15.360Z</time>
      </trkpt>
      <trkpt lat="45.93118" lon="-0.98164">
        <ele>43.65641</ele>
        <time>2022-12-21T14:20:18.354Z</time>
      </trkpt>
      <trkpt lat="45.93107" lon="-0.98154">
        <ele>43.659477</ele>
        <time>2022-12-21T14:20:21.350Z</time>
      </trkpt>
      <trkpt lat="45.93097" lon="-0.98143">
        <ele>43.662684</ele>
        <time>2022-12-21T14:20:24.345Z</time>
      </trkpt>
      <trkpt lat="45.93087" lon="-0.98132">
        <ele>43.651451</ele>
        <time>2022-12-21T14:20:27.348Z</time>
      </trkpt>
      <trkpt lat="45.93076" lon="-0.98122">
        <ele>43.609115</ele>
        <time>2022-12-21T14:20:30.361Z</time>
      </trkpt>
      <trkpt lat="45.93067" lon="-0.98112">
        <ele>43.568897</ele>
        <time>2022-12-21T14:20:33.366Z</time>
      </trkpt>
      <trkpt lat="45.93058" lon="-0.98104">
        <ele>43.533688</ele>
        <time>2022-12-21T14:20:36.345Z</time>
      </trkpt>
      <trkpt lat="45.9305" lon="-0.98095">
        <ele>43.498201</ele>
        <time>2022-12-21T14:20:39.364Z</time>
      </trkpt>
      <trkpt lat="45.93041" lon="-0.98085">
        <ele>43.460192</ele>
        <time>2022-12-21T14:20:42.359Z</time>
      </trkpt>
      <trkpt lat="45.93032" lon="-0.98076">
        <ele>43.421922</ele>
        <time>2022-12-21T14:20:45.347Z</time>
      </trkpt>
      <trkpt lat="45.93023" lon="-0.98067">
        <ele>43.382638</ele>
        <time>2022-12-21T14:20:48.349Z</time>
      </trkpt>
      <trkpt lat="45.93013" lon="-0.98058">
        <ele>43.343243</ele>
        <time>2022-12-21T14:20:51.364Z</time>
      </trkpt>
      <trkpt lat="45.93004" lon="-0.98048">
        <ele>43.30386</ele>
        <time>2022-12-21T14:20:54.345Z</time>
      </trkpt>
      <trkpt lat="45.92994" lon="-0.98038">
        <ele>43.264336</ele>
        <time>2022-12-21T14:20:57.361Z</time>
      </trkpt>
      <trkpt lat="45.92985" lon="-0.98028">
        <ele>43.223836</ele>
        <time>2022-12-21T14:21:00.351Z</time>
      </trkpt>
      <trkpt lat="45.92975" lon="-0.98018">
        <ele>43.182636</ele>
        <time>2022-12-21T14:21:03.360Z</time>
      </trkpt>
      <trkpt lat="45.92965" lon="-0.98008">
        <ele>43.139913</ele>
        <time>2022-12-21T14:21:06.356Z</time>
      </trkpt>
      <trkpt lat="45.92955" lon="-0.97999">
        <ele>43.099663</ele>
        <time>2022-12-21T14:21:09.337Z</time>
      </trkpt>
      <trkpt lat="45.92947" lon="-0.9799">
        <ele>43.064446</ele>
        <time>2022-12-21T14:21:12.350Z</time>
      </trkpt>
      <trkpt lat="45.92939" lon="-0.97982">
        <ele>43.03082</ele>
        <time>2022-12-21T14:21:15.362Z</time>
      </trkpt>
      <trkpt lat="45.92931" lon="-0.97973">
        <ele>42.994677</ele>
        <time>2022-12-21T14:21:18.362Z</time>
      </trkpt>
      <trkpt lat="45.92922" lon="-0.97964">
        <ele>42.954235</ele>
        <time>2022-12-21T14:21:21.331Z</time>
      </trkpt>
      <trkpt lat="45.92913" lon="-0.97955">
        <ele>42.912159</ele>
        <time>2022-12-21T14:21:24.338Z</time>
      </trkpt>
      <trkpt lat="45.92903" lon="-0.97944">
        <ele>42.869017</ele>
        <time>2022-12-21T14:21:27.363Z</time>
      </trkpt>
      <trkpt lat="45.92893" lon="-0.97935">
        <ele>42.825894</ele>
        <time>2022-12-21T14:21:30.347Z</time>
      </trkpt>
      <trkpt lat="45.92884" lon="-0.97925">
        <ele>42.782329</ele>
        <time>2022-12-21T14:21:33.365Z</time>
      </trkpt>
      <trkpt lat="45.92874" lon="-0.97914">
        <ele>42.738632</ele>
        <time>2022-12-21T14:21:36.339Z</time>
      </trkpt>
      <trkpt lat="45.92864" lon="-0.97905">
        <ele>42.694762</ele>
        <time>2022-12-21T14:21:39.348Z</time>
      </trkpt>
      <trkpt lat="45.92854" lon="-0.97895">
        <ele>42.651638</ele>
        <time>2022-12-21T14:21:42.345Z</time>
      </trkpt>
      <trkpt lat="45.92845" lon="-0.97886">
        <ele>42.609404</ele>
        <time>2022-12-21T14:21:45.348Z</time>
      </trkpt>
      <trkpt lat="45.92835" lon="-0.97876">
        <ele>42.565395</ele>
        <time>2022-12-21T14:21:48.333Z</time>
      </trkpt>
      <trkpt lat="45.92824" lon="-0.97865">
        <ele>42.517776</ele>
        <time>2022-12-21T14:21:51.340Z</time>
      </trkpt>
      <trkpt lat="45.92814" lon="-0.97854">
        <ele>42.470225</ele>
        <time>2022-12-21T14:21:54.346Z</time>
      </trkpt>
      <trkpt lat="45.92803" lon="-0.97843">
        <ele>42.421788</ele>
        <time>2022-12-21T14:21:57.362Z</time>
      </trkpt>
      <trkpt lat="45.92792" lon="-0.97833">
        <ele>42.410225</ele>
        <time>2022-12-21T14:22:00.364Z</time>
      </trkpt>
      <trkpt lat="45.92782" lon="-0.97822">
        <ele>42.458198</ele>
        <time>2022-12-21T14:22:03.349Z</time>
      </trkpt>
      <trkpt lat="45.92773" lon="-0.97812">
        <ele>42.501268</ele>
        <time>2022-12-21T14:22:06.352Z</time>
      </trkpt>
      <trkpt lat="45.92763" lon="-0.97803">
        <ele>42.545257</ele>
        <time>2022-12-21T14:22:09.364Z</time>
      </trkpt>
      <trkpt lat="45.92753" lon="-0.97792">
        <ele>42.591547</ele>
        <time>2022-12-21T14:22:12.338Z</time>
      </trkpt>
      <trkpt lat="45.92744" lon="-0.97781">
        <ele>42.638514</ele>
        <time>2022-12-21T14:22:15.346Z</time>
      </trkpt>
      <trkpt lat="45.92734" lon="-0.9777">
        <ele>42.686192</ele>
        <time>2022-12-21T14:22:18.344Z</time>
      </trkpt>
      <trkpt lat="45.92723" lon="-0.97759">
        <ele>42.734995</ele>
        <time>2022-12-21T14:22:21.346Z</time>
      </trkpt>
      <trkpt lat="45.92714" lon="-0.97746">
        <ele>42.78291</ele>
        <time>2022-12-21T14:22:24.341Z</time>
      </trkpt>
      <trkpt lat="45.92704" lon="-0.97735">
        <ele>42.831064</ele>
        <time>2022-12-21T14:22:27.334Z</time>
      </trkpt>
      <trkpt lat="45.92694" lon="-0.97723">
        <ele>42.88024</ele>
        <time>2022-12-21T14:22:30.340Z</time>
      </trkpt>
      <trkpt lat="45.92685" lon="-0.97712">
        <ele>42.925635</ele>
        <time>2022-12-21T14:22:33.358Z</time>
      </trkpt>
      <trkpt lat="45.92676" lon="-0.97702">
        <ele>42.965983</ele>
        <time>2022-12-21T14:22:36.341Z</time>
      </trkpt>
      <trkpt lat="45.92668" lon="-0.97693">
        <ele>43.005549</ele>
        <time>2022-12-21T14:22:39.362Z</time>
      </trkpt>
      <trkpt lat="45.9266" lon="-0.97683">
        <ele>43.046848</ele>
        <time>2022-12-21T14:22:42.345Z</time>
      </trkpt>
      <trkpt lat="45.92651" lon="-0.97673">
        <ele>43.102214</ele>
        <time>2022-12-21T14:22:45.351Z</time>
      </trkpt>
      <trkpt lat="45.92641" lon="-0.97663">
        <ele>43.178295</ele>
        <time>2022-12-21T14:22:48.360Z</time>
      </trkpt>
      <trkpt lat="45.92632" lon="-0.97652">
        <ele>43.255993</ele>
        <time>2022-12-21T14:22:51.350Z</time>
      </trkpt>
      <trkpt lat="45.92623" lon="-0.97641">
        <ele>43.332199</ele>
        <time>2022-12-21T14:22:54.343Z</time>
      </trkpt>
      <trkpt lat="45.92614" lon="-0.97629">
        <ele>43.411226</ele>
        <time>2022-12-21T14:22:57.347Z</time>
      </trkpt>
      <trkpt lat="45.92605" lon="-0.97619">
        <ele>43.482063</ele>
        <time>2022-12-21T14:23:00.346Z</time>
      </trkpt>
      <trkpt lat="45.92598" lon="-0.97609">
        <ele>43.547637</ele>
        <time>2022-12-21T14:23:03.345Z</time>
      </trkpt>
      <trkpt lat="45.92591" lon="-0.976">
        <ele>43.606502</ele>
        <time>2022-12-21T14:23:06.354Z</time>
      </trkpt>
      <trkpt lat="45.92582" lon="-0.9759">
        <ele>43.682307</ele>
        <time>2022-12-21T14:23:10.339Z</time>
      </trkpt>
      <trkpt lat="45.92574" lon="-0.97581">
        <ele>43.748219</ele>
        <time>2022-12-21T14:23:13.352Z</time>
      </trkpt>
      <trkpt lat="45.92566" lon="-0.97572">
        <ele>43.811438</ele>
        <time>2022-12-21T14:23:16.372Z</time>
      </trkpt>
      <trkpt lat="45.92558" lon="-0.97564">
        <ele>43.873115</ele>
        <time>2022-12-21T14:23:19.380Z</time>
      </trkpt>
      <trkpt lat="45.92551" lon="-0.97556">
        <ele>43.934793</ele>
        <time>2022-12-21T14:23:22.347Z</time>
      </trkpt>
      <trkpt lat="45.92543" lon="-0.97547">
        <ele>43.996963</ele>
        <time>2022-12-21T14:23:25.363Z</time>
      </trkpt>
      <trkpt lat="45.92535" lon="-0.97539">
        <ele>44.058256</ele>
        <time>2022-12-21T14:23:28.345Z</time>
      </trkpt>
      <trkpt lat="45.92527" lon="-0.97529">
        <ele>44.128262</ele>
        <time>2022-12-21T14:23:32.364Z</time>
      </trkpt>
      <trkpt lat="45.92518" lon="-0.97521">
        <ele>44.19487</ele>
        <time>2022-12-21T14:23:36.342Z</time>
      </trkpt>
      <trkpt lat="45.92509" lon="-0.97511">
        <ele>44.257282</ele>
        <time>2022-12-21T14:23:40.347Z</time>
      </trkpt>
      <trkpt lat="45.92501" lon="-0.97503">
        <ele>44.305895</ele>
        <time>2022-12-21T14:23:44.362Z</time>
      </trkpt>
      <trkpt lat="45.9249" lon="-0.97498">
        <ele>44.359202</ele>
        <time>2022-12-21T14:23:49.347Z</time>
      </trkpt>
      <trkpt lat="45.92481" lon="-0.97496">
        <ele>44.406352</ele>
        <time>2022-12-21T14:23:53.360Z</time>
      </trkpt>
      <trkpt lat="45.92471" lon="-0.97497">
        <ele>44.453673</ele>
        <time>2022-12-21T14:23:58.343Z</time>
      </trkpt>
      <trkpt lat="45.92462" lon="-0.975">
        <ele>44.498608</ele>
        <time>2022-12-21T14:24:03.364Z</time>
      </trkpt>
      <trkpt lat="45.92451" lon="-0.97508">
        <ele>44.555003</ele>
        <time>2022-12-21T14:24:08.356Z</time>
      </trkpt>
      <trkpt lat="45.92442" lon="-0.97516">
        <ele>44.609837</ele>
        <time>2022-12-21T14:24:12.347Z</time>
      </trkpt>
      <trkpt lat="45.92433" lon="-0.97525">
        <ele>44.663467</ele>
        <time>2022-12-21T14:24:16.361Z</time>
      </trkpt>
      <trkpt lat="45.92425" lon="-0.97534">
        <ele>44.710997</ele>
        <time>2022-12-21T14:24:20.353Z</time>
      </trkpt>
      <trkpt lat="45.92419" lon="-0.97524">
        <ele>44.757882</ele>
        <time>2022-12-21T14:24:29.334Z</time>
      </trkpt>
      <trkpt lat="45.9242" lon="-0.97509">
        <ele>44.808414</ele>
        <time>2022-12-21T14:24:34.365Z</time>
      </trkpt>
      <trkpt lat="45.92419" lon="-0.97491">
        <ele>44.867506</ele>
        <time>2022-12-21T14:24:38.343Z</time>
      </trkpt>
      <trkpt lat="45.92416" lon="-0.97477">
        <ele>44.916775</ele>
        <time>2022-12-21T14:24:41.365Z</time>
      </trkpt>
      <trkpt lat="45.92411" lon="-0.97465">
        <ele>44.963933</ele>
        <time>2022-12-21T14:24:44.355Z</time>
      </trkpt>
      <trkpt lat="45.92404" lon="-0.97456">
        <ele>45.007465</ele>
        <time>2022-12-21T14:24:47.362Z</time>
      </trkpt>
      <trkpt lat="45.92395" lon="-0.97445">
        <ele>45.066385</ele>
        <time>2022-12-21T14:24:51.362Z</time>
      </trkpt>
      <trkpt lat="45.92388" lon="-0.97436">
        <ele>45.077744</ele>
        <time>2022-12-21T14:24:54.353Z</time>
      </trkpt>
      <trkpt lat="45.9238" lon="-0.97428">
        <ele>45.026564</ele>
        <time>2022-12-21T14:24:57.341Z</time>
      </trkpt>
      <trkpt lat="45.92371" lon="-0.97419">
        <ele>44.972217</ele>
        <time>2022-12-21T14:25:00.363Z</time>
      </trkpt>
      <trkpt lat="45.92363" lon="-0.97411">
        <ele>44.918641</ele>
        <time>2022-12-21T14:25:03.365Z</time>
      </trkpt>
      <trkpt lat="45.92354" lon="-0.97402">
        <ele>44.863237</ele>
        <time>2022-12-21T14:25:06.343Z</time>
      </trkpt>
      <trkpt lat="45.92345" lon="-0.97393">
        <ele>44.80549</ele>
        <time>2022-12-21T14:25:09.357Z</time>
      </trkpt>
      <trkpt lat="45.92336" lon="-0.97383">
        <ele>44.747991</ele>
        <time>2022-12-21T14:25:12.362Z</time>
      </trkpt>
      <trkpt lat="45.92327" lon="-0.97374">
        <ele>44.689647</ele>
        <time>2022-12-21T14:25:15.347Z</time>
      </trkpt>
      <trkpt lat="45.92318" lon="-0.97364">
        <ele>44.629615</ele>
        <time>2022-12-21T14:25:18.372Z</time>
      </trkpt>
      <trkpt lat="45.92309" lon="-0.97354">
        <ele>44.571676</ele>
        <time>2022-12-21T14:25:21.339Z</time>
      </trkpt>
      <trkpt lat="45.923" lon="-0.97345">
        <ele>44.515823</ele>
        <time>2022-12-21T14:25:24.347Z</time>
      </trkpt>
      <trkpt lat="45.92291" lon="-0.97336">
        <ele>44.459721</ele>
        <time>2022-12-21T14:25:27.339Z</time>
      </trkpt>
      <trkpt lat="45.92282" lon="-0.97328">
        <ele>44.401919</ele>
        <time>2022-12-21T14:25:30.362Z</time>
      </trkpt>
      <trkpt lat="45.92272" lon="-0.97318">
        <ele>44.341031</ele>
        <time>2022-12-21T14:25:33.362Z</time>
      </trkpt>
      <trkpt lat="45.92263" lon="-0.9731">
        <ele>44.283861</ele>
        <time>2022-12-21T14:25:36.342Z</time>
      </trkpt>
      <trkpt lat="45.92254" lon="-0.97302">
        <ele>44.231836</ele>
        <time>2022-12-21T14:25:39.347Z</time>
      </trkpt>
      <trkpt lat="45.92247" lon="-0.97291">
        <ele>44.176021</ele>
        <time>2022-12-21T14:25:42.360Z</time>
      </trkpt>
      <trkpt lat="45.92238" lon="-0.97279">
        <ele>44.172594</ele>
        <time>2022-12-21T14:25:45.337Z</time>
      </trkpt>
      <trkpt lat="45.92231" lon="-0.97266">
        <ele>44.186256</ele>
        <time>2022-12-21T14:25:48.340Z</time>
      </trkpt>
      <trkpt lat="45.92223" lon="-0.97253">
        <ele>44.199812</ele>
        <time>2022-12-21T14:25:51.348Z</time>
      </trkpt>
      <trkpt lat="45.92215" lon="-0.97242">
        <ele>44.212958</ele>
        <time>2022-12-21T14:25:54.346Z</time>
      </trkpt>
      <trkpt lat="45.92206" lon="-0.97231">
        <ele>44.226173</ele>
        <time>2022-12-21T14:25:57.341Z</time>
      </trkpt>
      <trkpt lat="45.92198" lon="-0.97221">
        <ele>44.238462</ele>
        <time>2022-12-21T14:26:00.344Z</time>
      </trkpt>
      <trkpt lat="45.92189" lon="-0.97214">
        <ele>44.250358</ele>
        <time>2022-12-21T14:26:03.343Z</time>
      </trkpt>
      <trkpt lat="45.9218" lon="-0.97207">
        <ele>44.261821</ele>
        <time>2022-12-21T14:26:06.340Z</time>
      </trkpt>
      <trkpt lat="45.9217" lon="-0.97202">
        <ele>44.273249</ele>
        <time>2022-12-21T14:26:09.338Z</time>
      </trkpt>
      <trkpt lat="45.92161" lon="-0.97197">
        <ele>44.284971</ele>
        <time>2022-12-21T14:26:12.332Z</time>
      </trkpt>
      <trkpt lat="45.92151" lon="-0.97194">
        <ele>44.296705</ele>
        <time>2022-12-21T14:26:15.362Z</time>
      </trkpt>
      <trkpt lat="45.92141" lon="-0.9719">
        <ele>44.308566</ele>
        <time>2022-12-21T14:26:18.364Z</time>
      </trkpt>
      <trkpt lat="45.92131" lon="-0.97188">
        <ele>44.320317</ele>
        <time>2022-12-21T14:26:21.339Z</time>
      </trkpt>
      <trkpt lat="45.9212" lon="-0.97187">
        <ele>44.33203</ele>
        <time>2022-12-21T14:26:24.350Z</time>
      </trkpt>
      <trkpt lat="45.92111" lon="-0.97185">
        <ele>44.342901</ele>
        <time>2022-12-21T14:26:27.342Z</time>
      </trkpt>
      <trkpt lat="45.92099" lon="-0.97183">
        <ele>44.356166</ele>
        <time>2022-12-21T14:26:31.362Z</time>
      </trkpt>
      <trkpt lat="45.9209" lon="-0.97178">
        <ele>44.367027</ele>
        <time>2022-12-21T14:26:34.343Z</time>
      </trkpt>
      <trkpt lat="45.92081" lon="-0.97173">
        <ele>44.432955</ele>
        <time>2022-12-21T14:26:37.341Z</time>
      </trkpt>
      <trkpt lat="45.92072" lon="-0.97166">
        <ele>44.500617</ele>
        <time>2022-12-21T14:26:40.343Z</time>
      </trkpt>
      <trkpt lat="45.92062" lon="-0.97158">
        <ele>44.578414</ele>
        <time>2022-12-21T14:26:44.347Z</time>
      </trkpt>
      <trkpt lat="45.92053" lon="-0.9715">
        <ele>44.653339</ele>
        <time>2022-12-21T14:26:48.333Z</time>
      </trkpt>
      <trkpt lat="45.92045" lon="-0.97143">
        <ele>44.717433</ele>
        <time>2022-12-21T14:26:51.357Z</time>
      </trkpt>
      <trkpt lat="45.92037" lon="-0.97134">
        <ele>44.784778</ele>
        <time>2022-12-21T14:26:54.345Z</time>
      </trkpt>
      <trkpt lat="45.92029" lon="-0.97125">
        <ele>44.855749</ele>
        <time>2022-12-21T14:26:57.343Z</time>
      </trkpt>
      <trkpt lat="45.92022" lon="-0.97114">
        <ele>44.927239</ele>
        <time>2022-12-21T14:27:00.335Z</time>
      </trkpt>
      <trkpt lat="45.92015" lon="-0.97102">
        <ele>45.001801</ele>
        <time>2022-12-21T14:27:03.336Z</time>
      </trkpt>
      <trkpt lat="45.92009" lon="-0.9709">
        <ele>45.074864</ele>
        <time>2022-12-21T14:27:06.336Z</time>
      </trkpt>
      <trkpt lat="45.92002" lon="-0.97078">
        <ele>45.149525</ele>
        <time>2022-12-21T14:27:09.337Z</time>
      </trkpt>
      <trkpt lat="45.91996" lon="-0.97064">
        <ele>45.225262</ele>
        <time>2022-12-21T14:27:12.335Z</time>
      </trkpt>
      <trkpt lat="45.91989" lon="-0.97049">
        <ele>45.308952</ele>
        <time>2022-12-21T14:27:15.344Z</time>
      </trkpt>
      <trkpt lat="45.91983" lon="-0.97033">
        <ele>45.3969</ele>
        <time>2022-12-21T14:27:18.343Z</time>
      </trkpt>
      <trkpt lat="45.91978" lon="-0.97018">
        <ele>45.480269</ele>
        <time>2022-12-21T14:27:21.339Z</time>
      </trkpt>
      <trkpt lat="45.91973" lon="-0.97004">
        <ele>45.552386</ele>
        <time>2022-12-21T14:27:24.337Z</time>
      </trkpt>
      <trkpt lat="45.9197" lon="-0.96988">
        <ele>45.627799</ele>
        <time>2022-12-21T14:27:28.355Z</time>
      </trkpt>
      <trkpt lat="45.91967" lon="-0.96972">
        <ele>45.701955</ele>
        <time>2022-12-21T14:27:32.336Z</time>
      </trkpt>
      <trkpt lat="45.91964" lon="-0.96957">
        <ele>45.766497</ele>
        <time>2022-12-21T14:27:35.354Z</time>
      </trkpt>
      <trkpt lat="45.91961" lon="-0.96942">
        <ele>45.835307</ele>
        <time>2022-12-21T14:27:38.345Z</time>
      </trkpt>
      <trkpt lat="45.91958" lon="-0.96925">
        <ele>45.908146</ele>
        <time>2022-12-21T14:27:41.357Z</time>
      </trkpt>
      <trkpt lat="45.91954" lon="-0.96908">
        <ele>45.984846</ele>
        <time>2022-12-21T14:27:44.348Z</time>
      </trkpt>
      <trkpt lat="45.91951" lon="-0.96892">
        <ele>46.055974</ele>
        <time>2022-12-21T14:27:47.364Z</time>
      </trkpt>
      <trkpt lat="45.91947" lon="-0.96877">
        <ele>46.123554</ele>
        <time>2022-12-21T14:27:50.348Z</time>
      </trkpt>
      <trkpt lat="45.91945" lon="-0.96862">
        <ele>46.187925</ele>
        <time>2022-12-21T14:27:53.343Z</time>
      </trkpt>
      <trkpt lat="45.9194" lon="-0.96847">
        <ele>46.259074</ele>
        <time>2022-12-21T14:27:56.353Z</time>
      </trkpt>
      <trkpt lat="45.91935" lon="-0.96831">
        <ele>46.332654</ele>
        <time>2022-12-21T14:27:59.357Z</time>
      </trkpt>
      <trkpt lat="45.91929" lon="-0.96817">
        <ele>46.404635</ele>
        <time>2022-12-21T14:28:02.331Z</time>
      </trkpt>
      <trkpt lat="45.91923" lon="-0.96802">
        <ele>46.478345</ele>
        <time>2022-12-21T14:28:05.351Z</time>
      </trkpt>
      <trkpt lat="45.91917" lon="-0.96787">
        <ele>46.550226</ele>
        <time>2022-12-21T14:28:08.366Z</time>
      </trkpt>
      <trkpt lat="45.91915" lon="-0.96772">
        <ele>46.616035</ele>
        <time>2022-12-21T14:28:11.339Z</time>
      </trkpt>
      <trkpt lat="45.91915" lon="-0.96758">
        <ele>46.679287</ele>
        <time>2022-12-21T14:28:14.351Z</time>
      </trkpt>
      <trkpt lat="45.91917" lon="-0.96742">
        <ele>46.693322</ele>
        <time>2022-12-21T14:28:17.357Z</time>
      </trkpt>
      <trkpt lat="45.91919" lon="-0.96725">
        <ele>46.667108</ele>
        <time>2022-12-21T14:28:20.346Z</time>
      </trkpt>
      <trkpt lat="45.91921" lon="-0.96706">
        <ele>46.639715</ele>
        <time>2022-12-21T14:28:23.343Z</time>
      </trkpt>
      <trkpt lat="45.91923" lon="-0.96688">
        <ele>46.611343</ele>
        <time>2022-12-21T14:28:26.343Z</time>
      </trkpt>
      <trkpt lat="45.91924" lon="-0.96674">
        <ele>46.591653</ele>
        <time>2022-12-21T14:28:28.347Z</time>
      </trkpt>
      <trkpt lat="45.91925" lon="-0.96661">
        <ele>46.571167</ele>
        <time>2022-12-21T14:28:30.364Z</time>
      </trkpt>
      <trkpt lat="45.91926" lon="-0.96642">
        <ele>46.542589</ele>
        <time>2022-12-21T14:28:33.351Z</time>
      </trkpt>
      <trkpt lat="45.91927" lon="-0.96624">
        <ele>46.515563</ele>
        <time>2022-12-21T14:28:36.350Z</time>
      </trkpt>
      <trkpt lat="45.91927" lon="-0.96606">
        <ele>46.489775</ele>
        <time>2022-12-21T14:28:39.354Z</time>
      </trkpt>
      <trkpt lat="45.91928" lon="-0.96591">
        <ele>46.467075</ele>
        <time>2022-12-21T14:28:42.356Z</time>
      </trkpt>
      <trkpt lat="45.9193" lon="-0.96577">
        <ele>46.446441</ele>
        <time>2022-12-21T14:28:45.364Z</time>
      </trkpt>
      <trkpt lat="45.91932" lon="-0.96563">
        <ele>46.424224</ele>
        <time>2022-12-21T14:28:48.343Z</time>
      </trkpt>
      <trkpt lat="45.91934" lon="-0.96547">
        <ele>46.400125</ele>
        <time>2022-12-21T14:28:51.361Z</time>
      </trkpt>
      <trkpt lat="45.91936" lon="-0.9653">
        <ele>46.374467</ele>
        <time>2022-12-21T14:28:54.368Z</time>
      </trkpt>
      <trkpt lat="45.91934" lon="-0.96513">
        <ele>46.348738</ele>
        <time>2022-12-21T14:28:57.350Z</time>
      </trkpt>
      <trkpt lat="45.91928" lon="-0.96498">
        <ele>46.323108</ele>
        <time>2022-12-21T14:29:00.347Z</time>
      </trkpt>
      <trkpt lat="45.91919" lon="-0.96486">
        <ele>46.231879</ele>
        <time>2022-12-21T14:29:03.362Z</time>
      </trkpt>
      <trkpt lat="45.91908" lon="-0.96476">
        <ele>46.141419</ele>
        <time>2022-12-21T14:29:06.348Z</time>
      </trkpt>
      <trkpt lat="45.91899" lon="-0.96469">
        <ele>46.056557</ele>
        <time>2022-12-21T14:29:09.344Z</time>
      </trkpt>
      <trkpt lat="45.91888" lon="-0.96461">
        <ele>45.968468</ele>
        <time>2022-12-21T14:29:12.368Z</time>
      </trkpt>
      <trkpt lat="45.91877" lon="-0.96454">
        <ele>45.875355</ele>
        <time>2022-12-21T14:29:15.344Z</time>
      </trkpt>
      <trkpt lat="45.91865" lon="-0.96448">
        <ele>45.781158</ele>
        <time>2022-12-21T14:29:18.342Z</time>
      </trkpt>
      <trkpt lat="45.91853" lon="-0.96442">
        <ele>45.689112</ele>
        <time>2022-12-21T14:29:21.365Z</time>
      </trkpt>
      <trkpt lat="45.91841" lon="-0.96436">
        <ele>45.595269</ele>
        <time>2022-12-21T14:29:24.343Z</time>
      </trkpt>
      <trkpt lat="45.91829" lon="-0.96432">
        <ele>45.502455</ele>
        <time>2022-12-21T14:29:27.352Z</time>
      </trkpt>
      <trkpt lat="45.91817" lon="-0.96429">
        <ele>45.409693</ele>
        <time>2022-12-21T14:29:30.339Z</time>
      </trkpt>
      <trkpt lat="45.91806" lon="-0.96426">
        <ele>45.322098</ele>
        <time>2022-12-21T14:29:33.343Z</time>
      </trkpt>
      <trkpt lat="45.91795" lon="-0.96423">
        <ele>45.243072</ele>
        <time>2022-12-21T14:29:36.351Z</time>
      </trkpt>
      <trkpt lat="45.91784" lon="-0.96421">
        <ele>45.158785</ele>
        <time>2022-12-21T14:29:40.341Z</time>
      </trkpt>
      <trkpt lat="45.91773" lon="-0.96418">
        <ele>45.07532</ele>
        <time>2022-12-21T14:29:44.359Z</time>
      </trkpt>
      <trkpt lat="45.91766" lon="-0.96406">
        <ele>44.99631</ele>
        <time>2022-12-21T14:29:49.361Z</time>
      </trkpt>
      <trkpt lat="45.91768" lon="-0.96392">
        <ele>45.021729</ele>
        <time>2022-12-21T14:29:55.357Z</time>
      </trkpt>
      <trkpt lat="45.91778" lon="-0.96397">
        <ele>45.09546</ele>
        <time>2022-12-21T14:30:01.350Z</time>
      </trkpt>
      <trkpt lat="45.9179" lon="-0.96401">
        <ele>45.175281</ele>
        <time>2022-12-21T14:30:05.357Z</time>
      </trkpt>
      <trkpt lat="45.918" lon="-0.96405">
        <ele>45.242645</ele>
        <time>2022-12-21T14:30:08.349Z</time>
      </trkpt>
      <trkpt lat="45.9181" lon="-0.96408">
        <ele>45.31502</ele>
        <time>2022-12-21T14:30:11.342Z</time>
      </trkpt>
      <trkpt lat="45.91821" lon="-0.96411">
        <ele>45.388145</ele>
        <time>2022-12-21T14:30:14.350Z</time>
      </trkpt>
      <trkpt lat="45.91831" lon="-0.96411">
        <ele>45.454991</ele>
        <time>2022-12-21T14:30:17.368Z</time>
      </trkpt>
      <trkpt lat="45.9184" lon="-0.96412">
        <ele>45.517912</ele>
        <time>2022-12-21T14:30:20.349Z</time>
      </trkpt>
      <trkpt lat="45.9185" lon="-0.96416">
        <ele>45.58881</ele>
        <time>2022-12-21T14:30:23.354Z</time>
      </trkpt>
      <trkpt lat="45.91861" lon="-0.96421">
        <ele>45.665066</ele>
        <time>2022-12-21T14:30:26.359Z</time>
      </trkpt>
      <trkpt lat="45.91871" lon="-0.9643">
        <ele>45.740333</ele>
        <time>2022-12-21T14:30:30.363Z</time>
      </trkpt>
      <trkpt lat="45.91881" lon="-0.96437">
        <ele>45.817669</ele>
        <time>2022-12-21T14:30:35.368Z</time>
      </trkpt>
      <trkpt lat="45.91889" lon="-0.96443">
        <ele>45.880387</ele>
        <time>2022-12-21T14:30:38.364Z</time>
      </trkpt>
      <trkpt lat="45.91899" lon="-0.96451">
        <ele>45.952741</ele>
        <time>2022-12-21T14:30:41.363Z</time>
      </trkpt>
      <trkpt lat="45.91909" lon="-0.96459">
        <ele>46.029574</ele>
        <time>2022-12-21T14:30:44.349Z</time>
      </trkpt>
      <trkpt lat="45.91919" lon="-0.96468">
        <ele>46.109413</ele>
        <time>2022-12-21T14:30:47.357Z</time>
      </trkpt>
      <trkpt lat="45.91929" lon="-0.96479">
        <ele>46.170311</ele>
        <time>2022-12-21T14:30:50.350Z</time>
      </trkpt>
      <trkpt lat="45.91938" lon="-0.9649">
        <ele>46.141857</ele>
        <time>2022-12-21T14:30:53.362Z</time>
      </trkpt>
      <trkpt lat="45.91947" lon="-0.96502">
        <ele>46.113827</ele>
        <time>2022-12-21T14:30:56.364Z</time>
      </trkpt>
      <trkpt lat="45.91955" lon="-0.96513">
        <ele>46.087996</ele>
        <time>2022-12-21T14:30:59.365Z</time>
      </trkpt>
      <trkpt lat="45.91962" lon="-0.96524">
        <ele>46.063944</ele>
        <time>2022-12-21T14:31:02.351Z</time>
      </trkpt>
      <trkpt lat="45.91971" lon="-0.96535">
        <ele>46.038001</ele>
        <time>2022-12-21T14:31:05.363Z</time>
      </trkpt>
      <trkpt lat="45.91981" lon="-0.96542">
        <ele>46.012473</ele>
        <time>2022-12-21T14:31:08.356Z</time>
      </trkpt>
      <trkpt lat="45.91992" lon="-0.96538">
        <ele>45.986215</ele>
        <time>2022-12-21T14:31:11.367Z</time>
      </trkpt>
      <trkpt lat="45.92003" lon="-0.9653">
        <ele>45.957675</ele>
        <time>2022-12-21T14:31:14.343Z</time>
      </trkpt>
      <trkpt lat="45.92013" lon="-0.96521">
        <ele>45.928668</ele>
        <time>2022-12-21T14:31:17.343Z</time>
      </trkpt>
      <trkpt lat="45.92024" lon="-0.9651">
        <ele>45.898865</ele>
        <time>2022-12-21T14:31:20.343Z</time>
      </trkpt>
      <trkpt lat="45.92033" lon="-0.96496">
        <ele>45.868145</ele>
        <time>2022-12-21T14:31:23.350Z</time>
      </trkpt>
      <trkpt lat="45.92038" lon="-0.96485">
        <ele>45.847449</ele>
        <time>2022-12-21T14:31:25.363Z</time>
      </trkpt>
      <trkpt lat="45.92045" lon="-0.96469">
        <ele>45.817093</ele>
        <time>2022-12-21T14:31:28.348Z</time>
      </trkpt>
      <trkpt lat="45.92052" lon="-0.96454">
        <ele>45.787308</ele>
        <time>2022-12-21T14:31:31.362Z</time>
      </trkpt>
      <trkpt lat="45.92058" lon="-0.96443">
        <ele>45.764893</ele>
        <time>2022-12-21T14:31:33.334Z</time>
      </trkpt>
      <trkpt lat="45.92066" lon="-0.96427">
        <ele>45.703628</ele>
        <time>2022-12-21T14:31:36.342Z</time>
      </trkpt>
      <trkpt lat="45.92073" lon="-0.96413">
        <ele>45.643974</ele>
        <time>2022-12-21T14:31:39.340Z</time>
      </trkpt>
      <trkpt lat="45.9208" lon="-0.964">
        <ele>45.590474</ele>
        <time>2022-12-21T14:31:42.333Z</time>
      </trkpt>
      <trkpt lat="45.92086" lon="-0.96389">
        <ele>45.540282</ele>
        <time>2022-12-21T14:31:45.343Z</time>
      </trkpt>
      <trkpt lat="45.92092" lon="-0.96377">
        <ele>45.489821</ele>
        <time>2022-12-21T14:31:48.335Z</time>
      </trkpt>
      <trkpt lat="45.92099" lon="-0.96365">
        <ele>45.43822</ele>
        <time>2022-12-21T14:31:51.340Z</time>
      </trkpt>
      <trkpt lat="45.92106" lon="-0.96352">
        <ele>45.381662</ele>
        <time>2022-12-21T14:31:54.343Z</time>
      </trkpt>
      <trkpt lat="45.92115" lon="-0.9634">
        <ele>45.321895</ele>
        <time>2022-12-21T14:31:57.331Z</time>
      </trkpt>
      <trkpt lat="45.92124" lon="-0.96327">
        <ele>45.258409</ele>
        <time>2022-12-21T14:32:00.345Z</time>
      </trkpt>
      <trkpt lat="45.92133" lon="-0.96313">
        <ele>45.19331</ele>
        <time>2022-12-21T14:32:03.344Z</time>
      </trkpt>
      <trkpt lat="45.9214" lon="-0.96304">
        <ele>45.148353</ele>
        <time>2022-12-21T14:32:05.366Z</time>
      </trkpt>
      <trkpt lat="45.92149" lon="-0.96291">
        <ele>45.082975</ele>
        <time>2022-12-21T14:32:08.338Z</time>
      </trkpt>
      <trkpt lat="45.92159" lon="-0.96279">
        <ele>45.022385</ele>
        <time>2022-12-21T14:32:11.356Z</time>
      </trkpt>
      <trkpt lat="45.92169" lon="-0.96267">
        <ele>44.958024</ele>
        <time>2022-12-21T14:32:14.349Z</time>
      </trkpt>
      <trkpt lat="45.92179" lon="-0.96255">
        <ele>44.893941</ele>
        <time>2022-12-21T14:32:17.343Z</time>
      </trkpt>
      <trkpt lat="45.92189" lon="-0.96243">
        <ele>44.930105</ele>
        <time>2022-12-21T14:32:20.352Z</time>
      </trkpt>
      <trkpt lat="45.92199" lon="-0.96231">
        <ele>44.994513</ele>
        <time>2022-12-21T14:32:23.344Z</time>
      </trkpt>
      <trkpt lat="45.92207" lon="-0.9622">
        <ele>45.05488</ele>
        <time>2022-12-21T14:32:26.360Z</time>
      </trkpt>
      <trkpt lat="45.92216" lon="-0.9621">
        <ele>45.111379</ele>
        <time>2022-12-21T14:32:29.347Z</time>
      </trkpt>
      <trkpt lat="45.92225" lon="-0.96198">
        <ele>45.175083</ele>
        <time>2022-12-21T14:32:32.345Z</time>
      </trkpt>
      <trkpt lat="45.92234" lon="-0.96186">
        <ele>45.238728</ele>
        <time>2022-12-21T14:32:35.349Z</time>
      </trkpt>
      <trkpt lat="45.92243" lon="-0.96175">
        <ele>45.300264</ele>
        <time>2022-12-21T14:32:38.332Z</time>
      </trkpt>
      <trkpt lat="45.92251" lon="-0.96164">
        <ele>45.353065</ele>
        <time>2022-12-21T14:32:41.349Z</time>
      </trkpt>
      <trkpt lat="45.92252" lon="-0.9615">
        <ele>45.405389</ele>
        <time>2022-12-21T14:32:44.354Z</time>
      </trkpt>
      <trkpt lat="45.92248" lon="-0.96136">
        <ele>45.458475</ele>
        <time>2022-12-21T14:32:47.343Z</time>
      </trkpt>
      <trkpt lat="45.92251" lon="-0.9612">
        <ele>45.514835</ele>
        <time>2022-12-21T14:32:51.341Z</time>
      </trkpt>
      <trkpt lat="45.92256" lon="-0.96107">
        <ele>45.56828</ele>
        <time>2022-12-21T14:32:55.342Z</time>
      </trkpt>
      <trkpt lat="45.92255" lon="-0.96092">
        <ele>45.625134</ele>
        <time>2022-12-21T14:32:59.348Z</time>
      </trkpt>
      <trkpt lat="45.92253" lon="-0.96077">
        <ele>45.680106</ele>
        <time>2022-12-21T14:33:04.338Z</time>
      </trkpt>
      <trkpt lat="45.92243" lon="-0.96075">
        <ele>45.730723</ele>
        <time>2022-12-21T14:33:08.343Z</time>
      </trkpt>
      <trkpt lat="45.92233" lon="-0.96077">
        <ele>45.782103</ele>
        <time>2022-12-21T14:33:12.344Z</time>
      </trkpt>
      <trkpt lat="45.92224" lon="-0.96077">
        <ele>45.824472</ele>
        <time>2022-12-21T14:33:17.346Z</time>
      </trkpt>
      <trkpt lat="45.92213" lon="-0.9608">
        <ele>45.873391</ele>
        <time>2022-12-21T14:33:22.348Z</time>
      </trkpt>
      <trkpt lat="45.92202" lon="-0.9608">
        <ele>45.921312</ele>
        <time>2022-12-21T14:33:26.352Z</time>
      </trkpt>
      <trkpt lat="45.92191" lon="-0.96081">
        <ele>45.971603</ele>
        <time>2022-12-21T14:33:30.346Z</time>
      </trkpt>
      <trkpt lat="45.92181" lon="-0.96084">
        <ele>46.015376</ele>
        <time>2022-12-21T14:33:34.346Z</time>
      </trkpt>
      <trkpt lat="45.92178" lon="-0.96099">
        <ele>46.065325</ele>
        <time>2022-12-21T14:33:39.353Z</time>
      </trkpt>
      <trkpt lat="45.92182" lon="-0.96114">
        <ele>46.112409</ele>
        <time>2022-12-21T14:33:43.339Z</time>
      </trkpt>
      <trkpt lat="45.92189" lon="-0.96126">
        <ele>46.161084</ele>
        <time>2022-12-21T14:33:47.338Z</time>
      </trkpt>
      <trkpt lat="45.92194" lon="-0.96137">
        <ele>46.20213</ele>
        <time>2022-12-21T14:33:52.346Z</time>
      </trkpt>
      <trkpt lat="45.92186" lon="-0.96128">
        <ele>46.246407</ele>
        <time>2022-12-21T14:33:57.345Z</time>
      </trkpt>
      <trkpt lat="45.92182" lon="-0.96112">
        <ele>46.299215</ele>
        <time>2022-12-21T14:34:01.347Z</time>
      </trkpt>
      <trkpt lat="45.92178" lon="-0.96097">
        <ele>46.348543</ele>
        <time>2022-12-21T14:34:05.347Z</time>
      </trkpt>
      <trkpt lat="45.9218" lon="-0.96083">
        <ele>46.394042</ele>
        <time>2022-12-21T14:34:09.334Z</time>
      </trkpt>
      <trkpt lat="45.92189" lon="-0.96079">
        <ele>46.435569</ele>
        <time>2022-12-21T14:34:13.344Z</time>
      </trkpt>
      <trkpt lat="45.92199" lon="-0.96078">
        <ele>46.478229</ele>
        <time>2022-12-21T14:34:18.340Z</time>
      </trkpt>
      <trkpt lat="45.92205" lon="-0.96069">
        <ele>46.518511</ele>
        <time>2022-12-21T14:34:24.340Z</time>
      </trkpt>
      <trkpt lat="45.92207" lon="-0.96069">
        <ele>46.528348</ele>
        <time>2022-12-21T14:35:05.630Z</time>
      </trkpt>
      <trkpt lat="45.92208" lon="-0.96066">
        <ele>46.539497</ele>
        <time>2022-12-21T15:10:39.841Z</time>
      </trkpt>
      <trkpt lat="45.92198" lon="-0.96063">
        <ele>46.588045</ele>
        <time>2022-12-21T15:12:32.359Z</time>
      </trkpt>
      <trkpt lat="45.92189" lon="-0.96059">
        <ele>46.55647</ele>
        <time>2022-12-21T15:12:36.363Z</time>
      </trkpt>
      <trkpt lat="45.92181" lon="-0.96054">
        <ele>46.499019</ele>
        <time>2022-12-21T15:12:41.349Z</time>
      </trkpt>
      <trkpt lat="45.92173" lon="-0.96045">
        <ele>46.439919</ele>
        <time>2022-12-21T15:12:48.344Z</time>
      </trkpt>
      <trkpt lat="45.92181" lon="-0.96035">
        <ele>46.375307</ele>
        <time>2022-12-21T15:13:15.340Z</time>
      </trkpt>
      <trkpt lat="45.92191" lon="-0.96035">
        <ele>46.312861</ele>
        <time>2022-12-21T15:13:19.349Z</time>
      </trkpt>
      <trkpt lat="45.92202" lon="-0.96034">
        <ele>46.244693</ele>
        <time>2022-12-21T15:13:23.343Z</time>
      </trkpt>
      <trkpt lat="45.92212" lon="-0.96034">
        <ele>46.180392</ele>
        <time>2022-12-21T15:13:27.344Z</time>
      </trkpt>
      <trkpt lat="45.92224" lon="-0.96033">
        <ele>46.111104</ele>
        <time>2022-12-21T15:13:31.350Z</time>
      </trkpt>
      <trkpt lat="45.92235" lon="-0.96033">
        <ele>46.043095</ele>
        <time>2022-12-21T15:13:35.346Z</time>
      </trkpt>
      <trkpt lat="45.92246" lon="-0.96032">
        <ele>45.973554</ele>
        <time>2022-12-21T15:13:39.339Z</time>
      </trkpt>
      <trkpt lat="45.92255" lon="-0.96031">
        <ele>45.916638</ele>
        <time>2022-12-21T15:13:42.334Z</time>
      </trkpt>
      <trkpt lat="45.92264" lon="-0.9603">
        <ele>45.859658</ele>
        <time>2022-12-21T15:13:45.345Z</time>
      </trkpt>
      <trkpt lat="45.92275" lon="-0.96029">
        <ele>45.793851</ele>
        <time>2022-12-21T15:13:49.363Z</time>
      </trkpt>
      <trkpt lat="45.92286" lon="-0.96028">
        <ele>45.723907</ele>
        <time>2022-12-21T15:13:53.353Z</time>
      </trkpt>
      <trkpt lat="45.92296" lon="-0.96028">
        <ele>45.665738</ele>
        <time>2022-12-21T15:13:56.350Z</time>
      </trkpt>
      <trkpt lat="45.92306" lon="-0.96027">
        <ele>45.599576</ele>
        <time>2022-12-21T15:13:59.338Z</time>
      </trkpt>
      <trkpt lat="45.92317" lon="-0.96025">
        <ele>45.533024</ele>
        <time>2022-12-21T15:14:02.350Z</time>
      </trkpt>
      <trkpt lat="45.92326" lon="-0.96023">
        <ele>45.479585</ele>
        <time>2022-12-21T15:14:05.345Z</time>
      </trkpt>
      <trkpt lat="45.92338" lon="-0.96025">
        <ele>45.442984</ele>
        <time>2022-12-21T15:14:09.365Z</time>
      </trkpt>
      <trkpt lat="45.9235" lon="-0.96024">
        <ele>45.404558</ele>
        <time>2022-12-21T15:14:13.334Z</time>
      </trkpt>
      <trkpt lat="45.92359" lon="-0.96023">
        <ele>45.372777</ele>
        <time>2022-12-21T15:14:16.347Z</time>
      </trkpt>
      <trkpt lat="45.92369" lon="-0.96032">
        <ele>45.336876</ele>
        <time>2022-12-21T15:14:20.350Z</time>
      </trkpt>
      <trkpt lat="45.9237" lon="-0.96048">
        <ele>45.301421</ele>
        <time>2022-12-21T15:14:24.345Z</time>
      </trkpt>
      <trkpt lat="45.92364" lon="-0.96058">
        <ele>45.272114</ele>
        <time>2022-12-21T15:14:27.362Z</time>
      </trkpt>
      <trkpt lat="45.92355" lon="-0.96065">
        <ele>45.240276</ele>
        <time>2022-12-21T15:14:30.337Z</time>
      </trkpt>
      <trkpt lat="45.92346" lon="-0.96072">
        <ele>45.206706</ele>
        <time>2022-12-21T15:14:34.356Z</time>
      </trkpt>
      <trkpt lat="45.92337" lon="-0.96081">
        <ele>45.172224</ele>
        <time>2022-12-21T15:14:38.339Z</time>
      </trkpt>
      <trkpt lat="45.92328" lon="-0.96091">
        <ele>45.135004</ele>
        <time>2022-12-21T15:14:42.335Z</time>
      </trkpt>
      <trkpt lat="45.92321" lon="-0.96098">
        <ele>45.105128</ele>
        <time>2022-12-21T15:14:45.361Z</time>
      </trkpt>
      <trkpt lat="45.92313" lon="-0.96108">
        <ele>45.07292</ele>
        <time>2022-12-21T15:14:48.361Z</time>
      </trkpt>
      <trkpt lat="45.92306" lon="-0.96117">
        <ele>45.042702</ele>
        <time>2022-12-21T15:14:51.337Z</time>
      </trkpt>
      <trkpt lat="45.92299" lon="-0.96127">
        <ele>45.009377</ele>
        <time>2022-12-21T15:14:55.341Z</time>
      </trkpt>
      <trkpt lat="45.92291" lon="-0.96138">
        <ele>44.974089</ele>
        <time>2022-12-21T15:14:59.346Z</time>
      </trkpt>
      <trkpt lat="45.92283" lon="-0.96146">
        <ele>44.942229</ele>
        <time>2022-12-21T15:15:03.357Z</time>
      </trkpt>
      <trkpt lat="45.92274" lon="-0.96156">
        <ele>44.906051</ele>
        <time>2022-12-21T15:15:07.335Z</time>
      </trkpt>
      <trkpt lat="45.92266" lon="-0.96165">
        <ele>44.811594</ele>
        <time>2022-12-21T15:15:10.361Z</time>
      </trkpt>
      <trkpt lat="45.9226" lon="-0.96174">
        <ele>44.719622</ele>
        <time>2022-12-21T15:15:13.345Z</time>
      </trkpt>
      <trkpt lat="45.92252" lon="-0.96184">
        <ele>44.614017</ele>
        <time>2022-12-21T15:15:17.380Z</time>
      </trkpt>
      <trkpt lat="45.92243" lon="-0.96193">
        <ele>44.503869</ele>
        <time>2022-12-21T15:15:21.339Z</time>
      </trkpt>
      <trkpt lat="45.92235" lon="-0.96203">
        <ele>44.402811</ele>
        <time>2022-12-21T15:15:24.347Z</time>
      </trkpt>
      <trkpt lat="45.92228" lon="-0.96212">
        <ele>44.303947</ele>
        <time>2022-12-21T15:15:27.363Z</time>
      </trkpt>
      <trkpt lat="45.9222" lon="-0.96222">
        <ele>44.201863</ele>
        <time>2022-12-21T15:15:30.335Z</time>
      </trkpt>
      <trkpt lat="45.92212" lon="-0.96231">
        <ele>44.095295</ele>
        <time>2022-12-21T15:15:33.329Z</time>
      </trkpt>
      <trkpt lat="45.92204" lon="-0.96241">
        <ele>43.995952</ele>
        <time>2022-12-21T15:15:36.336Z</time>
      </trkpt>
      <trkpt lat="45.92197" lon="-0.96251">
        <ele>43.892281</ele>
        <time>2022-12-21T15:15:39.360Z</time>
      </trkpt>
      <trkpt lat="45.92188" lon="-0.96262">
        <ele>43.783403</ele>
        <time>2022-12-21T15:15:42.334Z</time>
      </trkpt>
      <trkpt lat="45.9218" lon="-0.96271">
        <ele>43.677394</ele>
        <time>2022-12-21T15:15:45.361Z</time>
      </trkpt>
      <trkpt lat="45.92172" lon="-0.96281">
        <ele>43.57425</ele>
        <time>2022-12-21T15:15:48.342Z</time>
      </trkpt>
      <trkpt lat="45.92165" lon="-0.9629">
        <ele>43.477152</ele>
        <time>2022-12-21T15:15:51.342Z</time>
      </trkpt>
      <trkpt lat="45.92157" lon="-0.963">
        <ele>43.375815</ele>
        <time>2022-12-21T15:15:54.341Z</time>
      </trkpt>
      <trkpt lat="45.9215" lon="-0.9631">
        <ele>43.272524</ele>
        <time>2022-12-21T15:15:57.341Z</time>
      </trkpt>
      <trkpt lat="45.92142" lon="-0.96319">
        <ele>43.169232</ele>
        <time>2022-12-21T15:16:00.352Z</time>
      </trkpt>
      <trkpt lat="45.92135" lon="-0.96328">
        <ele>43.11919</ele>
        <time>2022-12-21T15:16:03.361Z</time>
      </trkpt>
      <trkpt lat="45.92128" lon="-0.96337">
        <ele>43.137847</ele>
        <time>2022-12-21T15:16:06.340Z</time>
      </trkpt>
      <trkpt lat="45.92121" lon="-0.96347">
        <ele>43.157451</ele>
        <time>2022-12-21T15:16:09.346Z</time>
      </trkpt>
      <trkpt lat="45.92113" lon="-0.96357">
        <ele>43.178015</ele>
        <time>2022-12-21T15:16:12.340Z</time>
      </trkpt>
      <trkpt lat="45.92106" lon="-0.96369">
        <ele>43.199999</ele>
        <time>2022-12-21T15:16:15.336Z</time>
      </trkpt>
      <trkpt lat="45.921" lon="-0.96379">
        <ele>43.218444</ele>
        <time>2022-12-21T15:16:18.353Z</time>
      </trkpt>
      <trkpt lat="45.92095" lon="-0.9639">
        <ele>43.237393</ele>
        <time>2022-12-21T15:16:21.339Z</time>
      </trkpt>
      <trkpt lat="45.92088" lon="-0.96401">
        <ele>43.257954</ele>
        <time>2022-12-21T15:16:24.343Z</time>
      </trkpt>
      <trkpt lat="45.92082" lon="-0.96413">
        <ele>43.278749</ele>
        <time>2022-12-21T15:16:27.352Z</time>
      </trkpt>
      <trkpt lat="45.92076" lon="-0.96425">
        <ele>43.299499</ele>
        <time>2022-12-21T15:16:30.335Z</time>
      </trkpt>
      <trkpt lat="45.92069" lon="-0.96438">
        <ele>43.321537</ele>
        <time>2022-12-21T15:16:33.335Z</time>
      </trkpt>
      <trkpt lat="45.92063" lon="-0.96451">
        <ele>43.343313</ele>
        <time>2022-12-21T15:16:36.343Z</time>
      </trkpt>
      <trkpt lat="45.92057" lon="-0.96462">
        <ele>43.363382</ele>
        <time>2022-12-21T15:16:39.345Z</time>
      </trkpt>
      <trkpt lat="45.92051" lon="-0.96474">
        <ele>43.382425</ele>
        <time>2022-12-21T15:16:42.332Z</time>
      </trkpt>
      <trkpt lat="45.92046" lon="-0.96485">
        <ele>43.401464</ele>
        <time>2022-12-21T15:16:45.338Z</time>
      </trkpt>
      <trkpt lat="45.9204" lon="-0.96496">
        <ele>43.420504</ele>
        <time>2022-12-21T15:16:48.343Z</time>
      </trkpt>
      <trkpt lat="45.92036" lon="-0.96508">
        <ele>43.440091</ele>
        <time>2022-12-21T15:16:51.339Z</time>
      </trkpt>
      <trkpt lat="45.92031" lon="-0.96521">
        <ele>43.459996</ele>
        <time>2022-12-21T15:16:54.346Z</time>
      </trkpt>
      <trkpt lat="45.92026" lon="-0.96533">
        <ele>43.494555</ele>
        <time>2022-12-21T15:16:57.345Z</time>
      </trkpt>
      <trkpt lat="45.92021" lon="-0.96545">
        <ele>43.543902</ele>
        <time>2022-12-21T15:17:00.339Z</time>
      </trkpt>
      <trkpt lat="45.92017" lon="-0.96556">
        <ele>43.594357</ele>
        <time>2022-12-21T15:17:03.339Z</time>
      </trkpt>
      <trkpt lat="45.92016" lon="-0.9657">
        <ele>43.646477</ele>
        <time>2022-12-21T15:17:06.337Z</time>
      </trkpt>
      <trkpt lat="45.92019" lon="-0.96584">
        <ele>43.700798</ele>
        <time>2022-12-21T15:17:09.342Z</time>
      </trkpt>
      <trkpt lat="45.92018" lon="-0.96598">
        <ele>43.754981</ele>
        <time>2022-12-21T15:17:12.339Z</time>
      </trkpt>
      <trkpt lat="45.92014" lon="-0.96611">
        <ele>43.808733</ele>
        <time>2022-12-21T15:17:15.360Z</time>
      </trkpt>
      <trkpt lat="45.92008" lon="-0.96622">
        <ele>43.86236</ele>
        <time>2022-12-21T15:17:18.334Z</time>
      </trkpt>
      <trkpt lat="45.92" lon="-0.96631">
        <ele>43.916519</ele>
        <time>2022-12-21T15:17:21.345Z</time>
      </trkpt>
      <trkpt lat="45.91991" lon="-0.96638">
        <ele>43.973059</ele>
        <time>2022-12-21T15:17:24.332Z</time>
      </trkpt>
      <trkpt lat="45.91984" lon="-0.96649">
        <ele>44.030083</ele>
        <time>2022-12-21T15:17:27.352Z</time>
      </trkpt>
      <trkpt lat="45.9198" lon="-0.96661">
        <ele>44.08332</ele>
        <time>2022-12-21T15:17:30.356Z</time>
      </trkpt>
      <trkpt lat="45.91978" lon="-0.96677">
        <ele>44.146193</ele>
        <time>2022-12-21T15:17:34.345Z</time>
      </trkpt>
      <trkpt lat="45.91976" lon="-0.96691">
        <ele>44.197647</ele>
        <time>2022-12-21T15:17:37.345Z</time>
      </trkpt>
      <trkpt lat="45.91974" lon="-0.96704">
        <ele>44.250514</ele>
        <time>2022-12-21T15:17:40.339Z</time>
      </trkpt>
      <trkpt lat="45.91972" lon="-0.96718">
        <ele>44.304833</ele>
        <time>2022-12-21T15:17:43.341Z</time>
      </trkpt>
      <trkpt lat="45.91971" lon="-0.96733">
        <ele>44.360857</ele>
        <time>2022-12-21T15:17:46.338Z</time>
      </trkpt>
      <trkpt lat="45.91969" lon="-0.96747">
        <ele>44.415226</ele>
        <time>2022-12-21T15:17:49.353Z</time>
      </trkpt>
      <trkpt lat="45.91968" lon="-0.9676">
        <ele>44.461366</ele>
        <time>2022-12-21T15:17:52.336Z</time>
      </trkpt>
      <trkpt lat="45.91967" lon="-0.96774">
        <ele>44.477701</ele>
        <time>2022-12-21T15:17:55.342Z</time>
      </trkpt>
      <trkpt lat="45.91966" lon="-0.9679">
        <ele>44.497013</ele>
        <time>2022-12-21T15:17:59.351Z</time>
      </trkpt>
      <trkpt lat="45.91966" lon="-0.96807">
        <ele>44.517348</ele>
        <time>2022-12-21T15:18:03.333Z</time>
      </trkpt>
      <trkpt lat="45.91967" lon="-0.96821">
        <ele>44.533316</ele>
        <time>2022-12-21T15:18:06.345Z</time>
      </trkpt>
      <trkpt lat="45.91967" lon="-0.96834">
        <ele>44.549283</ele>
        <time>2022-12-21T15:18:09.357Z</time>
      </trkpt>
      <trkpt lat="45.91969" lon="-0.96848">
        <ele>44.565801</ele>
        <time>2022-12-21T15:18:12.335Z</time>
      </trkpt>
      <trkpt lat="45.91971" lon="-0.96862">
        <ele>44.583064</ele>
        <time>2022-12-21T15:18:15.358Z</time>
      </trkpt>
      <trkpt lat="45.91972" lon="-0.96876">
        <ele>44.60026</ele>
        <time>2022-12-21T15:18:18.350Z</time>
      </trkpt>
      <trkpt lat="45.91974" lon="-0.96891">
        <ele>44.617722</ele>
        <time>2022-12-21T15:18:21.339Z</time>
      </trkpt>
      <trkpt lat="45.91977" lon="-0.96905">
        <ele>44.635206</ele>
        <time>2022-12-21T15:18:24.336Z</time>
      </trkpt>
      <trkpt lat="45.9198" lon="-0.96919">
        <ele>44.653131</ele>
        <time>2022-12-21T15:18:27.330Z</time>
      </trkpt>
      <trkpt lat="45.91984" lon="-0.96934">
        <ele>44.671382</ele>
        <time>2022-12-21T15:18:30.344Z</time>
      </trkpt>
      <trkpt lat="45.91988" lon="-0.96948">
        <ele>44.68993</ele>
        <time>2022-12-21T15:18:33.337Z</time>
      </trkpt>
      <trkpt lat="45.91992" lon="-0.96963">
        <ele>44.708702</ele>
        <time>2022-12-21T15:18:36.342Z</time>
      </trkpt>
      <trkpt lat="45.91997" lon="-0.96977">
        <ele>44.727495</ele>
        <time>2022-12-21T15:18:39.342Z</time>
      </trkpt>
      <trkpt lat="45.92003" lon="-0.9699">
        <ele>44.746492</ele>
        <time>2022-12-21T15:18:42.334Z</time>
      </trkpt>
      <trkpt lat="45.92009" lon="-0.97004">
        <ele>44.765552</ele>
        <time>2022-12-21T15:18:45.340Z</time>
      </trkpt>
      <trkpt lat="45.92015" lon="-0.97017">
        <ele>44.784068</ele>
        <time>2022-12-21T15:18:48.342Z</time>
      </trkpt>
      <trkpt lat="45.92021" lon="-0.97029">
        <ele>44.802333</ele>
        <time>2022-12-21T15:18:51.344Z</time>
      </trkpt>
      <trkpt lat="45.92028" lon="-0.9704">
        <ele>44.820519</ele>
        <time>2022-12-21T15:18:54.343Z</time>
      </trkpt>
      <trkpt lat="45.92035" lon="-0.97052">
        <ele>44.839447</ele>
        <time>2022-12-21T15:18:57.362Z</time>
      </trkpt>
      <trkpt lat="45.92043" lon="-0.97064">
        <ele>44.859172</ele>
        <time>2022-12-21T15:19:00.342Z</time>
      </trkpt>
      <trkpt lat="45.92051" lon="-0.97075">
        <ele>44.878395</ele>
        <time>2022-12-21T15:19:03.336Z</time>
      </trkpt>
      <trkpt lat="45.92059" lon="-0.97084">
        <ele>44.895901</ele>
        <time>2022-12-21T15:19:06.351Z</time>
      </trkpt>
      <trkpt lat="45.92067" lon="-0.97093">
        <ele>44.913562</ele>
        <time>2022-12-21T15:19:09.343Z</time>
      </trkpt>
      <trkpt lat="45.92076" lon="-0.97103">
        <ele>44.932226</ele>
        <time>2022-12-21T15:19:12.346Z</time>
      </trkpt>
      <trkpt lat="45.92085" lon="-0.97112">
        <ele>44.950936</ele>
        <time>2022-12-21T15:19:15.358Z</time>
      </trkpt>
      <trkpt lat="45.92094" lon="-0.9712">
        <ele>44.969948</ele>
        <time>2022-12-21T15:19:18.346Z</time>
      </trkpt>
      <trkpt lat="45.92104" lon="-0.97128">
        <ele>44.989273</ele>
        <time>2022-12-21T15:19:21.348Z</time>
      </trkpt>
      <trkpt lat="45.92113" lon="-0.97136">
        <ele>45.007762</ele>
        <time>2022-12-21T15:19:24.356Z</time>
      </trkpt>
      <trkpt lat="45.92123" lon="-0.97142">
        <ele>45.025761</ele>
        <time>2022-12-21T15:19:27.359Z</time>
      </trkpt>
      <trkpt lat="45.92132" lon="-0.97147">
        <ele>45.043065</ele>
        <time>2022-12-21T15:19:30.342Z</time>
      </trkpt>
      <trkpt lat="45.92143" lon="-0.97153">
        <ele>45.063724</ele>
        <time>2022-12-21T15:19:34.345Z</time>
      </trkpt>
      <trkpt lat="45.92153" lon="-0.97155">
        <ele>45.126793</ele>
        <time>2022-12-21T15:19:37.345Z</time>
      </trkpt>
      <trkpt lat="45.92163" lon="-0.97154">
        <ele>45.362308</ele>
        <time>2022-12-21T15:19:40.363Z</time>
      </trkpt>
      <trkpt lat="45.92172" lon="-0.97149">
        <ele>45.592338</ele>
        <time>2022-12-21T15:19:43.349Z</time>
      </trkpt>
      <trkpt lat="45.92179" lon="-0.97141">
        <ele>45.818766</ele>
        <time>2022-12-21T15:19:46.363Z</time>
      </trkpt>
      <trkpt lat="45.92186" lon="-0.97127">
        <ele>46.09258</ele>
        <time>2022-12-21T15:19:50.340Z</time>
      </trkpt>
      <trkpt lat="45.92188" lon="-0.9711">
        <ele>46.377411</ele>
        <time>2022-12-21T15:19:54.340Z</time>
      </trkpt>
      <trkpt lat="45.92187" lon="-0.97097">
        <ele>46.606714</ele>
        <time>2022-12-21T15:19:57.364Z</time>
      </trkpt>
      <trkpt lat="45.92185" lon="-0.9708">
        <ele>46.879166</ele>
        <time>2022-12-21T15:20:01.344Z</time>
      </trkpt>
      <trkpt lat="45.9218" lon="-0.97068">
        <ele>47.113958</ele>
        <time>2022-12-21T15:20:05.339Z</time>
      </trkpt>
      <trkpt lat="45.92174" lon="-0.97059">
        <ele>47.328999</ele>
        <time>2022-12-21T15:20:09.342Z</time>
      </trkpt>
      <trkpt lat="45.92167" lon="-0.97049">
        <ele>47.547799</ele>
        <time>2022-12-21T15:20:13.337Z</time>
      </trkpt>
      <trkpt lat="45.9216" lon="-0.97041">
        <ele>47.765248</ele>
        <time>2022-12-21T15:20:17.337Z</time>
      </trkpt>
      <trkpt lat="45.92153" lon="-0.97031">
        <ele>47.996724</ele>
        <time>2022-12-21T15:20:21.353Z</time>
      </trkpt>
      <trkpt lat="45.92144" lon="-0.97021">
        <ele>48.257378</ele>
        <time>2022-12-21T15:20:26.343Z</time>
      </trkpt>
      <trkpt lat="45.92136" lon="-0.97012">
        <ele>48.517649</ele>
        <time>2022-12-21T15:20:31.347Z</time>
      </trkpt>
      <trkpt lat="45.92127" lon="-0.97002">
        <ele>48.773904</ele>
        <time>2022-12-21T15:20:36.353Z</time>
      </trkpt>
      <trkpt lat="45.9212" lon="-0.96993">
        <ele>49.007343</ele>
        <time>2022-12-21T15:20:41.357Z</time>
      </trkpt>
      <trkpt lat="45.92111" lon="-0.96984">
        <ele>49.249199</ele>
        <time>2022-12-21T15:20:46.363Z</time>
      </trkpt>
      <trkpt lat="45.92104" lon="-0.96975">
        <ele>49.711091</ele>
        <time>2022-12-21T15:20:51.356Z</time>
      </trkpt>
      <trkpt lat="45.92096" lon="-0.96967">
        <ele>50.302279</ele>
        <time>2022-12-21T15:20:56.341Z</time>
      </trkpt>
      <trkpt lat="45.92088" lon="-0.96959">
        <ele>50.883441</ele>
        <time>2022-12-21T15:21:01.369Z</time>
      </trkpt>
      <trkpt lat="45.9208" lon="-0.96951">
        <ele>51.445173</ele>
        <time>2022-12-21T15:21:06.349Z</time>
      </trkpt>
      <trkpt lat="45.92072" lon="-0.96942">
        <ele>52.029044</ele>
        <time>2022-12-21T15:21:11.355Z</time>
      </trkpt>
      <trkpt lat="45.92064" lon="-0.96933">
        <ele>52.659373</ele>
        <time>2022-12-21T15:21:17.345Z</time>
      </trkpt>
      <trkpt lat="45.92055" lon="-0.96926">
        <ele>53.273814</ele>
        <time>2022-12-21T15:21:23.339Z</time>
      </trkpt>
      <trkpt lat="45.92047" lon="-0.96917">
        <ele>53.87942</ele>
        <time>2022-12-21T15:21:29.356Z</time>
      </trkpt>
      <trkpt lat="45.92039" lon="-0.96909">
        <ele>54.477654</ele>
        <time>2022-12-21T15:21:35.339Z</time>
      </trkpt>
      <trkpt lat="45.92031" lon="-0.969">
        <ele>55.095635</ele>
        <time>2022-12-21T15:21:41.338Z</time>
      </trkpt>
      <trkpt lat="45.92022" lon="-0.96892">
        <ele>55.747902</ele>
        <time>2022-12-21T15:21:47.352Z</time>
      </trkpt>
      <trkpt lat="45.92013" lon="-0.96883">
        <ele>56.397843</ele>
        <time>2022-12-21T15:21:53.361Z</time>
      </trkpt>
      <trkpt lat="45.92004" lon="-0.96875">
        <ele>57.008312</ele>
        <time>2022-12-21T15:21:59.349Z</time>
      </trkpt>
      <trkpt lat="45.91995" lon="-0.96867">
        <ele>57.639162</ele>
        <time>2022-12-21T15:22:05.344Z</time>
      </trkpt>
      <trkpt lat="45.91987" lon="-0.9686">
        <ele>58.236799</ele>
        <time>2022-12-21T15:22:11.356Z</time>
      </trkpt>
      <trkpt lat="45.91979" lon="-0.96853">
        <ele>58.785423</ele>
        <time>2022-12-21T15:22:16.359Z</time>
      </trkpt>
      <trkpt lat="45.9197" lon="-0.96845">
        <ele>59.397684</ele>
        <time>2022-12-21T15:22:22.364Z</time>
      </trkpt>
      <trkpt lat="45.91962" lon="-0.96838">
        <ele>60.009945</ele>
        <time>2022-12-21T15:22:28.362Z</time>
      </trkpt>
      <trkpt lat="45.91953" lon="-0.9683">
        <ele>60.641592</ele>
        <time>2022-12-21T15:22:34.334Z</time>
      </trkpt>
      <trkpt lat="45.91945" lon="-0.96824">
        <ele>61.228132</ele>
        <time>2022-12-21T15:22:40.356Z</time>
      </trkpt>
      <trkpt lat="45.91936" lon="-0.96816">
        <ele>61.890524</ele>
        <time>2022-12-21T15:22:46.369Z</time>
      </trkpt>
      <trkpt lat="45.91928" lon="-0.96809">
        <ele>62.489178</ele>
        <time>2022-12-21T15:22:52.341Z</time>
      </trkpt>
      <trkpt lat="45.9192" lon="-0.96803">
        <ele>63.109793</ele>
        <time>2022-12-21T15:22:58.340Z</time>
      </trkpt>
      <trkpt lat="45.91911" lon="-0.96796">
        <ele>63.735252</ele>
        <time>2022-12-21T15:23:05.337Z</time>
      </trkpt>
      <trkpt lat="45.91903" lon="-0.9679">
        <ele>64.317512</ele>
        <time>2022-12-21T15:23:14.335Z</time>
      </trkpt>
      <trkpt lat="45.91895" lon="-0.96784">
        <ele>64.904018</ele>
        <time>2022-12-21T15:23:24.347Z</time>
      </trkpt>
      <trkpt lat="45.91887" lon="-0.96778">
        <ele>65.488388</ele>
        <time>2022-12-21T15:23:33.360Z</time>
      </trkpt>
      <trkpt lat="45.91879" lon="-0.96771">
        <ele>66.091882</ele>
        <time>2022-12-21T15:23:41.369Z</time>
      </trkpt>
      <trkpt lat="45.9187" lon="-0.96765">
        <ele>66.714542</ele>
        <time>2022-12-21T15:23:51.369Z</time>
      </trkpt>
      <trkpt lat="45.91862" lon="-0.96759">
        <ele>67.333051</ele>
        <time>2022-12-21T15:24:00.336Z</time>
      </trkpt>
      <trkpt lat="45.91853" lon="-0.96753">
        <ele>67.974916</ele>
        <time>2022-12-21T15:24:10.335Z</time>
      </trkpt>
      <trkpt lat="45.91845" lon="-0.96745">
        <ele>68.579431</ele>
        <time>2022-12-21T15:24:19.348Z</time>
      </trkpt>
      <trkpt lat="45.91836" lon="-0.96741">
        <ele>69.160609</ele>
        <time>2022-12-21T15:24:28.342Z</time>
      </trkpt>
      <trkpt lat="45.91827" lon="-0.96736">
        <ele>69.787078</ele>
        <time>2022-12-21T15:24:37.359Z</time>
      </trkpt>
      <trkpt lat="45.91819" lon="-0.96729">
        <ele>70.400456</ele>
        <time>2022-12-21T15:24:46.341Z</time>
      </trkpt>
      <trkpt lat="45.9181" lon="-0.96724">
        <ele>71.013925</ele>
        <time>2022-12-21T15:24:55.352Z</time>
      </trkpt>
      <trkpt lat="45.91802" lon="-0.96718">
        <ele>71.595769</ele>
        <time>2022-12-21T15:25:04.362Z</time>
      </trkpt>
      <trkpt lat="45.91794" lon="-0.96712">
        <ele>72.083727</ele>
        <time>2022-12-21T15:25:13.346Z</time>
      </trkpt>
      <trkpt lat="45.91785" lon="-0.96707">
        <ele>72.563439</ele>
        <time>2022-12-21T15:25:22.347Z</time>
      </trkpt>
      <trkpt lat="45.91776" lon="-0.96702">
        <ele>73.06579</ele>
        <time>2022-12-21T15:25:31.367Z</time>
      </trkpt>
      <trkpt lat="45.91767" lon="-0.96697">
        <ele>73.572083</ele>
        <time>2022-12-21T15:25:40.349Z</time>
      </trkpt>
      <trkpt lat="45.91758" lon="-0.96691">
        <ele>74.066596</ele>
        <time>2022-12-21T15:25:49.340Z</time>
      </trkpt>
      <trkpt lat="45.9175" lon="-0.96686">
        <ele>74.537506</ele>
        <time>2022-12-21T15:25:58.343Z</time>
      </trkpt>
      <trkpt lat="45.91741" lon="-0.96682">
        <ele>75.008416</ele>
        <time>2022-12-21T15:26:07.337Z</time>
      </trkpt>
      <trkpt lat="45.91733" lon="-0.96677">
        <ele>75.487687</ele>
        <time>2022-12-21T15:26:16.358Z</time>
      </trkpt>
      <trkpt lat="45.91723" lon="-0.96672">
        <ele>76.013154</ele>
        <time>2022-12-21T15:26:25.358Z</time>
      </trkpt>
      <trkpt lat="45.91715" lon="-0.96668">
        <ele>76.474161</ele>
        <time>2022-12-21T15:26:33.362Z</time>
      </trkpt>
      <trkpt lat="45.91706" lon="-0.96662">
        <ele>76.989338</ele>
        <time>2022-12-21T15:26:42.341Z</time>
      </trkpt>
      <trkpt lat="45.91696" lon="-0.96657">
        <ele>77.514641</ele>
        <time>2022-12-21T15:26:51.343Z</time>
      </trkpt>
      <trkpt lat="45.91687" lon="-0.96652">
        <ele>78.01205</ele>
        <time>2022-12-21T15:27:00.361Z</time>
      </trkpt>
      <trkpt lat="45.91678" lon="-0.96649">
        <ele>78.511593</ele>
        <time>2022-12-21T15:27:08.336Z</time>
      </trkpt>
      <trkpt lat="45.91668" lon="-0.96643">
        <ele>79.034507</ele>
        <time>2022-12-21T15:27:17.342Z</time>
      </trkpt>
      <trkpt lat="45.91659" lon="-0.96638">
        <ele>79.512865</ele>
        <time>2022-12-21T15:27:25.330Z</time>
      </trkpt>
      <trkpt lat="45.9165" lon="-0.96635">
        <ele>80.006457</ele>
        <time>2022-12-21T15:27:33.362Z</time>
      </trkpt>
      <trkpt lat="45.91641" lon="-0.9663">
        <ele>80.4918</ele>
        <time>2022-12-21T15:27:49.358Z</time>
      </trkpt>
      <trkpt lat="45.91632" lon="-0.96625">
        <ele>80.995551</ele>
        <time>2022-12-21T15:27:56.360Z</time>
      </trkpt>
      <trkpt lat="45.91622" lon="-0.96621">
        <ele>80.784797</ele>
        <time>2022-12-21T15:28:03.350Z</time>
      </trkpt>
      <trkpt lat="45.91612" lon="-0.96617">
        <ele>80.575893</ele>
        <time>2022-12-21T15:28:13.346Z</time>
      </trkpt>
      <trkpt lat="45.91603" lon="-0.96614">
        <ele>80.371003</ele>
        <time>2022-12-21T15:28:20.341Z</time>
      </trkpt>
      <trkpt lat="45.91594" lon="-0.9661">
        <ele>80.17414</ele>
        <time>2022-12-21T15:28:25.343Z</time>
      </trkpt>
      <trkpt lat="45.91584" lon="-0.96605">
        <ele>79.968715</ele>
        <time>2022-12-21T15:28:28.334Z</time>
      </trkpt>
      <trkpt lat="45.91575" lon="-0.96602">
        <ele>79.78057</ele>
        <time>2022-12-21T15:28:31.358Z</time>
      </trkpt>
      <trkpt lat="45.91566" lon="-0.96598">
        <ele>79.582541</ele>
        <time>2022-12-21T15:28:34.341Z</time>
      </trkpt>
      <trkpt lat="45.91555" lon="-0.96593">
        <ele>79.343949</ele>
        <time>2022-12-21T15:28:38.360Z</time>
      </trkpt>
      <trkpt lat="45.91546" lon="-0.9659">
        <ele>79.148691</ele>
        <time>2022-12-21T15:28:41.350Z</time>
      </trkpt>
      <trkpt lat="45.91537" lon="-0.96587">
        <ele>78.948511</ele>
        <time>2022-12-21T15:28:44.331Z</time>
      </trkpt>
      <trkpt lat="45.91527" lon="-0.96584">
        <ele>78.744382</ele>
        <time>2022-12-21T15:28:47.362Z</time>
      </trkpt>
      <trkpt lat="45.91517" lon="-0.96581">
        <ele>78.534148</ele>
        <time>2022-12-21T15:28:50.335Z</time>
      </trkpt>
      <trkpt lat="45.91507" lon="-0.96578">
        <ele>78.316735</ele>
        <time>2022-12-21T15:28:53.362Z</time>
      </trkpt>
      <trkpt lat="45.91496" lon="-0.96575">
        <ele>78.089394</ele>
        <time>2022-12-21T15:28:56.345Z</time>
      </trkpt>
      <trkpt lat="45.91485" lon="-0.96572">
        <ele>77.853963</ele>
        <time>2022-12-21T15:28:59.349Z</time>
      </trkpt>
      <trkpt lat="45.91473" lon="-0.96568">
        <ele>77.615125</ele>
        <time>2022-12-21T15:29:02.356Z</time>
      </trkpt>
      <trkpt lat="45.91462" lon="-0.96565">
        <ele>77.380919</ele>
        <time>2022-12-21T15:29:05.342Z</time>
      </trkpt>
      <trkpt lat="45.9145" lon="-0.96562">
        <ele>76.765059</ele>
        <time>2022-12-21T15:29:08.339Z</time>
      </trkpt>
      <trkpt lat="45.91438" lon="-0.96559">
        <ele>75.882725</ele>
        <time>2022-12-21T15:29:11.350Z</time>
      </trkpt>
      <trkpt lat="45.91426" lon="-0.96556">
        <ele>74.976176</ele>
        <time>2022-12-21T15:29:14.357Z</time>
      </trkpt>
      <trkpt lat="45.91412" lon="-0.96553">
        <ele>73.995504</ele>
        <time>2022-12-21T15:29:17.363Z</time>
      </trkpt>
      <trkpt lat="45.91399" lon="-0.9655">
        <ele>73.057013</ele>
        <time>2022-12-21T15:29:20.340Z</time>
      </trkpt>
      <trkpt lat="45.91386" lon="-0.96547">
        <ele>72.099704</ele>
        <time>2022-12-21T15:29:23.343Z</time>
      </trkpt>
      <trkpt lat="45.91377" lon="-0.96546">
        <ele>71.448897</ele>
        <time>2022-12-21T15:29:25.342Z</time>
      </trkpt>
      <trkpt lat="45.91367" lon="-0.96545">
        <ele>70.781233</ele>
        <time>2022-12-21T15:29:27.344Z</time>
      </trkpt>
      <trkpt lat="45.91358" lon="-0.96543">
        <ele>70.114176</ele>
        <time>2022-12-21T15:29:29.361Z</time>
      </trkpt>
      <trkpt lat="45.91349" lon="-0.96542">
        <ele>69.434544</ele>
        <time>2022-12-21T15:29:31.356Z</time>
      </trkpt>
      <trkpt lat="45.91339" lon="-0.9654">
        <ele>68.76098</ele>
        <time>2022-12-21T15:29:33.347Z</time>
      </trkpt>
      <trkpt lat="45.9133" lon="-0.96538">
        <ele>68.085614</ele>
        <time>2022-12-21T15:29:35.353Z</time>
      </trkpt>
      <trkpt lat="45.9132" lon="-0.96537">
        <ele>67.413528</ele>
        <time>2022-12-21T15:29:37.347Z</time>
      </trkpt>
      <trkpt lat="45.91311" lon="-0.96536">
        <ele>66.735143</ele>
        <time>2022-12-21T15:29:39.337Z</time>
      </trkpt>
      <trkpt lat="45.91301" lon="-0.96535">
        <ele>66.032717</ele>
        <time>2022-12-21T15:29:41.369Z</time>
      </trkpt>
      <trkpt lat="45.91291" lon="-0.96533">
        <ele>65.318452</ele>
        <time>2022-12-21T15:29:43.342Z</time>
      </trkpt>
      <trkpt lat="45.91281" lon="-0.96533">
        <ele>64.584086</ele>
        <time>2022-12-21T15:29:45.361Z</time>
      </trkpt>
      <trkpt lat="45.9127" lon="-0.96532">
        <ele>64.011542</ele>
        <time>2022-12-21T15:29:47.361Z</time>
      </trkpt>
      <trkpt lat="45.91261" lon="-0.96531">
        <ele>63.512179</ele>
        <time>2022-12-21T15:29:49.362Z</time>
      </trkpt>
      <trkpt lat="45.91251" lon="-0.9653">
        <ele>63.012817</ele>
        <time>2022-12-21T15:29:51.359Z</time>
      </trkpt>
      <trkpt lat="45.91241" lon="-0.9653">
        <ele>62.523528</ele>
        <time>2022-12-21T15:29:53.362Z</time>
      </trkpt>
      <trkpt lat="45.91232" lon="-0.9653">
        <ele>62.019601</ele>
        <time>2022-12-21T15:29:55.363Z</time>
      </trkpt>
      <trkpt lat="45.91222" lon="-0.9653">
        <ele>61.520815</ele>
        <time>2022-12-21T15:29:57.341Z</time>
      </trkpt>
      <trkpt lat="45.91212" lon="-0.96528">
        <ele>61.034536</ele>
        <time>2022-12-21T15:29:59.341Z</time>
      </trkpt>
      <trkpt lat="45.91203" lon="-0.96528">
        <ele>60.535686</ele>
        <time>2022-12-21T15:30:01.342Z</time>
      </trkpt>
      <trkpt lat="45.91193" lon="-0.96529">
        <ele>60.041769</ele>
        <time>2022-12-21T15:30:03.351Z</time>
      </trkpt>
      <trkpt lat="45.91183" lon="-0.96529">
        <ele>59.506936</ele>
        <time>2022-12-21T15:30:05.341Z</time>
      </trkpt>
      <trkpt lat="45.91172" lon="-0.96529">
        <ele>58.946456</ele>
        <time>2022-12-21T15:30:07.346Z</time>
      </trkpt>
      <trkpt lat="45.9116" lon="-0.96529">
        <ele>58.339738</ele>
        <time>2022-12-21T15:30:09.344Z</time>
      </trkpt>
      <trkpt lat="45.91148" lon="-0.96529">
        <ele>57.738161</ele>
        <time>2022-12-21T15:30:11.365Z</time>
      </trkpt>
      <trkpt lat="45.91136" lon="-0.96529">
        <ele>57.095372</ele>
        <time>2022-12-21T15:30:13.354Z</time>
      </trkpt>
      <trkpt lat="45.91124" lon="-0.9653">
        <ele>56.478008</ele>
        <time>2022-12-21T15:30:15.361Z</time>
      </trkpt>
      <trkpt lat="45.91111" lon="-0.9653">
        <ele>55.835269</ele>
        <time>2022-12-21T15:30:17.356Z</time>
      </trkpt>
      <trkpt lat="45.911" lon="-0.96531">
        <ele>55.237773</ele>
        <time>2022-12-21T15:30:19.338Z</time>
      </trkpt>
      <trkpt lat="45.91089" lon="-0.96532">
        <ele>54.899187</ele>
        <time>2022-12-21T15:30:21.335Z</time>
      </trkpt>
      <trkpt lat="45.91079" lon="-0.96533">
        <ele>54.611834</ele>
        <time>2022-12-21T15:30:23.362Z</time>
      </trkpt>
      <trkpt lat="45.91068" lon="-0.96538">
        <ele>54.258348</ele>
        <time>2022-12-21T15:30:26.342Z</time>
      </trkpt>
      <trkpt lat="45.91058" lon="-0.96543">
        <ele>53.927777</ele>
        <time>2022-12-21T15:30:29.359Z</time>
      </trkpt>
      <trkpt lat="45.9105" lon="-0.96553">
        <ele>53.596792</ele>
        <time>2022-12-21T15:30:32.339Z</time>
      </trkpt>
      <trkpt lat="45.91042" lon="-0.96565">
        <ele>53.246573</ele>
        <time>2022-12-21T15:30:35.360Z</time>
      </trkpt>
      <trkpt lat="45.91033" lon="-0.96575">
        <ele>52.893955</ele>
        <time>2022-12-21T15:30:38.346Z</time>
      </trkpt>
      <trkpt lat="45.91022" lon="-0.96581">
        <ele>52.541975</ele>
        <time>2022-12-21T15:30:41.352Z</time>
      </trkpt>
      <trkpt lat="45.91011" lon="-0.96585">
        <ele>52.197539</ele>
        <time>2022-12-21T15:30:44.332Z</time>
      </trkpt>
      <trkpt lat="45.91001" lon="-0.96591">
        <ele>51.878507</ele>
        <time>2022-12-21T15:30:47.360Z</time>
      </trkpt>
      <trkpt lat="45.90991" lon="-0.96595">
        <ele>51.568107</ele>
        <time>2022-12-21T15:30:50.334Z</time>
      </trkpt>
      <trkpt lat="45.90981" lon="-0.96596">
        <ele>51.259784</ele>
        <time>2022-12-21T15:30:53.351Z</time>
      </trkpt>
      <trkpt lat="45.90972" lon="-0.96594">
        <ele>50.979296</ele>
        <time>2022-12-21T15:30:56.337Z</time>
      </trkpt>
      <trkpt lat="45.90961" lon="-0.96593">
        <ele>50.628747</ele>
        <time>2022-12-21T15:31:00.344Z</time>
      </trkpt>
      <trkpt lat="45.90949" lon="-0.96595">
        <ele>50.269752</ele>
        <time>2022-12-21T15:31:04.360Z</time>
      </trkpt>
      <trkpt lat="45.90938" lon="-0.96597">
        <ele>49.928634</ele>
        <time>2022-12-21T15:31:08.357Z</time>
      </trkpt>
      <trkpt lat="45.90928" lon="-0.96597">
        <ele>49.777808</ele>
        <time>2022-12-21T15:31:12.342Z</time>
      </trkpt>
      <trkpt lat="45.90916" lon="-0.96597">
        <ele>49.879654</ele>
        <time>2022-12-21T15:31:16.341Z</time>
      </trkpt>
      <trkpt lat="45.90905" lon="-0.96597">
        <ele>49.967759</ele>
        <time>2022-12-21T15:31:19.348Z</time>
      </trkpt>
      <trkpt lat="45.90894" lon="-0.96597">
        <ele>50.061082</ele>
        <time>2022-12-21T15:31:22.335Z</time>
      </trkpt>
      <trkpt lat="45.90883" lon="-0.96594">
        <ele>50.162734</ele>
        <time>2022-12-21T15:31:25.335Z</time>
      </trkpt>
      <trkpt lat="45.90871" lon="-0.96591">
        <ele>50.261861</ele>
        <time>2022-12-21T15:31:28.336Z</time>
      </trkpt>
      <trkpt lat="45.90861" lon="-0.96588">
        <ele>50.351308</ele>
        <time>2022-12-21T15:31:31.353Z</time>
      </trkpt>
      <trkpt lat="45.90852" lon="-0.96585">
        <ele>50.430665</ele>
        <time>2022-12-21T15:31:34.333Z</time>
      </trkpt>
      <trkpt lat="45.90841" lon="-0.96582">
        <ele>50.523069</ele>
        <time>2022-12-21T15:31:38.346Z</time>
      </trkpt>
      <trkpt lat="45.90831" lon="-0.96578">
        <ele>50.611358</ele>
        <time>2022-12-21T15:31:42.345Z</time>
      </trkpt>
      <trkpt lat="45.90821" lon="-0.96574">
        <ele>50.707153</ele>
        <time>2022-12-21T15:31:46.342Z</time>
      </trkpt>
      <trkpt lat="45.90812" lon="-0.96571">
        <ele>50.785622</ele>
        <time>2022-12-21T15:31:49.345Z</time>
      </trkpt>
      <trkpt lat="45.90803" lon="-0.96573">
        <ele>50.86384</ele>
        <time>2022-12-21T15:31:52.343Z</time>
      </trkpt>
      <trkpt lat="45.90794" lon="-0.96577">
        <ele>50.942749</ele>
        <time>2022-12-21T15:31:55.349Z</time>
      </trkpt>
      <trkpt lat="45.90783" lon="-0.96581">
        <ele>51.038544</ele>
        <time>2022-12-21T15:31:58.353Z</time>
      </trkpt>
      <trkpt lat="45.90771" lon="-0.96583">
        <ele>51.144559</ele>
        <time>2022-12-21T15:32:01.349Z</time>
      </trkpt>
      <trkpt lat="45.9076" lon="-0.96584">
        <ele>51.236357</ele>
        <time>2022-12-21T15:32:04.346Z</time>
      </trkpt>
      <trkpt lat="45.90751" lon="-0.96586">
        <ele>51.326894</ele>
        <time>2022-12-21T15:32:07.345Z</time>
      </trkpt>
      <trkpt lat="45.9074" lon="-0.96589">
        <ele>51.4582</ele>
        <time>2022-12-21T15:32:11.345Z</time>
      </trkpt>
      <trkpt lat="45.90728" lon="-0.96591">
        <ele>51.601421</ele>
        <time>2022-12-21T15:32:15.357Z</time>
      </trkpt>
      <trkpt lat="45.90718" lon="-0.96595">
        <ele>51.728782</ele>
        <time>2022-12-21T15:32:19.358Z</time>
      </trkpt>
      <trkpt lat="45.90707" lon="-0.966">
        <ele>51.866013</ele>
        <time>2022-12-21T15:32:23.362Z</time>
      </trkpt>
      <trkpt lat="45.90697" lon="-0.96604">
        <ele>51.989603</ele>
        <time>2022-12-21T15:32:27.360Z</time>
      </trkpt>
      <trkpt lat="45.90688" lon="-0.96608">
        <ele>52.106881</ele>
        <time>2022-12-21T15:32:31.354Z</time>
      </trkpt>
      <trkpt lat="45.90678" lon="-0.96613">
        <ele>52.23242</ele>
        <time>2022-12-21T15:32:35.357Z</time>
      </trkpt>
      <trkpt lat="45.9067" lon="-0.96621">
        <ele>52.341966</ele>
        <time>2022-12-21T15:32:39.359Z</time>
      </trkpt>
      <trkpt lat="45.90666" lon="-0.96632">
        <ele>52.451425</ele>
        <time>2022-12-21T15:32:45.361Z</time>
      </trkpt>
      <trkpt lat="45.90658" lon="-0.9664">
        <ele>52.567752</ele>
        <time>2022-12-21T15:32:50.350Z</time>
      </trkpt>
      <trkpt lat="45.9065" lon="-0.96649">
        <ele>52.686559</ele>
        <time>2022-12-21T15:32:54.336Z</time>
      </trkpt>
      <trkpt lat="45.90641" lon="-0.96657">
        <ele>52.812881</ele>
        <time>2022-12-21T15:32:58.338Z</time>
      </trkpt>
      <trkpt lat="45.90633" lon="-0.96669">
        <ele>52.94568</ele>
        <time>2022-12-21T15:33:03.330Z</time>
      </trkpt>
      <trkpt lat="45.90628" lon="-0.9668">
        <ele>53.062297</ele>
        <time>2022-12-21T15:33:07.349Z</time>
      </trkpt>
      <trkpt lat="45.90624" lon="-0.96695">
        <ele>53.189021</ele>
        <time>2022-12-21T15:33:11.338Z</time>
      </trkpt>
      <trkpt lat="45.90623" lon="-0.96709">
        <ele>53.31196</ele>
        <time>2022-12-21T15:33:15.343Z</time>
      </trkpt>
      <trkpt lat="45.90624" lon="-0.96724">
        <ele>53.433607</ele>
        <time>2022-12-21T15:33:19.334Z</time>
      </trkpt>
      <trkpt lat="45.90626" lon="-0.9674">
        <ele>53.634328</ele>
        <time>2022-12-21T15:33:23.334Z</time>
      </trkpt>
      <trkpt lat="45.90629" lon="-0.96755">
        <ele>53.826976</ele>
        <time>2022-12-21T15:33:27.339Z</time>
      </trkpt>
      <trkpt lat="45.90634" lon="-0.96771">
        <ele>54.022504</ele>
        <time>2022-12-21T15:33:31.351Z</time>
      </trkpt>
      <trkpt lat="45.90638" lon="-0.96785">
        <ele>54.208073</ele>
        <time>2022-12-21T15:33:35.344Z</time>
      </trkpt>
      <trkpt lat="45.90642" lon="-0.96798">
        <ele>54.372944</ele>
        <time>2022-12-21T15:33:39.357Z</time>
      </trkpt>
      <trkpt lat="45.90643" lon="-0.96811">
        <ele>54.539931</ele>
        <time>2022-12-21T15:33:43.335Z</time>
      </trkpt>
      <trkpt lat="45.90638" lon="-0.96822">
        <ele>54.695014</ele>
        <time>2022-12-21T15:33:48.358Z</time>
      </trkpt>
      <trkpt lat="45.90627" lon="-0.96823">
        <ele>54.877703</ele>
        <time>2022-12-21T15:34:06.338Z</time>
      </trkpt>
      <trkpt lat="45.90619" lon="-0.96816">
        <ele>55.040523</ele>
        <time>2022-12-21T15:34:11.345Z</time>
      </trkpt>
      <trkpt lat="45.90613" lon="-0.96805">
        <ele>55.211241</ele>
        <time>2022-12-21T15:34:16.360Z</time>
      </trkpt>
      <trkpt lat="45.90621" lon="-0.96818">
        <ele>55.417173</ele>
        <time>2022-12-21T15:35:09.341Z</time>
      </trkpt>
      <trkpt lat="45.90625" lon="-0.96805">
        <ele>55.594372</ele>
        <time>2022-12-21T15:35:18.345Z</time>
      </trkpt>
      <trkpt lat="45.90619" lon="-0.96791">
        <ele>55.777806</ele>
        <time>2022-12-21T15:35:22.339Z</time>
      </trkpt>
      <trkpt lat="45.90615" lon="-0.96778">
        <ele>55.94978</ele>
        <time>2022-12-21T15:35:26.344Z</time>
      </trkpt>
      <trkpt lat="45.9061" lon="-0.96767">
        <ele>56.112163</ele>
        <time>2022-12-21T15:35:30.353Z</time>
      </trkpt>
      <trkpt lat="45.90605" lon="-0.96755">
        <ele>56.280076</ele>
        <time>2022-12-21T15:35:35.343Z</time>
      </trkpt>
      <trkpt lat="45.90596" lon="-0.96746">
        <ele>56.455913</ele>
        <time>2022-12-21T15:35:40.337Z</time>
      </trkpt>
      <trkpt lat="45.90587" lon="-0.96744">
        <ele>56.49254</ele>
        <time>2022-12-21T15:35:45.332Z</time>
      </trkpt>
      <trkpt lat="45.9058" lon="-0.96735">
        <ele>56.449418</ele>
        <time>2022-12-21T15:35:50.344Z</time>
      </trkpt>
      <trkpt lat="45.90576" lon="-0.96721">
        <ele>56.401444</ele>
        <time>2022-12-21T15:35:55.342Z</time>
      </trkpt>
      <trkpt lat="45.90575" lon="-0.96707">
        <ele>56.35695</ele>
        <time>2022-12-21T15:35:59.337Z</time>
      </trkpt>
      <trkpt lat="45.90572" lon="-0.96695">
        <ele>56.315898</ele>
        <time>2022-12-21T15:36:02.358Z</time>
      </trkpt>
      <trkpt lat="45.90567" lon="-0.96684">
        <ele>56.272423</ele>
        <time>2022-12-21T15:36:05.331Z</time>
      </trkpt>
      <trkpt lat="45.90562" lon="-0.96672">
        <ele>56.22812</ele>
        <time>2022-12-21T15:36:08.368Z</time>
      </trkpt>
      <trkpt lat="45.90556" lon="-0.9666">
        <ele>56.181012</ele>
        <time>2022-12-21T15:36:12.359Z</time>
      </trkpt>
      <trkpt lat="45.9055" lon="-0.96646">
        <ele>56.129738</ele>
        <time>2022-12-21T15:36:16.342Z</time>
      </trkpt>
      <trkpt lat="45.90544" lon="-0.96635">
        <ele>56.084653</ele>
        <time>2022-12-21T15:36:19.338Z</time>
      </trkpt>
      <trkpt lat="45.90538" lon="-0.96624">
        <ele>56.039595</ele>
        <time>2022-12-21T15:36:22.338Z</time>
      </trkpt>
      <trkpt lat="45.9053" lon="-0.96611">
        <ele>55.98582</ele>
        <time>2022-12-21T15:36:25.347Z</time>
      </trkpt>
      <trkpt lat="45.90522" lon="-0.96596">
        <ele>55.927941</ele>
        <time>2022-12-21T15:36:28.346Z</time>
      </trkpt>
      <trkpt lat="45.90514" lon="-0.96584">
        <ele>55.872459</ele>
        <time>2022-12-21T15:36:31.340Z</time>
      </trkpt>
      <trkpt lat="45.90503" lon="-0.96578">
        <ele>55.819081</ele>
        <time>2022-12-21T15:36:34.352Z</time>
      </trkpt>
      <trkpt lat="45.90494" lon="-0.96568">
        <ele>55.7696</ele>
        <time>2022-12-21T15:36:37.364Z</time>
      </trkpt>
      <trkpt lat="45.90492" lon="-0.96551">
        <ele>55.71453</ele>
        <time>2022-12-21T15:36:40.337Z</time>
      </trkpt>
      <trkpt lat="45.9049" lon="-0.96538">
        <ele>55.59086</ele>
        <time>2022-12-21T15:36:42.355Z</time>
      </trkpt>
      <trkpt lat="45.90486" lon="-0.96525">
        <ele>55.403623</ele>
        <time>2022-12-21T15:36:44.360Z</time>
      </trkpt>
      <trkpt lat="45.9048" lon="-0.96512">
        <ele>55.208421</ele>
        <time>2022-12-21T15:36:46.360Z</time>
      </trkpt>
      <trkpt lat="45.90474" lon="-0.96499">
        <ele>55.011381</ele>
        <time>2022-12-21T15:36:48.346Z</time>
      </trkpt>
      <trkpt lat="45.90468" lon="-0.96486">
        <ele>54.810166</ele>
        <time>2022-12-21T15:36:50.336Z</time>
      </trkpt>
      <trkpt lat="45.90463" lon="-0.96471">
        <ele>54.602185</ele>
        <time>2022-12-21T15:36:52.349Z</time>
      </trkpt>
      <trkpt lat="45.90458" lon="-0.96457">
        <ele>54.394084</ele>
        <time>2022-12-21T15:36:54.355Z</time>
      </trkpt>
      <trkpt lat="45.90454" lon="-0.96443">
        <ele>54.197957</ele>
        <time>2022-12-21T15:36:56.337Z</time>
      </trkpt>
      <trkpt lat="45.9045" lon="-0.9643">
        <ele>54.020647</ele>
        <time>2022-12-21T15:36:58.340Z</time>
      </trkpt>
      <trkpt lat="45.90446" lon="-0.96417">
        <ele>53.846149</ele>
        <time>2022-12-21T15:37:00.339Z</time>
      </trkpt>
      <trkpt lat="45.9044" lon="-0.96401">
        <ele>53.608459</ele>
        <time>2022-12-21T15:37:03.358Z</time>
      </trkpt>
      <trkpt lat="45.90436" lon="-0.96384">
        <ele>53.383193</ele>
        <time>2022-12-21T15:37:06.352Z</time>
      </trkpt>
      <trkpt lat="45.90431" lon="-0.96369">
        <ele>53.165916</ele>
        <time>2022-12-21T15:37:09.346Z</time>
      </trkpt>
      <trkpt lat="45.90426" lon="-0.96353">
        <ele>52.942768</ele>
        <time>2022-12-21T15:37:12.344Z</time>
      </trkpt>
      <trkpt lat="45.90421" lon="-0.96336">
        <ele>52.705956</ele>
        <time>2022-12-21T15:37:15.357Z</time>
      </trkpt>
      <trkpt lat="45.90418" lon="-0.96317">
        <ele>52.461661</ele>
        <time>2022-12-21T15:37:18.334Z</time>
      </trkpt>
      <trkpt lat="45.90415" lon="-0.96299">
        <ele>52.349751</ele>
        <time>2022-12-21T15:37:21.338Z</time>
      </trkpt>
      <trkpt lat="45.90413" lon="-0.96281">
        <ele>52.282591</ele>
        <time>2022-12-21T15:37:24.352Z</time>
      </trkpt>
      <trkpt lat="45.9041" lon="-0.96264">
        <ele>52.222325</ele>
        <time>2022-12-21T15:37:27.346Z</time>
      </trkpt>
      <trkpt lat="45.90408" lon="-0.96247">
        <ele>52.159015</ele>
        <time>2022-12-21T15:37:30.336Z</time>
      </trkpt>
      <trkpt lat="45.90407" lon="-0.96228">
        <ele>52.092638</ele>
        <time>2022-12-21T15:37:33.334Z</time>
      </trkpt>
      <trkpt lat="45.90405" lon="-0.96215">
        <ele>52.043037</ele>
        <time>2022-12-21T15:37:35.334Z</time>
      </trkpt>
      <trkpt lat="45.90402" lon="-0.96202">
        <ele>51.995605</ele>
        <time>2022-12-21T15:37:37.359Z</time>
      </trkpt>
      <trkpt lat="45.90399" lon="-0.9619">
        <ele>51.948568</ele>
        <time>2022-12-21T15:37:39.352Z</time>
      </trkpt>
      <trkpt lat="45.90396" lon="-0.96177">
        <ele>51.899813</ele>
        <time>2022-12-21T15:37:41.336Z</time>
      </trkpt>
      <trkpt lat="45.90392" lon="-0.96165">
        <ele>51.851921</ele>
        <time>2022-12-21T15:37:43.343Z</time>
      </trkpt>
      <trkpt lat="45.90386" lon="-0.96148">
        <ele>51.785135</ele>
        <time>2022-12-21T15:37:46.359Z</time>
      </trkpt>
      <trkpt lat="45.9038" lon="-0.96132">
        <ele>51.720456</ele>
        <time>2022-12-21T15:37:49.344Z</time>
      </trkpt>
      <trkpt lat="45.90373" lon="-0.96117">
        <ele>51.654565</ele>
        <time>2022-12-21T15:37:52.328Z</time>
      </trkpt>
      <trkpt lat="45.90365" lon="-0.96102">
        <ele>51.588927</ele>
        <time>2022-12-21T15:37:55.336Z</time>
      </trkpt>
      <trkpt lat="45.90357" lon="-0.9609">
        <ele>51.525329</ele>
        <time>2022-12-21T15:37:58.346Z</time>
      </trkpt>
      <trkpt lat="45.90347" lon="-0.9608">
        <ele>51.469557</ele>
        <time>2022-12-21T15:38:01.338Z</time>
      </trkpt>
      <trkpt lat="45.90337" lon="-0.96072">
        <ele>51.44056</ele>
        <time>2022-12-21T15:38:04.339Z</time>
      </trkpt>
      <trkpt lat="45.90327" lon="-0.96066">
        <ele>51.411803</ele>
        <time>2022-12-21T15:38:07.343Z</time>
      </trkpt>
      <trkpt lat="45.90316" lon="-0.96059">
        <ele>51.383531</ele>
        <time>2022-12-21T15:38:10.339Z</time>
      </trkpt>
      <trkpt lat="45.90307" lon="-0.96049">
        <ele>51.353704</ele>
        <time>2022-12-21T15:38:13.360Z</time>
      </trkpt>
      <trkpt lat="45.90297" lon="-0.96037">
        <ele>51.322338</ele>
        <time>2022-12-21T15:38:16.355Z</time>
      </trkpt>
      <trkpt lat="45.9029" lon="-0.96023">
        <ele>51.291099</ele>
        <time>2022-12-21T15:38:19.342Z</time>
      </trkpt>
      <trkpt lat="45.90286" lon="-0.96007">
        <ele>51.262559</ele>
        <time>2022-12-21T15:38:22.341Z</time>
      </trkpt>
      <trkpt lat="45.90283" lon="-0.95994">
        <ele>51.238079</ele>
        <time>2022-12-21T15:38:25.344Z</time>
      </trkpt>
      <trkpt lat="45.90276" lon="-0.95985">
        <ele>51.215028</ele>
        <time>2022-12-21T15:38:30.344Z</time>
      </trkpt>
      <trkpt lat="45.90266" lon="-0.95983">
        <ele>51.189243</ele>
        <time>2022-12-21T15:38:34.346Z</time>
      </trkpt>
      <trkpt lat="45.90256" lon="-0.95983">
        <ele>51.164168</ele>
        <time>2022-12-21T15:38:37.343Z</time>
      </trkpt>
      <trkpt lat="45.90246" lon="-0.95983">
        <ele>51.137845</ele>
        <time>2022-12-21T15:38:40.361Z</time>
      </trkpt>
      <trkpt lat="45.90235" lon="-0.95983">
        <ele>51.110248</ele>
        <time>2022-12-21T15:38:43.343Z</time>
      </trkpt>
      <trkpt lat="45.90224" lon="-0.95984">
        <ele>51.082658</ele>
        <time>2022-12-21T15:38:46.336Z</time>
      </trkpt>
      <trkpt lat="45.90214" lon="-0.95984">
        <ele>51.057335</ele>
        <time>2022-12-21T15:38:49.339Z</time>
      </trkpt>
      <trkpt lat="45.90203" lon="-0.95984">
        <ele>51.031012</ele>
        <time>2022-12-21T15:38:52.348Z</time>
      </trkpt>
      <trkpt lat="45.90193" lon="-0.95984">
        <ele>51.069117</ele>
        <time>2022-12-21T15:38:55.334Z</time>
      </trkpt>
      <trkpt lat="45.90183" lon="-0.95985">
        <ele>51.141221</ele>
        <time>2022-12-21T15:38:58.344Z</time>
      </trkpt>
      <trkpt lat="45.90172" lon="-0.95985">
        <ele>51.222577</ele>
        <time>2022-12-21T15:39:02.348Z</time>
      </trkpt>
      <trkpt lat="45.90161" lon="-0.95986">
        <ele>51.302556</ele>
        <time>2022-12-21T15:39:06.362Z</time>
      </trkpt>
      <trkpt lat="45.90151" lon="-0.95986">
        <ele>51.369481</ele>
        <time>2022-12-21T15:39:09.365Z</time>
      </trkpt>
      <trkpt lat="45.90141" lon="-0.95986">
        <ele>51.440118</ele>
        <time>2022-12-21T15:39:12.345Z</time>
      </trkpt>
      <trkpt lat="45.90132" lon="-0.95986">
        <ele>51.509929</ele>
        <time>2022-12-21T15:39:15.339Z</time>
      </trkpt>
      <trkpt lat="45.90123" lon="-0.95985">
        <ele>51.576324</ele>
        <time>2022-12-21T15:39:18.341Z</time>
      </trkpt>
      <trkpt lat="45.90113" lon="-0.95986">
        <ele>51.644119</ele>
        <time>2022-12-21T15:39:21.365Z</time>
      </trkpt>
      <trkpt lat="45.90104" lon="-0.95986">
        <ele>51.711052</ele>
        <time>2022-12-21T15:39:24.344Z</time>
      </trkpt>
      <trkpt lat="45.90092" lon="-0.95987">
        <ele>51.793883</ele>
        <time>2022-12-21T15:39:28.360Z</time>
      </trkpt>
      <trkpt lat="45.90081" lon="-0.95988">
        <ele>51.876044</ele>
        <time>2022-12-21T15:39:32.340Z</time>
      </trkpt>
      <trkpt lat="45.90069" lon="-0.95988">
        <ele>51.959575</ele>
        <time>2022-12-21T15:39:36.337Z</time>
      </trkpt>
      <trkpt lat="45.9006" lon="-0.95989">
        <ele>52.025873</ele>
        <time>2022-12-21T15:39:39.349Z</time>
      </trkpt>
      <trkpt lat="45.90051" lon="-0.95989">
        <ele>52.092866</ele>
        <time>2022-12-21T15:39:42.333Z</time>
      </trkpt>
      <trkpt lat="45.90042" lon="-0.9599">
        <ele>52.159079</ele>
        <time>2022-12-21T15:39:45.362Z</time>
      </trkpt>
      <trkpt lat="45.90033" lon="-0.95989">
        <ele>52.224582</ele>
        <time>2022-12-21T15:39:48.343Z</time>
      </trkpt>
      <trkpt lat="45.90021" lon="-0.9599">
        <ele>52.310254</ele>
        <time>2022-12-21T15:39:52.330Z</time>
      </trkpt>
      <trkpt lat="45.90011" lon="-0.9599">
        <ele>52.329708</ele>
        <time>2022-12-21T15:39:55.341Z</time>
      </trkpt>
      <trkpt lat="45.90002" lon="-0.9599">
        <ele>52.343387</ele>
        <time>2022-12-21T15:39:58.357Z</time>
      </trkpt>
      <trkpt lat="45.89993" lon="-0.9599">
        <ele>52.357369</ele>
        <time>2022-12-21T15:40:01.338Z</time>
      </trkpt>
      <trkpt lat="45.89983" lon="-0.9599">
        <ele>52.371664</ele>
        <time>2022-12-21T15:40:04.359Z</time>
      </trkpt>
      <trkpt lat="45.89973" lon="-0.9599">
        <ele>52.387472</ele>
        <time>2022-12-21T15:40:07.362Z</time>
      </trkpt>
      <trkpt lat="45.89962" lon="-0.95991">
        <ele>52.403913</ele>
        <time>2022-12-21T15:40:10.342Z</time>
      </trkpt>
      <trkpt lat="45.89952" lon="-0.95991">
        <ele>52.419871</ele>
        <time>2022-12-21T15:40:13.362Z</time>
      </trkpt>
      <trkpt lat="45.89942" lon="-0.95992">
        <ele>52.434953</ele>
        <time>2022-12-21T15:40:16.361Z</time>
      </trkpt>
      <trkpt lat="45.89933" lon="-0.95992">
        <ele>52.448935</ele>
        <time>2022-12-21T15:40:19.343Z</time>
      </trkpt>
      <trkpt lat="45.89921" lon="-0.95993">
        <ele>52.465989</ele>
        <time>2022-12-21T15:40:23.341Z</time>
      </trkpt>
      <trkpt lat="45.8991" lon="-0.95994">
        <ele>52.483058</ele>
        <time>2022-12-21T15:40:27.359Z</time>
      </trkpt>
      <trkpt lat="45.89904" lon="-0.95985">
        <ele>52.497437</ele>
        <time>2022-12-21T15:40:31.350Z</time>
      </trkpt>
      <trkpt lat="45.89904" lon="-0.9597">
        <ele>52.512674</ele>
        <time>2022-12-21T15:40:35.350Z</time>
      </trkpt>
      <trkpt lat="45.89904" lon="-0.95953">
        <ele>52.530571</ele>
        <time>2022-12-21T15:40:39.333Z</time>
      </trkpt>
      <trkpt lat="45.89905" lon="-0.9594">
        <ele>52.544994</ele>
        <time>2022-12-21T15:40:42.337Z</time>
      </trkpt>
      <trkpt lat="45.89905" lon="-0.95926">
        <ele>52.559596</ele>
        <time>2022-12-21T15:40:45.342Z</time>
      </trkpt>
      <trkpt lat="45.89904" lon="-0.95912">
        <ele>52.574744</ele>
        <time>2022-12-21T15:40:48.335Z</time>
      </trkpt>
      <trkpt lat="45.89902" lon="-0.95898">
        <ele>52.589314</ele>
        <time>2022-12-21T15:40:51.340Z</time>
      </trkpt>
      <trkpt lat="45.89899" lon="-0.95883">
        <ele>52.572094</ele>
        <time>2022-12-21T15:40:54.330Z</time>
      </trkpt>
      <trkpt lat="45.89896" lon="-0.95869">
        <ele>52.554676</ele>
        <time>2022-12-21T15:40:57.340Z</time>
      </trkpt>
      <trkpt lat="45.89892" lon="-0.95855">
        <ele>52.536776</ele>
        <time>2022-12-21T15:41:00.353Z</time>
      </trkpt>
      <trkpt lat="45.89888" lon="-0.9584">
        <ele>52.517785</ele>
        <time>2022-12-21T15:41:03.342Z</time>
      </trkpt>
      <trkpt lat="45.89884" lon="-0.95825">
        <ele>52.498694</ele>
        <time>2022-12-21T15:41:06.344Z</time>
      </trkpt>
      <trkpt lat="45.8988" lon="-0.95811">
        <ele>52.480826</ele>
        <time>2022-12-21T15:41:09.344Z</time>
      </trkpt>
      <trkpt lat="45.89876" lon="-0.95798">
        <ele>52.463507</ele>
        <time>2022-12-21T15:41:12.341Z</time>
      </trkpt>
      <trkpt lat="45.89872" lon="-0.95785">
        <ele>52.446902</ele>
        <time>2022-12-21T15:41:15.341Z</time>
      </trkpt>
      <trkpt lat="45.89867" lon="-0.9577">
        <ele>52.428338</ele>
        <time>2022-12-21T15:41:18.341Z</time>
      </trkpt>
      <trkpt lat="45.89863" lon="-0.95755">
        <ele>52.408502</ele>
        <time>2022-12-21T15:41:21.336Z</time>
      </trkpt>
      <trkpt lat="45.89858" lon="-0.95739">
        <ele>52.388399</ele>
        <time>2022-12-21T15:41:24.335Z</time>
      </trkpt>
      <trkpt lat="45.89854" lon="-0.95723">
        <ele>52.368016</ele>
        <time>2022-12-21T15:41:27.336Z</time>
      </trkpt>
      <trkpt lat="45.8985" lon="-0.95707">
        <ele>52.347648</ele>
        <time>2022-12-21T15:41:30.334Z</time>
      </trkpt>
      <trkpt lat="45.89846" lon="-0.95691">
        <ele>52.327496</ele>
        <time>2022-12-21T15:41:33.338Z</time>
      </trkpt>
      <trkpt lat="45.89844" lon="-0.95676">
        <ele>52.309511</ele>
        <time>2022-12-21T15:41:36.334Z</time>
      </trkpt>
      <trkpt lat="45.89841" lon="-0.95662">
        <ele>52.292934</ele>
        <time>2022-12-21T15:41:39.330Z</time>
      </trkpt>
      <trkpt lat="45.89839" lon="-0.95647">
        <ele>52.255373</ele>
        <time>2022-12-21T15:41:42.339Z</time>
      </trkpt>
      <trkpt lat="45.89837" lon="-0.95631">
        <ele>52.199605</ele>
        <time>2022-12-21T15:41:45.348Z</time>
      </trkpt>
      <trkpt lat="45.89835" lon="-0.95613">
        <ele>52.139851</ele>
        <time>2022-12-21T15:41:48.347Z</time>
      </trkpt>
      <trkpt lat="45.89835" lon="-0.95595">
        <ele>52.081435</ele>
        <time>2022-12-21T15:41:51.341Z</time>
      </trkpt>
      <trkpt lat="45.89835" lon="-0.95579">
        <ele>52.025753</ele>
        <time>2022-12-21T15:41:54.353Z</time>
      </trkpt>
      <trkpt lat="45.89836" lon="-0.95563">
        <ele>51.971488</ele>
        <time>2022-12-21T15:41:57.354Z</time>
      </trkpt>
      <trkpt lat="45.89837" lon="-0.95545">
        <ele>51.91333</ele>
        <time>2022-12-21T15:42:00.334Z</time>
      </trkpt>
      <trkpt lat="45.89838" lon="-0.95527">
        <ele>51.852425</ele>
        <time>2022-12-21T15:42:03.331Z</time>
      </trkpt>
      <trkpt lat="45.89839" lon="-0.9551">
        <ele>51.793004</ele>
        <time>2022-12-21T15:42:06.336Z</time>
      </trkpt>
      <trkpt lat="45.89841" lon="-0.95493">
        <ele>51.737247</ele>
        <time>2022-12-21T15:42:09.338Z</time>
      </trkpt>
      <trkpt lat="45.89841" lon="-0.95477">
        <ele>51.684229</ele>
        <time>2022-12-21T15:42:12.342Z</time>
      </trkpt>
      <trkpt lat="45.89841" lon="-0.95463">
        <ele>51.635246</ele>
        <time>2022-12-21T15:42:15.340Z</time>
      </trkpt>
      <trkpt lat="45.89839" lon="-0.95449">
        <ele>51.5874</ele>
        <time>2022-12-21T15:42:18.347Z</time>
      </trkpt>
      <trkpt lat="45.89839" lon="-0.95433">
        <ele>51.535063</ele>
        <time>2022-12-21T15:42:21.348Z</time>
      </trkpt>
      <trkpt lat="45.89838" lon="-0.95416">
        <ele>51.477583</ele>
        <time>2022-12-21T15:42:24.344Z</time>
      </trkpt>
      <trkpt lat="45.89837" lon="-0.954">
        <ele>51.422771</ele>
        <time>2022-12-21T15:42:27.343Z</time>
      </trkpt>
      <trkpt lat="45.89835" lon="-0.95385">
        <ele>51.375131</ele>
        <time>2022-12-21T15:42:30.338Z</time>
      </trkpt>
      <trkpt lat="45.89834" lon="-0.95372">
        <ele>51.332737</ele>
        <time>2022-12-21T15:42:33.346Z</time>
      </trkpt>
      <trkpt lat="45.89833" lon="-0.95359">
        <ele>51.291045</ele>
        <time>2022-12-21T15:42:36.356Z</time>
      </trkpt>
      <trkpt lat="45.89831" lon="-0.95343">
        <ele>51.241374</ele>
        <time>2022-12-21T15:42:40.332Z</time>
      </trkpt>
      <trkpt lat="45.89828" lon="-0.95328">
        <ele>51.190986</ele>
        <time>2022-12-21T15:42:44.360Z</time>
      </trkpt>
      <trkpt lat="45.89825" lon="-0.95314">
        <ele>51.14537</ele>
        <time>2022-12-21T15:42:47.341Z</time>
      </trkpt>
      <trkpt lat="45.89822" lon="-0.953">
        <ele>51.098118</ele>
        <time>2022-12-21T15:42:50.338Z</time>
      </trkpt>
      <trkpt lat="45.8982" lon="-0.95284">
        <ele>51.048481</ele>
        <time>2022-12-21T15:42:53.346Z</time>
      </trkpt>
      <trkpt lat="45.89821" lon="-0.95269">
        <ele>51.000349</ele>
        <time>2022-12-21T15:42:56.346Z</time>
      </trkpt>
      <trkpt lat="45.89822" lon="-0.95252">
        <ele>50.946256</ele>
        <time>2022-12-21T15:42:59.342Z</time>
      </trkpt>
      <trkpt lat="45.89823" lon="-0.95234">
        <ele>50.889545</ele>
        <time>2022-12-21T15:43:02.344Z</time>
      </trkpt>
      <trkpt lat="45.89824" lon="-0.95216">
        <ele>50.835286</ele>
        <time>2022-12-21T15:43:05.338Z</time>
      </trkpt>
      <trkpt lat="45.89825" lon="-0.952">
        <ele>50.784227</ele>
        <time>2022-12-21T15:43:08.339Z</time>
      </trkpt>
      <trkpt lat="45.89825" lon="-0.95185">
        <ele>50.736064</ele>
        <time>2022-12-21T15:43:11.333Z</time>
      </trkpt>
      <trkpt lat="45.89826" lon="-0.95171">
        <ele>50.692503</ele>
        <time>2022-12-21T15:43:14.334Z</time>
      </trkpt>
      <trkpt lat="45.89827" lon="-0.95157">
        <ele>50.649604</ele>
        <time>2022-12-21T15:43:17.340Z</time>
      </trkpt>
      <trkpt lat="45.89828" lon="-0.95143">
        <ele>50.60914</ele>
        <time>2022-12-21T15:43:20.350Z</time>
      </trkpt>
      <trkpt lat="45.89829" lon="-0.95128">
        <ele>50.745592</ele>
        <time>2022-12-21T15:43:23.336Z</time>
      </trkpt>
      <trkpt lat="45.89823" lon="-0.95116">
        <ele>50.879238</ele>
        <time>2022-12-21T15:43:27.336Z</time>
      </trkpt>
      <trkpt lat="45.89813" lon="-0.95113">
        <ele>51.017621</ele>
        <time>2022-12-21T15:43:31.359Z</time>
      </trkpt>
      <trkpt lat="45.89802" lon="-0.95113">
        <ele>51.162421</ele>
        <time>2022-12-21T15:43:35.346Z</time>
      </trkpt>
      <trkpt lat="45.89793" lon="-0.95109">
        <ele>51.279266</ele>
        <time>2022-12-21T15:43:38.345Z</time>
      </trkpt>
      <trkpt lat="45.89787" lon="-0.95099">
        <ele>51.399158</ele>
        <time>2022-12-21T15:43:42.349Z</time>
      </trkpt>
      <trkpt lat="45.89784" lon="-0.95086">
        <ele>51.526831</ele>
        <time>2022-12-21T15:43:46.350Z</time>
      </trkpt>
      <trkpt lat="45.89778" lon="-0.95071">
        <ele>51.680137</ele>
        <time>2022-12-21T15:43:50.340Z</time>
      </trkpt>
      <trkpt lat="45.89773" lon="-0.95055">
        <ele>51.833579</ele>
        <time>2022-12-21T15:43:54.340Z</time>
      </trkpt>
      <trkpt lat="45.89769" lon="-0.95042">
        <ele>51.968562</ele>
        <time>2022-12-21T15:43:57.346Z</time>
      </trkpt>
      <trkpt lat="45.89766" lon="-0.95028">
        <ele>52.091842</ele>
        <time>2022-12-21T15:44:00.344Z</time>
      </trkpt>
      <trkpt lat="45.89763" lon="-0.95015">
        <ele>52.217616</ele>
        <time>2022-12-21T15:44:03.343Z</time>
      </trkpt>
      <trkpt lat="45.8976" lon="-0.95002">
        <ele>52.340387</ele>
        <time>2022-12-21T15:44:06.365Z</time>
      </trkpt>
      <trkpt lat="45.89757" lon="-0.94989">
        <ele>52.46502</ele>
        <time>2022-12-21T15:44:09.333Z</time>
      </trkpt>
      <trkpt lat="45.89755" lon="-0.94975">
        <ele>52.596177</ele>
        <time>2022-12-21T15:44:12.359Z</time>
      </trkpt>
      <trkpt lat="45.89752" lon="-0.94961">
        <ele>52.723923</ele>
        <time>2022-12-21T15:44:15.346Z</time>
      </trkpt>
      <trkpt lat="45.89749" lon="-0.94948">
        <ele>52.850518</ele>
        <time>2022-12-21T15:44:18.347Z</time>
      </trkpt>
      <trkpt lat="45.89745" lon="-0.94934">
        <ele>52.987749</ele>
        <time>2022-12-21T15:44:21.363Z</time>
      </trkpt>
      <trkpt lat="45.89741" lon="-0.94921">
        <ele>53.115233</ele>
        <time>2022-12-21T15:44:24.343Z</time>
      </trkpt>
      <trkpt lat="45.89736" lon="-0.9491">
        <ele>53.236851</ele>
        <time>2022-12-21T15:44:27.339Z</time>
      </trkpt>
      <trkpt lat="45.89732" lon="-0.94899">
        <ele>53.357716</ele>
        <time>2022-12-21T15:44:30.353Z</time>
      </trkpt>
      <trkpt lat="45.89726" lon="-0.94888">
        <ele>53.489339</ele>
        <time>2022-12-21T15:44:33.346Z</time>
      </trkpt>
      <trkpt lat="45.8972" lon="-0.94875">
        <ele>53.631444</ele>
        <time>2022-12-21T15:44:36.359Z</time>
      </trkpt>
      <trkpt lat="45.89713" lon="-0.94863">
        <ele>53.774877</ele>
        <time>2022-12-21T15:44:39.361Z</time>
      </trkpt>
      <trkpt lat="45.89706" lon="-0.94852">
        <ele>53.916864</ele>
        <time>2022-12-21T15:44:42.346Z</time>
      </trkpt>
      <trkpt lat="45.89699" lon="-0.94843">
        <ele>54.045336</ele>
        <time>2022-12-21T15:44:45.347Z</time>
      </trkpt>
      <trkpt lat="45.89691" lon="-0.94834">
        <ele>54.179576</ele>
        <time>2022-12-21T15:44:48.345Z</time>
      </trkpt>
      <trkpt lat="45.89683" lon="-0.94825">
        <ele>54.316308</ele>
        <time>2022-12-21T15:44:51.349Z</time>
      </trkpt>
      <trkpt lat="45.89675" lon="-0.94816">
        <ele>54.449887</ele>
        <time>2022-12-21T15:44:54.341Z</time>
      </trkpt>
      <trkpt lat="45.89667" lon="-0.94808">
        <ele>54.57535</ele>
        <time>2022-12-21T15:44:57.337Z</time>
      </trkpt>
      <trkpt lat="45.89659" lon="-0.94798">
        <ele>54.72024</ele>
        <time>2022-12-21T15:45:01.353Z</time>
      </trkpt>
      <trkpt lat="45.89652" lon="-0.9479">
        <ele>54.839708</ele>
        <time>2022-12-21T15:45:04.338Z</time>
      </trkpt>
      <trkpt lat="45.89645" lon="-0.94783">
        <ele>54.961897</ele>
        <time>2022-12-21T15:45:07.360Z</time>
      </trkpt>
      <trkpt lat="45.89638" lon="-0.94773">
        <ele>55.084861</ele>
        <time>2022-12-21T15:45:10.362Z</time>
      </trkpt>
      <trkpt lat="45.8963" lon="-0.94764">
        <ele>55.217007</ele>
        <time>2022-12-21T15:45:14.344Z</time>
      </trkpt>
      <trkpt lat="45.89622" lon="-0.94757">
        <ele>55.337311</ele>
        <time>2022-12-21T15:45:19.342Z</time>
      </trkpt>
      <trkpt lat="45.89615" lon="-0.94746">
        <ele>55.357368</ele>
        <time>2022-12-21T15:45:24.335Z</time>
      </trkpt>
      <trkpt lat="45.89607" lon="-0.94738">
        <ele>55.375949</ele>
        <time>2022-12-21T15:45:28.337Z</time>
      </trkpt>
      <trkpt lat="45.89599" lon="-0.94728">
        <ele>55.396921</ele>
        <time>2022-12-21T15:45:32.333Z</time>
      </trkpt>
      <trkpt lat="45.8959" lon="-0.94716">
        <ele>55.418813</ele>
        <time>2022-12-21T15:45:36.343Z</time>
      </trkpt>
      <trkpt lat="45.89583" lon="-0.94705">
        <ele>55.438815</ele>
        <time>2022-12-21T15:45:40.334Z</time>
      </trkpt>
      <trkpt lat="45.89576" lon="-0.94695">
        <ele>55.457862</ele>
        <time>2022-12-21T15:45:44.342Z</time>
      </trkpt>
      <trkpt lat="45.89569" lon="-0.94683">
        <ele>55.478836</ele>
        <time>2022-12-21T15:45:48.349Z</time>
      </trkpt>
      <trkpt lat="45.89562" lon="-0.94671">
        <ele>55.500628</ele>
        <time>2022-12-21T15:45:52.334Z</time>
      </trkpt>
      <trkpt lat="45.89554" lon="-0.94658">
        <ele>55.522615</ele>
        <time>2022-12-21T15:45:56.336Z</time>
      </trkpt>
      <trkpt lat="45.89549" lon="-0.94648">
        <ele>55.540251</ele>
        <time>2022-12-21T15:45:59.336Z</time>
      </trkpt>
      <trkpt lat="45.89542" lon="-0.94638">
        <ele>55.558228</ele>
        <time>2022-12-21T15:46:02.337Z</time>
      </trkpt>
      <trkpt lat="45.89533" lon="-0.94627">
        <ele>55.580767</ele>
        <time>2022-12-21T15:46:06.352Z</time>
      </trkpt>
      <trkpt lat="45.89526" lon="-0.94614">
        <ele>55.601694</ele>
        <time>2022-12-21T15:46:10.362Z</time>
      </trkpt>
      <trkpt lat="45.89519" lon="-0.94602">
        <ele>55.624387</ele>
        <time>2022-12-21T15:46:14.336Z</time>
      </trkpt>
      <trkpt lat="45.8951" lon="-0.9459">
        <ele>55.646832</ele>
        <time>2022-12-21T15:46:18.332Z</time>
      </trkpt>
      <trkpt lat="45.89504" lon="-0.94579">
        <ele>55.665123</ele>
        <time>2022-12-21T15:46:22.335Z</time>
      </trkpt>
      <trkpt lat="45.89497" lon="-0.94567">
        <ele>55.651094</ele>
        <time>2022-12-21T15:46:26.339Z</time>
      </trkpt>
      <trkpt lat="45.89492" lon="-0.94554">
        <ele>55.552515</ele>
        <time>2022-12-21T15:46:30.331Z</time>
      </trkpt>
      <trkpt lat="45.89485" lon="-0.94541">
        <ele>55.450782</ele>
        <time>2022-12-21T15:46:34.343Z</time>
      </trkpt>
      <trkpt lat="45.89477" lon="-0.94528">
        <ele>55.344004</ele>
        <time>2022-12-21T15:46:38.336Z</time>
      </trkpt>
      <trkpt lat="45.89472" lon="-0.94518">
        <ele>55.259966</ele>
        <time>2022-12-21T15:46:41.346Z</time>
      </trkpt>
      <trkpt lat="45.89465" lon="-0.94506">
        <ele>55.160461</ele>
        <time>2022-12-21T15:46:45.341Z</time>
      </trkpt>
      <trkpt lat="45.89459" lon="-0.94494">
        <ele>55.075903</ele>
        <time>2022-12-21T15:46:48.334Z</time>
      </trkpt>
      <trkpt lat="45.89455" lon="-0.94482">
        <ele>54.98855</ele>
        <time>2022-12-21T15:46:51.345Z</time>
      </trkpt>
      <trkpt lat="45.8945" lon="-0.94471">
        <ele>54.904839</ele>
        <time>2022-12-21T15:46:54.336Z</time>
      </trkpt>
      <trkpt lat="45.89444" lon="-0.94457">
        <ele>54.800572</ele>
        <time>2022-12-21T15:46:58.329Z</time>
      </trkpt>
      <trkpt lat="45.89439" lon="-0.94445">
        <ele>54.711124</ele>
        <time>2022-12-21T15:47:01.336Z</time>
      </trkpt>
      <trkpt lat="45.89433" lon="-0.94432">
        <ele>54.615549</ele>
        <time>2022-12-21T15:47:04.350Z</time>
      </trkpt>
      <trkpt lat="45.89428" lon="-0.9442">
        <ele>54.526558</ele>
        <time>2022-12-21T15:47:07.344Z</time>
      </trkpt>
      <trkpt lat="45.89424" lon="-0.94409">
        <ele>54.444855</ele>
        <time>2022-12-21T15:47:10.344Z</time>
      </trkpt>
      <trkpt lat="45.89418" lon="-0.94394">
        <ele>54.338279</ele>
        <time>2022-12-21T15:47:14.349Z</time>
      </trkpt>
      <trkpt lat="45.89413" lon="-0.94382">
        <ele>54.246096</ele>
        <time>2022-12-21T15:47:17.339Z</time>
      </trkpt>
      <trkpt lat="45.89407" lon="-0.94368">
        <ele>54.144312</ele>
        <time>2022-12-21T15:47:20.363Z</time>
      </trkpt>
      <trkpt lat="45.89401" lon="-0.94355">
        <ele>54.048308</ele>
        <time>2022-12-21T15:47:23.361Z</time>
      </trkpt>
      <trkpt lat="45.89393" lon="-0.94343">
        <ele>53.914368</ele>
        <time>2022-12-21T15:47:27.361Z</time>
      </trkpt>
      <trkpt lat="45.89387" lon="-0.94332">
        <ele>53.79846</ele>
        <time>2022-12-21T15:47:31.363Z</time>
      </trkpt>
      <trkpt lat="45.89379" lon="-0.94319">
        <ele>53.658971</ele>
        <time>2022-12-21T15:47:35.346Z</time>
      </trkpt>
      <trkpt lat="45.89372" lon="-0.9431">
        <ele>53.548343</ele>
        <time>2022-12-21T15:47:38.342Z</time>
      </trkpt>
      <trkpt lat="45.89365" lon="-0.94301">
        <ele>53.442331</ele>
        <time>2022-12-21T15:47:41.354Z</time>
      </trkpt>
      <trkpt lat="45.89355" lon="-0.94297">
        <ele>53.324873</ele>
        <time>2022-12-21T15:47:46.359Z</time>
      </trkpt>
      <trkpt lat="45.89353" lon="-0.94277">
        <ele>53.164059</ele>
        <time>2022-12-21T15:48:29.352Z</time>
      </trkpt>
      <trkpt lat="45.89348" lon="-0.94262">
        <ele>53.029663</ele>
        <time>2022-12-21T15:48:33.345Z</time>
      </trkpt>
      <trkpt lat="45.89344" lon="-0.94248">
        <ele>52.903124</ele>
        <time>2022-12-21T15:48:37.335Z</time>
      </trkpt>
      <trkpt lat="45.89342" lon="-0.94235">
        <ele>52.797667</ele>
        <time>2022-12-21T15:48:41.340Z</time>
      </trkpt>
      <trkpt lat="45.89338" lon="-0.9422">
        <ele>52.666507</ele>
        <time>2022-12-21T15:48:46.335Z</time>
      </trkpt>
      <trkpt lat="45.89333" lon="-0.94207">
        <ele>52.543004</ele>
        <time>2022-12-21T15:48:50.345Z</time>
      </trkpt>
      <trkpt lat="45.89329" lon="-0.94192">
        <ele>52.411891</ele>
        <time>2022-12-21T15:48:54.344Z</time>
      </trkpt>
      <trkpt lat="45.89325" lon="-0.94176">
        <ele>52.274641</ele>
        <time>2022-12-21T15:48:58.345Z</time>
      </trkpt>
      <trkpt lat="45.89322" lon="-0.94163">
        <ele>52.165385</ele>
        <time>2022-12-21T15:49:01.361Z</time>
      </trkpt>
      <trkpt lat="45.89317" lon="-0.94148">
        <ele>52.029928</ele>
        <time>2022-12-21T15:49:05.347Z</time>
      </trkpt>
      <trkpt lat="45.89313" lon="-0.94135">
        <ele>51.935938</ele>
        <time>2022-12-21T15:49:09.350Z</time>
      </trkpt>
      <trkpt lat="45.89309" lon="-0.94121">
        <ele>51.883875</ele>
        <time>2022-12-21T15:49:14.350Z</time>
      </trkpt>
      <trkpt lat="45.89308" lon="-0.94108">
        <ele>51.837298</ele>
        <time>2022-12-21T15:49:18.343Z</time>
      </trkpt>
      <trkpt lat="45.89309" lon="-0.94095">
        <ele>51.792789</ele>
        <time>2022-12-21T15:49:22.343Z</time>
      </trkpt>
      <trkpt lat="45.89311" lon="-0.94081">
        <ele>51.746531</ele>
        <time>2022-12-21T15:49:26.358Z</time>
      </trkpt>
      <trkpt lat="45.89314" lon="-0.94068">
        <ele>51.697099</ele>
        <time>2022-12-21T15:49:31.357Z</time>
      </trkpt>
      <trkpt lat="45.89318" lon="-0.94055">
        <ele>51.647929</ele>
        <time>2022-12-21T15:49:36.362Z</time>
      </trkpt>
      <trkpt lat="45.89322" lon="-0.94041">
        <ele>51.598758</ele>
        <time>2022-12-21T15:49:40.344Z</time>
      </trkpt>
      <trkpt lat="45.89326" lon="-0.94028">
        <ele>51.550644</ele>
        <time>2022-12-21T15:49:44.338Z</time>
      </trkpt>
      <trkpt lat="45.89329" lon="-0.94016">
        <ele>51.505727</ele>
        <time>2022-12-21T15:49:48.342Z</time>
      </trkpt>
      <trkpt lat="45.89332" lon="-0.94002">
        <ele>51.45777</ele>
        <time>2022-12-21T15:49:53.352Z</time>
      </trkpt>
      <trkpt lat="45.89328" lon="-0.93987">
        <ele>51.401425</ele>
        <time>2022-12-21T15:49:58.335Z</time>
      </trkpt>
      <trkpt lat="45.8932" lon="-0.93977">
        <ele>51.348885</ele>
        <time>2022-12-21T15:50:03.339Z</time>
      </trkpt>
      <trkpt lat="45.8931" lon="-0.93971">
        <ele>51.295253</ele>
        <time>2022-12-21T15:50:07.364Z</time>
      </trkpt>
      <trkpt lat="45.89301" lon="-0.93967">
        <ele>51.247924</ele>
        <time>2022-12-21T15:50:10.362Z</time>
      </trkpt>
      <trkpt lat="45.89291" lon="-0.93956">
        <ele>51.189388</ele>
        <time>2022-12-21T15:50:14.342Z</time>
      </trkpt>
      <trkpt lat="45.89285" lon="-0.93942">
        <ele>51.130645</ele>
        <time>2022-12-21T15:50:18.334Z</time>
      </trkpt>
      <trkpt lat="45.89279" lon="-0.93928">
        <ele>51.076515</ele>
        <time>2022-12-21T15:50:22.345Z</time>
      </trkpt>
      <trkpt lat="45.89275" lon="-0.93913">
        <ele>51.121298</ele>
        <time>2022-12-21T15:50:25.350Z</time>
      </trkpt>
      <trkpt lat="45.8927" lon="-0.93899">
        <ele>51.181926</ele>
        <time>2022-12-21T15:50:28.335Z</time>
      </trkpt>
      <trkpt lat="45.89265" lon="-0.93883">
        <ele>51.24581</ele>
        <time>2022-12-21T15:50:31.332Z</time>
      </trkpt>
      <trkpt lat="45.89261" lon="-0.93869">
        <ele>51.303852</ele>
        <time>2022-12-21T15:50:34.343Z</time>
      </trkpt>
      <trkpt lat="45.89255" lon="-0.93856">
        <ele>51.365013</ele>
        <time>2022-12-21T15:50:37.353Z</time>
      </trkpt>
      <trkpt lat="45.89249" lon="-0.93843">
        <ele>51.421182</ele>
        <time>2022-12-21T15:50:40.333Z</time>
      </trkpt>
      <trkpt lat="45.89243" lon="-0.93829">
        <ele>51.483068</ele>
        <time>2022-12-21T15:50:44.334Z</time>
      </trkpt>
      <trkpt lat="45.8924" lon="-0.93814">
        <ele>51.540711</ele>
        <time>2022-12-21T15:50:48.347Z</time>
      </trkpt>
      <trkpt lat="45.89235" lon="-0.938">
        <ele>51.601261</ele>
        <time>2022-12-21T15:50:52.336Z</time>
      </trkpt>
      <trkpt lat="45.89228" lon="-0.93789">
        <ele>51.657947</ele>
        <time>2022-12-21T15:50:56.335Z</time>
      </trkpt>
      <trkpt lat="45.89225" lon="-0.93776">
        <ele>51.709889</ele>
        <time>2022-12-21T15:51:00.346Z</time>
      </trkpt>
      <trkpt lat="45.89219" lon="-0.93762">
        <ele>51.771952</ele>
        <time>2022-12-21T15:51:04.352Z</time>
      </trkpt>
      <trkpt lat="45.89212" lon="-0.93751">
        <ele>51.827251</ele>
        <time>2022-12-21T15:51:07.344Z</time>
      </trkpt>
      <trkpt lat="45.89207" lon="-0.93737">
        <ele>51.888536</ele>
        <time>2022-12-21T15:51:10.360Z</time>
      </trkpt>
      <trkpt lat="45.89198" lon="-0.93723">
        <ele>51.960018</ele>
        <time>2022-12-21T15:51:13.336Z</time>
      </trkpt>
      <trkpt lat="45.89191" lon="-0.9371">
        <ele>52.02143</ele>
        <time>2022-12-21T15:51:16.351Z</time>
      </trkpt>
      <trkpt lat="45.89186" lon="-0.93698">
        <ele>51.904469</ele>
        <time>2022-12-21T15:51:19.339Z</time>
      </trkpt>
      <trkpt lat="45.8918" lon="-0.93684">
        <ele>51.612662</ele>
        <time>2022-12-21T15:51:22.360Z</time>
      </trkpt>
      <trkpt lat="45.89173" lon="-0.93671">
        <ele>51.310409</ele>
        <time>2022-12-21T15:51:25.335Z</time>
      </trkpt>
      <trkpt lat="45.89166" lon="-0.93658">
        <ele>51.01346</ele>
        <time>2022-12-21T15:51:28.336Z</time>
      </trkpt>
      <trkpt lat="45.8916" lon="-0.93646">
        <ele>50.733598</ele>
        <time>2022-12-21T15:51:31.359Z</time>
      </trkpt>
      <trkpt lat="45.89154" lon="-0.93634">
        <ele>50.474707</ele>
        <time>2022-12-21T15:51:34.345Z</time>
      </trkpt>
      <trkpt lat="45.89148" lon="-0.93621">
        <ele>50.199102</ele>
        <time>2022-12-21T15:51:38.360Z</time>
      </trkpt>
      <trkpt lat="45.89141" lon="-0.93607">
        <ele>49.872907</ele>
        <time>2022-12-21T15:51:42.343Z</time>
      </trkpt>
      <trkpt lat="45.89135" lon="-0.93595">
        <ele>49.607551</ele>
        <time>2022-12-21T15:51:45.349Z</time>
      </trkpt>
      <trkpt lat="45.89129" lon="-0.93585">
        <ele>49.361302</ele>
        <time>2022-12-21T15:51:48.354Z</time>
      </trkpt>
      <trkpt lat="45.89124" lon="-0.93573">
        <ele>49.103433</ele>
        <time>2022-12-21T15:51:52.356Z</time>
      </trkpt>
      <trkpt lat="45.89118" lon="-0.93559">
        <ele>48.809557</ele>
        <time>2022-12-21T15:51:56.329Z</time>
      </trkpt>
      <trkpt lat="45.8911" lon="-0.93546">
        <ele>48.496429</ele>
        <time>2022-12-21T15:52:00.358Z</time>
      </trkpt>
      <trkpt lat="45.89104" lon="-0.93536">
        <ele>48.252243</ele>
        <time>2022-12-21T15:52:03.336Z</time>
      </trkpt>
      <trkpt lat="45.89096" lon="-0.93526">
        <ele>47.975274</ele>
        <time>2022-12-21T15:52:08.346Z</time>
      </trkpt>
      <trkpt lat="45.89089" lon="-0.93512">
        <ele>47.66219</ele>
        <time>2022-12-21T15:52:12.336Z</time>
      </trkpt>
      <trkpt lat="45.89083" lon="-0.93498">
        <ele>47.349312</ele>
        <time>2022-12-21T15:52:16.341Z</time>
      </trkpt>
      <trkpt lat="45.89078" lon="-0.93483">
        <ele>47.178315</ele>
        <time>2022-12-21T15:52:20.335Z</time>
      </trkpt>
      <trkpt lat="45.89075" lon="-0.93467">
        <ele>47.008356</ele>
        <time>2022-12-21T15:52:23.330Z</time>
      </trkpt>
      <trkpt lat="45.89072" lon="-0.93451">
        <ele>46.834352</ele>
        <time>2022-12-21T15:52:27.339Z</time>
      </trkpt>
      <trkpt lat="45.89067" lon="-0.93437">
        <ele>46.666046</ele>
        <time>2022-12-21T15:52:31.331Z</time>
      </trkpt>
      <trkpt lat="45.8906" lon="-0.93425">
        <ele>46.504642</ele>
        <time>2022-12-21T15:52:36.348Z</time>
      </trkpt>
      <trkpt lat="45.89055" lon="-0.93413">
        <ele>46.355231</ele>
        <time>2022-12-21T15:52:48.357Z</time>
      </trkpt>
      <trkpt lat="45.89047" lon="-0.93403">
        <ele>46.203559</ele>
        <time>2022-12-21T15:52:52.343Z</time>
      </trkpt>
      <trkpt lat="45.89038" lon="-0.93394">
        <ele>46.041856</ele>
        <time>2022-12-21T15:52:57.348Z</time>
      </trkpt>
      <trkpt lat="45.89029" lon="-0.93386">
        <ele>45.883783</ele>
        <time>2022-12-21T15:53:03.338Z</time>
      </trkpt>
      <trkpt lat="45.89022" lon="-0.93396">
        <ele>45.729778</ele>
        <time>2022-12-21T15:53:08.340Z</time>
      </trkpt>
      <trkpt lat="45.89014" lon="-0.93407">
        <ele>45.572442</ele>
        <time>2022-12-21T15:53:12.345Z</time>
      </trkpt>
      <trkpt lat="45.89007" lon="-0.93417">
        <ele>45.426384</ele>
        <time>2022-12-21T15:53:15.359Z</time>
      </trkpt>
      <trkpt lat="45.89001" lon="-0.93429">
        <ele>45.271823</ele>
        <time>2022-12-21T15:53:18.341Z</time>
      </trkpt>
      <trkpt lat="45.88996" lon="-0.9344">
        <ele>45.124129</ele>
        <time>2022-12-21T15:53:21.355Z</time>
      </trkpt>
      <trkpt lat="45.88988" lon="-0.93453">
        <ele>44.956962</ele>
        <time>2022-12-21T15:53:25.337Z</time>
      </trkpt>
      <trkpt lat="45.88982" lon="-0.93463">
        <ele>44.814703</ele>
        <time>2022-12-21T15:53:28.343Z</time>
      </trkpt>
      <trkpt lat="45.88976" lon="-0.93476">
        <ele>44.65079</ele>
        <time>2022-12-21T15:53:31.337Z</time>
      </trkpt>
      <trkpt lat="45.8897" lon="-0.93488">
        <ele>44.520218</ele>
        <time>2022-12-21T15:53:34.342Z</time>
      </trkpt>
      <trkpt lat="45.88964" lon="-0.93499">
        <ele>44.394771</ele>
        <time>2022-12-21T15:53:37.339Z</time>
      </trkpt>
      <trkpt lat="45.88958" lon="-0.9351">
        <ele>44.272103</ele>
        <time>2022-12-21T15:53:40.337Z</time>
      </trkpt>
      <trkpt lat="45.88952" lon="-0.93521">
        <ele>44.14459</ele>
        <time>2022-12-21T15:53:43.335Z</time>
      </trkpt>
      <trkpt lat="45.88945" lon="-0.93531">
        <ele>44.018697</ele>
        <time>2022-12-21T15:53:46.332Z</time>
      </trkpt>
      <trkpt lat="45.88938" lon="-0.93542">
        <ele>43.894705</ele>
        <time>2022-12-21T15:53:49.337Z</time>
      </trkpt>
      <trkpt lat="45.88933" lon="-0.93552">
        <ele>43.775774</ele>
        <time>2022-12-21T15:53:52.336Z</time>
      </trkpt>
      <trkpt lat="45.88927" lon="-0.93564">
        <ele>43.649434</ele>
        <time>2022-12-21T15:53:55.341Z</time>
      </trkpt>
      <trkpt lat="45.88921" lon="-0.93576">
        <ele>43.520345</ele>
        <time>2022-12-21T15:53:58.338Z</time>
      </trkpt>
      <trkpt lat="45.88915" lon="-0.93588">
        <ele>43.388227</ele>
        <time>2022-12-21T15:54:01.349Z</time>
      </trkpt>
      <trkpt lat="45.88909" lon="-0.93599">
        <ele>43.263372</ele>
        <time>2022-12-21T15:54:04.339Z</time>
      </trkpt>
      <trkpt lat="45.88903" lon="-0.93611">
        <ele>43.127749</ele>
        <time>2022-12-21T15:54:07.340Z</time>
      </trkpt>
      <trkpt lat="45.88896" lon="-0.93622">
        <ele>42.992509</ele>
        <time>2022-12-21T15:54:10.341Z</time>
      </trkpt>
      <trkpt lat="45.88889" lon="-0.93635">
        <ele>42.853052</ele>
        <time>2022-12-21T15:54:13.332Z</time>
      </trkpt>
      <trkpt lat="45.88882" lon="-0.93647">
        <ele>42.712808</ele>
        <time>2022-12-21T15:54:16.336Z</time>
      </trkpt>
      <trkpt lat="45.88874" lon="-0.93661">
        <ele>42.556939</ele>
        <time>2022-12-21T15:54:19.349Z</time>
      </trkpt>
      <trkpt lat="45.88867" lon="-0.93671">
        <ele>42.430316</ele>
        <time>2022-12-21T15:54:22.337Z</time>
      </trkpt>
      <trkpt lat="45.8886" lon="-0.93683">
        <ele>42.338434</ele>
        <time>2022-12-21T15:54:26.342Z</time>
      </trkpt>
      <trkpt lat="45.88853" lon="-0.93693">
        <ele>42.31695</ele>
        <time>2022-12-21T15:54:29.333Z</time>
      </trkpt>
      <trkpt lat="45.88846" lon="-0.93703">
        <ele>42.294438</ele>
        <time>2022-12-21T15:54:32.329Z</time>
      </trkpt>
      <trkpt lat="45.88838" lon="-0.93712">
        <ele>42.271274</ele>
        <time>2022-12-21T15:54:35.357Z</time>
      </trkpt>
      <trkpt lat="45.88829" lon="-0.93725">
        <ele>42.242867</ele>
        <time>2022-12-21T15:54:39.335Z</time>
      </trkpt>
      <trkpt lat="45.88821" lon="-0.93734">
        <ele>42.218801</ele>
        <time>2022-12-21T15:54:42.340Z</time>
      </trkpt>
      <trkpt lat="45.88813" lon="-0.93744">
        <ele>42.193727</ele>
        <time>2022-12-21T15:54:45.347Z</time>
      </trkpt>
      <trkpt lat="45.88804" lon="-0.93754">
        <ele>42.168773</ele>
        <time>2022-12-21T15:54:48.346Z</time>
      </trkpt>
      <trkpt lat="45.88795" lon="-0.93763">
        <ele>42.144028</ele>
        <time>2022-12-21T15:54:51.368Z</time>
      </trkpt>
      <trkpt lat="45.88786" lon="-0.93773">
        <ele>42.117976</ele>
        <time>2022-12-21T15:54:54.351Z</time>
      </trkpt>
      <trkpt lat="45.88777" lon="-0.93782">
        <ele>42.092926</ele>
        <time>2022-12-21T15:54:57.344Z</time>
      </trkpt>
      <trkpt lat="45.88767" lon="-0.9379">
        <ele>42.066291</ele>
        <time>2022-12-21T15:55:00.352Z</time>
      </trkpt>
      <trkpt lat="45.88759" lon="-0.93797">
        <ele>42.045704</ele>
        <time>2022-12-21T15:55:03.343Z</time>
      </trkpt>
      <trkpt lat="45.88749" lon="-0.93806">
        <ele>42.019218</ele>
        <time>2022-12-21T15:55:07.344Z</time>
      </trkpt>
      <trkpt lat="45.8874" lon="-0.93816">
        <ele>41.992321</ele>
        <time>2022-12-21T15:55:11.353Z</time>
      </trkpt>
      <trkpt lat="45.88731" lon="-0.93825">
        <ele>41.966627</ele>
        <time>2022-12-21T15:55:15.338Z</time>
      </trkpt>
      <trkpt lat="45.88721" lon="-0.93835">
        <ele>41.940304</ele>
        <time>2022-12-21T15:55:19.338Z</time>
      </trkpt>
      <trkpt lat="45.88712" lon="-0.93845">
        <ele>41.962708</ele>
        <time>2022-12-21T15:55:23.339Z</time>
      </trkpt>
      <trkpt lat="45.88704" lon="-0.93852">
        <ele>41.980031</ele>
        <time>2022-12-21T15:55:26.339Z</time>
      </trkpt>
      <trkpt lat="45.88694" lon="-0.93862">
        <ele>42.002978</ele>
        <time>2022-12-21T15:55:30.334Z</time>
      </trkpt>
      <trkpt lat="45.88685" lon="-0.9387">
        <ele>42.02265</ele>
        <time>2022-12-21T15:55:33.333Z</time>
      </trkpt>
      <trkpt lat="45.88677" lon="-0.93877">
        <ele>42.041237</ele>
        <time>2022-12-21T15:55:36.351Z</time>
      </trkpt>
      <trkpt lat="45.88668" lon="-0.93886">
        <ele>42.060795</ele>
        <time>2022-12-21T15:55:39.333Z</time>
      </trkpt>
      <trkpt lat="45.8866" lon="-0.93894">
        <ele>42.080971</ele>
        <time>2022-12-21T15:55:42.341Z</time>
      </trkpt>
      <trkpt lat="45.8865" lon="-0.93904">
        <ele>42.103856</ele>
        <time>2022-12-21T15:55:45.357Z</time>
      </trkpt>
      <trkpt lat="45.8864" lon="-0.93913">
        <ele>42.126048</ele>
        <time>2022-12-21T15:55:48.335Z</time>
      </trkpt>
      <trkpt lat="45.88631" lon="-0.93921">
        <ele>42.145919</ele>
        <time>2022-12-21T15:55:51.335Z</time>
      </trkpt>
      <trkpt lat="45.88622" lon="-0.9393">
        <ele>42.166496</ele>
        <time>2022-12-21T15:55:54.348Z</time>
      </trkpt>
      <trkpt lat="45.88613" lon="-0.93939">
        <ele>42.187752</ele>
        <time>2022-12-21T15:55:57.339Z</time>
      </trkpt>
      <trkpt lat="45.88603" lon="-0.93947">
        <ele>42.20913</ele>
        <time>2022-12-21T15:56:00.345Z</time>
      </trkpt>
      <trkpt lat="45.88594" lon="-0.93956">
        <ele>42.230416</ele>
        <time>2022-12-21T15:56:03.337Z</time>
      </trkpt>
      <trkpt lat="45.88584" lon="-0.93964">
        <ele>42.250504</ele>
        <time>2022-12-21T15:56:06.354Z</time>
      </trkpt>
      <trkpt lat="45.88575" lon="-0.93973">
        <ele>42.271754</ele>
        <time>2022-12-21T15:56:09.343Z</time>
      </trkpt>
      <trkpt lat="45.88566" lon="-0.93982">
        <ele>42.308784</ele>
        <time>2022-12-21T15:56:12.341Z</time>
      </trkpt>
      <trkpt lat="45.88557" lon="-0.93991">
        <ele>42.352088</ele>
        <time>2022-12-21T15:56:15.350Z</time>
      </trkpt>
      <trkpt lat="45.88548" lon="-0.93999">
        <ele>42.396058</ele>
        <time>2022-12-21T15:56:18.342Z</time>
      </trkpt>
      <trkpt lat="45.88539" lon="-0.94008">
        <ele>42.440189</ele>
        <time>2022-12-21T15:56:21.355Z</time>
      </trkpt>
      <trkpt lat="45.8853" lon="-0.94016">
        <ele>42.485701</ele>
        <time>2022-12-21T15:56:24.357Z</time>
      </trkpt>
      <trkpt lat="45.88522" lon="-0.94024">
        <ele>42.526864</ele>
        <time>2022-12-21T15:56:27.352Z</time>
      </trkpt>
      <trkpt lat="45.88514" lon="-0.94032">
        <ele>42.565087</ele>
        <time>2022-12-21T15:56:30.344Z</time>
      </trkpt>
      <trkpt lat="45.88506" lon="-0.94038">
        <ele>42.604564</ele>
        <time>2022-12-21T15:56:33.358Z</time>
      </trkpt>
      <trkpt lat="45.88498" lon="-0.94046">
        <ele>42.645146</ele>
        <time>2022-12-21T15:56:36.354Z</time>
      </trkpt>
      <trkpt lat="45.88489" lon="-0.94054">
        <ele>42.687013</ele>
        <time>2022-12-21T15:56:39.353Z</time>
      </trkpt>
      <trkpt lat="45.88481" lon="-0.94061">
        <ele>42.727928</ele>
        <time>2022-12-21T15:56:42.338Z</time>
      </trkpt>
      <trkpt lat="45.88472" lon="-0.9407">
        <ele>42.770866</ele>
        <time>2022-12-21T15:56:45.358Z</time>
      </trkpt>
      <trkpt lat="45.88464" lon="-0.94078">
        <ele>42.811645</ele>
        <time>2022-12-21T15:56:48.357Z</time>
      </trkpt>
      <trkpt lat="45.88455" lon="-0.94086">
        <ele>42.855615</ele>
        <time>2022-12-21T15:56:51.365Z</time>
      </trkpt>
      <trkpt lat="45.88447" lon="-0.94094">
        <ele>42.895225</ele>
        <time>2022-12-21T15:56:54.360Z</time>
      </trkpt>
      <trkpt lat="45.88438" lon="-0.94103">
        <ele>42.944273</ele>
        <time>2022-12-21T15:56:58.356Z</time>
      </trkpt>
      <trkpt lat="45.8843" lon="-0.9411">
        <ele>42.982255</ele>
        <time>2022-12-21T15:57:01.357Z</time>
      </trkpt>
      <trkpt lat="45.88422" lon="-0.94117">
        <ele>43.021659</ele>
        <time>2022-12-21T15:57:04.356Z</time>
      </trkpt>
      <trkpt lat="45.88413" lon="-0.94124">
        <ele>43.032658</ele>
        <time>2022-12-21T15:57:07.334Z</time>
      </trkpt>
      <trkpt lat="45.88404" lon="-0.94132">
        <ele>43.03928</ele>
        <time>2022-12-21T15:57:10.357Z</time>
      </trkpt>
      <trkpt lat="45.88396" lon="-0.94141">
        <ele>43.045779</ele>
        <time>2022-12-21T15:57:13.352Z</time>
      </trkpt>
      <trkpt lat="45.88387" lon="-0.9415">
        <ele>43.052911</ele>
        <time>2022-12-21T15:57:16.356Z</time>
      </trkpt>
      <trkpt lat="45.88378" lon="-0.94159">
        <ele>43.060201</ele>
        <time>2022-12-21T15:57:19.341Z</time>
      </trkpt>
      <trkpt lat="45.88369" lon="-0.94168">
        <ele>43.067364</ele>
        <time>2022-12-21T15:57:22.347Z</time>
      </trkpt>
      <trkpt lat="45.88361" lon="-0.94175">
        <ele>43.073749</ele>
        <time>2022-12-21T15:57:25.358Z</time>
      </trkpt>
      <trkpt lat="45.88352" lon="-0.94183">
        <ele>43.080522</ele>
        <time>2022-12-21T15:57:28.328Z</time>
      </trkpt>
      <trkpt lat="45.88343" lon="-0.94192">
        <ele>43.087761</ele>
        <time>2022-12-21T15:57:31.346Z</time>
      </trkpt>
      <trkpt lat="45.88334" lon="-0.942">
        <ele>43.094487</ele>
        <time>2022-12-21T15:57:34.336Z</time>
      </trkpt>
      <trkpt lat="45.88325" lon="-0.94207">
        <ele>43.100825</ele>
        <time>2022-12-21T15:57:37.333Z</time>
      </trkpt>
      <trkpt lat="45.88318" lon="-0.94214">
        <ele>43.106831</ele>
        <time>2022-12-21T15:57:40.348Z</time>
      </trkpt>
      <trkpt lat="45.8831" lon="-0.94223">
        <ele>43.11336</ele>
        <time>2022-12-21T15:57:44.357Z</time>
      </trkpt>
      <trkpt lat="45.88302" lon="-0.94231">
        <ele>43.119707</ele>
        <time>2022-12-21T15:57:48.338Z</time>
      </trkpt>
      <trkpt lat="45.88293" lon="-0.94239">
        <ele>43.126681</ele>
        <time>2022-12-21T15:57:52.336Z</time>
      </trkpt>
      <trkpt lat="45.88283" lon="-0.94248">
        <ele>43.134028</ele>
        <time>2022-12-21T15:57:56.339Z</time>
      </trkpt>
      <trkpt lat="45.88276" lon="-0.94255">
        <ele>43.139954</ele>
        <time>2022-12-21T15:57:59.330Z</time>
      </trkpt>
      <trkpt lat="45.88267" lon="-0.94263">
        <ele>43.145895</ele>
        <time>2022-12-21T15:58:02.337Z</time>
      </trkpt>
      <trkpt lat="45.8826" lon="-0.94271">
        <ele>43.15108</ele>
        <time>2022-12-21T15:58:05.333Z</time>
      </trkpt>
      <trkpt lat="45.88251" lon="-0.94279">
        <ele>43.156731</ele>
        <time>2022-12-21T15:58:08.328Z</time>
      </trkpt>
      <trkpt lat="45.88242" lon="-0.94287">
        <ele>43.162424</ele>
        <time>2022-12-21T15:58:11.334Z</time>
      </trkpt>
      <trkpt lat="45.88233" lon="-0.94296">
        <ele>43.168535</ele>
        <time>2022-12-21T15:58:14.358Z</time>
      </trkpt>
      <trkpt lat="45.88224" lon="-0.94305">
        <ele>43.174602</ele>
        <time>2022-12-21T15:58:17.335Z</time>
      </trkpt>
      <trkpt lat="45.88215" lon="-0.94314">
        <ele>43.180602</ele>
        <time>2022-12-21T15:58:20.329Z</time>
      </trkpt>
      <trkpt lat="45.88205" lon="-0.94323">
        <ele>43.186477</ele>
        <time>2022-12-21T15:58:23.329Z</time>
      </trkpt>
      <trkpt lat="45.88196" lon="-0.94331">
        <ele>43.192438</ele>
        <time>2022-12-21T15:58:26.337Z</time>
      </trkpt>
      <trkpt lat="45.88187" lon="-0.94339">
        <ele>43.198206</ele>
        <time>2022-12-21T15:58:29.331Z</time>
      </trkpt>
      <trkpt lat="45.88178" lon="-0.94349">
        <ele>43.204227</ele>
        <time>2022-12-21T15:58:32.337Z</time>
      </trkpt>
      <trkpt lat="45.8817" lon="-0.94356">
        <ele>43.209329</ele>
        <time>2022-12-21T15:58:35.335Z</time>
      </trkpt>
      <trkpt lat="45.88161" lon="-0.94364">
        <ele>43.215071</ele>
        <time>2022-12-21T15:58:38.332Z</time>
      </trkpt>
      <trkpt lat="45.88153" lon="-0.94372">
        <ele>43.220773</ele>
        <time>2022-12-21T15:58:41.335Z</time>
      </trkpt>
      <trkpt lat="45.88143" lon="-0.94381">
        <ele>43.226951</ele>
        <time>2022-12-21T15:58:44.338Z</time>
      </trkpt>
      <trkpt lat="45.88135" lon="-0.94389">
        <ele>43.232334</ele>
        <time>2022-12-21T15:58:47.334Z</time>
      </trkpt>
      <trkpt lat="45.88127" lon="-0.94396">
        <ele>43.237329</ele>
        <time>2022-12-21T15:58:50.345Z</time>
      </trkpt>
      <trkpt lat="45.88118" lon="-0.94404">
        <ele>43.228707</ele>
        <time>2022-12-21T15:58:53.326Z</time>
      </trkpt>
      <trkpt lat="45.8811" lon="-0.94413">
        <ele>43.172649</ele>
        <time>2022-12-21T15:58:56.331Z</time>
      </trkpt>
      <trkpt lat="45.88101" lon="-0.94421">
        <ele>43.120633</ele>
        <time>2022-12-21T15:58:59.346Z</time>
      </trkpt>
      <trkpt lat="45.88092" lon="-0.9443">
        <ele>43.063428</ele>
        <time>2022-12-21T15:59:02.342Z</time>
      </trkpt>
      <trkpt lat="45.88083" lon="-0.94438">
        <ele>43.006224</ele>
        <time>2022-12-21T15:59:05.338Z</time>
      </trkpt>
      <trkpt lat="45.88074" lon="-0.94446">
        <ele>42.951769</ele>
        <time>2022-12-21T15:59:08.334Z</time>
      </trkpt>
      <trkpt lat="45.88065" lon="-0.94454">
        <ele>42.89635</ele>
        <time>2022-12-21T15:59:11.351Z</time>
      </trkpt>
      <trkpt lat="45.88056" lon="-0.94463">
        <ele>42.838987</ele>
        <time>2022-12-21T15:59:14.340Z</time>
      </trkpt>
      <trkpt lat="45.88048" lon="-0.94472">
        <ele>42.784639</ele>
        <time>2022-12-21T15:59:17.351Z</time>
      </trkpt>
      <trkpt lat="45.88039" lon="-0.94479">
        <ele>42.730822</ele>
        <time>2022-12-21T15:59:21.357Z</time>
      </trkpt>
      <trkpt lat="45.8803" lon="-0.94488">
        <ele>42.67356</ele>
        <time>2022-12-21T15:59:25.347Z</time>
      </trkpt>
      <trkpt lat="45.88022" lon="-0.94495">
        <ele>42.623574</ele>
        <time>2022-12-21T15:59:28.339Z</time>
      </trkpt>
      <trkpt lat="45.88013" lon="-0.94503">
        <ele>42.567926</ele>
        <time>2022-12-21T15:59:31.349Z</time>
      </trkpt>
      <trkpt lat="45.88004" lon="-0.94512">
        <ele>42.511868</ele>
        <time>2022-12-21T15:59:34.342Z</time>
      </trkpt>
      <trkpt lat="45.87995" lon="-0.9452">
        <ele>42.456709</ele>
        <time>2022-12-21T15:59:37.341Z</time>
      </trkpt>
      <trkpt lat="45.87986" lon="-0.94528">
        <ele>42.398422</ele>
        <time>2022-12-21T15:59:40.339Z</time>
      </trkpt>
      <trkpt lat="45.87976" lon="-0.94537">
        <ele>42.339373</ele>
        <time>2022-12-21T15:59:43.354Z</time>
      </trkpt>
      <trkpt lat="45.87968" lon="-0.94545">
        <ele>42.301615</ele>
        <time>2022-12-21T15:59:46.342Z</time>
      </trkpt>
      <trkpt lat="45.8796" lon="-0.94552">
        <ele>42.318649</ele>
        <time>2022-12-21T15:59:49.341Z</time>
      </trkpt>
      <trkpt lat="45.87951" lon="-0.94561">
        <ele>42.336415</ele>
        <time>2022-12-21T15:59:52.355Z</time>
      </trkpt>
      <trkpt lat="45.87943" lon="-0.94568">
        <ele>42.354178</ele>
        <time>2022-12-21T15:59:55.353Z</time>
      </trkpt>
      <trkpt lat="45.87927" lon="-0.94582">
        <ele>42.386312</ele>
        <time>2022-12-21T16:00:23.343Z</time>
      </trkpt>
      <trkpt lat="45.87919" lon="-0.94591">
        <ele>42.403866</ele>
        <time>2022-12-21T16:00:27.354Z</time>
      </trkpt>
      <trkpt lat="45.8791" lon="-0.94601">
        <ele>42.424199</ele>
        <time>2022-12-21T16:00:31.356Z</time>
      </trkpt>
      <trkpt lat="45.879" lon="-0.9461">
        <ele>42.444889</ele>
        <time>2022-12-21T16:00:35.355Z</time>
      </trkpt>
      <trkpt lat="45.87892" lon="-0.94619">
        <ele>42.461869</ele>
        <time>2022-12-21T16:00:38.343Z</time>
      </trkpt>
      <trkpt lat="45.87885" lon="-0.94628">
        <ele>42.479507</ele>
        <time>2022-12-21T16:00:41.350Z</time>
      </trkpt>
      <trkpt lat="45.87878" lon="-0.94636">
        <ele>42.495929</ele>
        <time>2022-12-21T16:00:44.356Z</time>
      </trkpt>
      <trkpt lat="45.8787" lon="-0.94646">
        <ele>42.514134</ele>
        <time>2022-12-21T16:00:47.356Z</time>
      </trkpt>
      <trkpt lat="45.87862" lon="-0.94656">
        <ele>42.532406</ele>
        <time>2022-12-21T16:00:50.338Z</time>
      </trkpt>
      <trkpt lat="45.87854" lon="-0.94667">
        <ele>42.550937</ele>
        <time>2022-12-21T16:00:53.344Z</time>
      </trkpt>
      <trkpt lat="45.87847" lon="-0.94677">
        <ele>42.568927</ele>
        <time>2022-12-21T16:00:56.334Z</time>
      </trkpt>
      <trkpt lat="45.8784" lon="-0.94688">
        <ele>42.587094</ele>
        <time>2022-12-21T16:00:59.336Z</time>
      </trkpt>
      <trkpt lat="45.87833" lon="-0.94698">
        <ele>42.604245</ele>
        <time>2022-12-21T16:01:02.334Z</time>
      </trkpt>
      <trkpt lat="45.87827" lon="-0.9471">
        <ele>42.889122</ele>
        <time>2022-12-21T16:01:06.353Z</time>
      </trkpt>
      <trkpt lat="45.87822" lon="-0.94723">
        <ele>43.395279</ele>
        <time>2022-12-21T16:01:11.365Z</time>
      </trkpt>
      <trkpt lat="45.87814" lon="-0.94732">
        <ele>43.910558</ele>
        <time>2022-12-21T16:01:19.338Z</time>
      </trkpt>
      <trkpt lat="45.8781" lon="-0.94716">
        <ele>44.508756</ele>
        <time>2022-12-21T16:02:06.346Z</time>
      </trkpt>
      <trkpt lat="45.87811" lon="-0.94702">
        <ele>45.020413</ele>
        <time>2022-12-21T16:02:10.335Z</time>
      </trkpt>
      <trkpt lat="45.87812" lon="-0.94687">
        <ele>45.554675</ele>
        <time>2022-12-21T16:02:15.346Z</time>
      </trkpt>
      <trkpt lat="45.87813" lon="-0.94673">
        <ele>46.065063</ele>
        <time>2022-12-21T16:02:20.338Z</time>
      </trkpt>
      <trkpt lat="45.87816" lon="-0.9466">
        <ele>46.565055</ele>
        <time>2022-12-21T16:02:25.345Z</time>
      </trkpt>
      <trkpt lat="45.87819" lon="-0.94647">
        <ele>47.077348</ele>
        <time>2022-12-21T16:02:30.348Z</time>
      </trkpt>
      <trkpt lat="45.87821" lon="-0.94633">
        <ele>47.590256</ele>
        <time>2022-12-21T16:02:35.350Z</time>
      </trkpt>
      <trkpt lat="45.87817" lon="-0.94618">
        <ele>48.157773</ele>
        <time>2022-12-21T16:02:40.352Z</time>
      </trkpt>
      <trkpt lat="45.87811" lon="-0.94607">
        <ele>48.653293</ele>
        <time>2022-12-21T16:02:45.349Z</time>
      </trkpt>
      <trkpt lat="45.87804" lon="-0.94597">
        <ele>49.186972</ele>
        <time>2022-12-21T16:02:51.345Z</time>
      </trkpt>
      <trkpt lat="45.87796" lon="-0.94588">
        <ele>49.737239</ele>
        <time>2022-12-21T16:02:57.350Z</time>
      </trkpt>
      <trkpt lat="45.87787" lon="-0.9458">
        <ele>50.24815</ele>
        <time>2022-12-21T16:03:02.334Z</time>
      </trkpt>
      <trkpt lat="45.87778" lon="-0.94574">
        <ele>50.775672</ele>
        <time>2022-12-21T16:03:08.357Z</time>
      </trkpt>
      <trkpt lat="45.8777" lon="-0.94568">
        <ele>51.269056</ele>
        <time>2022-12-21T16:03:13.346Z</time>
      </trkpt>
      <trkpt lat="45.87759" lon="-0.94566">
        <ele>51.800431</ele>
        <time>2022-12-21T16:03:18.341Z</time>
      </trkpt>
      <trkpt lat="45.8775" lon="-0.94569">
        <ele>51.912472</ele>
        <time>2022-12-21T16:03:22.346Z</time>
      </trkpt>
      <trkpt lat="45.87743" lon="-0.94583">
        <ele>51.848833</ele>
        <time>2022-12-21T16:03:26.340Z</time>
      </trkpt>
      <trkpt lat="45.87738" lon="-0.94595">
        <ele>51.796622</ele>
        <time>2022-12-21T16:03:29.361Z</time>
      </trkpt>
      <trkpt lat="45.87735" lon="-0.94607">
        <ele>51.74715</ele>
        <time>2022-12-21T16:03:32.336Z</time>
      </trkpt>
      <trkpt lat="45.87729" lon="-0.94621">
        <ele>51.689437</ele>
        <time>2022-12-21T16:03:36.352Z</time>
      </trkpt>
      <trkpt lat="45.87722" lon="-0.94633">
        <ele>51.630868</ele>
        <time>2022-12-21T16:03:40.362Z</time>
      </trkpt>
      <trkpt lat="45.87716" lon="-0.94646">
        <ele>51.571061</ele>
        <time>2022-12-21T16:03:44.362Z</time>
      </trkpt>
      <trkpt lat="45.87711" lon="-0.94658">
        <ele>51.518855</ele>
        <time>2022-12-21T16:03:47.341Z</time>
      </trkpt>
      <trkpt lat="45.87702" lon="-0.94668">
        <ele>51.458442</ele>
        <time>2022-12-21T16:03:51.343Z</time>
      </trkpt>
      <trkpt lat="45.87691" lon="-0.94667">
        <ele>51.398029</ele>
        <time>2022-12-21T16:03:55.341Z</time>
      </trkpt>
      <trkpt lat="45.8768" lon="-0.94659">
        <ele>51.336319</ele>
        <time>2022-12-21T16:03:59.338Z</time>
      </trkpt>
      <trkpt lat="45.87673" lon="-0.94652">
        <ele>51.287304</ele>
        <time>2022-12-21T16:04:03.343Z</time>
      </trkpt>
      <trkpt lat="45.87662" lon="-0.94648">
        <ele>51.22982</ele>
        <time>2022-12-21T16:04:07.337Z</time>
      </trkpt>
      <trkpt lat="45.87651" lon="-0.94642">
        <ele>51.168373</ele>
        <time>2022-12-21T16:04:11.355Z</time>
      </trkpt>
      <trkpt lat="45.8764" lon="-0.94638">
        <ele>51.105268</ele>
        <time>2022-12-21T16:04:15.337Z</time>
      </trkpt>
      <trkpt lat="45.87631" lon="-0.94634">
        <ele>51.055787</ele>
        <time>2022-12-21T16:04:18.337Z</time>
      </trkpt>
      <trkpt lat="45.87621" lon="-0.94629">
        <ele>50.998303</ele>
        <time>2022-12-21T16:04:22.363Z</time>
      </trkpt>
      <trkpt lat="45.87611" lon="-0.94624">
        <ele>51.109378</ele>
        <time>2022-12-21T16:04:26.337Z</time>
      </trkpt>
      <trkpt lat="45.87601" lon="-0.9462">
        <ele>51.231485</ele>
        <time>2022-12-21T16:04:29.365Z</time>
      </trkpt>
      <trkpt lat="45.87592" lon="-0.94615">
        <ele>51.36336</ele>
        <time>2022-12-21T16:04:33.340Z</time>
      </trkpt>
      <trkpt lat="45.87582" lon="-0.94611">
        <ele>51.490811</ele>
        <time>2022-12-21T16:04:37.365Z</time>
      </trkpt>
      <trkpt lat="45.87572" lon="-0.94606">
        <ele>51.625482</ele>
        <time>2022-12-21T16:04:41.354Z</time>
      </trkpt>
      <trkpt lat="45.87562" lon="-0.94603">
        <ele>51.747406</ele>
        <time>2022-12-21T16:04:46.361Z</time>
      </trkpt>
      <trkpt lat="45.87555" lon="-0.94593">
        <ele>51.869878</ele>
        <time>2022-12-21T16:04:50.362Z</time>
      </trkpt>
      <trkpt lat="45.87547" lon="-0.94582">
        <ele>52.0133</ele>
        <time>2022-12-21T16:04:54.352Z</time>
      </trkpt>
      <trkpt lat="45.8754" lon="-0.94571">
        <ele>52.151121</ele>
        <time>2022-12-21T16:04:58.363Z</time>
      </trkpt>
      <trkpt lat="45.87532" lon="-0.94559">
        <ele>52.291954</ele>
        <time>2022-12-21T16:05:02.343Z</time>
      </trkpt>
      <trkpt lat="45.87524" lon="-0.94546">
        <ele>52.443145</ele>
        <time>2022-12-21T16:05:06.345Z</time>
      </trkpt>
      <trkpt lat="45.87517" lon="-0.94536">
        <ele>52.57323</ele>
        <time>2022-12-21T16:05:09.363Z</time>
      </trkpt>
      <trkpt lat="45.87511" lon="-0.94525">
        <ele>52.696231</ele>
        <time>2022-12-21T16:05:12.339Z</time>
      </trkpt>
      <trkpt lat="45.87505" lon="-0.94514">
        <ele>52.819117</ele>
        <time>2022-12-21T16:05:15.360Z</time>
      </trkpt>
      <trkpt lat="45.87498" lon="-0.94503">
        <ele>52.949539</ele>
        <time>2022-12-21T16:05:18.358Z</time>
      </trkpt>
      <trkpt lat="45.87492" lon="-0.94492">
        <ele>53.070264</ele>
        <time>2022-12-21T16:05:21.342Z</time>
      </trkpt>
      <trkpt lat="45.87485" lon="-0.94481">
        <ele>53.196375</ele>
        <time>2022-12-21T16:05:24.336Z</time>
      </trkpt>
      <trkpt lat="45.87479" lon="-0.9447">
        <ele>53.332584</ele>
        <time>2022-12-21T16:05:27.342Z</time>
      </trkpt>
      <trkpt lat="45.87472" lon="-0.94457">
        <ele>53.475378</ele>
        <time>2022-12-21T16:05:30.338Z</time>
      </trkpt>
      <trkpt lat="45.87466" lon="-0.94444">
        <ele>53.624267</ele>
        <time>2022-12-21T16:05:33.339Z</time>
      </trkpt>
      <trkpt lat="45.8746" lon="-0.94432">
        <ele>53.769331</ele>
        <time>2022-12-21T16:05:36.348Z</time>
      </trkpt>
      <trkpt lat="45.87454" lon="-0.94419">
        <ele>53.90682</ele>
        <time>2022-12-21T16:05:39.338Z</time>
      </trkpt>
      <trkpt lat="45.87446" lon="-0.94407">
        <ele>54.06331</ele>
        <time>2022-12-21T16:05:43.352Z</time>
      </trkpt>
      <trkpt lat="45.87441" lon="-0.94397">
        <ele>54.184569</ele>
        <time>2022-12-21T16:05:46.341Z</time>
      </trkpt>
      <trkpt lat="45.87435" lon="-0.94384">
        <ele>54.323486</ele>
        <time>2022-12-21T16:05:49.357Z</time>
      </trkpt>
      <trkpt lat="45.87428" lon="-0.94371">
        <ele>54.477745</ele>
        <time>2022-12-21T16:05:52.334Z</time>
      </trkpt>
      <trkpt lat="45.87421" lon="-0.94357">
        <ele>54.63842</ele>
        <time>2022-12-21T16:05:55.343Z</time>
      </trkpt>
      <trkpt lat="45.87414" lon="-0.94344">
        <ele>54.799008</ele>
        <time>2022-12-21T16:05:58.356Z</time>
      </trkpt>
      <trkpt lat="45.87406" lon="-0.94331">
        <ele>54.95689</ele>
        <time>2022-12-21T16:06:01.336Z</time>
      </trkpt>
      <trkpt lat="45.874" lon="-0.94319">
        <ele>55.093731</ele>
        <time>2022-12-21T16:06:04.348Z</time>
      </trkpt>
      <trkpt lat="45.87393" lon="-0.94307">
        <ele>55.243455</ele>
        <time>2022-12-21T16:06:08.348Z</time>
      </trkpt>
      <trkpt lat="45.87386" lon="-0.94295">
        <ele>55.39016</ele>
        <time>2022-12-21T16:06:12.338Z</time>
      </trkpt>
      <trkpt lat="45.87378" lon="-0.94283">
        <ele>55.544148</ele>
        <time>2022-12-21T16:06:16.345Z</time>
      </trkpt>
      <trkpt lat="45.8737" lon="-0.9427">
        <ele>55.677161</ele>
        <time>2022-12-21T16:06:20.345Z</time>
      </trkpt>
      <trkpt lat="45.8736" lon="-0.94264">
        <ele>55.677161</ele>
        <time>2022-12-21T16:06:24.332Z</time>
      </trkpt>
      <trkpt lat="45.87351" lon="-0.94273">
        <ele>55.677161</ele>
        <time>2022-12-21T16:06:28.350Z</time>
      </trkpt>
      <trkpt lat="45.87344" lon="-0.94283">
        <ele>55.677161</ele>
        <time>2022-12-21T16:06:31.341Z</time>
      </trkpt>
      <trkpt lat="45.87337" lon="-0.94292">
        <ele>55.677161</ele>
        <time>2022-12-21T16:06:34.346Z</time>
      </trkpt>
      <trkpt lat="45.8733" lon="-0.94301">
        <ele>55.677161</ele>
        <time>2022-12-21T16:06:37.337Z</time>
      </trkpt>
      <trkpt lat="45.8732" lon="-0.9431">
        <ele>55.677161</ele>
        <time>2022-12-21T16:06:41.345Z</time>
      </trkpt>
      <trkpt lat="45.87311" lon="-0.94314">
        <ele>55.677161</ele>
        <time>2022-12-21T16:06:46.342Z</time>
      </trkpt>
      <trkpt lat="45.87299" lon="-0.94297">
        <ele>55.677161</ele>
        <time>2022-12-21T16:08:22.367Z</time>
      </trkpt>
      <trkpt lat="45.87292" lon="-0.94287">
        <ele>55.677161</ele>
        <time>2022-12-21T16:08:26.345Z</time>
      </trkpt>
      <trkpt lat="45.87284" lon="-0.94275">
        <ele>55.677161</ele>
        <time>2022-12-21T16:08:30.337Z</time>
      </trkpt>
      <trkpt lat="45.87277" lon="-0.94265">
        <ele>55.677161</ele>
        <time>2022-12-21T16:08:33.343Z</time>
      </trkpt>
      <trkpt lat="45.8727" lon="-0.94257">
        <ele>55.677161</ele>
        <time>2022-12-21T16:08:36.337Z</time>
      </trkpt>
      <trkpt lat="45.87263" lon="-0.94248">
        <ele>55.677161</ele>
        <time>2022-12-21T16:08:39.350Z</time>
      </trkpt>
      <trkpt lat="45.87255" lon="-0.94238">
        <ele>55.677161</ele>
        <time>2022-12-21T16:08:43.362Z</time>
      </trkpt>
      <trkpt lat="45.87246" lon="-0.94229">
        <ele>55.677161</ele>
        <time>2022-12-21T16:08:47.338Z</time>
      </trkpt>
      <trkpt lat="45.87237" lon="-0.9422">
        <ele>55.677161</ele>
        <time>2022-12-21T16:08:52.348Z</time>
      </trkpt>
      <trkpt lat="45.8723" lon="-0.94211">
        <ele>55.677161</ele>
        <time>2022-12-21T16:08:56.338Z</time>
      </trkpt>
      <trkpt lat="45.87221" lon="-0.94203">
        <ele>55.677161</ele>
        <time>2022-12-21T16:09:01.345Z</time>
      </trkpt>
      <trkpt lat="45.87212" lon="-0.942">
        <ele>55.677161</ele>
        <time>2022-12-21T16:09:10.331Z</time>
      </trkpt>
      <trkpt lat="45.87206" lon="-0.94204">
        <ele>55.677161</ele>
        <time>2022-12-21T16:09:38.180Z</time>
        <extensions>
          <visugpx:TrkExtension xmlns:visugpx="https://www.visugpx.com/editgpx/">
            <visugpx:node>1</visugpx:node>
            </visugpx:TrkExtension>
        </extensions>
      </trkpt>
    </trkseg>
  </trk>
</gpx>